<?xml version='1.0' encoding='UTF-8'?><gpx version="1.1" creator="JPX - https://github.com/jenetics/jpx" xmlns="http://www.topografix.com/GPX/1/1"><trk><trkseg><trkpt lat="37.80293556807993" lon="15.201215738851403"><ele>109.99999999999999</ele><time>2026-04-09T07:30:37.999Z</time></trkpt><trkpt lat="37.80298663828808" lon="15.201263218687759"><ele>110.0</ele><time>2026-04-09T07:30:51.999Z</time></trkpt><trkpt lat="37.80292048568426" lon="15.201239877913789"><ele>110.0</ele><time>2026-04-09T07:37:58Z</time></trkpt><trkpt lat="37.80296543052116" lon="15.201172880732125"><ele>110.0</ele><time>2026-04-09T07:48:47.999Z</time></trkpt><trkpt lat="37.80295607427916" lon="15.201077821737194"><ele>109.99999999999999</ele><time>2026-04-09T07:48:52.999Z</time></trkpt><trkpt lat="37.80294139090609" lon="15.200950656444574"><ele>110.0</ele><time>2026-04-09T07:48:55.999Z</time></trkpt><trkpt lat="37.80292544428169" lon="15.200804840061547"><ele>109.99999999999999</ele><time>2026-04-09T07:48:57.999Z</time></trkpt><trkpt lat="37.802918328944884" lon="15.200711040683831"><ele>110.0</ele><time>2026-04-09T07:48:58.999Z</time></trkpt><trkpt lat="37.802902437479325" lon="15.200614138578034"><ele>110.0</ele><time>2026-04-09T07:48:59.999Z</time></trkpt><trkpt lat="37.80291249593098" lon="15.200511422878861"><ele>110.0</ele><time>2026-04-09T07:49:00.999Z</time></trkpt><trkpt lat="37.80289860649653" lon="15.200412973920466"><ele>109.99999999999999</ele><time>2026-04-09T07:49:01.999Z</time></trkpt><trkpt lat="37.80289376678007" lon="15.20031884185429"><ele>110.0</ele><time>2026-04-09T07:49:02.999Z</time></trkpt><trkpt lat="37.80290542904329" lon="15.200224883449476"><ele>110.66666666666666</ele><time>2026-04-09T07:49:03.999Z</time></trkpt><trkpt lat="37.802936462393106" lon="15.200149396163827"><ele>111.33333333333333</ele><time>2026-04-09T07:49:04.999Z</time></trkpt><trkpt lat="37.802971193082165" lon="15.200061992437933"><ele>112.0</ele><time>2026-04-09T07:49:05.999Z</time></trkpt><trkpt lat="37.80302554289187" lon="15.199988516184785"><ele>112.66666666666666</ele><time>2026-04-09T07:49:06.999Z</time></trkpt><trkpt lat="37.80308850114436" lon="15.199920404255467"><ele>113.33333333333333</ele><time>2026-04-09T07:49:07.999Z</time></trkpt><trkpt lat="37.80315558329743" lon="15.199856831809155"><ele>114.0</ele><time>2026-04-09T07:49:08.999Z</time></trkpt><trkpt lat="37.80323148124372" lon="15.19980102578034"><ele>114.33333333333333</ele><time>2026-04-09T07:49:09.999Z</time></trkpt><trkpt lat="37.80331410985247" lon="15.199766546394308"><ele>114.66666666666666</ele><time>2026-04-09T07:49:10.999Z</time></trkpt><trkpt lat="37.80338529422293" lon="15.199706775340331"><ele>115.0</ele><time>2026-04-09T07:49:11.999Z</time></trkpt><trkpt lat="37.80346196459776" lon="15.199670244981396"><ele>115.33333333333333</ele><time>2026-04-09T07:49:12.999Z</time></trkpt><trkpt lat="37.80352987876296" lon="15.199624206431364"><ele>115.66666666666666</ele><time>2026-04-09T07:49:13.999Z</time></trkpt><trkpt lat="37.803602004709546" lon="15.199580024046787"><ele>116.0</ele><time>2026-04-09T07:49:14.999Z</time></trkpt><trkpt lat="37.8036502741436" lon="15.199499532570162"><ele>116.16666666666666</ele><time>2026-04-09T07:49:15.999Z</time></trkpt><trkpt lat="37.803677308828746" lon="15.19939813981553"><ele>116.33333333333333</ele><time>2026-04-09T07:49:16.999Z</time></trkpt><trkpt lat="37.80367676102953" lon="15.199274877967115"><ele>116.5</ele><time>2026-04-09T07:49:17.999Z</time></trkpt><trkpt lat="37.80366483149169" lon="15.199168963687208"><ele>116.66666666666666</ele><time>2026-04-09T07:49:18.999Z</time></trkpt><trkpt lat="37.80365237952972" lon="15.19906262630049"><ele>116.83333333333333</ele><time>2026-04-09T07:49:19.999Z</time></trkpt><trkpt lat="37.80363938111098" lon="15.198955519336414"><ele>117.0</ele><time>2026-04-09T07:49:20.999Z</time></trkpt><trkpt lat="37.80362625971938" lon="15.198847581405552"><ele>117.0</ele><time>2026-04-09T07:49:21.999Z</time></trkpt><trkpt lat="37.803613187346265" lon="15.198742804357016"><ele>117.0</ele><time>2026-04-09T07:49:22.999Z</time></trkpt><trkpt lat="37.80360010137936" lon="15.19863791837368"><ele>117.0</ele><time>2026-04-09T07:49:23.999Z</time></trkpt><trkpt lat="37.803586876262436" lon="15.198531917062661"><ele>117.0</ele><time>2026-04-09T07:49:24.999Z</time></trkpt><trkpt lat="37.803573676158045" lon="15.198426116242109"><ele>117.0</ele><time>2026-04-09T07:49:25.999Z</time></trkpt><trkpt lat="37.80356009593764" lon="15.198320378861265"><ele>117.0</ele><time>2026-04-09T07:49:26.999Z</time></trkpt><trkpt lat="37.803547834773205" lon="15.198227148938425"><ele>116.83333333333333</ele><time>2026-04-09T07:49:27.999Z</time></trkpt><trkpt lat="37.80353552432384" lon="15.198133544290899"><ele>116.66666666666666</ele><time>2026-04-09T07:49:28.999Z</time></trkpt><trkpt lat="37.80352494876525" lon="15.198053131330848"><ele>116.5</ele><time>2026-04-09T07:49:29.999Z</time></trkpt><trkpt lat="37.803536465448936" lon="15.197913741536627"><ele>116.33333333333333</ele><time>2026-04-09T07:49:31.999Z</time></trkpt><trkpt lat="37.803619508212186" lon="15.197797745596914"><ele>116.16666666666666</ele><time>2026-04-09T07:49:33.999Z</time></trkpt><trkpt lat="37.80367591765937" lon="15.197739132056025"><ele>116.0</ele><time>2026-04-09T07:49:34.999Z</time></trkpt><trkpt lat="37.80373221112779" lon="15.197698891835666"><ele>116.0</ele><time>2026-04-09T07:49:35.999Z</time></trkpt><trkpt lat="37.8038162630543" lon="15.197722248939845"><ele>116.0</ele><time>2026-04-09T07:49:36.999Z</time></trkpt><trkpt lat="37.80389417871894" lon="15.197748936316781"><ele>116.0</ele><time>2026-04-09T07:49:37.999Z</time></trkpt><trkpt lat="37.80397647573205" lon="15.197781893058774"><ele>116.0</ele><time>2026-04-09T07:49:38.999Z</time></trkpt><trkpt lat="37.80402453640224" lon="15.19790145131583"><ele>116.0</ele><time>2026-04-09T07:49:39.999Z</time></trkpt><trkpt lat="37.80408179711618" lon="15.197999630377895"><ele>116.0</ele><time>2026-04-09T07:49:40.999Z</time></trkpt><trkpt lat="37.80413880635085" lon="15.198101345095717"><ele>116.0</ele><time>2026-04-09T07:49:41.999Z</time></trkpt><trkpt lat="37.80419562316792" lon="15.198202524241319"><ele>116.0</ele><time>2026-04-09T07:49:42.999Z</time></trkpt><trkpt lat="37.80424864144089" lon="15.198309594577719"><ele>116.0</ele><time>2026-04-09T07:49:43.999Z</time></trkpt><trkpt lat="37.80430288472862" lon="15.198408885031135"><ele>116.0</ele><time>2026-04-09T07:49:44.999Z</time></trkpt><trkpt lat="37.8043572312446" lon="15.198502048868995"><ele>114.19999999999999</ele><time>2026-04-09T07:49:45.999Z</time></trkpt><trkpt lat="37.80441550492331" lon="15.198594355269153"><ele>112.39999999999999</ele><time>2026-04-09T07:49:46.999Z</time></trkpt><trkpt lat="37.804471944497784" lon="15.198692228382036"><ele>110.6</ele><time>2026-04-09T07:49:47.999Z</time></trkpt><trkpt lat="37.80452880124066" lon="15.198795688673368"><ele>108.8</ele><time>2026-04-09T07:49:48.999Z</time></trkpt><trkpt lat="37.80458687769685" lon="15.19890079752992"><ele>107.0</ele><time>2026-04-09T07:49:49.999Z</time></trkpt><trkpt lat="37.80464891938616" lon="15.199005433801052"><ele>106.19999999999999</ele><time>2026-04-09T07:49:50.999Z</time></trkpt><trkpt lat="37.804713207426346" lon="15.199113157722177"><ele>105.39999999999999</ele><time>2026-04-09T07:49:51.999Z</time></trkpt><trkpt lat="37.80477947604455" lon="15.19922644241428"><ele>104.6</ele><time>2026-04-09T07:49:52.999Z</time></trkpt><trkpt lat="37.804847001722365" lon="15.199338745160114"><ele>103.80000000000001</ele><time>2026-04-09T07:49:53.999Z</time></trkpt><trkpt lat="37.8049178696969" lon="15.199456114620487"><ele>103.0</ele><time>2026-04-09T07:49:54.999Z</time></trkpt><trkpt lat="37.804988697633775" lon="15.199577797074728"><ele>103.0</ele><time>2026-04-09T07:49:55.999Z</time></trkpt><trkpt lat="37.80505866102399" lon="15.199700804973313"><ele>103.0</ele><time>2026-04-09T07:49:56.999Z</time></trkpt><trkpt lat="37.80513380695856" lon="15.199825066346715"><ele>103.0</ele><time>2026-04-09T07:49:57.999Z</time></trkpt><trkpt lat="37.805207535359415" lon="15.199950902689002"><ele>103.0</ele><time>2026-04-09T07:49:58.999Z</time></trkpt><trkpt lat="37.805279337814476" lon="15.200078060470636"><ele>108.0</ele><time>2026-04-09T07:49:59.999Z</time></trkpt><trkpt lat="37.80535111316618" lon="15.200204599405046"><ele>113.0</ele><time>2026-04-09T07:50:00.999Z</time></trkpt><trkpt lat="37.80542374869773" lon="15.200324825425069"><ele>118.0</ele><time>2026-04-09T07:50:01.999Z</time></trkpt><trkpt lat="37.805502322339954" lon="15.200447607886149"><ele>123.0</ele><time>2026-04-09T07:50:02.999Z</time></trkpt><trkpt lat="37.805583374426334" lon="15.20056785164968"><ele>124.25</ele><time>2026-04-09T07:50:03.999Z</time></trkpt><trkpt lat="37.80566676961689" lon="15.200687150079418"><ele>125.5</ele><time>2026-04-09T07:50:04.999Z</time></trkpt><trkpt lat="37.805759313239484" lon="15.200807959641379"><ele>126.75</ele><time>2026-04-09T07:50:05.999Z</time></trkpt><trkpt lat="37.8058494845603" lon="15.200922297733861"><ele>128.0</ele><time>2026-04-09T07:50:06.999Z</time></trkpt><trkpt lat="37.8059378561987" lon="15.20103257698819"><ele>127.60000000000001</ele><time>2026-04-09T07:50:07.999Z</time></trkpt><trkpt lat="37.80602148240701" lon="15.201132157542673"><ele>127.20000000000002</ele><time>2026-04-09T07:50:08.999Z</time></trkpt><trkpt lat="37.80609774706657" lon="15.201231301275227"><ele>126.8</ele><time>2026-04-09T07:50:09.999Z</time></trkpt><trkpt lat="37.806170169175076" lon="15.201318443578181"><ele>126.4</ele><time>2026-04-09T07:50:10.999Z</time></trkpt><trkpt lat="37.806243325093284" lon="15.20140542560217"><ele>126.0</ele><time>2026-04-09T07:50:11.999Z</time></trkpt><trkpt lat="37.80631673498987" lon="15.201498749709822"><ele>125.0</ele><time>2026-04-09T07:50:12.999Z</time></trkpt><trkpt lat="37.80639045007179" lon="15.20159486105622"><ele>124.0</ele><time>2026-04-09T07:50:13.999Z</time></trkpt><trkpt lat="37.80646571296654" lon="15.201687297788315"><ele>123.0</ele><time>2026-04-09T07:50:14.999Z</time></trkpt><trkpt lat="37.806542693119795" lon="15.201782313757235"><ele>122.0</ele><time>2026-04-09T07:50:15.999Z</time></trkpt><trkpt lat="37.8066158282783" lon="15.201874772432866"><ele>121.0</ele><time>2026-04-09T07:50:16.999Z</time></trkpt><trkpt lat="37.80668948598419" lon="15.201964909412165"><ele>121.00000000000001</ele><time>2026-04-09T07:50:17.999Z</time></trkpt><trkpt lat="37.806757243072006" lon="15.202042930597278"><ele>121.0</ele><time>2026-04-09T07:50:18.999Z</time></trkpt><trkpt lat="37.8068153820139" lon="15.202114824924813"><ele>121.0</ele><time>2026-04-09T07:50:19.999Z</time></trkpt><trkpt lat="37.80686726817611" lon="15.202183309391161"><ele>121.0</ele><time>2026-04-09T07:50:20.999Z</time></trkpt><trkpt lat="37.80691968682419" lon="15.20225300381044"><ele>121.00000000000001</ele><time>2026-04-09T07:50:21.999Z</time></trkpt><trkpt lat="37.806971792430794" lon="15.202320345839846"><ele>121.0</ele><time>2026-04-09T07:50:22.999Z</time></trkpt><trkpt lat="37.80703239457568" lon="15.202392453959375"><ele>120.83333333333334</ele><time>2026-04-09T07:50:23.999Z</time></trkpt><trkpt lat="37.80708427977584" lon="15.202457951672208"><ele>120.66666666666667</ele><time>2026-04-09T07:50:24.999Z</time></trkpt><trkpt lat="37.807137767402565" lon="15.202523717941247"><ele>120.5</ele><time>2026-04-09T07:50:25.999Z</time></trkpt><trkpt lat="37.80718915891143" lon="15.202588250363595"><ele>120.33333333333334</ele><time>2026-04-09T07:50:26.999Z</time></trkpt><trkpt lat="37.807245862206166" lon="15.202659047278441"><ele>120.16666666666667</ele><time>2026-04-09T07:50:27.999Z</time></trkpt><trkpt lat="37.807310087663105" lon="15.202738140541562"><ele>120.0</ele><time>2026-04-09T07:50:28.999Z</time></trkpt><trkpt lat="37.807382739565135" lon="15.202826574311576"><ele>120.0</ele><time>2026-04-09T07:50:29.999Z</time></trkpt><trkpt lat="37.80746438400314" lon="15.202929222431509"><ele>120.0</ele><time>2026-04-09T07:50:30.999Z</time></trkpt><trkpt lat="37.80755337637027" lon="15.203040465632274"><ele>120.0</ele><time>2026-04-09T07:50:31.999Z</time></trkpt><trkpt lat="37.807652532059535" lon="15.203164295787165"><ele>120.0</ele><time>2026-04-09T07:50:32.999Z</time></trkpt><trkpt lat="37.80775466729099" lon="15.203286832514538"><ele>120.33333333333334</ele><time>2026-04-09T07:50:33.999Z</time></trkpt><trkpt lat="37.80786126493665" lon="15.203415953590365"><ele>120.66666666666667</ele><time>2026-04-09T07:50:34.999Z</time></trkpt><trkpt lat="37.80797196104878" lon="15.203555293657177"><ele>121.0</ele><time>2026-04-09T07:50:35.999Z</time></trkpt><trkpt lat="37.80808819008191" lon="15.203700211648012"><ele>121.0</ele><time>2026-04-09T07:50:36.999Z</time></trkpt><trkpt lat="37.80821516550462" lon="15.203863108322565"><ele>121.0</ele><time>2026-04-09T07:50:37.999Z</time></trkpt><trkpt lat="37.808343318144715" lon="15.204017684101196"><ele>121.0</ele><time>2026-04-09T07:50:38.999Z</time></trkpt><trkpt lat="37.80845611307663" lon="15.204164995899996"><ele>126.0</ele><time>2026-04-09T07:50:39.999Z</time></trkpt><trkpt lat="37.80856931462705" lon="15.204308679613506"><ele>131.0</ele><time>2026-04-09T07:50:40.999Z</time></trkpt><trkpt lat="37.80868668953594" lon="15.204458187977105"><ele>136.0</ele><time>2026-04-09T07:50:41.999Z</time></trkpt><trkpt lat="37.808802449212344" lon="15.204601212685192"><ele>136.0</ele><time>2026-04-09T07:50:42.999Z</time></trkpt><trkpt lat="37.80892924275342" lon="15.20475068955892"><ele>136.0</ele><time>2026-04-09T07:50:43.999Z</time></trkpt><trkpt lat="37.80904419750075" lon="15.20488926238432"><ele>136.0</ele><time>2026-04-09T07:50:44.999Z</time></trkpt><trkpt lat="37.80917193309618" lon="15.20501836809074"><ele>136.66666666666669</ele><time>2026-04-09T07:50:45.999Z</time></trkpt><trkpt lat="37.809310226553265" lon="15.20510754282638"><ele>137.33333333333334</ele><time>2026-04-09T07:50:46.999Z</time></trkpt><trkpt lat="37.80945434440114" lon="15.205172424838452"><ele>138.0</ele><time>2026-04-09T07:50:47.999Z</time></trkpt><trkpt lat="37.80961826511436" lon="15.20520984607605"><ele>139.66666666666666</ele><time>2026-04-09T07:50:48.999Z</time></trkpt><trkpt lat="37.809786106811146" lon="15.205226165595509"><ele>141.33333333333331</ele><time>2026-04-09T07:50:49.999Z</time></trkpt><trkpt lat="37.80995706964658" lon="15.205225221342607"><ele>143.0</ele><time>2026-04-09T07:50:50.999Z</time></trkpt><trkpt lat="37.81012835060548" lon="15.205190847247767"><ele>142.33333333333331</ele><time>2026-04-09T07:50:51.999Z</time></trkpt><trkpt lat="37.81030189210273" lon="15.20512878986998"><ele>141.66666666666666</ele><time>2026-04-09T07:50:52.999Z</time></trkpt><trkpt lat="37.81047691163918" lon="15.205055249889712"><ele>141.0</ele><time>2026-04-09T07:50:53.999Z</time></trkpt><trkpt lat="37.81065413869711" lon="15.204982160200847"><ele>141.0</ele><time>2026-04-09T07:50:54.999Z</time></trkpt><trkpt lat="37.81083074331294" lon="15.204928234169767"><ele>141.0</ele><time>2026-04-09T07:50:55.999Z</time></trkpt><trkpt lat="37.81101416530109" lon="15.204866024509673"><ele>141.0</ele><time>2026-04-09T07:50:56.999Z</time></trkpt><trkpt lat="37.81118364505077" lon="15.204806963730038"><ele>144.0</ele><time>2026-04-09T07:50:57.999Z</time></trkpt><trkpt lat="37.811339883753696" lon="15.204751810154956"><ele>147.0</ele><time>2026-04-09T07:50:58.999Z</time></trkpt><trkpt lat="37.81148864358166" lon="15.204717398735177"><ele>150.0</ele><time>2026-04-09T07:50:59.999Z</time></trkpt><trkpt lat="37.811647928170125" lon="15.204712417817499"><ele>150.0</ele><time>2026-04-09T07:51:00.999Z</time></trkpt><trkpt lat="37.811808855964614" lon="15.204741675159534"><ele>150.0</ele><time>2026-04-09T07:51:01.999Z</time></trkpt><trkpt lat="37.81196570821807" lon="15.20479663764113"><ele>150.0</ele><time>2026-04-09T07:51:02.999Z</time></trkpt><trkpt lat="37.812118938643415" lon="15.204874701568189"><ele>151.33333333333334</ele><time>2026-04-09T07:51:03.999Z</time></trkpt><trkpt lat="37.81225557969467" lon="15.204997102611935"><ele>152.66666666666669</ele><time>2026-04-09T07:51:04.999Z</time></trkpt><trkpt lat="37.81238116761342" lon="15.205131942325703"><ele>154.0</ele><time>2026-04-09T07:51:05.999Z</time></trkpt><trkpt lat="37.81249306998439" lon="15.20530246271902"><ele>154.0</ele><time>2026-04-09T07:51:06.999Z</time></trkpt><trkpt lat="37.81257910844852" lon="15.20547306147766"><ele>154.0</ele><time>2026-04-09T07:51:07.999Z</time></trkpt><trkpt lat="37.81267882264015" lon="15.205649837296567"><ele>154.0</ele><time>2026-04-09T07:51:08.999Z</time></trkpt><trkpt lat="37.81277924839033" lon="15.20581301539408"><ele>155.33333333333334</ele><time>2026-04-09T07:51:09.999Z</time></trkpt><trkpt lat="37.81287644944444" lon="15.20597495995624"><ele>156.66666666666666</ele><time>2026-04-09T07:51:10.999Z</time></trkpt><trkpt lat="37.812966033059126" lon="15.206133813712245"><ele>158.0</ele><time>2026-04-09T07:51:11.999Z</time></trkpt><trkpt lat="37.81305961310866" lon="15.2062926543259"><ele>158.0</ele><time>2026-04-09T07:51:12.999Z</time></trkpt><trkpt lat="37.81314890510444" lon="15.20643721737945"><ele>158.0</ele><time>2026-04-09T07:51:13.999Z</time></trkpt><trkpt lat="37.813250280540274" lon="15.20658792790741"><ele>158.0</ele><time>2026-04-09T07:51:14.999Z</time></trkpt><trkpt lat="37.813375540808146" lon="15.206730226148066"><ele>155.0</ele><time>2026-04-09T07:51:15.999Z</time></trkpt><trkpt lat="37.813531743873234" lon="15.206840892182232"><ele>152.0</ele><time>2026-04-09T07:51:16.999Z</time></trkpt><trkpt lat="37.813703446934454" lon="15.206940995303249"><ele>149.0</ele><time>2026-04-09T07:51:17.999Z</time></trkpt><trkpt lat="37.813857932879465" lon="15.207051797444985"><ele>149.0</ele><time>2026-04-09T07:51:18.999Z</time></trkpt><trkpt lat="37.81399930217689" lon="15.207154859108876"><ele>149.0</ele><time>2026-04-09T07:51:19.999Z</time></trkpt><trkpt lat="37.8141450227751" lon="15.207257578265914"><ele>149.0</ele><time>2026-04-09T07:51:20.999Z</time></trkpt><trkpt lat="37.81430034872902" lon="15.207367299956239"><ele>145.0</ele><time>2026-04-09T07:51:21.999Z</time></trkpt><trkpt lat="37.814447647033376" lon="15.207472818929698"><ele>141.0</ele><time>2026-04-09T07:51:22.999Z</time></trkpt><trkpt lat="37.81458009179545" lon="15.20757768373598"><ele>137.0</ele><time>2026-04-09T07:51:23.999Z</time></trkpt><trkpt lat="37.81469812399275" lon="15.207707675828848"><ele>137.0</ele><time>2026-04-09T07:51:24.999Z</time></trkpt><trkpt lat="37.81480149042182" lon="15.207858190744501"><ele>137.0</ele><time>2026-04-09T07:51:25.999Z</time></trkpt><trkpt lat="37.81489277367392" lon="15.20804195830953"><ele>137.0</ele><time>2026-04-09T07:51:26.999Z</time></trkpt><trkpt lat="37.8149615244734" lon="15.208244079018627"><ele>133.66666666666666</ele><time>2026-04-09T07:51:27.999Z</time></trkpt><trkpt lat="37.815003747018025" lon="15.208446468608658"><ele>130.33333333333334</ele><time>2026-04-09T07:51:28.999Z</time></trkpt><trkpt lat="37.81502765425932" lon="15.20864284768382"><ele>127.0</ele><time>2026-04-09T07:51:29.999Z</time></trkpt><trkpt lat="37.815061859528406" lon="15.208854004522568"><ele>125.33333333333334</ele><time>2026-04-09T07:51:30.999Z</time></trkpt><trkpt lat="37.81509358867566" lon="15.20904617205147"><ele>123.66666666666666</ele><time>2026-04-09T07:51:31.999Z</time></trkpt><trkpt lat="37.81512803113046" lon="15.209243859333471"><ele>122.0</ele><time>2026-04-09T07:51:32.999Z</time></trkpt><trkpt lat="37.815163688657904" lon="15.209462347763735"><ele>122.0</ele><time>2026-04-09T07:51:33.999Z</time></trkpt><trkpt lat="37.81519990709607" lon="15.209680458697697"><ele>122.0</ele><time>2026-04-09T07:51:34.999Z</time></trkpt><trkpt lat="37.8152343344235" lon="15.209874450182003"><ele>122.0</ele><time>2026-04-09T07:51:35.999Z</time></trkpt><trkpt lat="37.81526379272324" lon="15.210050173586893"><ele>121.25</ele><time>2026-04-09T07:51:36.999Z</time></trkpt><trkpt lat="37.815289962865975" lon="15.21021361036695"><ele>120.5</ele><time>2026-04-09T07:51:37.999Z</time></trkpt><trkpt lat="37.81531953334756" lon="15.21037534288721"><ele>119.75</ele><time>2026-04-09T07:51:38.999Z</time></trkpt><trkpt lat="37.81534996380305" lon="15.210536913054488"><ele>119.0</ele><time>2026-04-09T07:51:39.999Z</time></trkpt><trkpt lat="37.815368429728764" lon="15.210701795954737"><ele>119.0</ele><time>2026-04-09T07:51:40.999Z</time></trkpt><trkpt lat="37.81535783355312" lon="15.210876855308603"><ele>119.0</ele><time>2026-04-09T07:51:41.999Z</time></trkpt><trkpt lat="37.81532872926954" lon="15.211059247509509"><ele>119.0</ele><time>2026-04-09T07:51:42.999Z</time></trkpt><trkpt lat="37.81527598150825" lon="15.211259904997053"><ele>119.0</ele><time>2026-04-09T07:51:43.999Z</time></trkpt><trkpt lat="37.8152167624022" lon="15.211451119291517"><ele>119.0</ele><time>2026-04-09T07:51:44.999Z</time></trkpt><trkpt lat="37.81516770936123" lon="15.211648250657388"><ele>119.0</ele><time>2026-04-09T07:51:45.999Z</time></trkpt><trkpt lat="37.815119217065806" lon="15.21185638924306"><ele>115.0</ele><time>2026-04-09T07:51:46.999Z</time></trkpt><trkpt lat="37.81506986053234" lon="15.212074086741096"><ele>111.0</ele><time>2026-04-09T07:51:47.999Z</time></trkpt><trkpt lat="37.81502229974223" lon="15.212300634181519"><ele>107.0</ele><time>2026-04-09T07:51:48.999Z</time></trkpt><trkpt lat="37.81497680416565" lon="15.212529329527705"><ele>105.66666666666666</ele><time>2026-04-09T07:51:49.999Z</time></trkpt><trkpt lat="37.814926559292715" lon="15.212770598046234"><ele>104.33333333333334</ele><time>2026-04-09T07:51:50.999Z</time></trkpt><trkpt lat="37.81487742104951" lon="15.213008809735149"><ele>103.0</ele><time>2026-04-09T07:51:51.999Z</time></trkpt><trkpt lat="37.81482789572675" lon="15.2132549751123"><ele>103.0</ele><time>2026-04-09T07:51:52.999Z</time></trkpt><trkpt lat="37.81477617683101" lon="15.213498558758921"><ele>103.0</ele><time>2026-04-09T07:51:53.999Z</time></trkpt><trkpt lat="37.81472379118323" lon="15.213738695168711"><ele>103.0</ele><time>2026-04-09T07:51:54.999Z</time></trkpt><trkpt lat="37.814676691261006" lon="15.213961593105298"><ele>103.66666666666667</ele><time>2026-04-09T07:51:55.999Z</time></trkpt><trkpt lat="37.814639438813046" lon="15.214177270946607"><ele>104.33333333333334</ele><time>2026-04-09T07:51:56.999Z</time></trkpt><trkpt lat="37.814625954036444" lon="15.214383231554239"><ele>105.0</ele><time>2026-04-09T07:51:57.999Z</time></trkpt><trkpt lat="37.81465772829235" lon="15.214575828786"><ele>105.0</ele><time>2026-04-09T07:51:58.999Z</time></trkpt><trkpt lat="37.81471540353531" lon="15.2147657571555"><ele>105.0</ele><time>2026-04-09T07:51:59.999Z</time></trkpt><trkpt lat="37.81479127729088" lon="15.214961372087703"><ele>105.0</ele><time>2026-04-09T07:52:00.999Z</time></trkpt><trkpt lat="37.81487006586268" lon="15.215179584408066"><ele>105.0</ele><time>2026-04-09T07:52:01.999Z</time></trkpt><trkpt lat="37.81494745542486" lon="15.215411647726606"><ele>105.0</ele><time>2026-04-09T07:52:02.999Z</time></trkpt><trkpt lat="37.81502980131939" lon="15.215653612540027"><ele>105.0</ele><time>2026-04-09T07:52:03.999Z</time></trkpt><trkpt lat="37.815114660075764" lon="15.21591228272949"><ele>105.33333333333334</ele><time>2026-04-09T07:52:04.999Z</time></trkpt><trkpt lat="37.815197339331824" lon="15.216169826997135"><ele>105.66666666666667</ele><time>2026-04-09T07:52:05.999Z</time></trkpt><trkpt lat="37.81527720768272" lon="15.21641227687529"><ele>106.0</ele><time>2026-04-09T07:52:06.999Z</time></trkpt><trkpt lat="37.815350284624486" lon="15.216632767524139"><ele>106.0</ele><time>2026-04-09T07:52:07.999Z</time></trkpt><trkpt lat="37.815418363640525" lon="15.216847465640146"><ele>106.0</ele><time>2026-04-09T07:52:08.999Z</time></trkpt><trkpt lat="37.81549379431389" lon="15.217056974935806"><ele>106.0</ele><time>2026-04-09T07:52:09.999Z</time></trkpt><trkpt lat="37.81557310066083" lon="15.21726398774103"><ele>102.66666666666667</ele><time>2026-04-09T07:52:10.999Z</time></trkpt><trkpt lat="37.81568188409171" lon="15.217465508279972"><ele>99.33333333333334</ele><time>2026-04-09T07:52:11.999Z</time></trkpt><trkpt lat="37.81581971836971" lon="15.217629223046782"><ele>96.0</ele><time>2026-04-09T07:52:12.999Z</time></trkpt><trkpt lat="37.815978461150564" lon="15.217766302375884"><ele>95.33333333333333</ele><time>2026-04-09T07:52:13.999Z</time></trkpt><trkpt lat="37.81615380634588" lon="15.21789434743058"><ele>94.66666666666666</ele><time>2026-04-09T07:52:14.999Z</time></trkpt><trkpt lat="37.816324763439496" lon="15.218032209719363"><ele>94.0</ele><time>2026-04-09T07:52:15.999Z</time></trkpt><trkpt lat="37.81650148762368" lon="15.21817931095201"><ele>94.0</ele><time>2026-04-09T07:52:16.999Z</time></trkpt><trkpt lat="37.81666970679994" lon="15.218326201283684"><ele>94.0</ele><time>2026-04-09T07:52:17.999Z</time></trkpt><trkpt lat="37.81684176916987" lon="15.218472647976306"><ele>94.0</ele><time>2026-04-09T07:52:18.999Z</time></trkpt><trkpt lat="37.817006618655014" lon="15.218612724766658"><ele>92.66666666666666</ele><time>2026-04-09T07:52:19.999Z</time></trkpt><trkpt lat="37.81716749201544" lon="15.218748614831082"><ele>91.33333333333333</ele><time>2026-04-09T07:52:20.999Z</time></trkpt><trkpt lat="37.81732103103372" lon="15.218881236214413"><ele>90.0</ele><time>2026-04-09T07:52:21.999Z</time></trkpt><trkpt lat="37.817467523349194" lon="15.219030282544567"><ele>90.0</ele><time>2026-04-09T07:52:22.999Z</time></trkpt><trkpt lat="37.81759048211271" lon="15.219213817438558"><ele>90.0</ele><time>2026-04-09T07:52:23.999Z</time></trkpt><trkpt lat="37.81768219903328" lon="15.219424778562352"><ele>90.0</ele><time>2026-04-09T07:52:24.999Z</time></trkpt><trkpt lat="37.817731381076285" lon="15.219664360633422"><ele>88.0</ele><time>2026-04-09T07:52:25.999Z</time></trkpt><trkpt lat="37.81774713964743" lon="15.219906570663593"><ele>86.0</ele><time>2026-04-09T07:52:26.999Z</time></trkpt><trkpt lat="37.81773020982093" lon="15.22014923352701"><ele>84.0</ele><time>2026-04-09T07:52:27.999Z</time></trkpt><trkpt lat="37.817657898032614" lon="15.220372864479785"><ele>82.66666666666667</ele><time>2026-04-09T07:52:28.999Z</time></trkpt><trkpt lat="37.817594646212726" lon="15.220601508479604"><ele>81.33333333333334</ele><time>2026-04-09T07:52:29.999Z</time></trkpt><trkpt lat="37.81752215593286" lon="15.220830864387963"><ele>80.0</ele><time>2026-04-09T07:52:30.999Z</time></trkpt><trkpt lat="37.817465263234965" lon="15.221077038977533"><ele>79.0</ele><time>2026-04-09T07:52:31.999Z</time></trkpt><trkpt lat="37.817410062822916" lon="15.221322204970935"><ele>78.0</ele><time>2026-04-09T07:52:32.999Z</time></trkpt><trkpt lat="37.81734637511454" lon="15.221576002142353"><ele>77.0</ele><time>2026-04-09T07:52:33.999Z</time></trkpt><trkpt lat="37.817282091599104" lon="15.221826494699748"><ele>76.66666666666667</ele><time>2026-04-09T07:52:34.999Z</time></trkpt><trkpt lat="37.8172190919895" lon="15.222072888704664"><ele>76.33333333333333</ele><time>2026-04-09T07:52:35.999Z</time></trkpt><trkpt lat="37.81716176777538" lon="15.222311263490948"><ele>76.0</ele><time>2026-04-09T07:52:36.999Z</time></trkpt><trkpt lat="37.81710315038517" lon="15.222548933175345"><ele>75.0</ele><time>2026-04-09T07:52:37.999Z</time></trkpt><trkpt lat="37.817040622767024" lon="15.222788398191351"><ele>74.0</ele><time>2026-04-09T07:52:38.999Z</time></trkpt><trkpt lat="37.81697474510176" lon="15.22302734205219"><ele>73.0</ele><time>2026-04-09T07:52:39.999Z</time></trkpt><trkpt lat="37.81689755295504" lon="15.223266336550195"><ele>70.66666666666666</ele><time>2026-04-09T07:52:40.999Z</time></trkpt><trkpt lat="37.816816202405484" lon="15.2235007155451"><ele>68.33333333333333</ele><time>2026-04-09T07:52:41.999Z</time></trkpt><trkpt lat="37.81673311995359" lon="15.223734293603368"><ele>66.0</ele><time>2026-04-09T07:52:42.999Z</time></trkpt><trkpt lat="37.816654733904606" lon="15.223972911423758"><ele>64.66666666666667</ele><time>2026-04-09T07:52:43.999Z</time></trkpt><trkpt lat="37.81658049981457" lon="15.22420891332736"><ele>63.333333333333336</ele><time>2026-04-09T07:52:44.999Z</time></trkpt><trkpt lat="37.816517020163715" lon="15.224451994761544"><ele>62.0</ele><time>2026-04-09T07:52:45.999Z</time></trkpt><trkpt lat="37.81647857334186" lon="15.224680604609508"><ele>62.75</ele><time>2026-04-09T07:52:46.999Z</time></trkpt><trkpt lat="37.81646707631519" lon="15.224884846023278"><ele>63.5</ele><time>2026-04-09T07:52:47.999Z</time></trkpt><trkpt lat="37.81646125388795" lon="15.225054907011426"><ele>64.25</ele><time>2026-04-09T07:52:48.999Z</time></trkpt><trkpt lat="37.81645561928015" lon="15.225202158711193"><ele>65.0</ele><time>2026-04-09T07:52:49.999Z</time></trkpt><trkpt lat="37.81644540850067" lon="15.22533690736299"><ele>65.0</ele><time>2026-04-09T07:52:50.999Z</time></trkpt><trkpt lat="37.8164338272467" lon="15.225433786162839"><ele>65.0</ele><time>2026-04-09T07:52:51.999Z</time></trkpt><trkpt lat="37.81642182433048" lon="15.225512723884096"><ele>65.0</ele><time>2026-04-09T07:52:52.999Z</time></trkpt><trkpt lat="37.816426547333315" lon="15.225607042525155"><ele>65.0</ele><time>2026-04-09T07:52:54.999Z</time></trkpt><trkpt lat="37.81655112576603" lon="15.225709092804497"><ele>65.0</ele><time>2026-04-09T07:52:57.999Z</time></trkpt><trkpt lat="37.816683349403135" lon="15.225740075349917"><ele>65.75</ele><time>2026-04-09T07:52:58.999Z</time></trkpt><trkpt lat="37.81680516756877" lon="15.225781595388854"><ele>66.5</ele><time>2026-04-09T07:52:59.999Z</time></trkpt><trkpt lat="37.81693250529193" lon="15.225873627713996"><ele>67.25</ele><time>2026-04-09T07:53:00.999Z</time></trkpt><trkpt lat="37.81708549853102" lon="15.225958148529637"><ele>68.0</ele><time>2026-04-09T07:53:01.999Z</time></trkpt><trkpt lat="37.81721524012585" lon="15.226044157807369"><ele>68.0</ele><time>2026-04-09T07:53:02.999Z</time></trkpt><trkpt lat="37.81735456543737" lon="15.226012778811736"><ele>68.0</ele><time>2026-04-09T07:53:03.999Z</time></trkpt><trkpt lat="37.81747133159459" lon="15.22604694377423"><ele>68.0</ele><time>2026-04-09T07:53:04.999Z</time></trkpt><trkpt lat="37.81757438208892" lon="15.226070251110134"><ele>68.0</ele><time>2026-04-09T07:53:05.999Z</time></trkpt><trkpt lat="37.817677256391235" lon="15.22608901894762"><ele>67.8</ele><time>2026-04-09T07:53:06.999Z</time></trkpt><trkpt lat="37.8177905115511" lon="15.226112453770048"><ele>67.6</ele><time>2026-04-09T07:53:07.999Z</time></trkpt><trkpt lat="37.81788477172441" lon="15.226136714301951"><ele>67.4</ele><time>2026-04-09T07:53:08.999Z</time></trkpt><trkpt lat="37.81797994417583" lon="15.22616896668017"><ele>67.2</ele><time>2026-04-09T07:53:09.999Z</time></trkpt><trkpt lat="37.81808687842721" lon="15.226197111877532"><ele>67.0</ele><time>2026-04-09T07:53:10.999Z</time></trkpt><trkpt lat="37.81817877599305" lon="15.22622505665566"><ele>67.0</ele><time>2026-04-09T07:53:11.999Z</time></trkpt><trkpt lat="37.81827329362769" lon="15.226268147163056"><ele>67.0</ele><time>2026-04-09T07:53:12.999Z</time></trkpt><trkpt lat="37.81835755652839" lon="15.226321334209615"><ele>67.0</ele><time>2026-04-09T07:53:13.999Z</time></trkpt><trkpt lat="37.81843455403041" lon="15.226365431547828"><ele>67.0</ele><time>2026-04-09T07:53:14.999Z</time></trkpt><trkpt lat="37.818498545252034" lon="15.22640416019435"><ele>67.0</ele><time>2026-04-09T07:53:15.999Z</time></trkpt><trkpt lat="37.81858005201908" lon="15.226464505526781"><ele>67.0</ele><time>2026-04-09T07:53:17.999Z</time></trkpt><trkpt lat="37.81863913589792" lon="15.226501780939918"><ele>65.6</ele><time>2026-04-09T07:53:19.999Z</time></trkpt><trkpt lat="37.81872295294623" lon="15.2265523112665"><ele>64.2</ele><time>2026-04-09T07:53:21.999Z</time></trkpt><trkpt lat="37.81878647695732" lon="15.226590607637426"><ele>62.8</ele><time>2026-04-09T07:53:22.999Z</time></trkpt><trkpt lat="37.81886992066118" lon="15.226638007790916"><ele>61.4</ele><time>2026-04-09T07:53:23.999Z</time></trkpt><trkpt lat="37.81897196452772" lon="15.226694526018111"><ele>60.0</ele><time>2026-04-09T07:53:24.999Z</time></trkpt><trkpt lat="37.81908080605538" lon="15.226751151706168"><ele>60.0</ele><time>2026-04-09T07:53:25.999Z</time></trkpt><trkpt lat="37.81917360285824" lon="15.226798945922402"><ele>60.0</ele><time>2026-04-09T07:53:26.999Z</time></trkpt><trkpt lat="37.81927039216997" lon="15.226850394122163"><ele>60.0</ele><time>2026-04-09T07:53:27.999Z</time></trkpt><trkpt lat="37.819374832641756" lon="15.226884134859679"><ele>60.0</ele><time>2026-04-09T07:53:28.999Z</time></trkpt><trkpt lat="37.819467870630994" lon="15.226955900628067"><ele>60.0</ele><time>2026-04-09T07:53:29.999Z</time></trkpt><trkpt lat="37.81956958464873" lon="15.227007236950872"><ele>61.25</ele><time>2026-04-09T07:53:30.999Z</time></trkpt><trkpt lat="37.8196773947684" lon="15.227060102212441"><ele>62.5</ele><time>2026-04-09T07:53:31.999Z</time></trkpt><trkpt lat="37.819787620889876" lon="15.227111986643086"><ele>63.75</ele><time>2026-04-09T07:53:32.999Z</time></trkpt><trkpt lat="37.819895085075835" lon="15.227162744980928"><ele>65.0</ele><time>2026-04-09T07:53:33.999Z</time></trkpt><trkpt lat="37.82000082948597" lon="15.227205859286402"><ele>65.0</ele><time>2026-04-09T07:53:34.999Z</time></trkpt><trkpt lat="37.8201176593321" lon="15.227242569007146"><ele>65.0</ele><time>2026-04-09T07:53:35.999Z</time></trkpt><trkpt lat="37.82023214533059" lon="15.227294019090223"><ele>65.0</ele><time>2026-04-09T07:53:36.999Z</time></trkpt><trkpt lat="37.82034972401074" lon="15.227325007535647"><ele>65.0</ele><time>2026-04-09T07:53:37.999Z</time></trkpt><trkpt lat="37.82046009300908" lon="15.227326279895205"><ele>64.83333333333334</ele><time>2026-04-09T07:53:38.999Z</time></trkpt><trkpt lat="37.82055110672513" lon="15.227360996837008"><ele>64.66666666666667</ele><time>2026-04-09T07:53:39.999Z</time></trkpt><trkpt lat="37.82062780233757" lon="15.227372481231336"><ele>64.5</ele><time>2026-04-09T07:53:40.999Z</time></trkpt><trkpt lat="37.82069361334791" lon="15.227380566094078"><ele>64.33333333333333</ele><time>2026-04-09T07:53:41.999Z</time></trkpt><trkpt lat="37.82076759172677" lon="15.227373139991991"><ele>64.16666666666666</ele><time>2026-04-09T07:53:43.999Z</time></trkpt><trkpt lat="37.82075041367761" lon="15.227493454248233"><ele>64.0</ele><time>2026-04-09T07:53:46.999Z</time></trkpt><trkpt lat="37.82075502778807" lon="15.227573071973138"><ele>64.0</ele><time>2026-04-09T07:53:48.999Z</time></trkpt><trkpt lat="37.82087224852982" lon="15.227677338470619"><ele>64.0</ele><time>2026-04-09T07:53:50.999Z</time></trkpt><trkpt lat="37.820962879004206" lon="15.2277538437302"><ele>64.0</ele><time>2026-04-09T07:53:51.999Z</time></trkpt><trkpt lat="37.8210585584026" lon="15.22784709851094"><ele>64.0</ele><time>2026-04-09T07:53:52.999Z</time></trkpt><trkpt lat="37.821156945609495" lon="15.227931269017752"><ele>64.2</ele><time>2026-04-09T07:53:53.999Z</time></trkpt><trkpt lat="37.82124489486088" lon="15.228010897982807"><ele>64.4</ele><time>2026-04-09T07:53:54.999Z</time></trkpt><trkpt lat="37.82133247810728" lon="15.228082035454154"><ele>64.6</ele><time>2026-04-09T07:53:55.999Z</time></trkpt><trkpt lat="37.82140992498756" lon="15.228156594869459"><ele>64.8</ele><time>2026-04-09T07:53:56.999Z</time></trkpt><trkpt lat="37.821485545908374" lon="15.228221857140964"><ele>65.0</ele><time>2026-04-09T07:53:57.999Z</time></trkpt><trkpt lat="37.821554763886354" lon="15.228284824865806"><ele>65.0</ele><time>2026-04-09T07:53:58.999Z</time></trkpt><trkpt lat="37.82161732238667" lon="15.228344813734179"><ele>65.0</ele><time>2026-04-09T07:53:59.999Z</time></trkpt><trkpt lat="37.8216988482422" lon="15.228418403470888"><ele>65.0</ele><time>2026-04-09T07:54:01.999Z</time></trkpt><trkpt lat="37.82176484734796" lon="15.228434698360974"><ele>65.0</ele><time>2026-04-09T07:54:04.999Z</time></trkpt><trkpt lat="37.8218267291278" lon="15.228489887457375"><ele>65.0</ele><time>2026-04-09T07:54:05.999Z</time></trkpt><trkpt lat="37.82181575238559" lon="15.228361447332531"><ele>65.0</ele><time>2026-04-09T07:54:06.999Z</time></trkpt><trkpt lat="37.82187473008353" lon="15.228285628938073"><ele>65.16666666666667</ele><time>2026-04-09T07:54:09.999Z</time></trkpt><trkpt lat="37.82193617595474" lon="15.228266695871055"><ele>65.33333333333334</ele><time>2026-04-09T07:54:10.999Z</time></trkpt><trkpt lat="37.82198539984772" lon="15.228207683931268"><ele>65.5</ele><time>2026-04-09T07:54:11.999Z</time></trkpt><trkpt lat="37.822038617971906" lon="15.228143702972863"><ele>65.66666666666667</ele><time>2026-04-09T07:54:12.999Z</time></trkpt><trkpt lat="37.822094459241015" lon="15.228080354386165"><ele>65.83333333333333</ele><time>2026-04-09T07:54:13.999Z</time></trkpt><trkpt lat="37.82214296315463" lon="15.22802532956529"><ele>66.0</ele><time>2026-04-09T07:54:14.999Z</time></trkpt><trkpt lat="37.82222703333975" lon="15.22792460664443"><ele>66.39999999999999</ele><time>2026-04-09T07:54:16.999Z</time></trkpt><trkpt lat="37.82229087902767" lon="15.227813922832132"><ele>66.8</ele><time>2026-04-09T07:54:18.999Z</time></trkpt><trkpt lat="37.82233513305727" lon="15.22769058408621"><ele>67.19999999999999</ele><time>2026-04-09T07:54:21Z</time></trkpt><trkpt lat="37.82236523509207" lon="15.227596375900214"><ele>67.6</ele><time>2026-04-09T07:54:23Z</time></trkpt><trkpt lat="37.822400213956755" lon="15.227486903709181"><ele>68.0</ele><time>2026-04-09T07:54:25Z</time></trkpt><trkpt lat="37.82241764487002" lon="15.227396682974906"><ele>68.0</ele><time>2026-04-09T07:54:26Z</time></trkpt><trkpt lat="37.82243656756231" lon="15.227304581377227"><ele>68.0</ele><time>2026-04-09T07:54:27Z</time></trkpt><trkpt lat="37.82245452228735" lon="15.227217188309142"><ele>68.0</ele><time>2026-04-09T07:54:28Z</time></trkpt><trkpt lat="37.82248016836805" lon="15.227080363707334"><ele>68.0</ele><time>2026-04-09T07:54:30Z</time></trkpt><trkpt lat="37.82245341496982" lon="15.226968461488296"><ele>68.0</ele><time>2026-04-09T07:54:32Z</time></trkpt><trkpt lat="37.82239889977938" lon="15.226864581149792"><ele>68.0</ele><time>2026-04-09T07:54:34Z</time></trkpt><trkpt lat="37.82236530145699" lon="15.226740685346766"><ele>68.0</ele><time>2026-04-09T07:54:36Z</time></trkpt><trkpt lat="37.82231185019135" lon="15.226692014599749"><ele>68.0</ele><time>2026-04-09T07:54:37Z</time></trkpt><trkpt lat="37.82222079702071" lon="15.226591372272601"><ele>68.0</ele><time>2026-04-09T07:54:39Z</time></trkpt><trkpt lat="37.822162143074046" lon="15.226460488247648"><ele>68.0</ele><time>2026-04-09T07:54:41Z</time></trkpt><trkpt lat="37.82217631718445" lon="15.226323883717859"><ele>68.0</ele><time>2026-04-09T07:54:43Z</time></trkpt><trkpt lat="37.82217951742859" lon="15.226185923753325"><ele>68.5</ele><time>2026-04-09T07:54:45Z</time></trkpt><trkpt lat="37.82224905462174" lon="15.22616823300996"><ele>69.0</ele><time>2026-04-09T07:54:48Z</time></trkpt><trkpt lat="37.82233235534623" lon="15.22619009131019"><ele>69.5</ele><time>2026-04-09T07:54:52Z</time></trkpt><trkpt lat="37.82239672474103" lon="15.226207569643917"><ele>70.0</ele><time>2026-04-09T07:54:53Z</time></trkpt><trkpt lat="37.82246953527695" lon="15.226233883566271"><ele>70.5</ele><time>2026-04-09T07:54:54Z</time></trkpt><trkpt lat="37.82253524884861" lon="15.226256482401267"><ele>71.0</ele><time>2026-04-09T07:54:56Z</time></trkpt><trkpt lat="37.82255575958631" lon="15.226391791578209"><ele>71.0</ele><time>2026-04-09T07:55:06Z</time></trkpt><trkpt lat="37.822547071601235" lon="15.226471894422373"><ele>71.0</ele><time>2026-04-09T07:55:07Z</time></trkpt><trkpt lat="37.82251871921595" lon="15.226565248324764"><ele>71.0</ele><time>2026-04-09T07:55:09Z</time></trkpt><trkpt lat="37.822562296849185" lon="15.226628672998823"><ele>71.0</ele><time>2026-04-09T07:55:12Z</time></trkpt><trkpt lat="37.82259513223356" lon="15.226707797441888"><ele>71.0</ele><time>2026-04-09T07:55:16Z</time></trkpt><trkpt lat="37.82265800680857" lon="15.226685426019213"><ele>71.0</ele><time>2026-04-09T07:55:19Z</time></trkpt><trkpt lat="37.82263092158647" lon="15.226854447258493"><ele>70.39999999999999</ele><time>2026-04-09T07:55:20Z</time></trkpt><trkpt lat="37.822617420972435" lon="15.226988465543144"><ele>69.8</ele><time>2026-04-09T07:55:22Z</time></trkpt><trkpt lat="37.822592065639526" lon="15.227141665777223"><ele>69.19999999999999</ele><time>2026-04-09T07:55:24Z</time></trkpt><trkpt lat="37.82261373682648" lon="15.22722343651525"><ele>68.6</ele><time>2026-04-09T07:55:26Z</time></trkpt><trkpt lat="37.822686913592904" lon="15.227284419821512"><ele>68.0</ele><time>2026-04-09T07:55:30Z</time></trkpt><trkpt lat="37.82280187743396" lon="15.227295944803066"><ele>69.2</ele><time>2026-04-09T07:55:32Z</time></trkpt><trkpt lat="37.822914037035744" lon="15.227281485216988"><ele>70.4</ele><time>2026-04-09T07:55:34Z</time></trkpt><trkpt lat="37.82296959022115" lon="15.227319246242"><ele>71.60000000000001</ele><time>2026-04-09T07:55:36Z</time></trkpt><trkpt lat="37.822908731711905" lon="15.22750966521473"><ele>72.8</ele><time>2026-04-09T07:55:55Z</time></trkpt><trkpt lat="37.822845963502694" lon="15.22758239144408"><ele>74.0</ele><time>2026-04-09T07:55:58Z</time></trkpt><trkpt lat="37.822810598749236" lon="15.227656868979853"><ele>74.0</ele><time>2026-04-09T07:56:01Z</time></trkpt><trkpt lat="37.82279429730848" lon="15.22774898160593"><ele>74.0</ele><time>2026-04-09T07:56:06Z</time></trkpt><trkpt lat="37.82296291503175" lon="15.227844004604375"><ele>74.0</ele><time>2026-04-09T07:56:10Z</time></trkpt><trkpt lat="37.822900852407706" lon="15.227944228861418"><ele>74.0</ele><time>2026-04-09T07:56:12Z</time></trkpt><trkpt lat="37.82283781198706" lon="15.227979479652774"><ele>74.0</ele><time>2026-04-09T07:56:13Z</time></trkpt><trkpt lat="37.82276876455545" lon="15.228005374203374"><ele>74.0</ele><time>2026-04-09T07:56:14Z</time></trkpt><trkpt lat="37.822692454904235" lon="15.228041264509317"><ele>74.0</ele><time>2026-04-09T07:56:16Z</time></trkpt><trkpt lat="37.82269322528353" lon="15.228175112562344"><ele>74.0</ele><time>2026-04-09T07:56:18Z</time></trkpt><trkpt lat="37.822673266655" lon="15.228327264101951"><ele>74.0</ele><time>2026-04-09T07:56:20Z</time></trkpt><trkpt lat="37.82266119129436" lon="15.228419797566282"><ele>74.0</ele><time>2026-04-09T07:56:21Z</time></trkpt><trkpt lat="37.822651647542365" lon="15.22851512439751"><ele>72.66666666666667</ele><time>2026-04-09T07:56:22Z</time></trkpt><trkpt lat="37.82262007142665" lon="15.228634801131122"><ele>71.33333333333334</ele><time>2026-04-09T07:56:23Z</time></trkpt><trkpt lat="37.8225860398392" lon="15.228754782258665"><ele>70.0</ele><time>2026-04-09T07:56:24Z</time></trkpt><trkpt lat="37.82256625043127" lon="15.22885589767341"><ele>68.66666666666667</ele><time>2026-04-09T07:56:25Z</time></trkpt><trkpt lat="37.82255925589616" lon="15.228942438513378"><ele>67.33333333333333</ele><time>2026-04-09T07:56:26Z</time></trkpt><trkpt lat="37.82254820045312" lon="15.229024233131012"><ele>66.0</ele><time>2026-04-09T07:56:27Z</time></trkpt><trkpt lat="37.82252964703771" lon="15.229114755097878"><ele>65.39999999999999</ele><time>2026-04-09T07:56:28Z</time></trkpt><trkpt lat="37.82251528850659" lon="15.229196249095825"><ele>64.8</ele><time>2026-04-09T07:56:29Z</time></trkpt><trkpt lat="37.822493782742754" lon="15.229280125598935"><ele>64.19999999999999</ele><time>2026-04-09T07:56:30Z</time></trkpt><trkpt lat="37.82247236436345" lon="15.229419072330282"><ele>63.599999999999994</ele><time>2026-04-09T07:56:32Z</time></trkpt><trkpt lat="37.82246233040716" lon="15.229511673608657"><ele>63.0</ele><time>2026-04-09T07:56:34Z</time></trkpt><trkpt lat="37.822590676628955" lon="15.229543110541162"><ele>62.5</ele><time>2026-04-09T07:56:36Z</time></trkpt><trkpt lat="37.82266422633726" lon="15.229570726197322"><ele>62.0</ele><time>2026-04-09T07:56:37Z</time></trkpt><trkpt lat="37.82272493649343" lon="15.22960138962718"><ele>61.5</ele><time>2026-04-09T07:56:38Z</time></trkpt><trkpt lat="37.822842283440984" lon="15.229633317697054"><ele>61.0</ele><time>2026-04-09T07:56:40Z</time></trkpt><trkpt lat="37.822906466097095" lon="15.229664767696471"><ele>60.5</ele><time>2026-04-09T07:56:41Z</time></trkpt><trkpt lat="37.82301330869859" lon="15.229680037753536"><ele>60.0</ele><time>2026-04-09T07:56:42Z</time></trkpt><trkpt lat="37.82312229652246" lon="15.229716386629697"><ele>60.0</ele><time>2026-04-09T07:56:43Z</time></trkpt><trkpt lat="37.823226284730566" lon="15.229747680227236"><ele>60.0</ele><time>2026-04-09T07:56:44Z</time></trkpt><trkpt lat="37.82331721453205" lon="15.22977248907372"><ele>60.0</ele><time>2026-04-09T07:56:45Z</time></trkpt><trkpt lat="37.82341127347086" lon="15.229798819394235"><ele>60.0</ele><time>2026-04-09T07:56:46Z</time></trkpt><trkpt lat="37.82350850679273" lon="15.22983158352736"><ele>60.0</ele><time>2026-04-09T07:56:47Z</time></trkpt><trkpt lat="37.82360713879293" lon="15.229863412700448"><ele>59.0</ele><time>2026-04-09T07:56:48Z</time></trkpt><trkpt lat="37.823711045373685" lon="15.229898959846425"><ele>58.0</ele><time>2026-04-09T07:56:49Z</time></trkpt><trkpt lat="37.82382931727652" lon="15.229934637144334"><ele>57.0</ele><time>2026-04-09T07:56:50Z</time></trkpt><trkpt lat="37.82395867870952" lon="15.229976641050113"><ele>56.0</ele><time>2026-04-09T07:56:51Z</time></trkpt><trkpt lat="37.824083354388634" lon="15.230021200407457"><ele>56.0</ele><time>2026-04-09T07:56:52Z</time></trkpt><trkpt lat="37.82418752710103" lon="15.230063118666806"><ele>55.99999999999999</ele><time>2026-04-09T07:56:53Z</time></trkpt><trkpt lat="37.82428469786164" lon="15.23010559052393"><ele>55.99999999999999</ele><time>2026-04-09T07:56:54Z</time></trkpt><trkpt lat="37.82437730369652" lon="15.230133510296149"><ele>56.0</ele><time>2026-04-09T07:56:55Z</time></trkpt><trkpt lat="37.82446562767546" lon="15.230153741318238"><ele>56.0</ele><time>2026-04-09T07:56:56Z</time></trkpt><trkpt lat="37.82454551406676" lon="15.230179539348468"><ele>56.4</ele><time>2026-04-09T07:56:57Z</time></trkpt><trkpt lat="37.82461410631915" lon="15.230209733459077"><ele>56.8</ele><time>2026-04-09T07:56:58Z</time></trkpt><trkpt lat="37.82472139482455" lon="15.230208788811131"><ele>57.199999999999996</ele><time>2026-04-09T07:57:00Z</time></trkpt><trkpt lat="37.82483106755897" lon="15.230057047551204"><ele>57.599999999999994</ele><time>2026-04-09T07:57:03Z</time></trkpt><trkpt lat="37.8248222802039" lon="15.229931771430284"><ele>58.0</ele><time>2026-04-09T07:57:04Z</time></trkpt><trkpt lat="37.82479159395451" lon="15.229778462840002"><ele>59.2</ele><time>2026-04-09T07:57:05Z</time></trkpt><trkpt lat="37.82476624357195" lon="15.22963219797132"><ele>60.4</ele><time>2026-04-09T07:57:06Z</time></trkpt><trkpt lat="37.82474481071459" lon="15.229490665964786"><ele>61.60000000000001</ele><time>2026-04-09T07:57:07Z</time></trkpt><trkpt lat="37.82472315043585" lon="15.229348337545348"><ele>62.800000000000004</ele><time>2026-04-09T07:57:08Z</time></trkpt><trkpt lat="37.824710987716855" lon="15.229233500244835"><ele>64.0</ele><time>2026-04-09T07:57:09Z</time></trkpt><trkpt lat="37.824709167556605" lon="15.22913029894437"><ele>63.99999999999999</ele><time>2026-04-09T07:57:10Z</time></trkpt><trkpt lat="37.824722959168426" lon="15.229038314018295"><ele>64.0</ele><time>2026-04-09T07:57:11Z</time></trkpt><trkpt lat="37.824759460318674" lon="15.228949750835422"><ele>64.0</ele><time>2026-04-09T07:57:12Z</time></trkpt><trkpt lat="37.824820917261206" lon="15.228895584228017"><ele>64.0</ele><time>2026-04-09T07:57:13Z</time></trkpt><trkpt lat="37.82487571796855" lon="15.228832512377846"><ele>63.99999999999999</ele><time>2026-04-09T07:57:14Z</time></trkpt><trkpt lat="37.82492742619912" lon="15.228772999503127"><ele>64.0</ele><time>2026-04-09T07:57:15Z</time></trkpt><trkpt lat="37.82499210848765" lon="15.22868540129303"><ele>65.2</ele><time>2026-04-09T07:57:17Z</time></trkpt><trkpt lat="37.82504579645732" lon="15.228606389398072"><ele>66.4</ele><time>2026-04-09T07:57:19Z</time></trkpt><trkpt lat="37.82505889909972" lon="15.228783126570887"><ele>67.6</ele><time>2026-04-09T07:57:20Z</time></trkpt><trkpt lat="37.82509451799584" lon="15.228881172388471"><ele>68.8</ele><time>2026-04-09T07:57:21Z</time></trkpt><trkpt lat="37.82515706597626" lon="15.228999761037255"><ele>70.0</ele><time>2026-04-09T07:57:22Z</time></trkpt><trkpt lat="37.82522811188618" lon="15.229086278815553"><ele>71.83333333333333</ele><time>2026-04-09T07:57:23Z</time></trkpt><trkpt lat="37.82527334445866" lon="15.229146273961593"><ele>73.66666666666666</ele><time>2026-04-09T07:57:24Z</time></trkpt><trkpt lat="37.825320157479545" lon="15.22920119642857"><ele>75.5</ele><time>2026-04-09T07:57:26Z</time></trkpt><trkpt lat="37.82537116934237" lon="15.229256870043184"><ele>77.33333333333333</ele><time>2026-04-09T07:57:28Z</time></trkpt><trkpt lat="37.82546099875895" lon="15.229347354939739"><ele>79.16666666666667</ele><time>2026-04-09T07:57:30Z</time></trkpt><trkpt lat="37.82551635866385" lon="15.22940118873619"><ele>81.0</ele><time>2026-04-09T07:57:31Z</time></trkpt><trkpt lat="37.82557310255956" lon="15.229453398005864"><ele>81.0</ele><time>2026-04-09T07:57:32Z</time></trkpt><trkpt lat="37.825626832059335" lon="15.22950787289697"><ele>81.0</ele><time>2026-04-09T07:57:33Z</time></trkpt><trkpt lat="37.8256964672705" lon="15.229552142809174"><ele>81.0</ele><time>2026-04-09T07:57:34Z</time></trkpt><trkpt lat="37.82576395487736" lon="15.229608841391695"><ele>81.0</ele><time>2026-04-09T07:57:35Z</time></trkpt><trkpt lat="37.8258382123061" lon="15.229658078452996"><ele>81.0</ele><time>2026-04-09T07:57:36Z</time></trkpt><trkpt lat="37.825909965148135" lon="15.229702895347419"><ele>81.0</ele><time>2026-04-09T07:57:37Z</time></trkpt><trkpt lat="37.825989963956275" lon="15.22975432307703"><ele>82.6</ele><time>2026-04-09T07:57:38Z</time></trkpt><trkpt lat="37.82606875179963" lon="15.229806925329664"><ele>84.19999999999999</ele><time>2026-04-09T07:57:39Z</time></trkpt><trkpt lat="37.826152367984335" lon="15.229859580097564"><ele>85.80000000000001</ele><time>2026-04-09T07:57:40Z</time></trkpt><trkpt lat="37.8262407494928" lon="15.229910400736713"><ele>87.4</ele><time>2026-04-09T07:57:41Z</time></trkpt><trkpt lat="37.826341168246955" lon="15.229962006776166"><ele>89.0</ele><time>2026-04-09T07:57:42Z</time></trkpt><trkpt lat="37.82645665067516" lon="15.230005608118653"><ele>87.6</ele><time>2026-04-09T07:57:43Z</time></trkpt><trkpt lat="37.826571784167434" lon="15.230034603582359"><ele>86.2</ele><time>2026-04-09T07:57:44Z</time></trkpt><trkpt lat="37.82666846755857" lon="15.23005210637882"><ele>84.8</ele><time>2026-04-09T07:57:45Z</time></trkpt><trkpt lat="37.82676456684607" lon="15.230103219027086"><ele>83.39999999999999</ele><time>2026-04-09T07:57:46Z</time></trkpt><trkpt lat="37.826870943869075" lon="15.230195918253415"><ele>82.0</ele><time>2026-04-09T07:57:47Z</time></trkpt><trkpt lat="37.82696383614267" lon="15.23030422474069"><ele>82.0</ele><time>2026-04-09T07:57:48Z</time></trkpt><trkpt lat="37.82704714169222" lon="15.23044505975118"><ele>82.0</ele><time>2026-04-09T07:57:49Z</time></trkpt><trkpt lat="37.82711898924271" lon="15.23061918644464"><ele>82.0</ele><time>2026-04-09T07:57:50Z</time></trkpt><trkpt lat="37.82720405278024" lon="15.23082067621702"><ele>77.75</ele><time>2026-04-09T07:57:51Z</time></trkpt><trkpt lat="37.82728453493189" lon="15.230972791384495"><ele>73.5</ele><time>2026-04-09T07:57:52Z</time></trkpt><trkpt lat="37.827377504787876" lon="15.231130871882188"><ele>69.25</ele><time>2026-04-09T07:57:53Z</time></trkpt><trkpt lat="37.827472356743705" lon="15.231270641520808"><ele>65.0</ele><time>2026-04-09T07:57:54Z</time></trkpt><trkpt lat="37.82756960995348" lon="15.231417885890565"><ele>64.66666666666667</ele><time>2026-04-09T07:57:55Z</time></trkpt><trkpt lat="37.82765986009165" lon="15.231581010441706"><ele>64.33333333333333</ele><time>2026-04-09T07:57:56Z</time></trkpt><trkpt lat="37.82774014847863" lon="15.231742379437726"><ele>64.0</ele><time>2026-04-09T07:57:57Z</time></trkpt><trkpt lat="37.827834913538744" lon="15.231883947728354"><ele>64.0</ele><time>2026-04-09T07:57:58Z</time></trkpt><trkpt lat="37.82794512882711" lon="15.232014383343792"><ele>64.0</ele><time>2026-04-09T07:57:59Z</time></trkpt><trkpt lat="37.828071654509905" lon="15.232152693260804"><ele>64.0</ele><time>2026-04-09T07:58:00Z</time></trkpt><trkpt lat="37.82821566382837" lon="15.2322739627389"><ele>60.0</ele><time>2026-04-09T07:58:01Z</time></trkpt><trkpt lat="37.82835470983815" lon="15.232367384553006"><ele>56.0</ele><time>2026-04-09T07:58:02Z</time></trkpt><trkpt lat="37.82848082478929" lon="15.232446358602814"><ele>52.0</ele><time>2026-04-09T07:58:03Z</time></trkpt><trkpt lat="37.828583731382615" lon="15.232517027504903"><ele>48.0</ele><time>2026-04-09T07:58:04Z</time></trkpt><trkpt lat="37.82867310212636" lon="15.232572668045842"><ele>47.4</ele><time>2026-04-09T07:58:05Z</time></trkpt><trkpt lat="37.82876903299891" lon="15.23260413230202"><ele>46.8</ele><time>2026-04-09T07:58:06Z</time></trkpt><trkpt lat="37.82886857715167" lon="15.232588277346126"><ele>46.2</ele><time>2026-04-09T07:58:07Z</time></trkpt><trkpt lat="37.82896782472683" lon="15.232531038623272"><ele>45.6</ele><time>2026-04-09T07:58:08Z</time></trkpt><trkpt lat="37.8290580296026" lon="15.232418171567934"><ele>45.0</ele><time>2026-04-09T07:58:09Z</time></trkpt><trkpt lat="37.82915930372814" lon="15.232302469953275"><ele>44.75</ele><time>2026-04-09T07:58:10Z</time></trkpt><trkpt lat="37.82926019271835" lon="15.232186117715178"><ele>44.5</ele><time>2026-04-09T07:58:11Z</time></trkpt><trkpt lat="37.82936407122739" lon="15.232048936915417"><ele>44.25</ele><time>2026-04-09T07:58:12Z</time></trkpt><trkpt lat="37.82944972110093" lon="15.231898773977106"><ele>44.0</ele><time>2026-04-09T07:58:13Z</time></trkpt><trkpt lat="37.829511003669204" lon="15.231730410148813"><ele>44.0</ele><time>2026-04-09T07:58:14Z</time></trkpt><trkpt lat="37.829595108761126" lon="15.231571727282198"><ele>44.0</ele><time>2026-04-09T07:58:15Z</time></trkpt><trkpt lat="37.82966795817742" lon="15.231416214854722"><ele>44.0</ele><time>2026-04-09T07:58:16Z</time></trkpt><trkpt lat="37.82973097821192" lon="15.231264031728974"><ele>44.0</ele><time>2026-04-09T07:58:17Z</time></trkpt><trkpt lat="37.82978654154344" lon="15.231103437274498"><ele>44.75</ele><time>2026-04-09T07:58:18Z</time></trkpt><trkpt lat="37.8298356864861" lon="15.230932545522741"><ele>45.5</ele><time>2026-04-09T07:58:19Z</time></trkpt><trkpt lat="37.82987822824658" lon="15.230750887940731"><ele>46.25</ele><time>2026-04-09T07:58:20Z</time></trkpt><trkpt lat="37.829906330945285" lon="15.230599581827462"><ele>47.0</ele><time>2026-04-09T07:58:21Z</time></trkpt><trkpt lat="37.82992966426326" lon="15.230468884610278"><ele>46.6</ele><time>2026-04-09T07:58:22Z</time></trkpt><trkpt lat="37.82996078336097" lon="15.23034154582853"><ele>46.2</ele><time>2026-04-09T07:58:23Z</time></trkpt><trkpt lat="37.83003037610536" lon="15.230240919654724"><ele>45.8</ele><time>2026-04-09T07:58:24Z</time></trkpt><trkpt lat="37.83010044043131" lon="15.23013975973154"><ele>45.4</ele><time>2026-04-09T07:58:25Z</time></trkpt><trkpt lat="37.830142725839" lon="15.230034931667"><ele>45.0</ele><time>2026-04-09T07:58:26Z</time></trkpt><trkpt lat="37.83019284816824" lon="15.229978548061684"><ele>45.0</ele><time>2026-04-09T07:58:27Z</time></trkpt><trkpt lat="37.830222976437106" lon="15.229906344763403"><ele>45.0</ele><time>2026-04-09T07:58:28Z</time></trkpt><trkpt lat="37.83025494397202" lon="15.229808942912875"><ele>45.0</ele><time>2026-04-09T07:58:30Z</time></trkpt><trkpt lat="37.8302984263034" lon="15.229725950472414"><ele>45.0</ele><time>2026-04-09T07:58:43.001Z</time></trkpt><trkpt lat="37.83032560444773" lon="15.229652626182917"><ele>45.0</ele><time>2026-04-09T07:58:47.001Z</time></trkpt><trkpt lat="37.83038783968314" lon="15.22959577947905"><ele>45.0</ele><time>2026-04-09T07:59:21Z</time></trkpt><trkpt lat="37.830478745042114" lon="15.22951252244035"><ele>45.5</ele><time>2026-04-09T07:59:23Z</time></trkpt><trkpt lat="37.830528797037694" lon="15.229460133587917"><ele>46.0</ele><time>2026-04-09T07:59:24Z</time></trkpt><trkpt lat="37.83059190960233" lon="15.229426960804755"><ele>46.5</ele><time>2026-04-09T07:59:25Z</time></trkpt><trkpt lat="37.830671384103745" lon="15.229327675885317"><ele>47.0</ele><time>2026-04-09T07:59:27Z</time></trkpt><trkpt lat="37.83070413059347" lon="15.229254700931492"><ele>47.5</ele><time>2026-04-09T07:59:28Z</time></trkpt><trkpt lat="37.830701539382225" lon="15.22917042545048"><ele>48.0</ele><time>2026-04-09T07:59:29Z</time></trkpt><trkpt lat="37.83073231782153" lon="15.229052317261747"><ele>48.0</ele><time>2026-04-09T07:59:31Z</time></trkpt><trkpt lat="37.830827685752965" lon="15.2290092834235"><ele>48.0</ele><time>2026-04-09T07:59:33Z</time></trkpt><trkpt lat="37.83091394293395" lon="15.22897383805519"><ele>48.0</ele><time>2026-04-09T07:59:34Z</time></trkpt><trkpt lat="37.8309912379583" lon="15.228945150352372"><ele>48.0</ele><time>2026-04-09T07:59:35Z</time></trkpt><trkpt lat="37.83108031637154" lon="15.228915977403236"><ele>48.0</ele><time>2026-04-09T07:59:36Z</time></trkpt><trkpt lat="37.83117283490716" lon="15.228879801534191"><ele>47.8</ele><time>2026-04-09T07:59:37Z</time></trkpt><trkpt lat="37.83126625934016" lon="15.228840231850443"><ele>47.599999999999994</ele><time>2026-04-09T07:59:38Z</time></trkpt><trkpt lat="37.83136153296137" lon="15.228805933043882"><ele>47.400000000000006</ele><time>2026-04-09T07:59:39Z</time></trkpt><trkpt lat="37.831455475363754" lon="15.228776869839612"><ele>47.2</ele><time>2026-04-09T07:59:40Z</time></trkpt><trkpt lat="37.83154716521464" lon="15.228747361914532"><ele>47.0</ele><time>2026-04-09T07:59:41Z</time></trkpt><trkpt lat="37.8316370205187" lon="15.228720549817412"><ele>47.0</ele><time>2026-04-09T07:59:42Z</time></trkpt><trkpt lat="37.83172825353423" lon="15.228696160964196"><ele>47.0</ele><time>2026-04-09T07:59:43Z</time></trkpt><trkpt lat="37.83181808436901" lon="15.228671471700784"><ele>47.0</ele><time>2026-04-09T07:59:44Z</time></trkpt><trkpt lat="37.83190844725833" lon="15.228672097229847"><ele>47.0</ele><time>2026-04-09T07:59:45Z</time></trkpt><trkpt lat="37.83199642747479" lon="15.228634803254206"><ele>47.0</ele><time>2026-04-09T07:59:46Z</time></trkpt><trkpt lat="37.83207940120219" lon="15.228605212421884"><ele>47.2</ele><time>2026-04-09T07:59:47Z</time></trkpt><trkpt lat="37.83216926818045" lon="15.228578086238942"><ele>47.400000000000006</ele><time>2026-04-09T07:59:48Z</time></trkpt><trkpt lat="37.832260747610164" lon="15.228566678395405"><ele>47.599999999999994</ele><time>2026-04-09T07:59:49Z</time></trkpt><trkpt lat="37.83234553051091" lon="15.228568744637336"><ele>47.8</ele><time>2026-04-09T07:59:50Z</time></trkpt><trkpt lat="37.832446930493525" lon="15.228574476952877"><ele>48.0</ele><time>2026-04-09T07:59:51Z</time></trkpt><trkpt lat="37.8325521650078" lon="15.228578487991818"><ele>48.2</ele><time>2026-04-09T07:59:52Z</time></trkpt><trkpt lat="37.832650941809064" lon="15.228588521515716"><ele>48.4</ele><time>2026-04-09T07:59:53Z</time></trkpt><trkpt lat="37.832752205631856" lon="15.228602574361952"><ele>48.6</ele><time>2026-04-09T07:59:54Z</time></trkpt><trkpt lat="37.832850328592265" lon="15.228607393415045"><ele>48.800000000000004</ele><time>2026-04-09T07:59:55Z</time></trkpt><trkpt lat="37.832946361455946" lon="15.228615194884437"><ele>49.0</ele><time>2026-04-09T07:59:56Z</time></trkpt><trkpt lat="37.83303407243493" lon="15.228627496191272"><ele>48.99999999999999</ele><time>2026-04-09T07:59:57Z</time></trkpt><trkpt lat="37.83311695103633" lon="15.228637050711342"><ele>49.0</ele><time>2026-04-09T07:59:58Z</time></trkpt><trkpt lat="37.83319713602213" lon="15.22863892243533"><ele>49.0</ele><time>2026-04-09T07:59:59Z</time></trkpt><trkpt lat="37.83327205525032" lon="15.228625698552728"><ele>49.0</ele><time>2026-04-09T08:00:00Z</time></trkpt><trkpt lat="37.8333678714092" lon="15.228599529153922"><ele>48.99999999999999</ele><time>2026-04-09T08:00:01Z</time></trkpt><trkpt lat="37.83347625742309" lon="15.2285798884304"><ele>49.0</ele><time>2026-04-09T08:00:02Z</time></trkpt><trkpt lat="37.83358337837264" lon="15.228555450132276"><ele>49.400000000000006</ele><time>2026-04-09T08:00:03Z</time></trkpt><trkpt lat="37.833663322571624" lon="15.228536870734114"><ele>49.8</ele><time>2026-04-09T08:00:04Z</time></trkpt><trkpt lat="37.83375462786167" lon="15.228545091243582"><ele>50.2</ele><time>2026-04-09T08:00:05Z</time></trkpt><trkpt lat="37.83385358125735" lon="15.228569034697648"><ele>50.599999999999994</ele><time>2026-04-09T08:00:06Z</time></trkpt><trkpt lat="37.83395482554589" lon="15.228593562069582"><ele>51.0</ele><time>2026-04-09T08:00:07Z</time></trkpt><trkpt lat="37.83406359375854" lon="15.228611403166349"><ele>51.0</ele><time>2026-04-09T08:00:08Z</time></trkpt><trkpt lat="37.834177566736244" lon="15.228625798649439"><ele>51.0</ele><time>2026-04-09T08:00:09Z</time></trkpt><trkpt lat="37.83429284564615" lon="15.228642604743712"><ele>51.0</ele><time>2026-04-09T08:00:10Z</time></trkpt><trkpt lat="37.83437687011445" lon="15.22865410027348"><ele>51.0</ele><time>2026-04-09T08:00:11Z</time></trkpt><trkpt lat="37.83445557321812" lon="15.228669488487553"><ele>51.0</ele><time>2026-04-09T08:00:12Z</time></trkpt><trkpt lat="37.83453714801353" lon="15.228698170733946"><ele>50.8</ele><time>2026-04-09T08:00:13Z</time></trkpt><trkpt lat="37.83461348474935" lon="15.228734155706555"><ele>50.599999999999994</ele><time>2026-04-09T08:00:14Z</time></trkpt><trkpt lat="37.83467712762297" lon="15.22876674364195"><ele>50.4</ele><time>2026-04-09T08:00:15Z</time></trkpt><trkpt lat="37.83479036582768" lon="15.228802094458015"><ele>50.2</ele><time>2026-04-09T08:00:17Z</time></trkpt><trkpt lat="37.83489446217617" lon="15.228780953524131"><ele>50.0</ele><time>2026-04-09T08:00:19Z</time></trkpt><trkpt lat="37.835004649171864" lon="15.228741370180469"><ele>50.0</ele><time>2026-04-09T08:00:21Z</time></trkpt><trkpt lat="37.835111383902195" lon="15.228715085164064"><ele>50.0</ele><time>2026-04-09T08:00:23Z</time></trkpt><trkpt lat="37.83522250833492" lon="15.228693722686758"><ele>50.0</ele><time>2026-04-09T08:00:25Z</time></trkpt><trkpt lat="37.835317811671665" lon="15.2286352886664"><ele>50.0</ele><time>2026-04-09T08:00:27Z</time></trkpt><trkpt lat="37.83540404380163" lon="15.228623580909254"><ele>50.0</ele><time>2026-04-09T08:00:29Z</time></trkpt><trkpt lat="37.83550103978545" lon="15.228623786076762"><ele>50.16666666666667</ele><time>2026-04-09T08:00:32Z</time></trkpt><trkpt lat="37.83559111500442" lon="15.228627903609889"><ele>50.333333333333336</ele><time>2026-04-09T08:00:34Z</time></trkpt><trkpt lat="37.835694377427664" lon="15.228626456401118"><ele>50.5</ele><time>2026-04-09T08:00:36Z</time></trkpt><trkpt lat="37.835772053374015" lon="15.228635974133272"><ele>50.66666666666667</ele><time>2026-04-09T08:00:38.001Z</time></trkpt><trkpt lat="37.835851158798924" lon="15.228643831627346"><ele>50.833333333333336</ele><time>2026-04-09T08:00:40.001Z</time></trkpt><trkpt lat="37.83592326472915" lon="15.228707469395234"><ele>51.0</ele><time>2026-04-09T08:00:42.001Z</time></trkpt><trkpt lat="37.83598779328016" lon="15.228771191049722"><ele>51.0</ele><time>2026-04-09T08:00:44.001Z</time></trkpt><trkpt lat="37.836086820662494" lon="15.228835266999836"><ele>51.0</ele><time>2026-04-09T08:00:46.001Z</time></trkpt><trkpt lat="37.83616368950002" lon="15.22887301116413"><ele>51.0</ele><time>2026-04-09T08:00:47.001Z</time></trkpt><trkpt lat="37.83623414910306" lon="15.2289024271154"><ele>51.0</ele><time>2026-04-09T08:00:48.001Z</time></trkpt><trkpt lat="37.83630544312513" lon="15.228924182585605"><ele>51.0</ele><time>2026-04-09T08:00:49.001Z</time></trkpt><trkpt lat="37.83639084548656" lon="15.228969548702645"><ele>51.0</ele><time>2026-04-09T08:00:50.001Z</time></trkpt><trkpt lat="37.836488428559285" lon="15.228968185247728"><ele>51.166666666666664</ele><time>2026-04-09T08:00:51.001Z</time></trkpt><trkpt lat="37.8365705414428" lon="15.22899574775562"><ele>51.33333333333333</ele><time>2026-04-09T08:00:52.001Z</time></trkpt><trkpt lat="37.836651873086566" lon="15.229003572816525"><ele>51.5</ele><time>2026-04-09T08:00:53.001Z</time></trkpt><trkpt lat="37.83673478940858" lon="15.22900335846831"><ele>51.666666666666664</ele><time>2026-04-09T08:00:54.001Z</time></trkpt><trkpt lat="37.83682213366024" lon="15.22900138805509"><ele>51.83333333333333</ele><time>2026-04-09T08:00:55.001Z</time></trkpt><trkpt lat="37.83691445557898" lon="15.229007688179367"><ele>52.0</ele><time>2026-04-09T08:00:56.001Z</time></trkpt><trkpt lat="37.837011729939285" lon="15.228990866487733"><ele>52.166666666666664</ele><time>2026-04-09T08:00:57.001Z</time></trkpt><trkpt lat="37.837104146880016" lon="15.228966444304069"><ele>52.33333333333333</ele><time>2026-04-09T08:00:58.001Z</time></trkpt><trkpt lat="37.83718963473496" lon="15.228944411783628"><ele>52.5</ele><time>2026-04-09T08:00:59.001Z</time></trkpt><trkpt lat="37.837263991582056" lon="15.228925247677017"><ele>52.66666666666667</ele><time>2026-04-09T08:01:00.001Z</time></trkpt><trkpt lat="37.837330156585296" lon="15.228896184975829"><ele>52.833333333333336</ele><time>2026-04-09T08:01:01Z</time></trkpt><trkpt lat="37.83743114475457" lon="15.228841331936373"><ele>53.0</ele><time>2026-04-09T08:01:03Z</time></trkpt><trkpt lat="37.83749193388307" lon="15.228781335597617"><ele>53.00000000000001</ele><time>2026-04-09T08:01:04Z</time></trkpt><trkpt lat="37.83757272809776" lon="15.22874797759277"><ele>53.0</ele><time>2026-04-09T08:01:05Z</time></trkpt><trkpt lat="37.83765702574202" lon="15.228680673159941"><ele>53.0</ele><time>2026-04-09T08:01:06Z</time></trkpt><trkpt lat="37.83772390022114" lon="15.22862228809126"><ele>53.0</ele><time>2026-04-09T08:01:07Z</time></trkpt><trkpt lat="37.837789503770374" lon="15.228563079882122"><ele>53.00000000000001</ele><time>2026-04-09T08:01:08Z</time></trkpt><trkpt lat="37.837847628100924" lon="15.2285083601249"><ele>53.0</ele><time>2026-04-09T08:01:09Z</time></trkpt><trkpt lat="37.837915644252114" lon="15.228444269663914"><ele>53.00000000000001</ele><time>2026-04-09T08:01:10Z</time></trkpt><trkpt lat="37.83798717205737" lon="15.228372859328735"><ele>53.0</ele><time>2026-04-09T08:01:11Z</time></trkpt><trkpt lat="37.83805162513337" lon="15.228306688403242"><ele>53.0</ele><time>2026-04-09T08:01:12Z</time></trkpt><trkpt lat="37.83811227517367" lon="15.22825428005819"><ele>53.0</ele><time>2026-04-09T08:01:13Z</time></trkpt><trkpt lat="37.83818800390419" lon="15.228203501129078"><ele>53.00000000000001</ele><time>2026-04-09T08:01:14Z</time></trkpt><trkpt lat="37.838285483929795" lon="15.228144399975688"><ele>53.0</ele><time>2026-04-09T08:01:15Z</time></trkpt><trkpt lat="37.83836602634386" lon="15.22809814971531"><ele>53.333333333333336</ele><time>2026-04-09T08:01:16Z</time></trkpt><trkpt lat="37.8384306007325" lon="15.228059057441605"><ele>53.66666666666667</ele><time>2026-04-09T08:01:17Z</time></trkpt><trkpt lat="37.83850370832003" lon="15.22801103170594"><ele>54.0</ele><time>2026-04-09T08:01:18Z</time></trkpt><trkpt lat="37.83857591644587" lon="15.227960008601915"><ele>54.33333333333333</ele><time>2026-04-09T08:01:19Z</time></trkpt><trkpt lat="37.83865252088435" lon="15.227906144869008"><ele>54.666666666666664</ele><time>2026-04-09T08:01:20Z</time></trkpt><trkpt lat="37.83871885444653" lon="15.227860338059944"><ele>55.0</ele><time>2026-04-09T08:01:21Z</time></trkpt><trkpt lat="37.83878088402703" lon="15.22781782706213"><ele>54.99999999999999</ele><time>2026-04-09T08:01:22Z</time></trkpt><trkpt lat="37.83884592618388" lon="15.227767733148704"><ele>55.0</ele><time>2026-04-09T08:01:23Z</time></trkpt><trkpt lat="37.83894097045878" lon="15.227678368853878"><ele>55.0</ele><time>2026-04-09T08:01:25Z</time></trkpt><trkpt lat="37.839003302409886" lon="15.22759923822011"><ele>55.0</ele><time>2026-04-09T08:01:26Z</time></trkpt><trkpt lat="37.839071985436554" lon="15.227526961422333"><ele>54.99999999999999</ele><time>2026-04-09T08:01:27Z</time></trkpt><trkpt lat="37.839129499344175" lon="15.22746868033737"><ele>55.0</ele><time>2026-04-09T08:01:28Z</time></trkpt><trkpt lat="37.839196380005696" lon="15.227409579959119"><ele>54.99999999999999</ele><time>2026-04-09T08:01:29Z</time></trkpt><trkpt lat="37.83926472911662" lon="15.22736638585233"><ele>55.0</ele><time>2026-04-09T08:01:30Z</time></trkpt><trkpt lat="37.839329216673335" lon="15.227334926566078"><ele>55.0</ele><time>2026-04-09T08:01:31Z</time></trkpt><trkpt lat="37.83940353246532" lon="15.227291669842629"><ele>55.0</ele><time>2026-04-09T08:01:32Z</time></trkpt><trkpt lat="37.83948675764767" lon="15.227259272515392"><ele>54.99999999999999</ele><time>2026-04-09T08:01:33Z</time></trkpt><trkpt lat="37.839567898768536" lon="15.22721919089657"><ele>55.0</ele><time>2026-04-09T08:01:34Z</time></trkpt><trkpt lat="37.839624659552854" lon="15.22716972814862"><ele>55.166666666666664</ele><time>2026-04-09T08:01:35Z</time></trkpt><trkpt lat="37.839737130693464" lon="15.227107832207464"><ele>55.33333333333333</ele><time>2026-04-09T08:01:37Z</time></trkpt><trkpt lat="37.83980290750922" lon="15.227070993279494"><ele>55.5</ele><time>2026-04-09T08:01:38Z</time></trkpt><trkpt lat="37.83986058563002" lon="15.227017561812847"><ele>55.66666666666667</ele><time>2026-04-09T08:01:39Z</time></trkpt><trkpt lat="37.83994137890459" lon="15.226978003803369"><ele>55.833333333333336</ele><time>2026-04-09T08:01:40Z</time></trkpt><trkpt lat="37.839995241599304" lon="15.226929999546048"><ele>56.0</ele><time>2026-04-09T08:01:41Z</time></trkpt><trkpt lat="37.840060916392005" lon="15.226906648170623"><ele>56.0</ele><time>2026-04-09T08:01:42Z</time></trkpt><trkpt lat="37.84012242293845" lon="15.22686395335399"><ele>56.0</ele><time>2026-04-09T08:01:42.999Z</time></trkpt><trkpt lat="37.8401861750459" lon="15.226816377413904"><ele>56.0</ele><time>2026-04-09T08:01:43.999Z</time></trkpt><trkpt lat="37.840251005521026" lon="15.226760950582207"><ele>56.0</ele><time>2026-04-09T08:01:44.999Z</time></trkpt><trkpt lat="37.840306573083275" lon="15.22670880002354"><ele>56.0</ele><time>2026-04-09T08:01:45.999Z</time></trkpt><trkpt lat="37.84037818177179" lon="15.226656647502422"><ele>56.0</ele><time>2026-04-09T08:01:47.999Z</time></trkpt><trkpt lat="37.84044640114166" lon="15.226689493061615"><ele>56.0</ele><time>2026-04-09T08:01:49.999Z</time></trkpt><trkpt lat="37.840521297941144" lon="15.226756400947304"><ele>55.8</ele><time>2026-04-09T08:01:51.999Z</time></trkpt><trkpt lat="37.840632376901894" lon="15.22678341626813"><ele>55.599999999999994</ele><time>2026-04-09T08:01:53.999Z</time></trkpt><trkpt lat="37.84074862925185" lon="15.226715090948252"><ele>55.4</ele><time>2026-04-09T08:01:55.999Z</time></trkpt><trkpt lat="37.840820525512356" lon="15.22667150712358"><ele>55.2</ele><time>2026-04-09T08:01:56.999Z</time></trkpt><trkpt lat="37.84090721823987" lon="15.226618199703822"><ele>55.0</ele><time>2026-04-09T08:01:57.999Z</time></trkpt><trkpt lat="37.84099705287829" lon="15.226553557426119"><ele>54.99999999999999</ele><time>2026-04-09T08:01:58.999Z</time></trkpt><trkpt lat="37.84107172768586" lon="15.226492411149218"><ele>55.0</ele><time>2026-04-09T08:01:59.999Z</time></trkpt><trkpt lat="37.841151920758925" lon="15.226424771556909"><ele>55.0</ele><time>2026-04-09T08:02:00.999Z</time></trkpt><trkpt lat="37.84122919266685" lon="15.226361800951759"><ele>55.0</ele><time>2026-04-09T08:02:01.999Z</time></trkpt><trkpt lat="37.84130804477039" lon="15.226299562498559"><ele>54.99999999999999</ele><time>2026-04-09T08:02:02.999Z</time></trkpt><trkpt lat="37.84137493856413" lon="15.226250983683926"><ele>55.0</ele><time>2026-04-09T08:02:03.999Z</time></trkpt><trkpt lat="37.84144552925658" lon="15.226209764497723"><ele>55.4</ele><time>2026-04-09T08:02:04.999Z</time></trkpt><trkpt lat="37.84158182994393" lon="15.226213036763308"><ele>55.8</ele><time>2026-04-09T08:02:05.999Z</time></trkpt><trkpt lat="37.841656655184394" lon="15.226144604179316"><ele>56.2</ele><time>2026-04-09T08:02:06.999Z</time></trkpt><trkpt lat="37.841714972489164" lon="15.22610187821796"><ele>56.6</ele><time>2026-04-09T08:02:07.999Z</time></trkpt><trkpt lat="37.8417313375936" lon="15.225932297694898"><ele>57.0</ele><time>2026-04-09T08:02:08.999Z</time></trkpt><trkpt lat="37.841835944746016" lon="15.225868185848924"><ele>57.0</ele><time>2026-04-09T08:02:10.999Z</time></trkpt><trkpt lat="37.84195766438802" lon="15.225900223423796"><ele>57.0</ele><time>2026-04-09T08:02:12.999Z</time></trkpt><trkpt lat="37.84202841361444" lon="15.22589343837829"><ele>57.0</ele><time>2026-04-09T08:02:13.999Z</time></trkpt><trkpt lat="37.842109781641604" lon="15.225874652004217"><ele>57.0</ele><time>2026-04-09T08:02:14.999Z</time></trkpt><trkpt lat="37.84218132160093" lon="15.225855927230553"><ele>57.0</ele><time>2026-04-09T08:02:15.999Z</time></trkpt><trkpt lat="37.84226025403039" lon="15.22583750077701"><ele>57.0</ele><time>2026-04-09T08:02:16.999Z</time></trkpt><trkpt lat="37.84233593497943" lon="15.22581983339194"><ele>57.0</ele><time>2026-04-09T08:02:17.999Z</time></trkpt><trkpt lat="37.84240376299396" lon="15.225793271175942"><ele>57.0</ele><time>2026-04-09T08:02:18.999Z</time></trkpt><trkpt lat="37.84247793230631" lon="15.22575391213231"><ele>57.0</ele><time>2026-04-09T08:02:19.999Z</time></trkpt><trkpt lat="37.84255196727913" lon="15.225711639692154"><ele>57.0</ele><time>2026-04-09T08:02:20.999Z</time></trkpt><trkpt lat="37.84262013937114" lon="15.225679994790731"><ele>57.0</ele><time>2026-04-09T08:02:21.999Z</time></trkpt><trkpt lat="37.8427313723654" lon="15.22563792706356"><ele>57.0</ele><time>2026-04-09T08:02:23.999Z</time></trkpt><trkpt lat="37.84283654829642" lon="15.22561772086872"><ele>57.2</ele><time>2026-04-09T08:02:25.999Z</time></trkpt><trkpt lat="37.84289853794962" lon="15.225643132829399"><ele>57.400000000000006</ele><time>2026-04-09T08:02:26.999Z</time></trkpt><trkpt lat="37.84296324205984" lon="15.225649652177708"><ele>57.599999999999994</ele><time>2026-04-09T08:02:27.999Z</time></trkpt><trkpt lat="37.843031686583906" lon="15.225634450162048"><ele>57.8</ele><time>2026-04-09T08:02:29.999Z</time></trkpt><trkpt lat="37.84310451903488" lon="15.225650592402038"><ele>58.0</ele><time>2026-04-09T08:02:52Z</time></trkpt><trkpt lat="37.843324804301645" lon="15.225637918249031"><ele>58.33333333333333</ele><time>2026-04-09T08:03:00Z</time></trkpt><trkpt lat="37.843378884002654" lon="15.225585427144619"><ele>58.666666666666664</ele><time>2026-04-09T08:03:01Z</time></trkpt><trkpt lat="37.843434564264946" lon="15.225531383744535"><ele>59.0</ele><time>2026-04-09T08:03:02Z</time></trkpt><trkpt lat="37.843511097057785" lon="15.22545327582109"><ele>59.33333333333333</ele><time>2026-04-09T08:03:03Z</time></trkpt><trkpt lat="37.843572572732846" lon="15.225383664837574"><ele>59.666666666666664</ele><time>2026-04-09T08:03:04Z</time></trkpt><trkpt lat="37.843627277885496" lon="15.225319305895125"><ele>60.0</ele><time>2026-04-09T08:03:05Z</time></trkpt><trkpt lat="37.84370929564807" lon="15.22522281431504"><ele>60.166666666666664</ele><time>2026-04-09T08:03:07Z</time></trkpt><trkpt lat="37.84376417080821" lon="15.225157068507539"><ele>60.33333333333333</ele><time>2026-04-09T08:03:09Z</time></trkpt><trkpt lat="37.84381147393828" lon="15.225098994851097"><ele>60.5</ele><time>2026-04-09T08:03:12Z</time></trkpt><trkpt lat="37.84387354677069" lon="15.225022788869895"><ele>60.666666666666664</ele><time>2026-04-09T08:03:16Z</time></trkpt><trkpt lat="37.843921022105604" lon="15.22496450417896"><ele>60.83333333333333</ele><time>2026-04-09T08:03:19Z</time></trkpt><trkpt lat="37.8439705497821" lon="15.224909740915987"><ele>61.0</ele><time>2026-04-09T08:03:22Z</time></trkpt><trkpt lat="37.843843385533056" lon="15.224140121076967"><ele>61.28571428571428</ele><time>2026-04-09T08:03:41.999Z</time></trkpt><trkpt lat="37.8438513267406" lon="15.224046852506419"><ele>61.57142857142857</ele><time>2026-04-09T08:03:45.999Z</time></trkpt><trkpt lat="37.843896307487235" lon="15.223985513418983"><ele>61.857142857142854</ele><time>2026-04-09T08:03:49.999Z</time></trkpt><trkpt lat="37.84388914530509" lon="15.223904976149955"><ele>62.14285714285714</ele><time>2026-04-09T08:03:52.999Z</time></trkpt><trkpt lat="37.84389643893757" lon="15.223825383436838"><ele>62.42857142857143</ele><time>2026-04-09T08:03:54.999Z</time></trkpt><trkpt lat="37.84389053113881" lon="15.223742744243575"><ele>62.714285714285715</ele><time>2026-04-09T08:03:56.999Z</time></trkpt><trkpt lat="37.84390786780081" lon="15.223664797280946"><ele>63.0</ele><time>2026-04-09T08:03:58.999Z</time></trkpt><trkpt lat="37.84393672259007" lon="15.223538366381009"><ele>63.333333333333336</ele><time>2026-04-09T08:04:01.999Z</time></trkpt><trkpt lat="37.843939024906064" lon="15.223414323994666"><ele>63.66666666666667</ele><time>2026-04-09T08:04:03.999Z</time></trkpt><trkpt lat="37.84394048711496" lon="15.223316575729667"><ele>64.0</ele><time>2026-04-09T08:04:05.999Z</time></trkpt><trkpt lat="37.84394735644151" lon="15.223194597230844"><ele>64.33333333333334</ele><time>2026-04-09T08:04:07.999Z</time></trkpt><trkpt lat="37.843962878848835" lon="15.223102028319788"><ele>64.66666666666667</ele><time>2026-04-09T08:04:09.999Z</time></trkpt><trkpt lat="37.84400626563624" lon="15.22302982486391"><ele>65.0</ele><time>2026-04-09T08:04:56Z</time></trkpt><trkpt lat="37.84401673685106" lon="15.222928413150314"><ele>65.2</ele><time>2026-04-09T08:04:58Z</time></trkpt><trkpt lat="37.84398473621764" lon="15.22285348804766"><ele>65.4</ele><time>2026-04-09T08:05:00Z</time></trkpt><trkpt lat="37.843899612557145" lon="15.222788993568507"><ele>65.6</ele><time>2026-04-09T08:05:02Z</time></trkpt><trkpt lat="37.84381344718843" lon="15.222710357128793"><ele>65.8</ele><time>2026-04-09T08:05:04Z</time></trkpt><trkpt lat="37.84374482294248" lon="15.222632566916717"><ele>66.0</ele><time>2026-04-09T08:05:06Z</time></trkpt><trkpt lat="37.84366598008632" lon="15.222549078545637"><ele>66.0</ele><time>2026-04-09T08:05:08Z</time></trkpt><trkpt lat="37.84359735900208" lon="15.222461988662843"><ele>66.0</ele><time>2026-04-09T08:05:11Z</time></trkpt><trkpt lat="37.84351862076069" lon="15.222418346610617"><ele>66.0</ele><time>2026-04-09T08:05:14Z</time></trkpt><trkpt lat="37.84345594766605" lon="15.22233927931832"><ele>66.0</ele><time>2026-04-09T08:05:17Z</time></trkpt><trkpt lat="37.84341803105893" lon="15.222274829280924"><ele>66.0</ele><time>2026-04-09T08:05:29Z</time></trkpt><trkpt lat="37.843521364355844" lon="15.222271309620378"><ele>66.0</ele><time>2026-04-09T08:05:32Z</time></trkpt><trkpt lat="37.84358967643815" lon="15.22230858648921"><ele>66.0</ele><time>2026-04-09T08:05:33Z</time></trkpt><trkpt lat="37.84367345667606" lon="15.222323619259411"><ele>66.0</ele><time>2026-04-09T08:05:34Z</time></trkpt><trkpt lat="37.843799541274045" lon="15.222313573737699"><ele>66.0</ele><time>2026-04-09T08:05:36Z</time></trkpt><trkpt lat="37.84387598043536" lon="15.222309724283527"><ele>66.0</ele><time>2026-04-09T08:05:37Z</time></trkpt><trkpt lat="37.843972427114394" lon="15.22229247885546"><ele>66.0</ele><time>2026-04-09T08:05:38Z</time></trkpt><trkpt lat="37.844075798399444" lon="15.222270117062337"><ele>66.0</ele><time>2026-04-09T08:05:39Z</time></trkpt><trkpt lat="37.84418039858192" lon="15.222266186986973"><ele>66.0</ele><time>2026-04-09T08:05:40Z</time></trkpt><trkpt lat="37.84427265720824" lon="15.222231706811677"><ele>66.0</ele><time>2026-04-09T08:05:41Z</time></trkpt><trkpt lat="37.844350194711225" lon="15.222211663478332"><ele>66.0</ele><time>2026-04-09T08:05:41.999Z</time></trkpt><trkpt lat="37.844417880283125" lon="15.222195554320473"><ele>66.0</ele><time>2026-04-09T08:05:42.999Z</time></trkpt><trkpt lat="37.84449072403243" lon="15.222181063208199"><ele>66.0</ele><time>2026-04-09T08:05:43.999Z</time></trkpt><trkpt lat="37.84456804206307" lon="15.222168087915898"><ele>66.6</ele><time>2026-04-09T08:05:44.999Z</time></trkpt><trkpt lat="37.84464584823276" lon="15.222152098445049"><ele>67.19999999999999</ele><time>2026-04-09T08:05:45.999Z</time></trkpt><trkpt lat="37.84473946214923" lon="15.2221356719226"><ele>67.80000000000001</ele><time>2026-04-09T08:05:46.999Z</time></trkpt><trkpt lat="37.844868666326946" lon="15.222127298934955"><ele>68.4</ele><time>2026-04-09T08:05:47.999Z</time></trkpt><trkpt lat="37.84498526261854" lon="15.22211815502175"><ele>69.0</ele><time>2026-04-09T08:05:48.999Z</time></trkpt><trkpt lat="37.84508058201839" lon="15.222107958255538"><ele>70.2</ele><time>2026-04-09T08:05:49.999Z</time></trkpt><trkpt lat="37.845183727241114" lon="15.222097957520065"><ele>71.4</ele><time>2026-04-09T08:05:50.999Z</time></trkpt><trkpt lat="37.8452799964468" lon="15.22208426602361"><ele>72.6</ele><time>2026-04-09T08:05:51.999Z</time></trkpt><trkpt lat="37.84536840566986" lon="15.222039307378767"><ele>73.8</ele><time>2026-04-09T08:05:52.999Z</time></trkpt><trkpt lat="37.84543937397058" lon="15.22198434094909"><ele>75.0</ele><time>2026-04-09T08:05:53.999Z</time></trkpt><trkpt lat="37.8455061892649" lon="15.221948268494504"><ele>75.0</ele><time>2026-04-09T08:05:54.999Z</time></trkpt><trkpt lat="37.84558069278034" lon="15.221870458782297"><ele>75.0</ele><time>2026-04-09T08:05:55.999Z</time></trkpt><trkpt lat="37.84566566714453" lon="15.22184580386301"><ele>75.0</ele><time>2026-04-09T08:05:56.999Z</time></trkpt><trkpt lat="37.84575095292061" lon="15.221814039957538"><ele>75.0</ele><time>2026-04-09T08:05:57.999Z</time></trkpt><trkpt lat="37.845831276380416" lon="15.221787845618495"><ele>75.0</ele><time>2026-04-09T08:05:58.999Z</time></trkpt><trkpt lat="37.84591539468419" lon="15.221741072380176"><ele>75.0</ele><time>2026-04-09T08:05:59.999Z</time></trkpt><trkpt lat="37.84598048578509" lon="15.221704879030261"><ele>74.66666666666667</ele><time>2026-04-09T08:06:00.999Z</time></trkpt><trkpt lat="37.84605257007874" lon="15.221676456612274"><ele>74.33333333333333</ele><time>2026-04-09T08:06:01.999Z</time></trkpt><trkpt lat="37.84612205285963" lon="15.221659893015557"><ele>74.0</ele><time>2026-04-09T08:06:02.999Z</time></trkpt><trkpt lat="37.84618555399846" lon="15.221642570747187"><ele>73.66666666666666</ele><time>2026-04-09T08:06:03.999Z</time></trkpt><trkpt lat="37.84628894002706" lon="15.221609759894879"><ele>73.33333333333333</ele><time>2026-04-09T08:06:05.999Z</time></trkpt><trkpt lat="37.84639737150895" lon="15.221603464274478"><ele>73.0</ele><time>2026-04-09T08:06:07.999Z</time></trkpt><trkpt lat="37.84650741969928" lon="15.22159639923902"><ele>73.0</ele><time>2026-04-09T08:06:09.999Z</time></trkpt><trkpt lat="37.846603392065035" lon="15.221609308093702"><ele>73.0</ele><time>2026-04-09T08:06:11.999Z</time></trkpt><trkpt lat="37.846716782489466" lon="15.22167473936561"><ele>73.0</ele><time>2026-04-09T08:06:13.999Z</time></trkpt><trkpt lat="37.846845708553786" lon="15.221696156492557"><ele>73.0</ele><time>2026-04-09T08:06:15.999Z</time></trkpt><trkpt lat="37.84691647385711" lon="15.221693149253378"><ele>73.0</ele><time>2026-04-09T08:06:16.999Z</time></trkpt><trkpt lat="37.84699425629172" lon="15.221686467670574"><ele>72.16666666666666</ele><time>2026-04-09T08:06:17.999Z</time></trkpt><trkpt lat="37.84706169642544" lon="15.221654299216503"><ele>71.33333333333333</ele><time>2026-04-09T08:06:18.999Z</time></trkpt><trkpt lat="37.847126493028874" lon="15.221639695642036"><ele>70.5</ele><time>2026-04-09T08:06:19.999Z</time></trkpt><trkpt lat="37.847190838291624" lon="15.221625891914973"><ele>69.66666666666667</ele><time>2026-04-09T08:06:20.999Z</time></trkpt><trkpt lat="37.847281606231284" lon="15.22157069354367"><ele>68.83333333333334</ele><time>2026-04-09T08:06:22.999Z</time></trkpt><trkpt lat="37.84739095696729" lon="15.221498864170172"><ele>68.0</ele><time>2026-04-09T08:06:25.999Z</time></trkpt><trkpt lat="37.84744808288795" lon="15.221445222200623"><ele>67.83333333333334</ele><time>2026-04-09T08:06:27.999Z</time></trkpt><trkpt lat="37.84751923557134" lon="15.221423206154995"><ele>67.66666666666667</ele><time>2026-04-09T08:06:29.999Z</time></trkpt><trkpt lat="37.847594175373935" lon="15.221376693882245"><ele>67.5</ele><time>2026-04-09T08:06:31.999Z</time></trkpt><trkpt lat="37.84768063319264" lon="15.221319200968505"><ele>67.33333333333333</ele><time>2026-04-09T08:06:33.999Z</time></trkpt><trkpt lat="37.847783138962136" lon="15.221250961842335"><ele>67.16666666666666</ele><time>2026-04-09T08:06:35.999Z</time></trkpt><trkpt lat="37.847846778223214" lon="15.221208596538164"><ele>67.0</ele><time>2026-04-09T08:06:36.999Z</time></trkpt><trkpt lat="37.847924737115456" lon="15.221156698402545"><ele>67.0</ele><time>2026-04-09T08:06:37.999Z</time></trkpt><trkpt lat="37.84802447300437" lon="15.221105388893129"><ele>67.0</ele><time>2026-04-09T08:06:38.999Z</time></trkpt><trkpt lat="37.84812758396185" lon="15.221055928225573"><ele>67.0</ele><time>2026-04-09T08:06:39.999Z</time></trkpt><trkpt lat="37.8482235797451" lon="15.22100970984953"><ele>67.0</ele><time>2026-04-09T08:06:40.999Z</time></trkpt><trkpt lat="37.84831617445745" lon="15.220943359967357"><ele>67.0</ele><time>2026-04-09T08:06:41.999Z</time></trkpt><trkpt lat="37.84841763194221" lon="15.22090282258802"><ele>67.2</ele><time>2026-04-09T08:06:42.999Z</time></trkpt><trkpt lat="37.84850158195597" lon="15.220859811698435"><ele>67.4</ele><time>2026-04-09T08:06:43.999Z</time></trkpt><trkpt lat="37.84858896964887" lon="15.220814976971306"><ele>67.6</ele><time>2026-04-09T08:06:44.999Z</time></trkpt><trkpt lat="37.84868421277055" lon="15.22077175029781"><ele>67.8</ele><time>2026-04-09T08:06:45.999Z</time></trkpt><trkpt lat="37.84877091937118" lon="15.220712708535078"><ele>68.0</ele><time>2026-04-09T08:06:46.999Z</time></trkpt><trkpt lat="37.848840367902056" lon="15.220657355207956"><ele>68.14285714285714</ele><time>2026-04-09T08:06:47.999Z</time></trkpt><trkpt lat="37.848901226542246" lon="15.220608457670297"><ele>68.28571428571428</ele><time>2026-04-09T08:06:48.999Z</time></trkpt><trkpt lat="37.84896672832322" lon="15.22055547525803"><ele>68.42857142857143</ele><time>2026-04-09T08:06:49.999Z</time></trkpt><trkpt lat="37.84902988497236" lon="15.22049404932994"><ele>68.57142857142857</ele><time>2026-04-09T08:06:50.999Z</time></trkpt><trkpt lat="37.849088452468344" lon="15.220454592242104"><ele>68.71428571428572</ele><time>2026-04-09T08:06:51.999Z</time></trkpt><trkpt lat="37.84914584458422" lon="15.22041144069893"><ele>68.85714285714286</ele><time>2026-04-09T08:06:52.999Z</time></trkpt><trkpt lat="37.84919977115124" lon="15.220358984765015"><ele>69.0</ele><time>2026-04-09T08:06:53.999Z</time></trkpt><trkpt lat="37.849261739551" lon="15.220276577283752"><ele>69.0</ele><time>2026-04-09T08:06:55Z</time></trkpt><trkpt lat="37.84934898532588" lon="15.220172905632479"><ele>69.0</ele><time>2026-04-09T08:06:56Z</time></trkpt><trkpt lat="37.84945255594804" lon="15.220053705462878"><ele>69.0</ele><time>2026-04-09T08:06:57Z</time></trkpt><trkpt lat="37.84953536170516" lon="15.219939055160024"><ele>69.0</ele><time>2026-04-09T08:06:58Z</time></trkpt><trkpt lat="37.849637425807515" lon="15.219872367927637"><ele>69.0</ele><time>2026-04-09T08:06:59Z</time></trkpt><trkpt lat="37.84975693337554" lon="15.21982446375757"><ele>69.0</ele><time>2026-04-09T08:07:00Z</time></trkpt><trkpt lat="37.84986941164658" lon="15.219767285511649"><ele>69.0</ele><time>2026-04-09T08:07:01Z</time></trkpt><trkpt lat="37.849985960880794" lon="15.21969252657189"><ele>69.0</ele><time>2026-04-09T08:07:02Z</time></trkpt><trkpt lat="37.85009943617199" lon="15.219652913275445"><ele>69.0</ele><time>2026-04-09T08:07:03Z</time></trkpt><trkpt lat="37.850207782042716" lon="15.219584438174666"><ele>69.0</ele><time>2026-04-09T08:07:04Z</time></trkpt><trkpt lat="37.850310874025524" lon="15.219534059672661"><ele>69.0</ele><time>2026-04-09T08:07:05Z</time></trkpt><trkpt lat="37.85040170439273" lon="15.21949259194513"><ele>69.0</ele><time>2026-04-09T08:07:06Z</time></trkpt><trkpt lat="37.8504889213517" lon="15.219450984908507"><ele>69.0</ele><time>2026-04-09T08:07:07Z</time></trkpt><trkpt lat="37.8505615222168" lon="15.21941946208092"><ele>69.0</ele><time>2026-04-09T08:07:08Z</time></trkpt><trkpt lat="37.85062938158353" lon="15.219389254212517"><ele>69.0</ele><time>2026-04-09T08:07:09Z</time></trkpt><trkpt lat="37.850705852663054" lon="15.219344284225224"><ele>69.0</ele><time>2026-04-09T08:07:10Z</time></trkpt><trkpt lat="37.850785595222455" lon="15.219316130951364"><ele>69.0</ele><time>2026-04-09T08:07:11Z</time></trkpt><trkpt lat="37.85085555237364" lon="15.219265215389377"><ele>69.0</ele><time>2026-04-09T08:07:12Z</time></trkpt><trkpt lat="37.850910977120776" lon="15.219214926717298"><ele>69.0</ele><time>2026-04-09T08:07:13Z</time></trkpt><trkpt lat="37.85095800586391" lon="15.219155861030265"><ele>69.0</ele><time>2026-04-09T08:07:14Z</time></trkpt><trkpt lat="37.85104132678848" lon="15.219041242514061"><ele>69.0</ele><time>2026-04-09T08:07:16Z</time></trkpt><trkpt lat="37.851092835228144" lon="15.218968942845672"><ele>69.0</ele><time>2026-04-09T08:07:17Z</time></trkpt><trkpt lat="37.85114675802549" lon="15.218897242215306"><ele>69.0</ele><time>2026-04-09T08:07:18Z</time></trkpt><trkpt lat="37.851208525524626" lon="15.21882257317658"><ele>69.0</ele><time>2026-04-09T08:07:19Z</time></trkpt><trkpt lat="37.8512724208866" lon="15.218749414108231"><ele>69.0</ele><time>2026-04-09T08:07:20Z</time></trkpt><trkpt lat="37.8513406633909" lon="15.218672068737916"><ele>69.0</ele><time>2026-04-09T08:07:21Z</time></trkpt><trkpt lat="37.85140608196892" lon="15.21854081775555"><ele>69.0</ele><time>2026-04-09T08:07:22Z</time></trkpt><trkpt lat="37.85148456261914" lon="15.218398535126395"><ele>69.0</ele><time>2026-04-09T08:07:23Z</time></trkpt><trkpt lat="37.85155840453575" lon="15.218264662492238"><ele>69.60000000000001</ele><time>2026-04-09T08:07:24Z</time></trkpt><trkpt lat="37.85162487340377" lon="15.218141876321262"><ele>70.2</ele><time>2026-04-09T08:07:25Z</time></trkpt><trkpt lat="37.85168359446418" lon="15.21803301394866"><ele>70.80000000000001</ele><time>2026-04-09T08:07:26Z</time></trkpt><trkpt lat="37.851738305026934" lon="15.217929923879666"><ele>71.4</ele><time>2026-04-09T08:07:27Z</time></trkpt><trkpt lat="37.85179545233493" lon="15.217822589861798"><ele>72.0</ele><time>2026-04-09T08:07:28Z</time></trkpt><trkpt lat="37.851858622585354" lon="15.217708625212161"><ele>72.0</ele><time>2026-04-09T08:07:29Z</time></trkpt><trkpt lat="37.85192274097589" lon="15.217594470533767"><ele>72.0</ele><time>2026-04-09T08:07:30Z</time></trkpt><trkpt lat="37.8519879303146" lon="15.217473398794144"><ele>72.0</ele><time>2026-04-09T08:07:31Z</time></trkpt><trkpt lat="37.85203863240843" lon="15.217363260043982"><ele>72.0</ele><time>2026-04-09T08:07:32Z</time></trkpt><trkpt lat="37.852077793145874" lon="15.217270091176845"><ele>72.0</ele><time>2026-04-09T08:07:33Z</time></trkpt><trkpt lat="37.8521172801536" lon="15.217177511609362"><ele>72.16666666666667</ele><time>2026-04-09T08:07:34Z</time></trkpt><trkpt lat="37.852165176764736" lon="15.217083946374549"><ele>72.33333333333333</ele><time>2026-04-09T08:07:35Z</time></trkpt><trkpt lat="37.85221485050479" lon="15.217017139333576"><ele>72.5</ele><time>2026-04-09T08:07:36Z</time></trkpt><trkpt lat="37.852266904697444" lon="15.216960213895769"><ele>72.66666666666666</ele><time>2026-04-09T08:07:37Z</time></trkpt><trkpt lat="37.8523178814727" lon="15.216901104190658"><ele>72.83333333333333</ele><time>2026-04-09T08:07:38Z</time></trkpt><trkpt lat="37.85236515223292" lon="15.216827194010888"><ele>73.0</ele><time>2026-04-09T08:07:39Z</time></trkpt><trkpt lat="37.8524021328879" lon="15.216734742480224"><ele>73.0</ele><time>2026-04-09T08:07:40Z</time></trkpt><trkpt lat="37.852483717950115" lon="15.216681187391975"><ele>73.0</ele><time>2026-04-09T08:07:41Z</time></trkpt><trkpt lat="37.85254691229646" lon="15.216589935953433"><ele>73.0</ele><time>2026-04-09T08:07:42Z</time></trkpt><trkpt lat="37.85260761546625" lon="15.216489770037883"><ele>73.0</ele><time>2026-04-09T08:07:43Z</time></trkpt><trkpt lat="37.85265738745864" lon="15.216386208010967"><ele>73.0</ele><time>2026-04-09T08:07:44Z</time></trkpt><trkpt lat="37.85270883633619" lon="15.21627215982926"><ele>72.6</ele><time>2026-04-09T08:07:45Z</time></trkpt><trkpt lat="37.85276001071322" lon="15.21615362504404"><ele>72.19999999999999</ele><time>2026-04-09T08:07:46Z</time></trkpt><trkpt lat="37.85279523567578" lon="15.216051708839402"><ele>71.8</ele><time>2026-04-09T08:07:47Z</time></trkpt><trkpt lat="37.852838469008745" lon="15.215942695083672"><ele>71.39999999999999</ele><time>2026-04-09T08:07:48Z</time></trkpt><trkpt lat="37.85287359601681" lon="15.215816657385327"><ele>71.0</ele><time>2026-04-09T08:07:49Z</time></trkpt><trkpt lat="37.85289283564705" lon="15.215704896307138"><ele>71.39999999999999</ele><time>2026-04-09T08:07:50Z</time></trkpt><trkpt lat="37.852905240981336" lon="15.215604081137373"><ele>71.8</ele><time>2026-04-09T08:07:51Z</time></trkpt><trkpt lat="37.85290776997389" lon="15.215499635270799"><ele>72.19999999999999</ele><time>2026-04-09T08:07:52Z</time></trkpt><trkpt lat="37.85290049795888" lon="15.21539187854207"><ele>72.6</ele><time>2026-04-09T08:07:53Z</time></trkpt><trkpt lat="37.85287949766638" lon="15.215268996861079"><ele>73.0</ele><time>2026-04-09T08:07:54Z</time></trkpt><trkpt lat="37.85288435584109" lon="15.215135909662457"><ele>73.0</ele><time>2026-04-09T08:07:56Z</time></trkpt><trkpt lat="37.85296512355253" lon="15.21505049475291"><ele>73.0</ele><time>2026-04-09T08:07:58Z</time></trkpt><trkpt lat="37.85305826352482" lon="15.215024503190664"><ele>73.0</ele><time>2026-04-09T08:07:59Z</time></trkpt><trkpt lat="37.85315243958032" lon="15.214978245446995"><ele>73.0</ele><time>2026-04-09T08:08:00Z</time></trkpt><trkpt lat="37.85322184112886" lon="15.214932932036842"><ele>73.0</ele><time>2026-04-09T08:08:01Z</time></trkpt><trkpt lat="37.85329266228562" lon="15.214846976994199"><ele>72.6</ele><time>2026-04-09T08:08:02Z</time></trkpt><trkpt lat="37.85335400590003" lon="15.214746693125509"><ele>72.19999999999999</ele><time>2026-04-09T08:08:03Z</time></trkpt><trkpt lat="37.853423655659725" lon="15.21461885894213"><ele>71.8</ele><time>2026-04-09T08:08:04Z</time></trkpt><trkpt lat="37.853490914253776" lon="15.214508311957598"><ele>71.39999999999999</ele><time>2026-04-09T08:08:05Z</time></trkpt><trkpt lat="37.85356209309337" lon="15.214398670969286"><ele>71.0</ele><time>2026-04-09T08:08:06Z</time></trkpt><trkpt lat="37.853633228512784" lon="15.214289791015043"><ele>71.0</ele><time>2026-04-09T08:08:06.999Z</time></trkpt><trkpt lat="37.85370125476762" lon="15.214186391984486"><ele>71.0</ele><time>2026-04-09T08:08:07.999Z</time></trkpt><trkpt lat="37.853772481299565" lon="15.21408639519296"><ele>71.0</ele><time>2026-04-09T08:08:08.999Z</time></trkpt><trkpt lat="37.853841623607536" lon="15.213993835626878"><ele>71.0</ele><time>2026-04-09T08:08:09.999Z</time></trkpt><trkpt lat="37.853912989144774" lon="15.213882579716191"><ele>71.0</ele><time>2026-04-09T08:08:10.999Z</time></trkpt><trkpt lat="37.853972779140626" lon="15.213746320947864"><ele>71.6</ele><time>2026-04-09T08:08:11.999Z</time></trkpt><trkpt lat="37.85402452867614" lon="15.213617602858436"><ele>72.19999999999999</ele><time>2026-04-09T08:08:12.999Z</time></trkpt><trkpt lat="37.85406964925677" lon="15.21349927719417"><ele>72.80000000000001</ele><time>2026-04-09T08:08:13.999Z</time></trkpt><trkpt lat="37.854098648506465" lon="15.21339886158779"><ele>73.4</ele><time>2026-04-09T08:08:14.999Z</time></trkpt><trkpt lat="37.85410522688619" lon="15.213315741363525"><ele>74.0</ele><time>2026-04-09T08:08:15.999Z</time></trkpt><trkpt lat="37.85408561822363" lon="15.213178336913728"><ele>74.33333333333334</ele><time>2026-04-09T08:08:17.999Z</time></trkpt><trkpt lat="37.85410587693768" lon="15.213094805091382"><ele>74.66666666666667</ele><time>2026-04-09T08:08:18.999Z</time></trkpt><trkpt lat="37.854113393673366" lon="15.212983380779328"><ele>75.0</ele><time>2026-04-09T08:08:19.999Z</time></trkpt><trkpt lat="37.854111395288655" lon="15.212876350474055"><ele>75.33333333333333</ele><time>2026-04-09T08:08:20.999Z</time></trkpt><trkpt lat="37.8541214232882" lon="15.212784701961171"><ele>75.66666666666666</ele><time>2026-04-09T08:08:21.999Z</time></trkpt><trkpt lat="37.85415144708078" lon="15.21268320580814"><ele>76.0</ele><time>2026-04-09T08:08:22.999Z</time></trkpt><trkpt lat="37.85416712462763" lon="15.21260483601515"><ele>76.0</ele><time>2026-04-09T08:08:23.999Z</time></trkpt><trkpt lat="37.854189403530164" lon="15.212507847010711"><ele>76.0</ele><time>2026-04-09T08:08:24.999Z</time></trkpt><trkpt lat="37.854231371003934" lon="15.212414734722687"><ele>76.0</ele><time>2026-04-09T08:08:25.999Z</time></trkpt><trkpt lat="37.85427851083433" lon="15.212314567909456"><ele>76.0</ele><time>2026-04-09T08:08:26.999Z</time></trkpt><trkpt lat="37.8543369985082" lon="15.212204558549747"><ele>76.0</ele><time>2026-04-09T08:08:27.999Z</time></trkpt><trkpt lat="37.85439886442123" lon="15.212093645510903"><ele>76.2</ele><time>2026-04-09T08:08:28.999Z</time></trkpt><trkpt lat="37.85446091184177" lon="15.21198926387267"><ele>76.39999999999999</ele><time>2026-04-09T08:08:29.999Z</time></trkpt><trkpt lat="37.85452923382775" lon="15.211883529019117"><ele>76.6</ele><time>2026-04-09T08:08:30.999Z</time></trkpt><trkpt lat="37.854609577585286" lon="15.2117911918701"><ele>76.8</ele><time>2026-04-09T08:08:31.999Z</time></trkpt><trkpt lat="37.8546968366691" lon="15.211693276549735"><ele>77.0</ele><time>2026-04-09T08:08:32.999Z</time></trkpt><trkpt lat="37.85478620800627" lon="15.211596525334809"><ele>77.0</ele><time>2026-04-09T08:08:33.999Z</time></trkpt><trkpt lat="37.854868975673995" lon="15.211518441069924"><ele>77.0</ele><time>2026-04-09T08:08:34.999Z</time></trkpt><trkpt lat="37.854940445638974" lon="15.211462840614555"><ele>77.0</ele><time>2026-04-09T08:08:35.999Z</time></trkpt><trkpt lat="37.855014396696106" lon="15.211433771015129"><ele>77.0</ele><time>2026-04-09T08:08:36.999Z</time></trkpt><trkpt lat="37.855087355332685" lon="15.211374392047059"><ele>77.0</ele><time>2026-04-09T08:08:37.999Z</time></trkpt><trkpt lat="37.85514761504454" lon="15.2113031891071"><ele>77.0</ele><time>2026-04-09T08:08:38.999Z</time></trkpt><trkpt lat="37.85521359397995" lon="15.211215869292381"><ele>77.0</ele><time>2026-04-09T08:08:39.999Z</time></trkpt><trkpt lat="37.85527108308013" lon="15.211141197742448"><ele>77.0</ele><time>2026-04-09T08:08:40.999Z</time></trkpt><trkpt lat="37.85533201713118" lon="15.211068268809848"><ele>77.0</ele><time>2026-04-09T08:08:41.999Z</time></trkpt><trkpt lat="37.85539190743062" lon="15.211002623889778"><ele>77.0</ele><time>2026-04-09T08:08:42.999Z</time></trkpt><trkpt lat="37.85545616823009" lon="15.210935683049188"><ele>77.0</ele><time>2026-04-09T08:08:43.999Z</time></trkpt><trkpt lat="37.85551959596445" lon="15.210875990884341"><ele>77.0</ele><time>2026-04-09T08:08:44.999Z</time></trkpt><trkpt lat="37.85562667926382" lon="15.210807758134173"><ele>77.0</ele><time>2026-04-09T08:08:46.999Z</time></trkpt><trkpt lat="37.8557075947329" lon="15.210772550849516"><ele>77.0</ele><time>2026-04-09T08:08:47.999Z</time></trkpt><trkpt lat="37.8557951091077" lon="15.21072532601693"><ele>77.0</ele><time>2026-04-09T08:08:48.999Z</time></trkpt><trkpt lat="37.85587099718123" lon="15.210677939283123"><ele>77.0</ele><time>2026-04-09T08:08:49.999Z</time></trkpt><trkpt lat="37.855931697025206" lon="15.210637121854083"><ele>77.0</ele><time>2026-04-09T08:08:50.999Z</time></trkpt><trkpt lat="37.85600466433579" lon="15.210576067483542"><ele>77.0</ele><time>2026-04-09T08:08:51.999Z</time></trkpt><trkpt lat="37.85605006539443" lon="15.210507447737589"><ele>77.33333333333334</ele><time>2026-04-09T08:08:52.999Z</time></trkpt><trkpt lat="37.85609571030869" lon="15.210405503203951"><ele>77.66666666666667</ele><time>2026-04-09T08:08:53.999Z</time></trkpt><trkpt lat="37.856128475891126" lon="15.210330853245667"><ele>78.0</ele><time>2026-04-09T08:08:54.999Z</time></trkpt><trkpt lat="37.85615867710266" lon="15.210222475055916"><ele>78.33333333333333</ele><time>2026-04-09T08:08:55.999Z</time></trkpt><trkpt lat="37.856154937745586" lon="15.210123012010632"><ele>78.66666666666666</ele><time>2026-04-09T08:08:56.999Z</time></trkpt><trkpt lat="37.85620243860488" lon="15.209995858847465"><ele>79.0</ele><time>2026-04-09T08:08:58.999Z</time></trkpt><trkpt lat="37.856252276693155" lon="15.20989870643848"><ele>79.83333333333333</ele><time>2026-04-09T08:09:01Z</time></trkpt><trkpt lat="37.85635521317431" lon="15.209823166863679"><ele>80.66666666666666</ele><time>2026-04-09T08:09:03Z</time></trkpt><trkpt lat="37.85642047448197" lon="15.209804781834501"><ele>81.5</ele><time>2026-04-09T08:09:04Z</time></trkpt><trkpt lat="37.85648892011696" lon="15.209757166803286"><ele>82.33333333333333</ele><time>2026-04-09T08:09:05Z</time></trkpt><trkpt lat="37.85655127021212" lon="15.209707671522711"><ele>83.16666666666667</ele><time>2026-04-09T08:09:06Z</time></trkpt><trkpt lat="37.8566332957965" lon="15.209644091520289"><ele>84.0</ele><time>2026-04-09T08:09:07Z</time></trkpt><trkpt lat="37.856716508851854" lon="15.209595493856211"><ele>83.2</ele><time>2026-04-09T08:09:08Z</time></trkpt><trkpt lat="37.85681842511396" lon="15.209539643231125"><ele>82.4</ele><time>2026-04-09T08:09:09Z</time></trkpt><trkpt lat="37.85691242986486" lon="15.209472238311966"><ele>81.6</ele><time>2026-04-09T08:09:10Z</time></trkpt><trkpt lat="37.8569904427153" lon="15.209399573130968"><ele>80.8</ele><time>2026-04-09T08:09:11Z</time></trkpt><trkpt lat="37.8570481760089" lon="15.209321522942279"><ele>80.0</ele><time>2026-04-09T08:09:12Z</time></trkpt><trkpt lat="37.85709852225652" lon="15.209271349595669"><ele>80.0</ele><time>2026-04-09T08:09:13Z</time></trkpt><trkpt lat="37.85719932475673" lon="15.209205265670878"><ele>80.0</ele><time>2026-04-09T08:09:15Z</time></trkpt><trkpt lat="37.85726611852205" lon="15.209190709807332"><ele>80.0</ele><time>2026-04-09T08:09:16Z</time></trkpt><trkpt lat="37.85734070103562" lon="15.209170978154068"><ele>80.0</ele><time>2026-04-09T08:09:17Z</time></trkpt><trkpt lat="37.85741743307083" lon="15.209162844995651"><ele>80.0</ele><time>2026-04-09T08:09:18Z</time></trkpt><trkpt lat="37.857513757889755" lon="15.209170887611785"><ele>80.0</ele><time>2026-04-09T08:09:20Z</time></trkpt><trkpt lat="37.85761610960666" lon="15.209217700375685"><ele>80.8</ele><time>2026-04-09T08:09:22Z</time></trkpt><trkpt lat="37.857708397409986" lon="15.209295079904946"><ele>81.6</ele><time>2026-04-09T08:09:24Z</time></trkpt><trkpt lat="37.857767035886354" lon="15.209352420445242"><ele>82.4</ele><time>2026-04-09T08:09:26Z</time></trkpt><trkpt lat="37.857850632380945" lon="15.209418149874875"><ele>83.2</ele><time>2026-04-09T08:09:28Z</time></trkpt><trkpt lat="37.85796066676591" lon="15.209439062857083"><ele>84.0</ele><time>2026-04-09T08:09:30Z</time></trkpt><trkpt lat="37.85806190823596" lon="15.20936913581845"><ele>84.0</ele><time>2026-04-09T08:09:32Z</time></trkpt><trkpt lat="37.85815998241743" lon="15.209304973338382"><ele>84.0</ele><time>2026-04-09T08:09:34Z</time></trkpt><trkpt lat="37.85826736538393" lon="15.209280035467245"><ele>84.0</ele><time>2026-04-09T08:09:36Z</time></trkpt><trkpt lat="37.85833268117001" lon="15.20926748930439"><ele>84.0</ele><time>2026-04-09T08:09:37Z</time></trkpt><trkpt lat="37.858448669597124" lon="15.209254456879604"><ele>84.0</ele><time>2026-04-09T08:09:39Z</time></trkpt><trkpt lat="37.85858219805302" lon="15.209217397386114"><ele>83.80000000000001</ele><time>2026-04-09T08:09:41Z</time></trkpt><trkpt lat="37.85869398212118" lon="15.209156517516831"><ele>83.60000000000001</ele><time>2026-04-09T08:09:43Z</time></trkpt><trkpt lat="37.858791545129506" lon="15.209049594147007"><ele>83.4</ele><time>2026-04-09T08:09:45Z</time></trkpt><trkpt lat="37.85885436178794" lon="15.208991500002487"><ele>83.2</ele><time>2026-04-09T08:09:46Z</time></trkpt><trkpt lat="37.8589048967773" lon="15.208927948496244"><ele>83.0</ele><time>2026-04-09T08:09:47Z</time></trkpt><trkpt lat="37.85896018735291" lon="15.20884850778887"><ele>83.0</ele><time>2026-04-09T08:09:48Z</time></trkpt><trkpt lat="37.85904001586058" lon="15.208779275751494"><ele>83.0</ele><time>2026-04-09T08:09:50Z</time></trkpt><trkpt lat="37.85909131099084" lon="15.208716986403763"><ele>83.0</ele><time>2026-04-09T08:09:58Z</time></trkpt><trkpt lat="37.85916746615219" lon="15.208634210696253"><ele>83.0</ele><time>2026-04-09T08:10:02Z</time></trkpt><trkpt lat="37.85925659440254" lon="15.208520393985635"><ele>83.0</ele><time>2026-04-09T08:10:04Z</time></trkpt><trkpt lat="37.85931283894237" lon="15.208467945601669"><ele>83.16666666666667</ele><time>2026-04-09T08:10:05Z</time></trkpt><trkpt lat="37.859382439207685" lon="15.208411895742252"><ele>83.33333333333334</ele><time>2026-04-09T08:10:07Z</time></trkpt><trkpt lat="37.85946993132347" lon="15.208380271623742"><ele>83.5</ele><time>2026-04-09T08:10:11Z</time></trkpt><trkpt lat="37.8595313193622" lon="15.208304880220105"><ele>83.66666666666667</ele><time>2026-04-09T08:10:14Z</time></trkpt><trkpt lat="37.85959864096127" lon="15.208224486913466"><ele>83.83333333333333</ele><time>2026-04-09T08:10:16Z</time></trkpt><trkpt lat="37.85963638992165" lon="15.208149617015915"><ele>84.0</ele><time>2026-04-09T08:10:18Z</time></trkpt><trkpt lat="37.85967614265183" lon="15.208078693295205"><ele>84.33333333333333</ele><time>2026-04-09T08:10:20Z</time></trkpt><trkpt lat="37.859733488951115" lon="15.207999593548836"><ele>84.66666666666667</ele><time>2026-04-09T08:10:22Z</time></trkpt><trkpt lat="37.85974140021484" lon="15.207917959720543"><ele>85.0</ele><time>2026-04-09T08:10:24Z</time></trkpt><trkpt lat="37.859690252517495" lon="15.207824000858933"><ele>85.33333333333334</ele><time>2026-04-09T08:10:26Z</time></trkpt><trkpt lat="37.85964889385923" lon="15.2077210213067"><ele>85.66666666666667</ele><time>2026-04-09T08:10:28Z</time></trkpt><trkpt lat="37.859713529140414" lon="15.20763214624834"><ele>86.0</ele><time>2026-04-09T08:10:30Z</time></trkpt><trkpt lat="37.85976690146463" lon="15.207561763798404"><ele>86.0</ele><time>2026-04-09T08:10:31Z</time></trkpt><trkpt lat="37.8598188398581" lon="15.207489140911306"><ele>86.0</ele><time>2026-04-09T08:10:32Z</time></trkpt><trkpt lat="37.859872083425316" lon="15.207402439662904"><ele>86.0</ele><time>2026-04-09T08:10:33Z</time></trkpt><trkpt lat="37.8599348880065" lon="15.20731884984208"><ele>86.0</ele><time>2026-04-09T08:10:34Z</time></trkpt><trkpt lat="37.86000258077935" lon="15.207237553259242"><ele>86.0</ele><time>2026-04-09T08:10:35Z</time></trkpt><trkpt lat="37.86005961616008" lon="15.20715912885091"><ele>86.0</ele><time>2026-04-09T08:10:36Z</time></trkpt><trkpt lat="37.86011345181659" lon="15.207074640639636"><ele>85.8</ele><time>2026-04-09T08:10:37Z</time></trkpt><trkpt lat="37.86017063948402" lon="15.206994892411116"><ele>85.6</ele><time>2026-04-09T08:10:38Z</time></trkpt><trkpt lat="37.86022815913414" lon="15.206921156150623"><ele>85.4</ele><time>2026-04-09T08:10:39Z</time></trkpt><trkpt lat="37.86029021502649" lon="15.20683627274924"><ele>85.2</ele><time>2026-04-09T08:10:40Z</time></trkpt><trkpt lat="37.86035746944976" lon="15.206742634868355"><ele>85.0</ele><time>2026-04-09T08:10:41Z</time></trkpt><trkpt lat="37.86042659214491" lon="15.206629703696567"><ele>85.0</ele><time>2026-04-09T08:10:42Z</time></trkpt><trkpt lat="37.860495763022016" lon="15.206540560580413"><ele>85.0</ele><time>2026-04-09T08:10:43Z</time></trkpt><trkpt lat="37.86055963825302" lon="15.206456903450981"><ele>85.0</ele><time>2026-04-09T08:10:44Z</time></trkpt><trkpt lat="37.86061297940104" lon="15.20637764830371"><ele>85.0</ele><time>2026-04-09T08:10:45Z</time></trkpt><trkpt lat="37.860655304006734" lon="15.206305517703239"><ele>85.0</ele><time>2026-04-09T08:10:46Z</time></trkpt><trkpt lat="37.860705070245295" lon="15.206229607603193"><ele>85.0</ele><time>2026-04-09T08:10:47Z</time></trkpt><trkpt lat="37.860783190281815" lon="15.20617611709628"><ele>85.6</ele><time>2026-04-09T08:10:48Z</time></trkpt><trkpt lat="37.86083088762945" lon="15.20608210727442"><ele>86.2</ele><time>2026-04-09T08:10:49Z</time></trkpt><trkpt lat="37.86086936550087" lon="15.205967938319699"><ele>86.80000000000001</ele><time>2026-04-09T08:10:50Z</time></trkpt><trkpt lat="37.86089646386233" lon="15.20587892233784"><ele>87.4</ele><time>2026-04-09T08:10:51Z</time></trkpt><trkpt lat="37.8609335532402" lon="15.205727544120904"><ele>88.0</ele><time>2026-04-09T08:10:53Z</time></trkpt><trkpt lat="37.860957572505214" lon="15.205570726130334"><ele>88.0</ele><time>2026-04-09T08:10:55Z</time></trkpt><trkpt lat="37.860965557363656" lon="15.205451863221494"><ele>88.0</ele><time>2026-04-09T08:10:56Z</time></trkpt><trkpt lat="37.8609707199376" lon="15.205338615684894"><ele>88.0</ele><time>2026-04-09T08:10:57Z</time></trkpt><trkpt lat="37.86097203274368" lon="15.205225543662255"><ele>88.0</ele><time>2026-04-09T08:10:58Z</time></trkpt><trkpt lat="37.86096986553274" lon="15.205107783269327"><ele>88.0</ele><time>2026-04-09T08:10:59Z</time></trkpt><trkpt lat="37.86095160103851" lon="15.205013611985564"><ele>88.0</ele><time>2026-04-09T08:11:00Z</time></trkpt><trkpt lat="37.860953599832435" lon="15.204928779512105"><ele>90.2</ele><time>2026-04-09T08:11:01Z</time></trkpt><trkpt lat="37.86094660618095" lon="15.204780989712068"><ele>92.4</ele><time>2026-04-09T08:11:03Z</time></trkpt><trkpt lat="37.86094183547097" lon="15.204617777811748"><ele>94.60000000000001</ele><time>2026-04-09T08:11:05Z</time></trkpt><trkpt lat="37.86092813636255" lon="15.204534848536785"><ele>96.80000000000001</ele><time>2026-04-09T08:11:06Z</time></trkpt><trkpt lat="37.860940481294556" lon="15.204362986841552"><ele>99.0</ele><time>2026-04-09T08:11:08.001Z</time></trkpt><trkpt lat="37.86094346963603" lon="15.204261485653872"><ele>99.0</ele><time>2026-04-09T08:11:09.001Z</time></trkpt><trkpt lat="37.86092988043895" lon="15.204169543157803"><ele>99.0</ele><time>2026-04-09T08:11:10.001Z</time></trkpt><trkpt lat="37.8609462858509" lon="15.20408211846693"><ele>99.0</ele><time>2026-04-09T08:11:11.001Z</time></trkpt><trkpt lat="37.860945689177036" lon="15.203988440367372"><ele>99.0</ele><time>2026-04-09T08:11:12Z</time></trkpt><trkpt lat="37.8609435312879" lon="15.20389892461743"><ele>99.0</ele><time>2026-04-09T08:11:13Z</time></trkpt><trkpt lat="37.860934267085504" lon="15.20380338965766"><ele>99.0</ele><time>2026-04-09T08:11:14Z</time></trkpt><trkpt lat="37.860909102307836" lon="15.203720662792202"><ele>99.0</ele><time>2026-04-09T08:11:15Z</time></trkpt><trkpt lat="37.8608877130576" lon="15.203629855697063"><ele>98.75</ele><time>2026-04-09T08:11:16Z</time></trkpt><trkpt lat="37.86089665423823" lon="15.20346244763981"><ele>98.5</ele><time>2026-04-09T08:11:18Z</time></trkpt><trkpt lat="37.860902967364986" lon="15.20333245420789"><ele>98.25</ele><time>2026-04-09T08:11:19Z</time></trkpt><trkpt lat="37.86090165670766" lon="15.203193540981372"><ele>98.0</ele><time>2026-04-09T08:11:20Z</time></trkpt><trkpt lat="37.86088826947703" lon="15.203060050293487"><ele>97.66666666666666</ele><time>2026-04-09T08:11:21Z</time></trkpt><trkpt lat="37.86086913054857" lon="15.202960425910465"><ele>97.33333333333333</ele><time>2026-04-09T08:11:22Z</time></trkpt><trkpt lat="37.86082621235736" lon="15.202874533760895"><ele>97.0</ele><time>2026-04-09T08:11:23Z</time></trkpt><trkpt lat="37.86080541213794" lon="15.20279217327564"><ele>96.66666666666666</ele><time>2026-04-09T08:11:24Z</time></trkpt><trkpt lat="37.86081148676468" lon="15.202683450939245"><ele>96.33333333333333</ele><time>2026-04-09T08:11:26Z</time></trkpt><trkpt lat="37.860810891345615" lon="15.202545621401717"><ele>96.0</ele><time>2026-04-09T08:11:28Z</time></trkpt><trkpt lat="37.86083234360999" lon="15.202470474478908"><ele>97.25</ele><time>2026-04-09T08:11:29Z</time></trkpt><trkpt lat="37.86090027710494" lon="15.202235137060724"><ele>98.5</ele><time>2026-04-09T08:11:32Z</time></trkpt><trkpt lat="37.86090535790686" lon="15.202135396139926"><ele>99.75</ele><time>2026-04-09T08:11:33Z</time></trkpt><trkpt lat="37.860860744130605" lon="15.202030759372644"><ele>101.0</ele><time>2026-04-09T08:11:34Z</time></trkpt><trkpt lat="37.860867241695935" lon="15.201921403518657"><ele>100.99999999999999</ele><time>2026-04-09T08:11:35Z</time></trkpt><trkpt lat="37.86086952085857" lon="15.201814609485778"><ele>101.0</ele><time>2026-04-09T08:11:36Z</time></trkpt><trkpt lat="37.86088153344473" lon="15.201709061205326"><ele>101.0</ele><time>2026-04-09T08:11:37Z</time></trkpt><trkpt lat="37.860915422357714" lon="15.20159058475882"><ele>101.0</ele><time>2026-04-09T08:11:38Z</time></trkpt><trkpt lat="37.860957030646915" lon="15.20149681060717"><ele>100.99999999999999</ele><time>2026-04-09T08:11:39Z</time></trkpt><trkpt lat="37.86101329575611" lon="15.201427769815043"><ele>101.0</ele><time>2026-04-09T08:11:40Z</time></trkpt><trkpt lat="37.861085180340694" lon="15.201412629322082"><ele>99.83333333333333</ele><time>2026-04-09T08:11:41Z</time></trkpt><trkpt lat="37.86112530608712" lon="15.201343702315278"><ele>98.66666666666666</ele><time>2026-04-09T08:11:42Z</time></trkpt><trkpt lat="37.861147482735156" lon="15.201256968315835"><ele>97.5</ele><time>2026-04-09T08:11:43Z</time></trkpt><trkpt lat="37.8611492212222" lon="15.201170887167413"><ele>96.33333333333333</ele><time>2026-04-09T08:11:44Z</time></trkpt><trkpt lat="37.86121927110126" lon="15.201055065211655"><ele>95.16666666666666</ele><time>2026-04-09T08:11:46Z</time></trkpt><trkpt lat="37.86126485668853" lon="15.200938468578528"><ele>94.0</ele><time>2026-04-09T08:11:48Z</time></trkpt><trkpt lat="37.86124764768219" lon="15.200821976568287"><ele>94.0</ele><time>2026-04-09T08:11:49Z</time></trkpt><trkpt lat="37.86121438287408" lon="15.200711714007738"><ele>94.0</ele><time>2026-04-09T08:11:50Z</time></trkpt><trkpt lat="37.8611954695564" lon="15.200634487313524"><ele>94.0</ele><time>2026-04-09T08:11:51Z</time></trkpt><trkpt lat="37.861214746496685" lon="15.200549144368654"><ele>94.0</ele><time>2026-04-09T08:11:53Z</time></trkpt><trkpt lat="37.86127907401436" lon="15.200471292024256"><ele>94.0</ele><time>2026-04-09T08:11:55Z</time></trkpt><trkpt lat="37.861325504690406" lon="15.200406916806022"><ele>94.0</ele><time>2026-04-09T08:11:56Z</time></trkpt><trkpt lat="37.86137021587895" lon="15.200340915421997"><ele>95.16666666666666</ele><time>2026-04-09T08:11:57Z</time></trkpt><trkpt lat="37.86145384150569" lon="15.200217634490604"><ele>96.33333333333333</ele><time>2026-04-09T08:11:59Z</time></trkpt><trkpt lat="37.86150220578562" lon="15.200146335857475"><ele>97.5</ele><time>2026-04-09T08:12:00Z</time></trkpt><trkpt lat="37.86154576408725" lon="15.200077672489854"><ele>98.66666666666666</ele><time>2026-04-09T08:12:01Z</time></trkpt><trkpt lat="37.861587087673875" lon="15.199996851647143"><ele>99.83333333333333</ele><time>2026-04-09T08:12:02Z</time></trkpt><trkpt lat="37.86161666595601" lon="15.199884648131519"><ele>101.0</ele><time>2026-04-09T08:12:03Z</time></trkpt><trkpt lat="37.86164641284737" lon="15.199782047607941"><ele>101.83333333333333</ele><time>2026-04-09T08:12:04Z</time></trkpt><trkpt lat="37.86167721266534" lon="15.199679628906761"><ele>102.66666666666666</ele><time>2026-04-09T08:12:05Z</time></trkpt><trkpt lat="37.86170596067387" lon="15.19958403311629"><ele>103.5</ele><time>2026-04-09T08:12:06Z</time></trkpt><trkpt lat="37.861733850428564" lon="15.199496462162353"><ele>104.33333333333334</ele><time>2026-04-09T08:12:07Z</time></trkpt><trkpt lat="37.86176189675588" lon="15.199423702193814"><ele>105.16666666666667</ele><time>2026-04-09T08:12:08Z</time></trkpt><trkpt lat="37.86179443636611" lon="15.199346519487685"><ele>106.0</ele><time>2026-04-09T08:12:09Z</time></trkpt><trkpt lat="37.861830726849696" lon="15.19918727289555"><ele>106.00000000000001</ele><time>2026-04-09T08:12:11Z</time></trkpt><trkpt lat="37.86183940922906" lon="15.199066100833607"><ele>106.0</ele><time>2026-04-09T08:12:12Z</time></trkpt><trkpt lat="37.86185132924546" lon="15.198969109925761"><ele>106.0</ele><time>2026-04-09T08:12:13Z</time></trkpt><trkpt lat="37.86187143219884" lon="15.198863170932427"><ele>106.0</ele><time>2026-04-09T08:12:14Z</time></trkpt><trkpt lat="37.8619013045339" lon="15.198790002381939"><ele>106.00000000000001</ele><time>2026-04-09T08:12:15Z</time></trkpt><trkpt lat="37.86196934147487" lon="15.198704556259472"><ele>106.0</ele><time>2026-04-09T08:12:16Z</time></trkpt><trkpt lat="37.86202306448388" lon="15.19861403030672"><ele>107.57142857142858</ele><time>2026-04-09T08:12:17Z</time></trkpt><trkpt lat="37.86202781496211" lon="15.198525200496174"><ele>109.14285714285714</ele><time>2026-04-09T08:12:18Z</time></trkpt><trkpt lat="37.86205295776507" lon="15.19843855919258"><ele>110.71428571428572</ele><time>2026-04-09T08:12:19Z</time></trkpt><trkpt lat="37.86210158162529" lon="15.198375492364528"><ele>112.28571428571429</ele><time>2026-04-09T08:12:20Z</time></trkpt><trkpt lat="37.862163495307904" lon="15.198296799958339"><ele>113.85714285714286</ele><time>2026-04-09T08:12:21Z</time></trkpt><trkpt lat="37.86220836485839" lon="15.198234574447255"><ele>115.42857142857143</ele><time>2026-04-09T08:12:22Z</time></trkpt><trkpt lat="37.862258778239074" lon="15.198154735258841"><ele>117.0</ele><time>2026-04-09T08:12:25Z</time></trkpt><trkpt lat="37.862332672073784" lon="15.198061776191823"><ele>117.16666666666667</ele><time>2026-04-09T08:13:24.001Z</time></trkpt><trkpt lat="37.86238669328066" lon="15.19799822837166"><ele>117.33333333333334</ele><time>2026-04-09T08:13:25.001Z</time></trkpt><trkpt lat="37.86245294739184" lon="15.19795697237727"><ele>117.5</ele><time>2026-04-09T08:13:26.001Z</time></trkpt><trkpt lat="37.862535229695524" lon="15.197894760920082"><ele>117.66666666666667</ele><time>2026-04-09T08:13:27.001Z</time></trkpt><trkpt lat="37.86261391531414" lon="15.197825097007328"><ele>117.83333333333334</ele><time>2026-04-09T08:13:28.001Z</time></trkpt><trkpt lat="37.86269190356341" lon="15.197773272751409"><ele>118.0</ele><time>2026-04-09T08:13:29.001Z</time></trkpt><trkpt lat="37.8627613429191" lon="15.197704280790411"><ele>118.0</ele><time>2026-04-09T08:13:30.001Z</time></trkpt><trkpt lat="37.86283516194163" lon="15.197640335078232"><ele>118.00000000000001</ele><time>2026-04-09T08:13:31Z</time></trkpt><trkpt lat="37.862941146517244" lon="15.197627822063044"><ele>118.00000000000001</ele><time>2026-04-09T08:13:32Z</time></trkpt><trkpt lat="37.863042191576696" lon="15.197589878117446"><ele>118.0</ele><time>2026-04-09T08:13:33Z</time></trkpt><trkpt lat="37.86314195954243" lon="15.197544616054255"><ele>118.0</ele><time>2026-04-09T08:13:34Z</time></trkpt><trkpt lat="37.86324696288045" lon="15.19749559497509"><ele>118.0</ele><time>2026-04-09T08:13:35Z</time></trkpt><trkpt lat="37.86335847331288" lon="15.197442915446732"><ele>118.0</ele><time>2026-04-09T08:13:36Z</time></trkpt><trkpt lat="37.86347538904596" lon="15.197385512174773"><ele>118.0</ele><time>2026-04-09T08:13:37Z</time></trkpt><trkpt lat="37.8635858376772" lon="15.197331339221785"><ele>118.0</ele><time>2026-04-09T08:13:38Z</time></trkpt><trkpt lat="37.86367479793682" lon="15.197287705904095"><ele>119.80000000000001</ele><time>2026-04-09T08:13:39Z</time></trkpt><trkpt lat="37.86375699889446" lon="15.19724741395221"><ele>121.60000000000001</ele><time>2026-04-09T08:13:40Z</time></trkpt><trkpt lat="37.863847113297666" lon="15.197204148281552"><ele>123.39999999999999</ele><time>2026-04-09T08:13:41Z</time></trkpt><trkpt lat="37.863936365213455" lon="15.197161660628945"><ele>125.19999999999999</ele><time>2026-04-09T08:13:42Z</time></trkpt><trkpt lat="37.86401728953377" lon="15.19712316925924"><ele>127.0</ele><time>2026-04-09T08:13:43Z</time></trkpt><trkpt lat="37.86409655413466" lon="15.197081664653762"><ele>127.0</ele><time>2026-04-09T08:13:44Z</time></trkpt><trkpt lat="37.86417324102059" lon="15.197031931717435"><ele>126.99999999999999</ele><time>2026-04-09T08:13:45Z</time></trkpt><trkpt lat="37.86424317294915" lon="15.196942029137203"><ele>126.99999999999999</ele><time>2026-04-09T08:13:46Z</time></trkpt><trkpt lat="37.86427240529733" lon="15.196808610387407"><ele>127.0</ele><time>2026-04-09T08:13:47Z</time></trkpt><trkpt lat="37.86430496193131" lon="15.196702195653728"><ele>127.0</ele><time>2026-04-09T08:13:48Z</time></trkpt><trkpt lat="37.864348343910436" lon="15.19661158780921"><ele>127.5</ele><time>2026-04-09T08:13:49Z</time></trkpt><trkpt lat="37.86441279031203" lon="15.196540215407275"><ele>128.0</ele><time>2026-04-09T08:13:50Z</time></trkpt><trkpt lat="37.86450005434716" lon="15.196450273289997"><ele>128.5</ele><time>2026-04-09T08:13:51Z</time></trkpt><trkpt lat="37.864609593956025" lon="15.196350454559717"><ele>129.0</ele><time>2026-04-09T08:13:52Z</time></trkpt><trkpt lat="37.86474064514633" lon="15.196219583707247"><ele>129.0</ele><time>2026-04-09T08:13:53Z</time></trkpt><trkpt lat="37.864890072623155" lon="15.196067625338591"><ele>129.0</ele><time>2026-04-09T08:13:54Z</time></trkpt><trkpt lat="37.865026037312155" lon="15.195927068012075"><ele>129.0</ele><time>2026-04-09T08:13:55Z</time></trkpt><trkpt lat="37.86514832477569" lon="15.195801720070188"><ele>128.66666666666666</ele><time>2026-04-09T08:13:56Z</time></trkpt><trkpt lat="37.86526548124697" lon="15.195683139534493"><ele>128.33333333333331</ele><time>2026-04-09T08:13:57Z</time></trkpt><trkpt lat="37.86538635116405" lon="15.195560800466644"><ele>128.0</ele><time>2026-04-09T08:13:58Z</time></trkpt><trkpt lat="37.86550823649203" lon="15.195436686227977"><ele>130.0</ele><time>2026-04-09T08:13:59Z</time></trkpt><trkpt lat="37.86563068940079" lon="15.195308407286818"><ele>132.0</ele><time>2026-04-09T08:14:00Z</time></trkpt><trkpt lat="37.86573863726376" lon="15.195145825092352"><ele>134.0</ele><time>2026-04-09T08:14:01Z</time></trkpt><trkpt lat="37.86584918346194" lon="15.194984389581585"><ele>135.33333333333331</ele><time>2026-04-09T08:14:02Z</time></trkpt><trkpt lat="37.86593993224843" lon="15.19479827576458"><ele>136.66666666666666</ele><time>2026-04-09T08:14:03Z</time></trkpt><trkpt lat="37.86603685994702" lon="15.194606781066247"><ele>138.0</ele><time>2026-04-09T08:14:04Z</time></trkpt><trkpt lat="37.86611762655809" lon="15.194405744354816"><ele>136.33333333333334</ele><time>2026-04-09T08:14:05Z</time></trkpt><trkpt lat="37.86619205168079" lon="15.19421045801247"><ele>134.66666666666669</ele><time>2026-04-09T08:14:06Z</time></trkpt><trkpt lat="37.86626130343105" lon="15.19402954403198"><ele>133.0</ele><time>2026-04-09T08:14:07Z</time></trkpt><trkpt lat="37.866344019689" lon="15.193832362782464"><ele>133.0</ele><time>2026-04-09T08:14:08Z</time></trkpt><trkpt lat="37.86644356847208" lon="15.193623059352543"><ele>133.0</ele><time>2026-04-09T08:14:09Z</time></trkpt><trkpt lat="37.86655522360475" lon="15.193408292656045"><ele>133.0</ele><time>2026-04-09T08:14:10Z</time></trkpt><trkpt lat="37.86664823033442" lon="15.193210841796859"><ele>135.33333333333334</ele><time>2026-04-09T08:14:11Z</time></trkpt><trkpt lat="37.866735604699315" lon="15.193045822856215"><ele>137.66666666666666</ele><time>2026-04-09T08:14:12Z</time></trkpt><trkpt lat="37.86683178960459" lon="15.19289850644871"><ele>140.0</ele><time>2026-04-09T08:14:13Z</time></trkpt><trkpt lat="37.86694589857499" lon="15.19274848894882"><ele>140.0</ele><time>2026-04-09T08:14:14Z</time></trkpt><trkpt lat="37.86706292662333" lon="15.192589239792678"><ele>140.0</ele><time>2026-04-09T08:14:15Z</time></trkpt><trkpt lat="37.86718569558068" lon="15.192445476248093"><ele>140.0</ele><time>2026-04-09T08:14:16Z</time></trkpt><trkpt lat="37.86732181141076" lon="15.192312132156548"><ele>141.66666666666666</ele><time>2026-04-09T08:14:17Z</time></trkpt><trkpt lat="37.86746342415189" lon="15.192201225685105"><ele>143.33333333333334</ele><time>2026-04-09T08:14:18Z</time></trkpt><trkpt lat="37.867611390233925" lon="15.192112680249725"><ele>145.0</ele><time>2026-04-09T08:14:19Z</time></trkpt><trkpt lat="37.86777417451437" lon="15.192024440489806"><ele>141.66666666666669</ele><time>2026-04-09T08:14:20Z</time></trkpt><trkpt lat="37.86795378605194" lon="15.191929011264747"><ele>138.33333333333334</ele><time>2026-04-09T08:14:21Z</time></trkpt><trkpt lat="37.86814275430775" lon="15.191828980363091"><ele>135.0</ele><time>2026-04-09T08:14:22Z</time></trkpt><trkpt lat="37.868339443123695" lon="15.191724628947608"><ele>134.66666666666666</ele><time>2026-04-09T08:14:23Z</time></trkpt><trkpt lat="37.868520686525876" lon="15.19160891632104"><ele>134.33333333333331</ele><time>2026-04-09T08:14:24Z</time></trkpt><trkpt lat="37.86869374749369" lon="15.191520978193022"><ele>134.0</ele><time>2026-04-09T08:14:25Z</time></trkpt><trkpt lat="37.86886322065409" lon="15.191438458168168"><ele>134.0</ele><time>2026-04-09T08:14:26Z</time></trkpt><trkpt lat="37.869045644450686" lon="15.191360572367788"><ele>134.0</ele><time>2026-04-09T08:14:27Z</time></trkpt><trkpt lat="37.86922273748055" lon="15.191288178303264"><ele>134.0</ele><time>2026-04-09T08:14:28Z</time></trkpt><trkpt lat="37.86941890932626" lon="15.19122746558147"><ele>133.0</ele><time>2026-04-09T08:14:29Z</time></trkpt><trkpt lat="37.86960813832982" lon="15.191150933285561"><ele>132.0</ele><time>2026-04-09T08:14:30Z</time></trkpt><trkpt lat="37.86978314394233" lon="15.19108108392775"><ele>131.0</ele><time>2026-04-09T08:14:31Z</time></trkpt><trkpt lat="37.86994764068627" lon="15.191013256712488"><ele>130.66666666666666</ele><time>2026-04-09T08:14:32Z</time></trkpt><trkpt lat="37.87011018574113" lon="15.190927593193232"><ele>130.33333333333334</ele><time>2026-04-09T08:14:33Z</time></trkpt><trkpt lat="37.87028650159446" lon="15.190856186593741"><ele>130.0</ele><time>2026-04-09T08:14:34Z</time></trkpt><trkpt lat="37.870461388443516" lon="15.19078461481562"><ele>130.0</ele><time>2026-04-09T08:14:35Z</time></trkpt><trkpt lat="37.870636970609574" lon="15.190710981496563"><ele>130.0</ele><time>2026-04-09T08:14:36Z</time></trkpt><trkpt lat="37.87081200430682" lon="15.190636802463427"><ele>130.0</ele><time>2026-04-09T08:14:37Z</time></trkpt><trkpt lat="37.87098416886245" lon="15.190568275842272"><ele>131.33333333333334</ele><time>2026-04-09T08:14:38Z</time></trkpt><trkpt lat="37.871158252587534" lon="15.190498653341356"><ele>132.66666666666666</ele><time>2026-04-09T08:14:39Z</time></trkpt><trkpt lat="37.87132951426486" lon="15.1904116235049"><ele>134.0</ele><time>2026-04-09T08:14:40Z</time></trkpt><trkpt lat="37.87149603391626" lon="15.190314344593286"><ele>134.0</ele><time>2026-04-09T08:14:41Z</time></trkpt><trkpt lat="37.87164089754473" lon="15.190235913996565"><ele>134.0</ele><time>2026-04-09T08:14:42Z</time></trkpt><trkpt lat="37.8717501118111" lon="15.19016047484713"><ele>134.0</ele><time>2026-04-09T08:14:43Z</time></trkpt><trkpt lat="37.87183031233447" lon="15.190103599857263"><ele>134.0</ele><time>2026-04-09T08:14:44Z</time></trkpt><trkpt lat="37.87189929050458" lon="15.190051133268607"><ele>134.0</ele><time>2026-04-09T08:14:45Z</time></trkpt><trkpt lat="37.872012883440206" lon="15.190052463242923"><ele>134.0</ele><time>2026-04-09T08:14:47Z</time></trkpt><trkpt lat="37.87206142994354" lon="15.190163128796478"><ele>134.0</ele><time>2026-04-09T08:14:48Z</time></trkpt><trkpt lat="37.87208001214232" lon="15.190271651027862"><ele>134.0</ele><time>2026-04-09T08:14:49Z</time></trkpt><trkpt lat="37.8720826349615" lon="15.190410173414959"><ele>134.0</ele><time>2026-04-09T08:14:50Z</time></trkpt><trkpt lat="37.87208667830319" lon="15.190540609443618"><ele>134.0</ele><time>2026-04-09T08:14:51Z</time></trkpt><trkpt lat="37.87209496470525" lon="15.190645892620495"><ele>134.0</ele><time>2026-04-09T08:14:52Z</time></trkpt><trkpt lat="37.87210114791835" lon="15.190737053930361"><ele>134.0</ele><time>2026-04-09T08:14:53Z</time></trkpt><trkpt lat="37.87209125866822" lon="15.190819055353117"><ele>134.0</ele><time>2026-04-09T08:14:54Z</time></trkpt><trkpt lat="37.87202537343751" lon="15.19087136074255"><ele>134.0</ele><time>2026-04-09T08:14:55Z</time></trkpt><trkpt lat="37.87192536718632" lon="15.190924560866511"><ele>134.0</ele><time>2026-04-09T08:14:56Z</time></trkpt><trkpt lat="37.87182801733567" lon="15.190975801339183"><ele>133.0</ele><time>2026-04-09T08:14:57Z</time></trkpt><trkpt lat="37.87176869217128" lon="15.19103082929503"><ele>132.0</ele><time>2026-04-09T08:14:58Z</time></trkpt><trkpt lat="37.871737324283266" lon="15.191108278448718"><ele>131.0</ele><time>2026-04-09T08:14:59Z</time></trkpt><trkpt lat="37.871722366141064" lon="15.191201259297106"><ele>130.0</ele><time>2026-04-09T08:15:00Z</time></trkpt><trkpt lat="37.87172466616004" lon="15.191294472067218"><ele>129.0</ele><time>2026-04-09T08:15:01Z</time></trkpt><trkpt lat="37.87173420551012" lon="15.191413318013588"><ele>128.0</ele><time>2026-04-09T08:15:03Z</time></trkpt><trkpt lat="37.87172118041981" lon="15.191545634773242"><ele>128.16666666666666</ele><time>2026-04-09T08:15:05Z</time></trkpt><trkpt lat="37.871706727320344" lon="15.19165330926714"><ele>128.33333333333331</ele><time>2026-04-09T08:15:06Z</time></trkpt><trkpt lat="37.871704609345144" lon="15.191758518484725"><ele>128.5</ele><time>2026-04-09T08:15:07Z</time></trkpt><trkpt lat="37.87172197159985" lon="15.191872248447527"><ele>128.66666666666666</ele><time>2026-04-09T08:15:08Z</time></trkpt><trkpt lat="37.871749515564666" lon="15.191986606069971"><ele>128.83333333333334</ele><time>2026-04-09T08:15:09Z</time></trkpt><trkpt lat="37.87176659932256" lon="15.192084537450707"><ele>129.0</ele><time>2026-04-09T08:15:10Z</time></trkpt><trkpt lat="37.87177761521723" lon="15.192224477188025"><ele>129.0</ele><time>2026-04-09T08:15:12Z</time></trkpt><trkpt lat="37.8718019177524" lon="15.192305978078583"><ele>129.0</ele><time>2026-04-09T08:15:15Z</time></trkpt><trkpt lat="37.87184558748751" lon="15.192369698691289"><ele>129.0</ele><time>2026-04-09T08:15:18.001Z</time></trkpt><trkpt lat="37.87203016631354" lon="15.192312874662198"><ele>129.0</ele><time>2026-04-09T08:15:20.001Z</time></trkpt><trkpt lat="37.87213434825686" lon="15.192275080113408"><ele>129.0</ele><time>2026-04-09T08:15:21.001Z</time></trkpt><trkpt lat="37.87226356620288" lon="15.192237835715135"><ele>129.0</ele><time>2026-04-09T08:15:22.001Z</time></trkpt><trkpt lat="37.87239751614743" lon="15.192196507658233"><ele>129.0</ele><time>2026-04-09T08:15:23.001Z</time></trkpt><trkpt lat="37.87253739046155" lon="15.192151395684395"><ele>129.0</ele><time>2026-04-09T08:15:24.001Z</time></trkpt><trkpt lat="37.87269197767164" lon="15.192095918879541"><ele>129.0</ele><time>2026-04-09T08:15:25.001Z</time></trkpt><trkpt lat="37.87285398997504" lon="15.192037555640153"><ele>129.0</ele><time>2026-04-09T08:15:26.001Z</time></trkpt><trkpt lat="37.873017847654715" lon="15.19198104849774"><ele>129.0</ele><time>2026-04-09T08:15:27.001Z</time></trkpt><trkpt lat="37.873199090128594" lon="15.191918758691283"><ele>129.0</ele><time>2026-04-09T08:15:28.001Z</time></trkpt><trkpt lat="37.87337733870136" lon="15.191859381077704"><ele>131.0</ele><time>2026-04-09T08:15:29.001Z</time></trkpt><trkpt lat="37.873551990324486" lon="15.191797193669016"><ele>133.0</ele><time>2026-04-09T08:15:30.001Z</time></trkpt><trkpt lat="37.873737633033386" lon="15.191728220580284"><ele>135.0</ele><time>2026-04-09T08:15:31.001Z</time></trkpt><trkpt lat="37.87391686500976" lon="15.191662832529211"><ele>135.0</ele><time>2026-04-09T08:15:32.001Z</time></trkpt><trkpt lat="37.87409907852154" lon="15.19159831344246"><ele>135.0</ele><time>2026-04-09T08:15:33.001Z</time></trkpt><trkpt lat="37.874275870804205" lon="15.191535081209953"><ele>135.0</ele><time>2026-04-09T08:15:34.001Z</time></trkpt><trkpt lat="37.87445279129992" lon="15.191468247429311"><ele>135.66666666666666</ele><time>2026-04-09T08:15:35.001Z</time></trkpt><trkpt lat="37.874629762174656" lon="15.191394739339394"><ele>136.33333333333331</ele><time>2026-04-09T08:15:36.001Z</time></trkpt><trkpt lat="37.874810705264814" lon="15.191309526250187"><ele>137.0</ele><time>2026-04-09T08:15:37.001Z</time></trkpt><trkpt lat="37.874991396426694" lon="15.191214189493705"><ele>140.0</ele><time>2026-04-09T08:15:38.001Z</time></trkpt><trkpt lat="37.87516392246892" lon="15.191115178510499"><ele>143.0</ele><time>2026-04-09T08:15:39.001Z</time></trkpt><trkpt lat="37.875336890882146" lon="15.191009756328185"><ele>146.0</ele><time>2026-04-09T08:15:40.001Z</time></trkpt><trkpt lat="37.87550657858639" lon="15.190897201975684"><ele>146.0</ele><time>2026-04-09T08:15:41.001Z</time></trkpt><trkpt lat="37.87567385840749" lon="15.190787116826952"><ele>146.0</ele><time>2026-04-09T08:15:42.001Z</time></trkpt><trkpt lat="37.87582554893043" lon="15.190684817788775"><ele>146.0</ele><time>2026-04-09T08:15:43.001Z</time></trkpt><trkpt lat="37.875972204363045" lon="15.190585535368543"><ele>147.33333333333331</ele><time>2026-04-09T08:15:44.001Z</time></trkpt><trkpt lat="37.876128214567316" lon="15.19050653537393"><ele>148.66666666666666</ele><time>2026-04-09T08:15:45Z</time></trkpt><trkpt lat="37.876279670089986" lon="15.190408364761511"><ele>150.0</ele><time>2026-04-09T08:15:46Z</time></trkpt><trkpt lat="37.876419651770505" lon="15.19029923416647"><ele>150.0</ele><time>2026-04-09T08:15:47Z</time></trkpt><trkpt lat="37.87657097753535" lon="15.190199061418214"><ele>150.0</ele><time>2026-04-09T08:15:48Z</time></trkpt><trkpt lat="37.876714885025734" lon="15.190103628215715"><ele>150.0</ele><time>2026-04-09T08:15:49Z</time></trkpt><trkpt lat="37.87686596251557" lon="15.190010880209845"><ele>150.66666666666666</ele><time>2026-04-09T08:15:50Z</time></trkpt><trkpt lat="37.87701830904579" lon="15.189910836063621"><ele>151.33333333333331</ele><time>2026-04-09T08:15:51Z</time></trkpt><trkpt lat="37.87717756102976" lon="15.189792460351097"><ele>152.0</ele><time>2026-04-09T08:15:52Z</time></trkpt><trkpt lat="37.87733591869926" lon="15.189653015460827"><ele>152.0</ele><time>2026-04-09T08:15:53Z</time></trkpt><trkpt lat="37.877481157243274" lon="15.189513214526293"><ele>152.0</ele><time>2026-04-09T08:15:54Z</time></trkpt><trkpt lat="37.87762824839084" lon="15.189363347405589"><ele>152.0</ele><time>2026-04-09T08:15:55Z</time></trkpt><trkpt lat="37.87776245888004" lon="15.189231144211133"><ele>152.0</ele><time>2026-04-09T08:15:56Z</time></trkpt><trkpt lat="37.877887493076294" lon="15.189103768011028"><ele>152.0</ele><time>2026-04-09T08:15:57Z</time></trkpt><trkpt lat="37.8779989432901" lon="15.188996069644551"><ele>152.0</ele><time>2026-04-09T08:15:58Z</time></trkpt><trkpt lat="37.87809624663886" lon="15.188890825955419"><ele>152.0</ele><time>2026-04-09T08:15:59Z</time></trkpt><trkpt lat="37.87817816364815" lon="15.18877244169174"><ele>152.0</ele><time>2026-04-09T08:16:00Z</time></trkpt><trkpt lat="37.87823450387277" lon="15.18863352872101"><ele>152.0</ele><time>2026-04-09T08:16:01Z</time></trkpt><trkpt lat="37.8782877938943" lon="15.188481213914043"><ele>152.0</ele><time>2026-04-09T08:16:02Z</time></trkpt><trkpt lat="37.878319709246675" lon="15.188306588547082"><ele>152.0</ele><time>2026-04-09T08:16:03Z</time></trkpt><trkpt lat="37.87830786537362" lon="15.188101035850028"><ele>152.33333333333331</ele><time>2026-04-09T08:16:04Z</time></trkpt><trkpt lat="37.878301429012865" lon="15.187892088964068"><ele>152.66666666666666</ele><time>2026-04-09T08:16:05Z</time></trkpt><trkpt lat="37.878293973733655" lon="15.187677245915003"><ele>153.0</ele><time>2026-04-09T08:16:06Z</time></trkpt><trkpt lat="37.87828869166106" lon="15.187484316095077"><ele>156.75</ele><time>2026-04-09T08:16:07Z</time></trkpt><trkpt lat="37.87827622233908" lon="15.187302818203355"><ele>160.5</ele><time>2026-04-09T08:16:08Z</time></trkpt><trkpt lat="37.87824464757229" lon="15.187135863561084"><ele>164.25</ele><time>2026-04-09T08:16:09Z</time></trkpt><trkpt lat="37.878171923511935" lon="15.186991632291777"><ele>168.0</ele><time>2026-04-09T08:16:10Z</time></trkpt><trkpt lat="37.87806802755637" lon="15.186863466371383"><ele>168.0</ele><time>2026-04-09T08:16:11Z</time></trkpt><trkpt lat="37.877941628113796" lon="15.18675163142711"><ele>168.0</ele><time>2026-04-09T08:16:12Z</time></trkpt><trkpt lat="37.877784759086346" lon="15.186657952453517"><ele>168.0</ele><time>2026-04-09T08:16:13Z</time></trkpt><trkpt lat="37.87761450717028" lon="15.186569700315237"><ele>172.33333333333334</ele><time>2026-04-09T08:16:14Z</time></trkpt><trkpt lat="37.877437850950834" lon="15.186477061904972"><ele>176.66666666666669</ele><time>2026-04-09T08:16:15Z</time></trkpt><trkpt lat="37.87726456377648" lon="15.186379448359858"><ele>181.0</ele><time>2026-04-09T08:16:16Z</time></trkpt><trkpt lat="37.87710257739183" lon="15.186252994526292"><ele>181.0</ele><time>2026-04-09T08:16:17Z</time></trkpt><trkpt lat="37.8769620634016" lon="15.186131789184932"><ele>181.0</ele><time>2026-04-09T08:16:18Z</time></trkpt><trkpt lat="37.876842854798745" lon="15.185994365903943"><ele>181.0</ele><time>2026-04-09T08:16:19Z</time></trkpt><trkpt lat="37.87673330825858" lon="15.185828304463598"><ele>180.0</ele><time>2026-04-09T08:16:20Z</time></trkpt><trkpt lat="37.87663754933764" lon="15.185634837480041"><ele>179.0</ele><time>2026-04-09T08:16:21Z</time></trkpt><trkpt lat="37.87654222770016" lon="15.185437612493715"><ele>178.0</ele><time>2026-04-09T08:16:22Z</time></trkpt><trkpt lat="37.87643911712139" lon="15.185224200228449"><ele>178.0</ele><time>2026-04-09T08:16:23Z</time></trkpt><trkpt lat="37.876339815891065" lon="15.185018672293339"><ele>178.0</ele><time>2026-04-09T08:16:24Z</time></trkpt><trkpt lat="37.876241148609935" lon="15.184814870887221"><ele>178.0</ele><time>2026-04-09T08:16:25Z</time></trkpt><trkpt lat="37.87613743630466" lon="15.184603431609334"><ele>180.0</ele><time>2026-04-09T08:16:26Z</time></trkpt><trkpt lat="37.87603326304323" lon="15.184391052591156"><ele>182.0</ele><time>2026-04-09T08:16:27Z</time></trkpt><trkpt lat="37.875929926626" lon="15.184180379634954"><ele>184.0</ele><time>2026-04-09T08:16:28Z</time></trkpt><trkpt lat="37.87584042253344" lon="15.183994576624283"><ele>180.0</ele><time>2026-04-09T08:16:29Z</time></trkpt><trkpt lat="37.87576353672646" lon="15.183816540294691"><ele>176.0</ele><time>2026-04-09T08:16:30Z</time></trkpt><trkpt lat="37.87571588815917" lon="15.183642316410369"><ele>172.0</ele><time>2026-04-09T08:16:31Z</time></trkpt><trkpt lat="37.87569414854698" lon="15.183452040208838"><ele>172.0</ele><time>2026-04-09T08:16:32Z</time></trkpt><trkpt lat="37.8756951545924" lon="15.183259564633289"><ele>172.0</ele><time>2026-04-09T08:16:33Z</time></trkpt><trkpt lat="37.875729399091924" lon="15.183056532514692"><ele>172.0</ele><time>2026-04-09T08:16:34Z</time></trkpt><trkpt lat="37.875793333829314" lon="15.182844617702811"><ele>173.0</ele><time>2026-04-09T08:16:35Z</time></trkpt><trkpt lat="37.87588980448361" lon="15.182644449233958"><ele>174.0</ele><time>2026-04-09T08:16:36Z</time></trkpt><trkpt lat="37.87600908072031" lon="15.182469887796143"><ele>175.0</ele><time>2026-04-09T08:16:37Z</time></trkpt><trkpt lat="37.876143622761774" lon="15.182283594961122"><ele>175.66666666666669</ele><time>2026-04-09T08:16:38Z</time></trkpt><trkpt lat="37.87624732636513" lon="15.182077615466952"><ele>176.33333333333334</ele><time>2026-04-09T08:16:39Z</time></trkpt><trkpt lat="37.87635061234581" lon="15.181874965216487"><ele>177.0</ele><time>2026-04-09T08:16:40Z</time></trkpt><trkpt lat="37.876435012254525" lon="15.18164981140844"><ele>176.33333333333334</ele><time>2026-04-09T08:16:41Z</time></trkpt><trkpt lat="37.87649623079792" lon="15.181410631385999"><ele>175.66666666666669</ele><time>2026-04-09T08:16:42Z</time></trkpt><trkpt lat="37.87653860916089" lon="15.181160045594178"><ele>175.0</ele><time>2026-04-09T08:16:43Z</time></trkpt><trkpt lat="37.876576887189984" lon="15.180908325900795"><ele>175.33333333333334</ele><time>2026-04-09T08:16:44Z</time></trkpt><trkpt lat="37.876567187499035" lon="15.180651110719511"><ele>175.66666666666666</ele><time>2026-04-09T08:16:45Z</time></trkpt><trkpt lat="37.87655640993219" lon="15.180395742311855"><ele>176.0</ele><time>2026-04-09T08:16:46Z</time></trkpt><trkpt lat="37.876520326100845" lon="15.180141919702736"><ele>176.0</ele><time>2026-04-09T08:16:47Z</time></trkpt><trkpt lat="37.87646530574227" lon="15.17990994626614"><ele>176.0</ele><time>2026-04-09T08:16:48Z</time></trkpt><trkpt lat="37.87641483571834" lon="15.179699489978923"><ele>176.0</ele><time>2026-04-09T08:16:49Z</time></trkpt><trkpt lat="37.87635559524348" lon="15.179497757330228"><ele>176.5</ele><time>2026-04-09T08:16:50Z</time></trkpt><trkpt lat="37.87631382212545" lon="15.179307807671899"><ele>177.0</ele><time>2026-04-09T08:16:51Z</time></trkpt><trkpt lat="37.87629498662738" lon="15.179127647942424"><ele>177.5</ele><time>2026-04-09T08:16:52Z</time></trkpt><trkpt lat="37.87630022240309" lon="15.178956588850323"><ele>178.0</ele><time>2026-04-09T08:16:53Z</time></trkpt><trkpt lat="37.876331834243416" lon="15.17876946663584"><ele>178.66666666666669</ele><time>2026-04-09T08:16:54Z</time></trkpt><trkpt lat="37.87638998026448" lon="15.178592636760452"><ele>179.33333333333334</ele><time>2026-04-09T08:16:55Z</time></trkpt><trkpt lat="37.876478118631056" lon="15.178433597177307"><ele>180.0</ele><time>2026-04-09T08:16:56Z</time></trkpt><trkpt lat="37.87657344625295" lon="15.178255256757037"><ele>181.0</ele><time>2026-04-09T08:16:57Z</time></trkpt><trkpt lat="37.87669570007486" lon="15.17809999669399"><ele>182.0</ele><time>2026-04-09T08:16:58Z</time></trkpt><trkpt lat="37.87681328262929" lon="15.177927956929867"><ele>183.0</ele><time>2026-04-09T08:16:59Z</time></trkpt><trkpt lat="37.876934536992685" lon="15.177750036558889"><ele>184.66666666666666</ele><time>2026-04-09T08:17:00Z</time></trkpt><trkpt lat="37.87705424078981" lon="15.177573657930406"><ele>186.33333333333331</ele><time>2026-04-09T08:17:01Z</time></trkpt><trkpt lat="37.8771695843422" lon="15.177405057554736"><ele>188.0</ele><time>2026-04-09T08:17:02Z</time></trkpt><trkpt lat="37.87727815941698" lon="15.177270291546229"><ele>188.66666666666666</ele><time>2026-04-09T08:17:03Z</time></trkpt><trkpt lat="37.87741587845807" lon="15.177163767519508"><ele>189.33333333333334</ele><time>2026-04-09T08:17:04Z</time></trkpt><trkpt lat="37.87755378773085" lon="15.177050026155062"><ele>190.0</ele><time>2026-04-09T08:17:05Z</time></trkpt><trkpt lat="37.87771770584158" lon="15.176956996239376"><ele>191.66666666666669</ele><time>2026-04-09T08:17:06Z</time></trkpt><trkpt lat="37.87787071580121" lon="15.176862903625816"><ele>193.33333333333334</ele><time>2026-04-09T08:17:07Z</time></trkpt><trkpt lat="37.878018357993284" lon="15.176770009501693"><ele>195.0</ele><time>2026-04-09T08:17:08Z</time></trkpt><trkpt lat="37.87817005856151" lon="15.176672175480661"><ele>195.0</ele><time>2026-04-09T08:17:09Z</time></trkpt><trkpt lat="37.87830918941182" lon="15.176586976927636"><ele>195.0</ele><time>2026-04-09T08:17:10Z</time></trkpt><trkpt lat="37.878449199914655" lon="15.176499727609349"><ele>195.0</ele><time>2026-04-09T08:17:11Z</time></trkpt><trkpt lat="37.87857271365353" lon="15.176417888190434"><ele>196.5</ele><time>2026-04-09T08:17:12Z</time></trkpt><trkpt lat="37.878689517669486" lon="15.176336999603242"><ele>198.0</ele><time>2026-04-09T08:17:13Z</time></trkpt><trkpt lat="37.878789449452846" lon="15.176271852877198"><ele>199.5</ele><time>2026-04-09T08:17:14Z</time></trkpt><trkpt lat="37.878896749512776" lon="15.17622995275871"><ele>201.0</ele><time>2026-04-09T08:17:15Z</time></trkpt><trkpt lat="37.87901173713295" lon="15.176158073424853"><ele>201.0</ele><time>2026-04-09T08:17:16Z</time></trkpt><trkpt lat="37.879140720958304" lon="15.176077843120549"><ele>201.0</ele><time>2026-04-09T08:17:17Z</time></trkpt><trkpt lat="37.87928595036083" lon="15.175987855340496"><ele>201.0</ele><time>2026-04-09T08:17:18Z</time></trkpt><trkpt lat="37.87942715910918" lon="15.175880876587044"><ele>201.0</ele><time>2026-04-09T08:17:19Z</time></trkpt><trkpt lat="37.87957144328774" lon="15.175811282377941"><ele>201.0</ele><time>2026-04-09T08:17:20Z</time></trkpt><trkpt lat="37.879700277431326" lon="15.175720192229953"><ele>201.0</ele><time>2026-04-09T08:17:21Z</time></trkpt><trkpt lat="37.87981099375876" lon="15.175594110159624"><ele>201.0</ele><time>2026-04-09T08:17:22Z</time></trkpt><trkpt lat="37.879910878074654" lon="15.175437425125287"><ele>201.0</ele><time>2026-04-09T08:17:23Z</time></trkpt><trkpt lat="37.87997917805436" lon="15.175278377368235"><ele>201.0</ele><time>2026-04-09T08:17:24.001Z</time></trkpt><trkpt lat="37.88004525858741" lon="15.175098414676352"><ele>203.25</ele><time>2026-04-09T08:17:25.001Z</time></trkpt><trkpt lat="37.880121414542224" lon="15.174934599465079"><ele>205.5</ele><time>2026-04-09T08:17:26.001Z</time></trkpt><trkpt lat="37.880186815071205" lon="15.17476795728161"><ele>207.75</ele><time>2026-04-09T08:17:27.001Z</time></trkpt><trkpt lat="37.880244469337605" lon="15.174618539766245"><ele>210.0</ele><time>2026-04-09T08:17:28.001Z</time></trkpt><trkpt lat="37.88029605485715" lon="15.174501245377611"><ele>210.0</ele><time>2026-04-09T08:17:29.001Z</time></trkpt><trkpt lat="37.88035083133665" lon="15.174418851028955"><ele>210.0</ele><time>2026-04-09T08:17:30.001Z</time></trkpt><trkpt lat="37.88041377127794" lon="15.17434466591659"><ele>210.0</ele><time>2026-04-09T08:17:31.001Z</time></trkpt><trkpt lat="37.880509493622625" lon="15.174340959400302"><ele>210.0</ele><time>2026-04-09T08:17:32.001Z</time></trkpt><trkpt lat="37.88061856655451" lon="15.174374480817768"><ele>210.0</ele><time>2026-04-09T08:17:33.001Z</time></trkpt><trkpt lat="37.880737337403474" lon="15.174430750378878"><ele>210.0</ele><time>2026-04-09T08:17:34.001Z</time></trkpt><trkpt lat="37.8808707445819" lon="15.174494130963623"><ele>210.0</ele><time>2026-04-09T08:17:35.001Z</time></trkpt><trkpt lat="37.881013946262364" lon="15.174501797860414"><ele>210.0</ele><time>2026-04-09T08:17:36.001Z</time></trkpt><trkpt lat="37.881161721400524" lon="15.174458717489443"><ele>210.0</ele><time>2026-04-09T08:17:37.001Z</time></trkpt><trkpt lat="37.88131315499664" lon="15.174371346770519"><ele>211.33333333333331</ele><time>2026-04-09T08:17:38.001Z</time></trkpt><trkpt lat="37.88146074811481" lon="15.174240537014116"><ele>212.66666666666666</ele><time>2026-04-09T08:17:39.001Z</time></trkpt><trkpt lat="37.88159465657784" lon="15.174085903350681"><ele>214.0</ele><time>2026-04-09T08:17:40.001Z</time></trkpt><trkpt lat="37.881736106992896" lon="15.173909849834772"><ele>214.66666666666666</ele><time>2026-04-09T08:17:41.001Z</time></trkpt><trkpt lat="37.88189222738776" lon="15.173765489067756"><ele>215.33333333333331</ele><time>2026-04-09T08:17:42.001Z</time></trkpt><trkpt lat="37.88203977900922" lon="15.173602983165216"><ele>216.0</ele><time>2026-04-09T08:17:43.001Z</time></trkpt><trkpt lat="37.88218148857245" lon="15.173446911635642"><ele>216.0</ele><time>2026-04-09T08:17:44.001Z</time></trkpt><trkpt lat="37.88230151074796" lon="15.173313061165132"><ele>216.0</ele><time>2026-04-09T08:17:45.001Z</time></trkpt><trkpt lat="37.882422449259835" lon="15.17317844566546"><ele>216.0</ele><time>2026-04-09T08:17:46.001Z</time></trkpt><trkpt lat="37.88252680291865" lon="15.173062290606017"><ele>217.75</ele><time>2026-04-09T08:17:47.001Z</time></trkpt><trkpt lat="37.882633984131466" lon="15.17294298823334"><ele>219.5</ele><time>2026-04-09T08:17:48.001Z</time></trkpt><trkpt lat="37.882718793594265" lon="15.172822360703293"><ele>221.25</ele><time>2026-04-09T08:17:49.001Z</time></trkpt><trkpt lat="37.88281370051764" lon="15.172715785667528"><ele>223.0</ele><time>2026-04-09T08:17:50.001Z</time></trkpt><trkpt lat="37.882922291794586" lon="15.172622092775844"><ele>223.0</ele><time>2026-04-09T08:17:51.001Z</time></trkpt><trkpt lat="37.88302255729546" lon="15.172510567855015"><ele>223.0</ele><time>2026-04-09T08:17:52.001Z</time></trkpt><trkpt lat="37.883128765358045" lon="15.172392433061809"><ele>223.0</ele><time>2026-04-09T08:17:53.001Z</time></trkpt><trkpt lat="37.88325046309077" lon="15.172257069155195"><ele>223.0</ele><time>2026-04-09T08:17:54.001Z</time></trkpt><trkpt lat="37.88337071792908" lon="15.17209908849462"><ele>224.33333333333331</ele><time>2026-04-09T08:17:55.001Z</time></trkpt><trkpt lat="37.88351139900903" lon="15.171942952521627"><ele>225.66666666666669</ele><time>2026-04-09T08:17:56.001Z</time></trkpt><trkpt lat="37.88365115027957" lon="15.171789617110994"><ele>227.0</ele><time>2026-04-09T08:17:57Z</time></trkpt><trkpt lat="37.88379387220956" lon="15.171630925548605"><ele>226.0</ele><time>2026-04-09T08:17:58Z</time></trkpt><trkpt lat="37.883933965870256" lon="15.171464104857725"><ele>225.0</ele><time>2026-04-09T08:17:59Z</time></trkpt><trkpt lat="37.88407826898115" lon="15.17128302188896"><ele>224.0</ele><time>2026-04-09T08:18:00Z</time></trkpt><trkpt lat="37.88422112717666" lon="15.171100606035576"><ele>224.33333333333334</ele><time>2026-04-09T08:18:01Z</time></trkpt><trkpt lat="37.88435997525474" lon="15.170912522161865"><ele>224.66666666666669</ele><time>2026-04-09T08:18:02Z</time></trkpt><trkpt lat="37.884502876632695" lon="15.170723765404196"><ele>225.0</ele><time>2026-04-09T08:18:03Z</time></trkpt><trkpt lat="37.88463973440578" lon="15.170538260594428"><ele>225.0</ele><time>2026-04-09T08:18:04Z</time></trkpt><trkpt lat="37.88477822174865" lon="15.170358362008187"><ele>225.0</ele><time>2026-04-09T08:18:05Z</time></trkpt><trkpt lat="37.88491325991727" lon="15.17018347133948"><ele>225.0</ele><time>2026-04-09T08:18:06Z</time></trkpt><trkpt lat="37.88505120076226" lon="15.17003069833324"><ele>225.33333333333331</ele><time>2026-04-09T08:18:07Z</time></trkpt><trkpt lat="37.885168578715444" lon="15.169877802204425"><ele>225.66666666666666</ele><time>2026-04-09T08:18:08Z</time></trkpt><trkpt lat="37.88528016806222" lon="15.16973425685559"><ele>226.0</ele><time>2026-04-09T08:18:09Z</time></trkpt><trkpt lat="37.88540340186409" lon="15.16957738110266"><ele>226.0</ele><time>2026-04-09T08:18:10Z</time></trkpt><trkpt lat="37.88553336547817" lon="15.169413752377471"><ele>226.0</ele><time>2026-04-09T08:18:11Z</time></trkpt><trkpt lat="37.885652301762086" lon="15.169265213217345"><ele>226.0</ele><time>2026-04-09T08:18:12Z</time></trkpt><trkpt lat="37.88575922354675" lon="15.169133144914536"><ele>227.0</ele><time>2026-04-09T08:18:13Z</time></trkpt><trkpt lat="37.88586783826553" lon="15.16899962684657"><ele>228.0</ele><time>2026-04-09T08:18:14Z</time></trkpt><trkpt lat="37.885981651780575" lon="15.1688597184349"><ele>229.0</ele><time>2026-04-09T08:18:15Z</time></trkpt><trkpt lat="37.886091306283774" lon="15.16872160883167"><ele>229.0</ele><time>2026-04-09T08:18:16Z</time></trkpt><trkpt lat="37.88619780365533" lon="15.168586636794572"><ele>229.0</ele><time>2026-04-09T08:18:17Z</time></trkpt><trkpt lat="37.88629055515315" lon="15.168441897742671"><ele>229.0</ele><time>2026-04-09T08:18:18Z</time></trkpt><trkpt lat="37.88640512930939" lon="15.168325987012706"><ele>229.0</ele><time>2026-04-09T08:18:19Z</time></trkpt><trkpt lat="37.88650571973486" lon="15.16820404106263"><ele>230.0</ele><time>2026-04-09T08:18:20Z</time></trkpt><trkpt lat="37.88661121097037" lon="15.168078471881833"><ele>231.0</ele><time>2026-04-09T08:18:21Z</time></trkpt><trkpt lat="37.886714684430544" lon="15.16794993103683"><ele>232.0</ele><time>2026-04-09T08:18:22Z</time></trkpt><trkpt lat="37.88680343477482" lon="15.167801666029277"><ele>233.0</ele><time>2026-04-09T08:18:23Z</time></trkpt><trkpt lat="37.88691236928381" lon="15.167678489043519"><ele>233.0</ele><time>2026-04-09T08:18:24Z</time></trkpt><trkpt lat="37.88700521444402" lon="15.167544525680972"><ele>233.0</ele><time>2026-04-09T08:18:25Z</time></trkpt><trkpt lat="37.88708781220388" lon="15.167423638351192"><ele>233.0</ele><time>2026-04-09T08:18:26Z</time></trkpt><trkpt lat="37.88715297944964" lon="15.16729235873175"><ele>233.0</ele><time>2026-04-09T08:18:27Z</time></trkpt><trkpt lat="37.887235229455335" lon="15.167176590878384"><ele>231.5</ele><time>2026-04-09T08:18:28Z</time></trkpt><trkpt lat="37.8873179951173" lon="15.167056564431034"><ele>230.0</ele><time>2026-04-09T08:18:29Z</time></trkpt><trkpt lat="37.88740175065904" lon="15.166935763387123"><ele>228.5</ele><time>2026-04-09T08:18:30Z</time></trkpt><trkpt lat="37.88748720597912" lon="15.166809610980456"><ele>227.0</ele><time>2026-04-09T08:18:31Z</time></trkpt><trkpt lat="37.88758263245174" lon="15.16670026347342"><ele>228.5</ele><time>2026-04-09T08:18:32Z</time></trkpt><trkpt lat="37.88766027516319" lon="15.166585087486432"><ele>230.0</ele><time>2026-04-09T08:18:33Z</time></trkpt><trkpt lat="37.88773763353339" lon="15.166470385930689"><ele>231.5</ele><time>2026-04-09T08:18:34Z</time></trkpt><trkpt lat="37.8878125292842" lon="15.166359852072837"><ele>233.0</ele><time>2026-04-09T08:18:35Z</time></trkpt><trkpt lat="37.88788382138516" lon="15.166254636852967"><ele>233.0</ele><time>2026-04-09T08:18:36Z</time></trkpt><trkpt lat="37.887956030897286" lon="15.166148818069834"><ele>233.0</ele><time>2026-04-09T08:18:37Z</time></trkpt><trkpt lat="37.88803012974957" lon="15.166042102344692"><ele>233.0</ele><time>2026-04-09T08:18:38Z</time></trkpt><trkpt lat="37.88810411668797" lon="15.165935547794009"><ele>233.0</ele><time>2026-04-09T08:18:39Z</time></trkpt><trkpt lat="37.8881758140944" lon="15.16583229059314"><ele>233.0</ele><time>2026-04-09T08:18:40Z</time></trkpt><trkpt lat="37.888247713119846" lon="15.165728743121443"><ele>234.0</ele><time>2026-04-09T08:18:41Z</time></trkpt><trkpt lat="37.88832454325542" lon="15.165616629604367"><ele>235.0</ele><time>2026-04-09T08:18:42Z</time></trkpt><trkpt lat="37.888400842324884" lon="15.165505321531706"><ele>236.0</ele><time>2026-04-09T08:18:43Z</time></trkpt><trkpt lat="37.88847985978957" lon="15.165390047834393"><ele>237.0</ele><time>2026-04-09T08:18:44Z</time></trkpt><trkpt lat="37.88855720741084" lon="15.16528102486482"><ele>237.0</ele><time>2026-04-09T08:18:45Z</time></trkpt><trkpt lat="37.8886091531261" lon="15.165150834835964"><ele>237.0</ele><time>2026-04-09T08:18:46Z</time></trkpt><trkpt lat="37.88868878341654" lon="15.165041510550399"><ele>237.0</ele><time>2026-04-09T08:18:47Z</time></trkpt><trkpt lat="37.888769936362365" lon="15.16492662862138"><ele>237.0</ele><time>2026-04-09T08:18:48Z</time></trkpt><trkpt lat="37.888853915629916" lon="15.164802895994992"><ele>235.25</ele><time>2026-04-09T08:18:49Z</time></trkpt><trkpt lat="37.8889640332499" lon="15.164704208257302"><ele>233.5</ele><time>2026-04-09T08:18:50Z</time></trkpt><trkpt lat="37.88905397235033" lon="15.164579234471717"><ele>231.75</ele><time>2026-04-09T08:18:51Z</time></trkpt><trkpt lat="37.889144779230925" lon="15.164455308945735"><ele>230.0</ele><time>2026-04-09T08:18:52Z</time></trkpt><trkpt lat="37.88924041947017" lon="15.164331756639033"><ele>230.5</ele><time>2026-04-09T08:18:53Z</time></trkpt><trkpt lat="37.88934793260549" lon="15.164231486877163"><ele>231.0</ele><time>2026-04-09T08:18:54Z</time></trkpt><trkpt lat="37.88947342458625" lon="15.164146459701028"><ele>231.5</ele><time>2026-04-09T08:18:55Z</time></trkpt><trkpt lat="37.88960497341934" lon="15.164068999326219"><ele>232.0</ele><time>2026-04-09T08:18:56Z</time></trkpt><trkpt lat="37.889737282694306" lon="15.163992336462105"><ele>232.0</ele><time>2026-04-09T08:18:57Z</time></trkpt><trkpt lat="37.88987293811302" lon="15.163913734766572"><ele>232.0</ele><time>2026-04-09T08:18:58Z</time></trkpt><trkpt lat="37.89000007713234" lon="15.163840067637524"><ele>232.0</ele><time>2026-04-09T08:18:59Z</time></trkpt><trkpt lat="37.89012032004763" lon="15.163770396277929"><ele>232.0</ele><time>2026-04-09T08:19:00Z</time></trkpt><trkpt lat="37.890239786217705" lon="15.163701174970118"><ele>233.5</ele><time>2026-04-09T08:19:01Z</time></trkpt><trkpt lat="37.89035923726746" lon="15.163631962436382"><ele>235.0</ele><time>2026-04-09T08:19:02Z</time></trkpt><trkpt lat="37.89047925127278" lon="15.163562424938554"><ele>236.5</ele><time>2026-04-09T08:19:03Z</time></trkpt><trkpt lat="37.89058738678997" lon="15.163499768856061"><ele>238.0</ele><time>2026-04-09T08:19:04Z</time></trkpt><trkpt lat="37.89068254817034" lon="15.163444630315128"><ele>238.0</ele><time>2026-04-09T08:19:05Z</time></trkpt><trkpt lat="37.89078471771384" lon="15.163385429349345"><ele>238.0</ele><time>2026-04-09T08:19:06Z</time></trkpt><trkpt lat="37.89088995431964" lon="15.163323982782334"><ele>238.0</ele><time>2026-04-09T08:19:06.999Z</time></trkpt><trkpt lat="37.89100154866878" lon="15.16325898433459"><ele>238.0</ele><time>2026-04-09T08:19:07.999Z</time></trkpt><trkpt lat="37.891111965405855" lon="15.163195048806541"><ele>238.0</ele><time>2026-04-09T08:19:08.999Z</time></trkpt><trkpt lat="37.89122306882312" lon="15.1631309440694"><ele>238.0</ele><time>2026-04-09T08:19:09.999Z</time></trkpt><trkpt lat="37.891331382329255" lon="15.163067571766268"><ele>238.0</ele><time>2026-04-09T08:19:10.999Z</time></trkpt><trkpt lat="37.891439091616206" lon="15.163004805767754"><ele>238.0</ele><time>2026-04-09T08:19:11.999Z</time></trkpt><trkpt lat="37.89154867523648" lon="15.16294094753833"><ele>238.0</ele><time>2026-04-09T08:19:12.999Z</time></trkpt><trkpt lat="37.891657484237" lon="15.16285820983103"><ele>238.0</ele><time>2026-04-09T08:19:13.999Z</time></trkpt><trkpt lat="37.89177051410432" lon="15.16279104246873"><ele>238.0</ele><time>2026-04-09T08:19:14.999Z</time></trkpt><trkpt lat="37.891876906881386" lon="15.162715603729536"><ele>238.0</ele><time>2026-04-09T08:19:15.999Z</time></trkpt><trkpt lat="37.89197210445638" lon="15.162634846163295"><ele>238.0</ele><time>2026-04-09T08:19:16.999Z</time></trkpt><trkpt lat="37.892074451729286" lon="15.162557380727826"><ele>238.0</ele><time>2026-04-09T08:19:17.999Z</time></trkpt><trkpt lat="37.8921384355053" lon="15.162430971310712"><ele>238.0</ele><time>2026-04-09T08:19:18.999Z</time></trkpt><trkpt lat="37.892186317873794" lon="15.162288749324107"><ele>238.0</ele><time>2026-04-09T08:19:19.999Z</time></trkpt><trkpt lat="37.892231989452284" lon="15.162141215715003"><ele>237.25</ele><time>2026-04-09T08:19:20.999Z</time></trkpt><trkpt lat="37.89226163740882" lon="15.161982451853532"><ele>236.5</ele><time>2026-04-09T08:19:21.999Z</time></trkpt><trkpt lat="37.89229645077776" lon="15.161830686381444"><ele>235.75</ele><time>2026-04-09T08:19:22.999Z</time></trkpt><trkpt lat="37.89231971664739" lon="15.161679535131713"><ele>235.0</ele><time>2026-04-09T08:19:23.999Z</time></trkpt><trkpt lat="37.892343739514715" lon="15.16152346585355"><ele>234.25</ele><time>2026-04-09T08:19:24.999Z</time></trkpt><trkpt lat="37.892368164500084" lon="15.161364784193934"><ele>233.5</ele><time>2026-04-09T08:19:25.999Z</time></trkpt><trkpt lat="37.89239220490929" lon="15.161208601567981"><ele>232.75</ele><time>2026-04-09T08:19:26.999Z</time></trkpt><trkpt lat="37.892419450106374" lon="15.16104306186853"><ele>232.0</ele><time>2026-04-09T08:19:27.999Z</time></trkpt><trkpt lat="37.892444159435925" lon="15.16087905729073"><ele>232.0</ele><time>2026-04-09T08:19:28.999Z</time></trkpt><trkpt lat="37.89246864430462" lon="15.160720445957866"><ele>232.0</ele><time>2026-04-09T08:19:30Z</time></trkpt><trkpt lat="37.89249349225202" lon="15.16055951849619"><ele>232.0</ele><time>2026-04-09T08:19:31Z</time></trkpt><trkpt lat="37.89251903216042" lon="15.160394998289815"><ele>232.0</ele><time>2026-04-09T08:19:32Z</time></trkpt><trkpt lat="37.89254282880895" lon="15.160241398602203"><ele>232.25</ele><time>2026-04-09T08:19:33Z</time></trkpt><trkpt lat="37.89256711922836" lon="15.160083462651668"><ele>232.5</ele><time>2026-04-09T08:19:34Z</time></trkpt><trkpt lat="37.89259125294233" lon="15.159929346781864"><ele>232.75</ele><time>2026-04-09T08:19:35Z</time></trkpt><trkpt lat="37.89261576441212" lon="15.159772818621663"><ele>233.0</ele><time>2026-04-09T08:19:36Z</time></trkpt><trkpt lat="37.892640571443245" lon="15.159613211672124"><ele>233.25</ele><time>2026-04-09T08:19:37Z</time></trkpt><trkpt lat="37.89266651512357" lon="15.159443864108004"><ele>233.5</ele><time>2026-04-09T08:19:38Z</time></trkpt><trkpt lat="37.892693247564154" lon="15.159269367903054"><ele>233.75</ele><time>2026-04-09T08:19:39Z</time></trkpt><trkpt lat="37.892720519332244" lon="15.159091351288636"><ele>234.0</ele><time>2026-04-09T08:19:40Z</time></trkpt><trkpt lat="37.892748977244196" lon="15.158905592075792"><ele>236.0</ele><time>2026-04-09T08:19:41Z</time></trkpt><trkpt lat="37.89277809911432" lon="15.158715498853436"><ele>238.0</ele><time>2026-04-09T08:19:42Z</time></trkpt><trkpt lat="37.89280708008739" lon="15.158526325317448"><ele>240.0</ele><time>2026-04-09T08:19:43Z</time></trkpt><trkpt lat="37.892834896143974" lon="15.158344755790369"><ele>241.0</ele><time>2026-04-09T08:19:44Z</time></trkpt><trkpt lat="37.89286079909293" lon="15.15817567432621"><ele>242.0</ele><time>2026-04-09T08:19:45Z</time></trkpt><trkpt lat="37.8928882918234" lon="15.158003783051974"><ele>243.0</ele><time>2026-04-09T08:19:46Z</time></trkpt><trkpt lat="37.89291694073146" lon="15.157832953273918"><ele>244.0</ele><time>2026-04-09T08:19:47Z</time></trkpt><trkpt lat="37.89295727391271" lon="15.157662109138409"><ele>244.0</ele><time>2026-04-09T08:19:48Z</time></trkpt><trkpt lat="37.89301008552938" lon="15.157497357967422"><ele>244.0</ele><time>2026-04-09T08:19:49Z</time></trkpt><trkpt lat="37.89308050026932" lon="15.157346902760118"><ele>244.0</ele><time>2026-04-09T08:19:50Z</time></trkpt><trkpt lat="37.893160774338114" lon="15.157205154172368"><ele>244.0</ele><time>2026-04-09T08:19:51Z</time></trkpt><trkpt lat="37.893244826920984" lon="15.157077780236422"><ele>245.0</ele><time>2026-04-09T08:19:52Z</time></trkpt><trkpt lat="37.893330877503246" lon="15.156954544955227"><ele>246.0</ele><time>2026-04-09T08:19:53Z</time></trkpt><trkpt lat="37.89341804302353" lon="15.156829712912653"><ele>247.0</ele><time>2026-04-09T08:19:54Z</time></trkpt><trkpt lat="37.8934996707378" lon="15.156712811765573"><ele>248.0</ele><time>2026-04-09T08:19:55Z</time></trkpt><trkpt lat="37.89358056837639" lon="15.156596291906189"><ele>250.0</ele><time>2026-04-09T08:19:56Z</time></trkpt><trkpt lat="37.893659682451556" lon="15.156481799987521"><ele>252.0</ele><time>2026-04-09T08:19:57Z</time></trkpt><trkpt lat="37.893725865408214" lon="15.156355900929972"><ele>254.0</ele><time>2026-04-09T08:19:58Z</time></trkpt><trkpt lat="37.89380590345702" lon="15.156240358705178"><ele>256.0</ele><time>2026-04-09T08:19:59Z</time></trkpt><trkpt lat="37.89388742676226" lon="15.156122861030688"><ele>256.0</ele><time>2026-04-09T08:20:00Z</time></trkpt><trkpt lat="37.89397083192688" lon="15.15600285013911"><ele>256.0</ele><time>2026-04-09T08:20:01Z</time></trkpt><trkpt lat="37.89405597721215" lon="15.15588126303282"><ele>256.0</ele><time>2026-04-09T08:20:02Z</time></trkpt><trkpt lat="37.894142086209484" lon="15.155758918055373"><ele>256.0</ele><time>2026-04-09T08:20:03Z</time></trkpt><trkpt lat="37.89422429657572" lon="15.155641286571255"><ele>256.5</ele><time>2026-04-09T08:20:04Z</time></trkpt><trkpt lat="37.89430992147154" lon="15.155514702949173"><ele>257.0</ele><time>2026-04-09T08:20:05Z</time></trkpt><trkpt lat="37.894389547341106" lon="15.155399819373129"><ele>257.5</ele><time>2026-04-09T08:20:06Z</time></trkpt><trkpt lat="37.89448072312131" lon="15.155297579114848"><ele>258.0</ele><time>2026-04-09T08:20:07Z</time></trkpt><trkpt lat="37.89456048992474" lon="15.155183608262154"><ele>258.0</ele><time>2026-04-09T08:20:08Z</time></trkpt><trkpt lat="37.89463940697019" lon="15.155070851493951"><ele>258.0</ele><time>2026-04-09T08:20:09Z</time></trkpt><trkpt lat="37.894718849017146" lon="15.154957344628968"><ele>258.0</ele><time>2026-04-09T08:20:10Z</time></trkpt><trkpt lat="37.894802029148515" lon="15.154838441889694"><ele>258.0</ele><time>2026-04-09T08:20:11Z</time></trkpt><trkpt lat="37.894886230178145" lon="15.154716952963353"><ele>257.75</ele><time>2026-04-09T08:20:12Z</time></trkpt><trkpt lat="37.89497516947796" lon="15.154588627463028"><ele>257.5</ele><time>2026-04-09T08:20:13Z</time></trkpt><trkpt lat="37.89506121765619" lon="15.154464473349075"><ele>257.25</ele><time>2026-04-09T08:20:13.999Z</time></trkpt><trkpt lat="37.89515117913507" lon="15.154334672994553"><ele>257.0</ele><time>2026-04-09T08:20:14.999Z</time></trkpt><trkpt lat="37.89523088565186" lon="15.154192946296948"><ele>257.0</ele><time>2026-04-09T08:20:15.999Z</time></trkpt><trkpt lat="37.895324020648246" lon="15.154056268381781"><ele>257.0</ele><time>2026-04-09T08:20:16.999Z</time></trkpt><trkpt lat="37.89542620710513" lon="15.153933244677743"><ele>257.0</ele><time>2026-04-09T08:20:17.999Z</time></trkpt><trkpt lat="37.89551492054691" lon="15.153787683812094"><ele>257.0</ele><time>2026-04-09T08:20:18.999Z</time></trkpt><trkpt lat="37.895595754990595" lon="15.15363886104469"><ele>257.25</ele><time>2026-04-09T08:20:19.999Z</time></trkpt><trkpt lat="37.89565659115763" lon="15.153474294311573"><ele>257.5</ele><time>2026-04-09T08:20:20.999Z</time></trkpt><trkpt lat="37.895730916744625" lon="15.153339587079905"><ele>257.75</ele><time>2026-04-09T08:20:21.999Z</time></trkpt><trkpt lat="37.89578445239838" lon="15.153201414764641"><ele>258.0</ele><time>2026-04-09T08:20:22.999Z</time></trkpt><trkpt lat="37.895836671941346" lon="15.153061700250044"><ele>258.25</ele><time>2026-04-09T08:20:23.999Z</time></trkpt><trkpt lat="37.895891418964794" lon="15.152915223752341"><ele>258.5</ele><time>2026-04-09T08:20:24.999Z</time></trkpt><trkpt lat="37.89594500219949" lon="15.152771860768478"><ele>258.75</ele><time>2026-04-09T08:20:25.999Z</time></trkpt><trkpt lat="37.89599846316011" lon="15.152628824915062"><ele>259.0</ele><time>2026-04-09T08:20:26.999Z</time></trkpt><trkpt lat="37.896053806739204" lon="15.152480752447572"><ele>260.0</ele><time>2026-04-09T08:20:27.999Z</time></trkpt><trkpt lat="37.89610843873993" lon="15.152334583492685"><ele>261.0</ele><time>2026-04-09T08:20:28.999Z</time></trkpt><trkpt lat="37.89616252218192" lon="15.15218988201766"><ele>262.0</ele><time>2026-04-09T08:20:29.999Z</time></trkpt><trkpt lat="37.896206723458135" lon="15.152036975788787"><ele>263.0</ele><time>2026-04-09T08:20:30.999Z</time></trkpt><trkpt lat="37.89626033940737" lon="15.151886973729505"><ele>263.0</ele><time>2026-04-09T08:20:31.999Z</time></trkpt><trkpt lat="37.89631466113674" lon="15.151738002973213"><ele>263.0</ele><time>2026-04-09T08:20:32.999Z</time></trkpt><trkpt lat="37.89636826354049" lon="15.151594501847988"><ele>263.0</ele><time>2026-04-09T08:20:33.999Z</time></trkpt><trkpt lat="37.896420029179296" lon="15.15145389751112"><ele>263.0</ele><time>2026-04-09T08:20:34.999Z</time></trkpt><trkpt lat="37.896485797699775" lon="15.151325044195868"><ele>263.25</ele><time>2026-04-09T08:20:35.999Z</time></trkpt><trkpt lat="37.896539764178094" lon="15.151180730334762"><ele>263.5</ele><time>2026-04-09T08:20:36.999Z</time></trkpt><trkpt lat="37.896593879130066" lon="15.151035918172964"><ele>263.75</ele><time>2026-04-09T08:20:37.999Z</time></trkpt><trkpt lat="37.89664681808427" lon="15.150894244645817"><ele>264.0</ele><time>2026-04-09T08:20:38.999Z</time></trkpt><trkpt lat="37.89670137836572" lon="15.150748232158895"><ele>264.6666666666667</ele><time>2026-04-09T08:20:39.999Z</time></trkpt><trkpt lat="37.89676617618355" lon="15.150574822318688"><ele>265.33333333333337</ele><time>2026-04-09T08:20:40.999Z</time></trkpt><trkpt lat="37.89684163582378" lon="15.150372879630723"><ele>266.0</ele><time>2026-04-09T08:20:41.999Z</time></trkpt><trkpt lat="37.89692077829553" lon="15.150161081105582"><ele>266.0</ele><time>2026-04-09T08:20:42.999Z</time></trkpt><trkpt lat="37.89701458312182" lon="15.149941433685504"><ele>266.0</ele><time>2026-04-09T08:20:43.999Z</time></trkpt><trkpt lat="37.89711363882821" lon="15.149747246091811"><ele>266.0</ele><time>2026-04-09T08:20:44.999Z</time></trkpt><trkpt lat="37.89720957517823" lon="15.149544086603909"><ele>267.0</ele><time>2026-04-09T08:20:45.999Z</time></trkpt><trkpt lat="37.897332899794314" lon="15.149389667148741"><ele>268.0</ele><time>2026-04-09T08:20:46.999Z</time></trkpt><trkpt lat="37.89744546583484" lon="15.149234097373688"><ele>269.0</ele><time>2026-04-09T08:20:47.999Z</time></trkpt><trkpt lat="37.89756086723021" lon="15.149078078806891"><ele>270.6666666666667</ele><time>2026-04-09T08:20:48.999Z</time></trkpt><trkpt lat="37.897660007435185" lon="15.148919378560212"><ele>272.3333333333333</ele><time>2026-04-09T08:20:49.999Z</time></trkpt><trkpt lat="37.89777627379933" lon="15.148761844813615"><ele>274.0</ele><time>2026-04-09T08:20:50.999Z</time></trkpt><trkpt lat="37.897884611454025" lon="15.148616143931116"><ele>274.0</ele><time>2026-04-09T08:20:51.999Z</time></trkpt><trkpt lat="37.897996102696936" lon="15.148461642172318"><ele>274.0</ele><time>2026-04-09T08:20:52.999Z</time></trkpt><trkpt lat="37.89809078589578" lon="15.148317936612719"><ele>274.0</ele><time>2026-04-09T08:20:53.999Z</time></trkpt><trkpt lat="37.89817781501993" lon="15.148169373595492"><ele>274.5</ele><time>2026-04-09T08:20:54.999Z</time></trkpt><trkpt lat="37.89825320774874" lon="15.148025263189753"><ele>275.0</ele><time>2026-04-09T08:20:55.999Z</time></trkpt><trkpt lat="37.89832066410094" lon="15.14786878378568"><ele>275.5</ele><time>2026-04-09T08:20:56.999Z</time></trkpt><trkpt lat="37.8983774338662" lon="15.147703722191002"><ele>276.0</ele><time>2026-04-09T08:20:57.999Z</time></trkpt><trkpt lat="37.898430856631826" lon="15.147542203110536"><ele>276.25</ele><time>2026-04-09T08:20:58.999Z</time></trkpt><trkpt lat="37.89848355405627" lon="15.14738704994685"><ele>276.5</ele><time>2026-04-09T08:20:59.999Z</time></trkpt><trkpt lat="37.89854850823249" lon="15.14724983330581"><ele>276.75</ele><time>2026-04-09T08:21:00.999Z</time></trkpt><trkpt lat="37.89859888438585" lon="15.147102519777249"><ele>277.0</ele><time>2026-04-09T08:21:01.999Z</time></trkpt><trkpt lat="37.898646807330095" lon="15.146961430221493"><ele>277.5</ele><time>2026-04-09T08:21:02.999Z</time></trkpt><trkpt lat="37.89869366543133" lon="15.146823475594964"><ele>278.0</ele><time>2026-04-09T08:21:03.999Z</time></trkpt><trkpt lat="37.898740109637934" lon="15.146686739562387"><ele>278.5</ele><time>2026-04-09T08:21:04.999Z</time></trkpt><trkpt lat="37.898784279019885" lon="15.146556700834433"><ele>279.0</ele><time>2026-04-09T08:21:05.999Z</time></trkpt><trkpt lat="37.89882711832149" lon="15.146430577928504"><ele>279.2</ele><time>2026-04-09T08:21:06.999Z</time></trkpt><trkpt lat="37.89887041386588" lon="15.146303111864434"><ele>279.4</ele><time>2026-04-09T08:21:07.999Z</time></trkpt><trkpt lat="37.898909310473435" lon="15.146188596648548"><ele>279.6</ele><time>2026-04-09T08:21:08.999Z</time></trkpt><trkpt lat="37.89894434963908" lon="15.146085438077417"><ele>279.8</ele><time>2026-04-09T08:21:09.999Z</time></trkpt><trkpt lat="37.89897849814407" lon="15.14598455928896"><ele>280.0</ele><time>2026-04-09T08:21:10.999Z</time></trkpt><trkpt lat="37.89901246710474" lon="15.1458841581731"><ele>280.0</ele><time>2026-04-09T08:21:11.999Z</time></trkpt><trkpt lat="37.89905086522547" lon="15.145770665968547"><ele>280.0</ele><time>2026-04-09T08:21:12.999Z</time></trkpt><trkpt lat="37.89909388918484" lon="15.145643501303699"><ele>280.0</ele><time>2026-04-09T08:21:13.999Z</time></trkpt><trkpt lat="37.899123521806274" lon="15.145507947072776"><ele>280.0</ele><time>2026-04-09T08:21:14.999Z</time></trkpt><trkpt lat="37.8991746963396" lon="15.145378091391466"><ele>280.0</ele><time>2026-04-09T08:21:15.999Z</time></trkpt><trkpt lat="37.89923414436447" lon="15.145251163572498"><ele>280.25</ele><time>2026-04-09T08:21:16.999Z</time></trkpt><trkpt lat="37.89930440292088" lon="15.145120830212145"><ele>280.5</ele><time>2026-04-09T08:21:17.999Z</time></trkpt><trkpt lat="37.89938141590298" lon="15.144991467028387"><ele>280.75</ele><time>2026-04-09T08:21:18.999Z</time></trkpt><trkpt lat="37.899461804770745" lon="15.144867259506242"><ele>281.0</ele><time>2026-04-09T08:21:19.999Z</time></trkpt><trkpt lat="37.899548856152705" lon="15.144749994516864"><ele>281.75</ele><time>2026-04-09T08:21:20.999Z</time></trkpt><trkpt lat="37.899647422582184" lon="15.144645054902055"><ele>282.5</ele><time>2026-04-09T08:21:21.999Z</time></trkpt><trkpt lat="37.89976615734033" lon="15.144575063978058"><ele>283.25</ele><time>2026-04-09T08:21:22.999Z</time></trkpt><trkpt lat="37.89987316818444" lon="15.144489434842612"><ele>284.0</ele><time>2026-04-09T08:21:23.999Z</time></trkpt><trkpt lat="37.89997523419263" lon="15.144407132403456"><ele>284.0</ele><time>2026-04-09T08:21:24.999Z</time></trkpt><trkpt lat="37.90007222764347" lon="15.144330038815124"><ele>284.0</ele><time>2026-04-09T08:21:25.999Z</time></trkpt><trkpt lat="37.900157864098624" lon="15.144261972166202"><ele>284.0</ele><time>2026-04-09T08:21:26.999Z</time></trkpt><trkpt lat="37.90023067948505" lon="15.144179688715441"><ele>284.0</ele><time>2026-04-09T08:21:27.999Z</time></trkpt><trkpt lat="37.90031413849124" lon="15.144114348112357"><ele>284.0</ele><time>2026-04-09T08:21:28.999Z</time></trkpt><trkpt lat="37.900401953041765" lon="15.144048907054884"><ele>285.0</ele><time>2026-04-09T08:21:29.999Z</time></trkpt><trkpt lat="37.90048679315884" lon="15.143984110874571"><ele>286.0</ele><time>2026-04-09T08:21:30.999Z</time></trkpt><trkpt lat="37.90056691466867" lon="15.143918374555941"><ele>287.0</ele><time>2026-04-09T08:21:31.999Z</time></trkpt><trkpt lat="37.90065194257489" lon="15.143850339113113"><ele>288.0</ele><time>2026-04-09T08:21:32.999Z</time></trkpt><trkpt lat="37.90074429133492" lon="15.143781160354617"><ele>289.0</ele><time>2026-04-09T08:21:33.999Z</time></trkpt><trkpt lat="37.90083779529663" lon="15.143713459811302"><ele>288.8</ele><time>2026-04-09T08:21:34.999Z</time></trkpt><trkpt lat="37.900924264639684" lon="15.143640889851921"><ele>288.59999999999997</ele><time>2026-04-09T08:21:36Z</time></trkpt><trkpt lat="37.90101153228647" lon="15.143570389784339"><ele>288.4</ele><time>2026-04-09T08:21:37Z</time></trkpt><trkpt lat="37.90110065301686" lon="15.14350050755878"><ele>288.2</ele><time>2026-04-09T08:21:38Z</time></trkpt><trkpt lat="37.90119715106677" lon="15.143425839388"><ele>288.0</ele><time>2026-04-09T08:21:39Z</time></trkpt><trkpt lat="37.90129222578389" lon="15.143348381968966"><ele>288.0</ele><time>2026-04-09T08:21:40Z</time></trkpt><trkpt lat="37.901380600671104" lon="15.143277312335886"><ele>288.0</ele><time>2026-04-09T08:21:41Z</time></trkpt><trkpt lat="37.90146496180762" lon="15.143208783408232"><ele>288.0</ele><time>2026-04-09T08:21:42Z</time></trkpt><trkpt lat="37.901546025076485" lon="15.14314353279653"><ele>288.0</ele><time>2026-04-09T08:21:43Z</time></trkpt><trkpt lat="37.901625547059794" lon="15.143078537524998"><ele>288.0</ele><time>2026-04-09T08:21:44Z</time></trkpt><trkpt lat="37.90172371516004" lon="15.143012697885359"><ele>289.0</ele><time>2026-04-09T08:21:45Z</time></trkpt><trkpt lat="37.901791681880745" lon="15.142948091740081"><ele>290.0</ele><time>2026-04-09T08:21:46Z</time></trkpt><trkpt lat="37.90186612774038" lon="15.142887515431958"><ele>291.0</ele><time>2026-04-09T08:21:47Z</time></trkpt><trkpt lat="37.901937435831485" lon="15.142833761171854"><ele>292.0</ele><time>2026-04-09T08:21:48Z</time></trkpt><trkpt lat="37.901994518427905" lon="15.142775659669228"><ele>293.0</ele><time>2026-04-09T08:21:49Z</time></trkpt><trkpt lat="37.90206184705799" lon="15.142743987135276"><ele>294.0</ele><time>2026-04-09T08:21:50Z</time></trkpt><trkpt lat="37.90211682700076" lon="15.142699942286765"><ele>294.0</ele><time>2026-04-09T08:21:51Z</time></trkpt><trkpt lat="37.90220786215738" lon="15.142606787781443"><ele>294.0</ele><time>2026-04-09T08:21:53Z</time></trkpt><trkpt lat="37.90226472787092" lon="15.142563852991396"><ele>294.0</ele><time>2026-04-09T08:21:54Z</time></trkpt><trkpt lat="37.90232508207895" lon="15.142538104750898"><ele>294.0</ele><time>2026-04-09T08:21:55Z</time></trkpt><trkpt lat="37.902386605401475" lon="15.142491900132894"><ele>294.0</ele><time>2026-04-09T08:21:56Z</time></trkpt><trkpt lat="37.90244713111234" lon="15.1424472618854"><ele>294.0</ele><time>2026-04-09T08:21:57Z</time></trkpt><trkpt lat="37.902518499865984" lon="15.142393043353259"><ele>295.8333333333333</ele><time>2026-04-09T08:21:58Z</time></trkpt><trkpt lat="37.90258441991959" lon="15.142341834551106"><ele>297.6666666666667</ele><time>2026-04-09T08:21:59Z</time></trkpt><trkpt lat="37.90266103075365" lon="15.14228082761533"><ele>299.5</ele><time>2026-04-09T08:22:00Z</time></trkpt><trkpt lat="37.90273360471047" lon="15.14222273232318"><ele>301.33333333333337</ele><time>2026-04-09T08:22:01Z</time></trkpt><trkpt lat="37.90280489321476" lon="15.142165604733735"><ele>303.1666666666667</ele><time>2026-04-09T08:22:02Z</time></trkpt><trkpt lat="37.90288234292327" lon="15.142103503069425"><ele>305.0</ele><time>2026-04-09T08:22:03Z</time></trkpt><trkpt lat="37.90297763574656" lon="15.142027094307505"><ele>305.0</ele><time>2026-04-09T08:22:04Z</time></trkpt><trkpt lat="37.903075126215775" lon="15.141947621197415"><ele>305.0</ele><time>2026-04-09T08:22:05Z</time></trkpt><trkpt lat="37.903150932955626" lon="15.14188676682869"><ele>305.0</ele><time>2026-04-09T08:22:06Z</time></trkpt><trkpt lat="37.903219328504406" lon="15.141831861895012"><ele>305.0</ele><time>2026-04-09T08:22:07Z</time></trkpt><trkpt lat="37.90328924044" lon="15.141775739660037"><ele>305.0</ele><time>2026-04-09T08:22:08Z</time></trkpt><trkpt lat="37.90335769245773" lon="15.141720836626927"><ele>305.0</ele><time>2026-04-09T08:22:09Z</time></trkpt><trkpt lat="37.90341750480485" lon="15.141672865122157"><ele>305.0</ele><time>2026-04-09T08:22:10Z</time></trkpt><trkpt lat="37.90347085934095" lon="15.141630073113156"><ele>305.0</ele><time>2026-04-09T08:22:11Z</time></trkpt><trkpt lat="37.90352503742172" lon="15.141584524003358"><ele>305.0</ele><time>2026-04-09T08:22:12Z</time></trkpt><trkpt lat="37.90355897469058" lon="15.141495034049862"><ele>305.0</ele><time>2026-04-09T08:22:13Z</time></trkpt><trkpt lat="37.90361283135704" lon="15.141443977291836"><ele>305.0</ele><time>2026-04-09T08:22:14Z</time></trkpt><trkpt lat="37.90368105352955" lon="15.141362660503184"><ele>305.0</ele><time>2026-04-09T08:22:15.999Z</time></trkpt><trkpt lat="37.90376841084616" lon="15.141382156685237"><ele>305.6</ele><time>2026-04-09T08:22:18.999Z</time></trkpt><trkpt lat="37.90382274152955" lon="15.141198540577838"><ele>306.2</ele><time>2026-04-09T08:24:07Z</time></trkpt><trkpt lat="37.90391816584275" lon="15.141170874244168"><ele>306.8</ele><time>2026-04-09T08:24:08Z</time></trkpt><trkpt lat="37.90399385179575" lon="15.141113491754044"><ele>307.4</ele><time>2026-04-09T08:24:09Z</time></trkpt><trkpt lat="37.90408109717643" lon="15.141043640139008"><ele>308.0</ele><time>2026-04-09T08:24:10Z</time></trkpt><trkpt lat="37.90422391410837" lon="15.141028102843164"><ele>308.33333333333337</ele><time>2026-04-09T08:24:11Z</time></trkpt><trkpt lat="37.90433109851952" lon="15.14090792048729"><ele>308.6666666666667</ele><time>2026-04-09T08:24:12Z</time></trkpt><trkpt lat="37.90447970283656" lon="15.14079441539417"><ele>309.0</ele><time>2026-04-09T08:24:13Z</time></trkpt><trkpt lat="37.904621630363465" lon="15.14068624663629"><ele>309.0</ele><time>2026-04-09T08:24:14Z</time></trkpt><trkpt lat="37.90473518160405" lon="15.140598237055066"><ele>309.0</ele><time>2026-04-09T08:24:15Z</time></trkpt><trkpt lat="37.90483196423264" lon="15.140522794704033"><ele>309.0</ele><time>2026-04-09T08:24:16Z</time></trkpt><trkpt lat="37.90487163890686" lon="15.140417170560392"><ele>309.0</ele><time>2026-04-09T08:24:17Z</time></trkpt><trkpt lat="37.90495777736402" lon="15.140388871832254"><ele>309.0</ele><time>2026-04-09T08:24:19Z</time></trkpt><trkpt lat="37.905014234820285" lon="15.140636311146663"><ele>309.0</ele><time>2026-04-09T08:24:23Z</time></trkpt><trkpt lat="37.90506920341971" lon="15.1407352675425"><ele>309.0</ele><time>2026-04-09T08:24:24Z</time></trkpt><trkpt lat="37.90514022705632" lon="15.140863819005295"><ele>309.0</ele><time>2026-04-09T08:24:25Z</time></trkpt><trkpt lat="37.905181939904054" lon="15.140984421247369"><ele>309.0</ele><time>2026-04-09T08:24:26Z</time></trkpt><trkpt lat="37.90523650276419" lon="15.141103383710055"><ele>309.0</ele><time>2026-04-09T08:24:27Z</time></trkpt><trkpt lat="37.90528272983854" lon="15.141217440617696"><ele>307.0</ele><time>2026-04-09T08:24:28Z</time></trkpt><trkpt lat="37.90533802251351" lon="15.141325015242385"><ele>305.0</ele><time>2026-04-09T08:24:29Z</time></trkpt><trkpt lat="37.905403405577246" lon="15.141425030827913"><ele>303.0</ele><time>2026-04-09T08:24:30Z</time></trkpt><trkpt lat="37.90550208253098" lon="15.141531033071322"><ele>301.0</ele><time>2026-04-09T08:24:31Z</time></trkpt><trkpt lat="37.90559325370827" lon="15.14164609345532"><ele>301.0</ele><time>2026-04-09T08:24:32Z</time></trkpt><trkpt lat="37.90566908875869" lon="15.141749574635668"><ele>301.0</ele><time>2026-04-09T08:24:33Z</time></trkpt><trkpt lat="37.90574974073746" lon="15.141835960705205"><ele>301.0</ele><time>2026-04-09T08:24:34Z</time></trkpt><trkpt lat="37.905830364861195" lon="15.141913005123486"><ele>301.0</ele><time>2026-04-09T08:24:35Z</time></trkpt><trkpt lat="37.90592180813734" lon="15.141967075853469"><ele>301.0</ele><time>2026-04-09T08:24:36Z</time></trkpt><trkpt lat="37.90601400935829" lon="15.14202177976532"><ele>300.0</ele><time>2026-04-09T08:24:37Z</time></trkpt><trkpt lat="37.90609294636559" lon="15.142064639758225"><ele>299.0</ele><time>2026-04-09T08:24:38Z</time></trkpt><trkpt lat="37.90616722061143" lon="15.142120565783692"><ele>298.0</ele><time>2026-04-09T08:24:39Z</time></trkpt><trkpt lat="37.90624028291443" lon="15.142197388109992"><ele>297.0</ele><time>2026-04-09T08:24:40Z</time></trkpt><trkpt lat="37.90631816933477" lon="15.142286320643167"><ele>296.0</ele><time>2026-04-09T08:24:41Z</time></trkpt><trkpt lat="37.906404615303195" lon="15.142383581406886"><ele>296.0</ele><time>2026-04-09T08:24:42Z</time></trkpt><trkpt lat="37.90648520439483" lon="15.142473529394639"><ele>296.0</ele><time>2026-04-09T08:24:43Z</time></trkpt><trkpt lat="37.90658320698082" lon="15.14255301488254"><ele>296.0</ele><time>2026-04-09T08:24:43.999Z</time></trkpt><trkpt lat="37.90672655264831" lon="15.142632312556781"><ele>296.0</ele><time>2026-04-09T08:24:44.999Z</time></trkpt><trkpt lat="37.9068803007639" lon="15.142709746143353"><ele>297.25</ele><time>2026-04-09T08:24:45.999Z</time></trkpt><trkpt lat="37.90704157888789" lon="15.142787341018296"><ele>298.5</ele><time>2026-04-09T08:24:46.999Z</time></trkpt><trkpt lat="37.907177288901686" lon="15.14285922565365"><ele>299.75</ele><time>2026-04-09T08:24:47.999Z</time></trkpt><trkpt lat="37.90729107769915" lon="15.142935102529874"><ele>301.0</ele><time>2026-04-09T08:24:48.999Z</time></trkpt><trkpt lat="37.90738434742905" lon="15.14302389147625"><ele>301.0</ele><time>2026-04-09T08:24:49.999Z</time></trkpt><trkpt lat="37.90747038377788" lon="15.143154272067806"><ele>301.0</ele><time>2026-04-09T08:24:50.999Z</time></trkpt><trkpt lat="37.907535603459685" lon="15.14331974610677"><ele>301.0</ele><time>2026-04-09T08:24:51.999Z</time></trkpt><trkpt lat="37.907584285112094" lon="15.143482915500966"><ele>301.0</ele><time>2026-04-09T08:24:52.999Z</time></trkpt><trkpt lat="37.90762941527174" lon="15.14362177717198"><ele>301.40000000000003</ele><time>2026-04-09T08:24:53.999Z</time></trkpt><trkpt lat="37.907671702246866" lon="15.14372684134817"><ele>301.8</ele><time>2026-04-09T08:24:54.999Z</time></trkpt><trkpt lat="37.90770818485045" lon="15.143834721158107"><ele>302.20000000000005</ele><time>2026-04-09T08:24:56.999Z</time></trkpt><trkpt lat="37.907844302261225" lon="15.14385715642381"><ele>302.6</ele><time>2026-04-09T08:24:58.999Z</time></trkpt><trkpt lat="37.90790146809179" lon="15.143899748291613"><ele>303.0</ele><time>2026-04-09T08:24:59.999Z</time></trkpt><trkpt lat="37.908045147549664" lon="15.143835499464728"><ele>303.0</ele><time>2026-04-09T08:25:01.999Z</time></trkpt><trkpt lat="37.908116625763014" lon="15.143777964820686"><ele>303.0</ele><time>2026-04-09T08:25:02.999Z</time></trkpt><trkpt lat="37.908185600899095" lon="15.143713434698252"><ele>303.0</ele><time>2026-04-09T08:25:03.999Z</time></trkpt><trkpt lat="37.90826129453244" lon="15.143650271625603"><ele>303.0</ele><time>2026-04-09T08:25:04.999Z</time></trkpt><trkpt lat="37.90833193767962" lon="15.143588555759898"><ele>303.0</ele><time>2026-04-09T08:25:05.999Z</time></trkpt><trkpt lat="37.90839008485004" lon="15.143523916074642"><ele>303.0</ele><time>2026-04-09T08:25:06.999Z</time></trkpt><trkpt lat="37.908525625261255" lon="15.143503748054204"><ele>303.1666666666667</ele><time>2026-04-09T08:25:08.999Z</time></trkpt><trkpt lat="37.908539729413924" lon="15.1433781996615"><ele>303.3333333333333</ele><time>2026-04-09T08:25:09.999Z</time></trkpt><trkpt lat="37.908617875422266" lon="15.143304184127686"><ele>303.5</ele><time>2026-04-09T08:25:11.999Z</time></trkpt><trkpt lat="37.90867891402632" lon="15.143275722498903"><ele>303.66666666666663</ele><time>2026-04-09T08:25:13.999Z</time></trkpt><trkpt lat="37.90868261813314" lon="15.143183881143116"><ele>303.8333333333333</ele><time>2026-04-09T08:25:14.999Z</time></trkpt><trkpt lat="37.90876768797554" lon="15.143223418388704"><ele>304.0</ele><time>2026-04-09T08:25:16.999Z</time></trkpt><trkpt lat="37.908754139660594" lon="15.143302757098686"><ele>304.5</ele><time>2026-04-09T08:25:20.999Z</time></trkpt><trkpt lat="37.90875625974359" lon="15.14321108389897"><ele>305.0</ele><time>2026-04-09T08:38:32Z</time></trkpt><trkpt lat="37.908805337284825" lon="15.14313359162675"><ele>305.5</ele><time>2026-04-09T08:38:34Z</time></trkpt><trkpt lat="37.90887431710442" lon="15.143018534943664"><ele>306.0</ele><time>2026-04-09T08:38:38Z</time></trkpt><trkpt lat="37.90894725910443" lon="15.142972728733257"><ele>306.5</ele><time>2026-04-09T08:38:39Z</time></trkpt><trkpt lat="37.909018724181834" lon="15.142913901938746"><ele>307.0</ele><time>2026-04-09T08:38:40Z</time></trkpt><trkpt lat="37.90909596698881" lon="15.142842462481324"><ele>307.0</ele><time>2026-04-09T08:38:41Z</time></trkpt><trkpt lat="37.90918411963112" lon="15.142766525515183"><ele>307.0</ele><time>2026-04-09T08:38:42Z</time></trkpt><trkpt lat="37.90927588032264" lon="15.142695795337838"><ele>307.0</ele><time>2026-04-09T08:38:43Z</time></trkpt><trkpt lat="37.90937059754143" lon="15.142630971376425"><ele>307.0</ele><time>2026-04-09T08:38:44Z</time></trkpt><trkpt lat="37.9094582702585" lon="15.142570462572413"><ele>307.0</ele><time>2026-04-09T08:38:45Z</time></trkpt><trkpt lat="37.90953797977203" lon="15.142513453002968"><ele>307.16666666666663</ele><time>2026-04-09T08:38:46Z</time></trkpt><trkpt lat="37.909614008889946" lon="15.142459377423437"><ele>307.3333333333333</ele><time>2026-04-09T08:38:47Z</time></trkpt><trkpt lat="37.909689616203835" lon="15.142394834665211"><ele>307.5</ele><time>2026-04-09T08:38:48Z</time></trkpt><trkpt lat="37.90975998747469" lon="15.14234238852191"><ele>307.6666666666667</ele><time>2026-04-09T08:38:49Z</time></trkpt><trkpt lat="37.90982206934796" lon="15.142303246991714"><ele>307.83333333333337</ele><time>2026-04-09T08:38:50Z</time></trkpt><trkpt lat="37.90988492998737" lon="15.142265922928022"><ele>308.0</ele><time>2026-04-09T08:38:51Z</time></trkpt><trkpt lat="37.90997640099953" lon="15.14217980507551"><ele>310.8</ele><time>2026-04-09T08:38:53Z</time></trkpt><trkpt lat="37.91011663756995" lon="15.14223146144773"><ele>313.6</ele><time>2026-04-09T08:38:54.999Z</time></trkpt><trkpt lat="37.910232293222975" lon="15.142287783935698"><ele>316.40000000000003</ele><time>2026-04-09T08:38:56.999Z</time></trkpt><trkpt lat="37.910305262074615" lon="15.142291446379561"><ele>319.20000000000005</ele><time>2026-04-09T08:38:57.999Z</time></trkpt><trkpt lat="37.91038059474595" lon="15.142282537372145"><ele>322.0</ele><time>2026-04-09T08:38:58.999Z</time></trkpt><trkpt lat="37.91044687848441" lon="15.142263061080252"><ele>322.0</ele><time>2026-04-09T08:38:59.999Z</time></trkpt><trkpt lat="37.9105814668968" lon="15.14224895424285"><ele>322.0</ele><time>2026-04-09T08:39:01.999Z</time></trkpt><trkpt lat="37.910653360944515" lon="15.142239316189968"><ele>322.0</ele><time>2026-04-09T08:39:02.999Z</time></trkpt><trkpt lat="37.91072225218629" lon="15.142312637999861"><ele>322.0</ele><time>2026-04-09T08:39:03.999Z</time></trkpt><trkpt lat="37.91074839594118" lon="15.142395373887267"><ele>322.0</ele><time>2026-04-09T08:39:04.999Z</time></trkpt><trkpt lat="37.910795959773175" lon="15.142481618678021"><ele>320.3333333333333</ele><time>2026-04-09T08:39:05.999Z</time></trkpt><trkpt lat="37.910854718085105" lon="15.14256630608409"><ele>318.66666666666663</ele><time>2026-04-09T08:39:06.999Z</time></trkpt><trkpt lat="37.910905446668856" lon="15.14263941857618"><ele>317.0</ele><time>2026-04-09T08:39:07.999Z</time></trkpt><trkpt lat="37.910968198811176" lon="15.142751761323293"><ele>315.3333333333333</ele><time>2026-04-09T08:39:08.999Z</time></trkpt><trkpt lat="37.911034678523905" lon="15.1428160702651"><ele>313.6666666666667</ele><time>2026-04-09T08:39:09.999Z</time></trkpt><trkpt lat="37.9111007180523" lon="15.142879953239142"><ele>312.0</ele><time>2026-04-09T08:39:10.999Z</time></trkpt><trkpt lat="37.91121974922921" lon="15.142987916764548"><ele>312.0</ele><time>2026-04-09T08:39:12.999Z</time></trkpt><trkpt lat="37.91136309172125" lon="15.143198558467446"><ele>312.0</ele><time>2026-04-09T08:39:13.999Z</time></trkpt><trkpt lat="37.91178116021" lon="15.14313591007024"><ele>313.0</ele><time>2026-04-09T08:39:15.999Z</time></trkpt><trkpt lat="37.91186147546915" lon="15.14312348321176"><ele>314.0</ele><time>2026-04-09T08:39:16.999Z</time></trkpt><trkpt lat="37.91195091776346" lon="15.14316001825231"><ele>315.0</ele><time>2026-04-09T08:39:21.999Z</time></trkpt><trkpt lat="37.91202493619404" lon="15.1432041682682"><ele>316.0</ele><time>2026-04-09T08:39:22.999Z</time></trkpt><trkpt lat="37.91216706469754" lon="15.143272216270395"><ele>317.0</ele><time>2026-04-09T08:39:24.999Z</time></trkpt><trkpt lat="37.912259891328844" lon="15.143302024955561"><ele>317.6</ele><time>2026-04-09T08:39:25.999Z</time></trkpt><trkpt lat="37.91232593917704" lon="15.143321476142003"><ele>318.2</ele><time>2026-04-09T08:39:26.999Z</time></trkpt><trkpt lat="37.91241018541426" lon="15.143346286760043"><ele>318.8</ele><time>2026-04-09T08:39:27.999Z</time></trkpt><trkpt lat="37.91255343615154" lon="15.143223757685245"><ele>319.4</ele><time>2026-04-09T08:39:28.999Z</time></trkpt><trkpt lat="37.91261734289441" lon="15.143221466823624"><ele>320.0</ele><time>2026-04-09T08:39:29.999Z</time></trkpt><trkpt lat="37.91273691877279" lon="15.143234752969743"><ele>321.2</ele><time>2026-04-09T08:39:30.999Z</time></trkpt><trkpt lat="37.912860320869385" lon="15.143223007591656"><ele>322.4</ele><time>2026-04-09T08:39:31.999Z</time></trkpt><trkpt lat="37.912977878433665" lon="15.143297777588963"><ele>323.6</ele><time>2026-04-09T08:39:32.999Z</time></trkpt><trkpt lat="37.913055259147384" lon="15.143384696524798"><ele>324.8</ele><time>2026-04-09T08:39:33.999Z</time></trkpt><trkpt lat="37.91312736302472" lon="15.143428455010326"><ele>326.0</ele><time>2026-04-09T08:39:34.999Z</time></trkpt><trkpt lat="37.91319361050714" lon="15.1434653022003"><ele>326.0</ele><time>2026-04-09T08:39:35.999Z</time></trkpt><trkpt lat="37.91329772926261" lon="15.14339237852778"><ele>326.0</ele><time>2026-04-09T08:39:36.999Z</time></trkpt><trkpt lat="37.913407678548595" lon="15.14335918778176"><ele>326.0</ele><time>2026-04-09T08:39:37.999Z</time></trkpt><trkpt lat="37.913533997354605" lon="15.143315157425643"><ele>326.0</ele><time>2026-04-09T08:39:38.999Z</time></trkpt><trkpt lat="37.913659789160775" lon="15.143278933194692"><ele>326.0</ele><time>2026-04-09T08:39:39.999Z</time></trkpt><trkpt lat="37.913799040735285" lon="15.143244971122758"><ele>326.0</ele><time>2026-04-09T08:39:40.999Z</time></trkpt><trkpt lat="37.91394029940853" lon="15.143222150033324"><ele>326.0</ele><time>2026-04-09T08:39:41.999Z</time></trkpt><trkpt lat="37.91408757090323" lon="15.143204827433138"><ele>326.0</ele><time>2026-04-09T08:39:42.999Z</time></trkpt><trkpt lat="37.9142300738824" lon="15.143200395614523"><ele>329.75</ele><time>2026-04-09T08:39:43.999Z</time></trkpt><trkpt lat="37.91435974020004" lon="15.143214935156351"><ele>333.5</ele><time>2026-04-09T08:39:44.999Z</time></trkpt><trkpt lat="37.914474054222744" lon="15.143237618722189"><ele>337.25</ele><time>2026-04-09T08:39:45.999Z</time></trkpt><trkpt lat="37.91458340887607" lon="15.143252631940236"><ele>341.0</ele><time>2026-04-09T08:39:46.999Z</time></trkpt><trkpt lat="37.91469854762553" lon="15.14323926216808"><ele>341.0</ele><time>2026-04-09T08:39:47.999Z</time></trkpt><trkpt lat="37.9148097922991" lon="15.143228628879754"><ele>341.0</ele><time>2026-04-09T08:39:48.999Z</time></trkpt><trkpt lat="37.91491400570597" lon="15.143252292838662"><ele>341.0</ele><time>2026-04-09T08:39:49.999Z</time></trkpt><trkpt lat="37.914994170484185" lon="15.143329670096508"><ele>341.0</ele><time>2026-04-09T08:39:50.999Z</time></trkpt><trkpt lat="37.91510994660312" lon="15.143314110858881"><ele>341.0</ele><time>2026-04-09T08:39:51.999Z</time></trkpt><trkpt lat="37.91521180173995" lon="15.143284507842045"><ele>342.0</ele><time>2026-04-09T08:39:52.999Z</time></trkpt><trkpt lat="37.91530934968284" lon="15.143233550035594"><ele>343.0</ele><time>2026-04-09T08:39:53.999Z</time></trkpt><trkpt lat="37.915410353286525" lon="15.143187721992435"><ele>344.0</ele><time>2026-04-09T08:39:54.999Z</time></trkpt><trkpt lat="37.91551234658925" lon="15.143153426709146"><ele>345.0</ele><time>2026-04-09T08:39:55.999Z</time></trkpt><trkpt lat="37.91561164385475" lon="15.143097509517656"><ele>346.0</ele><time>2026-04-09T08:39:56.999Z</time></trkpt><trkpt lat="37.915703887860204" lon="15.143038485009471"><ele>344.5</ele><time>2026-04-09T08:39:57.999Z</time></trkpt><trkpt lat="37.91578396155623" lon="15.142987019704373"><ele>343.0</ele><time>2026-04-09T08:39:58.999Z</time></trkpt><trkpt lat="37.91586847176293" lon="15.14296164079085"><ele>341.5</ele><time>2026-04-09T08:39:59.999Z</time></trkpt><trkpt lat="37.91593308690488" lon="15.14301245688296"><ele>340.0</ele><time>2026-04-09T08:40:00.999Z</time></trkpt><trkpt lat="37.916019902327015" lon="15.143032336925144"><ele>338.5</ele><time>2026-04-09T08:40:01.999Z</time></trkpt><trkpt lat="37.916097468243294" lon="15.14304838841233"><ele>337.0</ele><time>2026-04-09T08:40:02.999Z</time></trkpt><trkpt lat="37.91617220228376" lon="15.143073520761504"><ele>337.0</ele><time>2026-04-09T08:40:03.999Z</time></trkpt><trkpt lat="37.91625121230869" lon="15.14312089120517"><ele>337.0</ele><time>2026-04-09T08:40:04.999Z</time></trkpt><trkpt lat="37.91632659713817" lon="15.143171437884767"><ele>337.0</ele><time>2026-04-09T08:40:05.999Z</time></trkpt><trkpt lat="37.91638403503109" lon="15.143236358869178"><ele>337.0</ele><time>2026-04-09T08:40:06.999Z</time></trkpt><trkpt lat="37.91644499081547" lon="15.143273355148501"><ele>337.0</ele><time>2026-04-09T08:40:07.999Z</time></trkpt><trkpt lat="37.9165640898019" lon="15.14325790210808"><ele>337.0</ele><time>2026-04-09T08:40:09.999Z</time></trkpt><trkpt lat="37.916676414192494" lon="15.143192314858076"><ele>337.66666666666663</ele><time>2026-04-09T08:40:11.999Z</time></trkpt><trkpt lat="37.91675651018399" lon="15.14318049691758"><ele>338.3333333333333</ele><time>2026-04-09T08:40:12.999Z</time></trkpt><trkpt lat="37.916826447900036" lon="15.143205184805135"><ele>339.0</ele><time>2026-04-09T08:40:13.999Z</time></trkpt><trkpt lat="37.916910315002774" lon="15.143241055440427"><ele>339.6666666666667</ele><time>2026-04-09T08:40:14.999Z</time></trkpt><trkpt lat="37.91697612546163" lon="15.143283787423464"><ele>340.33333333333337</ele><time>2026-04-09T08:40:15.999Z</time></trkpt><trkpt lat="37.91707487121459" lon="15.143303708663625"><ele>341.0</ele><time>2026-04-09T08:40:16.999Z</time></trkpt><trkpt lat="37.91717756199836" lon="15.143292507281142"><ele>342.6</ele><time>2026-04-09T08:40:17.999Z</time></trkpt><trkpt lat="37.917261100601394" lon="15.14323010113468"><ele>344.20000000000005</ele><time>2026-04-09T08:40:18.999Z</time></trkpt><trkpt lat="37.91735271956069" lon="15.14321903889965"><ele>345.79999999999995</ele><time>2026-04-09T08:40:19.999Z</time></trkpt><trkpt lat="37.91743929763132" lon="15.143241900747567"><ele>347.4</ele><time>2026-04-09T08:40:20.999Z</time></trkpt><trkpt lat="37.91753177549998" lon="15.143287773085854"><ele>349.0</ele><time>2026-04-09T08:40:21.999Z</time></trkpt><trkpt lat="37.91762637722925" lon="15.143340033796784"><ele>349.2</ele><time>2026-04-09T08:40:22.999Z</time></trkpt><trkpt lat="37.91772166899985" lon="15.143375988152558"><ele>349.4</ele><time>2026-04-09T08:40:23.999Z</time></trkpt><trkpt lat="37.917823739256825" lon="15.143418209940785"><ele>349.6</ele><time>2026-04-09T08:40:24.999Z</time></trkpt><trkpt lat="37.91792258233192" lon="15.14348822545499"><ele>349.8</ele><time>2026-04-09T08:40:25.999Z</time></trkpt><trkpt lat="37.91802591921682" lon="15.143500488221337"><ele>350.0</ele><time>2026-04-09T08:40:26.999Z</time></trkpt><trkpt lat="37.91811989645026" lon="15.143504789429997"><ele>350.0</ele><time>2026-04-09T08:40:27.999Z</time></trkpt><trkpt lat="37.91820140747293" lon="15.143505535573572"><ele>350.0</ele><time>2026-04-09T08:40:28.999Z</time></trkpt><trkpt lat="37.918281048852066" lon="15.143548945555704"><ele>350.0</ele><time>2026-04-09T08:40:29.999Z</time></trkpt><trkpt lat="37.918349422910595" lon="15.143616542520022"><ele>350.0</ele><time>2026-04-09T08:40:30.999Z</time></trkpt><trkpt lat="37.91842410163026" lon="15.14368930862238"><ele>350.0</ele><time>2026-04-09T08:40:31.999Z</time></trkpt><trkpt lat="37.9184989932464" lon="15.143753189792287"><ele>350.0</ele><time>2026-04-09T08:40:32.999Z</time></trkpt><trkpt lat="37.9185856744685" lon="15.143808483302408"><ele>351.0</ele><time>2026-04-09T08:40:33.999Z</time></trkpt><trkpt lat="37.91868202856961" lon="15.143842660683934"><ele>352.0</ele><time>2026-04-09T08:40:34.999Z</time></trkpt><trkpt lat="37.918784276310056" lon="15.143873246915303"><ele>353.0</ele><time>2026-04-09T08:40:35.999Z</time></trkpt><trkpt lat="37.91887009556891" lon="15.143916159342782"><ele>354.0</ele><time>2026-04-09T08:40:36.999Z</time></trkpt><trkpt lat="37.91893998554875" lon="15.143967284272055"><ele>355.0</ele><time>2026-04-09T08:40:37.999Z</time></trkpt><trkpt lat="37.918980192440266" lon="15.144056280501031"><ele>355.66666666666663</ele><time>2026-04-09T08:40:38.999Z</time></trkpt><trkpt lat="37.91904307690467" lon="15.144094471834789"><ele>356.3333333333333</ele><time>2026-04-09T08:40:39.999Z</time></trkpt><trkpt lat="37.91908851910401" lon="15.144152074693856"><ele>357.0</ele><time>2026-04-09T08:40:40.999Z</time></trkpt><trkpt lat="37.91913999182569" lon="15.14423079441771"><ele>357.6666666666667</ele><time>2026-04-09T08:40:41.999Z</time></trkpt><trkpt lat="37.9191883306855" lon="15.1442979671861"><ele>358.33333333333337</ele><time>2026-04-09T08:40:42.999Z</time></trkpt><trkpt lat="37.919245512213536" lon="15.144381387033032"><ele>359.0</ele><time>2026-04-09T08:40:43.999Z</time></trkpt><trkpt lat="37.91931790872474" lon="15.144466411443664"><ele>359.0</ele><time>2026-04-09T08:40:44.999Z</time></trkpt><trkpt lat="37.91937261748673" lon="15.144560606119569"><ele>359.0</ele><time>2026-04-09T08:40:45.999Z</time></trkpt><trkpt lat="37.91941383053831" lon="15.144661953774799"><ele>359.0</ele><time>2026-04-09T08:40:46.999Z</time></trkpt><trkpt lat="37.919460476287256" lon="15.144738480807238"><ele>359.0</ele><time>2026-04-09T08:40:47.999Z</time></trkpt><trkpt lat="37.91952541313842" lon="15.144799836442402"><ele>359.0</ele><time>2026-04-09T08:40:48.999Z</time></trkpt><trkpt lat="37.919599068174264" lon="15.144875564074523"><ele>359.0</ele><time>2026-04-09T08:40:49.999Z</time></trkpt><trkpt lat="37.91969338027946" lon="15.144944821859017"><ele>359.5</ele><time>2026-04-09T08:40:50.999Z</time></trkpt><trkpt lat="37.919775856210826" lon="15.14499604489825"><ele>360.0</ele><time>2026-04-09T08:40:51.999Z</time></trkpt><trkpt lat="37.91985785952028" lon="15.145042531262975"><ele>360.5</ele><time>2026-04-09T08:40:52.999Z</time></trkpt><trkpt lat="37.91992607505213" lon="15.145081762086532"><ele>361.0</ele><time>2026-04-09T08:40:53.999Z</time></trkpt><trkpt lat="37.92000076689396" lon="15.145118020693154"><ele>361.5</ele><time>2026-04-09T08:40:54.999Z</time></trkpt><trkpt lat="37.92006423638059" lon="15.145166154094834"><ele>362.0</ele><time>2026-04-09T08:40:55.999Z</time></trkpt><trkpt lat="37.920136005101405" lon="15.145211572929725"><ele>362.0</ele><time>2026-04-09T08:40:56.999Z</time></trkpt><trkpt lat="37.92022334753252" lon="15.14522635247245"><ele>362.0</ele><time>2026-04-09T08:40:57.999Z</time></trkpt><trkpt lat="37.920300288830106" lon="15.14522340157476"><ele>362.0</ele><time>2026-04-09T08:40:58.999Z</time></trkpt><trkpt lat="37.920362198729144" lon="15.145253075804638"><ele>362.0</ele><time>2026-04-09T08:40:59.999Z</time></trkpt><trkpt lat="37.92043836725121" lon="15.145295763826033"><ele>362.0</ele><time>2026-04-09T08:41:00.999Z</time></trkpt><trkpt lat="37.92050212791507" lon="15.1453414180689"><ele>362.0</ele><time>2026-04-09T08:41:01.999Z</time></trkpt><trkpt lat="37.92058846561244" lon="15.145333122849891"><ele>362.0</ele><time>2026-04-09T08:41:02.999Z</time></trkpt><trkpt lat="37.92068484644469" lon="15.14530483238854"><ele>362.0</ele><time>2026-04-09T08:41:04.999Z</time></trkpt><trkpt lat="37.920693179133714" lon="15.145151391629843"><ele>362.0</ele><time>2026-04-09T08:41:05.999Z</time></trkpt><trkpt lat="37.92076894785809" lon="15.14513049963662"><ele>362.0</ele><time>2026-04-09T08:41:08.999Z</time></trkpt><trkpt lat="37.92085050445896" lon="15.145115252971767"><ele>362.0</ele><time>2026-04-09T08:41:11.999Z</time></trkpt><trkpt lat="37.92098648950926" lon="15.145091327364247"><ele>363.75</ele><time>2026-04-09T08:41:23.999Z</time></trkpt><trkpt lat="37.92109167972645" lon="15.145086163616414"><ele>365.5</ele><time>2026-04-09T08:41:24.999Z</time></trkpt><trkpt lat="37.921193749080814" lon="15.145098007717705"><ele>367.25</ele><time>2026-04-09T08:41:25.999Z</time></trkpt><trkpt lat="37.92132891731038" lon="15.14513563235062"><ele>369.0</ele><time>2026-04-09T08:41:26.999Z</time></trkpt><trkpt lat="37.92144858498431" lon="15.145237472041861"><ele>369.0</ele><time>2026-04-09T08:41:27.999Z</time></trkpt><trkpt lat="37.92154675272262" lon="15.14528458728549"><ele>369.0</ele><time>2026-04-09T08:41:28.999Z</time></trkpt><trkpt lat="37.92165154456339" lon="15.14534229895866"><ele>369.0</ele><time>2026-04-09T08:41:29.999Z</time></trkpt><trkpt lat="37.921756196010556" lon="15.145365098704744"><ele>369.0</ele><time>2026-04-09T08:41:30.999Z</time></trkpt><trkpt lat="37.92184929398074" lon="15.145351739836297"><ele>369.0</ele><time>2026-04-09T08:41:31.999Z</time></trkpt><trkpt lat="37.92194027890715" lon="15.145352480153427"><ele>370.0</ele><time>2026-04-09T08:41:32.999Z</time></trkpt><trkpt lat="37.922026292888965" lon="15.145367518049614"><ele>371.0</ele><time>2026-04-09T08:41:33.999Z</time></trkpt><trkpt lat="37.92212350191388" lon="15.145390570077709"><ele>372.0</ele><time>2026-04-09T08:41:34.999Z</time></trkpt><trkpt lat="37.922213389195456" lon="15.145322453475393"><ele>373.0</ele><time>2026-04-09T08:41:35.999Z</time></trkpt><trkpt lat="37.922317430011745" lon="15.145314199612052"><ele>374.0</ele><time>2026-04-09T08:41:36.999Z</time></trkpt><trkpt lat="37.92240667692448" lon="15.14532175489037"><ele>374.0</ele><time>2026-04-09T08:41:37.999Z</time></trkpt><trkpt lat="37.9224929289182" lon="15.14531505049056"><ele>374.0</ele><time>2026-04-09T08:41:38.999Z</time></trkpt><trkpt lat="37.92256925588313" lon="15.145276493713077"><ele>374.0</ele><time>2026-04-09T08:41:39.999Z</time></trkpt><trkpt lat="37.922647477499524" lon="15.14524504345689"><ele>374.0</ele><time>2026-04-09T08:41:40.999Z</time></trkpt><trkpt lat="37.922714080491744" lon="15.145198446331364"><ele>374.0</ele><time>2026-04-09T08:41:41.999Z</time></trkpt><trkpt lat="37.92277841716762" lon="15.145150755003868"><ele>374.0</ele><time>2026-04-09T08:41:42.999Z</time></trkpt><trkpt lat="37.922864520970734" lon="15.145098227542844"><ele>374.4</ele><time>2026-04-09T08:41:43.999Z</time></trkpt><trkpt lat="37.92296092648984" lon="15.14506211155413"><ele>374.79999999999995</ele><time>2026-04-09T08:41:44.999Z</time></trkpt><trkpt lat="37.923064354056734" lon="15.145042696168316"><ele>375.20000000000005</ele><time>2026-04-09T08:41:45.999Z</time></trkpt><trkpt lat="37.923151992510654" lon="15.145035998164824"><ele>375.6</ele><time>2026-04-09T08:41:46.999Z</time></trkpt><trkpt lat="37.923231355803864" lon="15.14503545368148"><ele>376.0</ele><time>2026-04-09T08:41:47.999Z</time></trkpt><trkpt lat="37.923330947058375" lon="15.145058606842438"><ele>376.0</ele><time>2026-04-09T08:41:48.999Z</time></trkpt><trkpt lat="37.923396090806506" lon="15.145073004079293"><ele>376.0</ele><time>2026-04-09T08:41:51.999Z</time></trkpt><trkpt lat="37.92349888468521" lon="15.145081978139919"><ele>376.0</ele><time>2026-04-09T08:42:01.999Z</time></trkpt><trkpt lat="37.92360072508221" lon="15.145096918575955"><ele>376.0</ele><time>2026-04-09T08:42:02.999Z</time></trkpt><trkpt lat="37.92370238256028" lon="15.14510989487403"><ele>376.0</ele><time>2026-04-09T08:42:04.999Z</time></trkpt><trkpt lat="37.92380383849018" lon="15.145083719563372"><ele>376.75</ele><time>2026-04-09T08:42:05.999Z</time></trkpt><trkpt lat="37.92389152271239" lon="15.14503959897168"><ele>377.5</ele><time>2026-04-09T08:42:06.999Z</time></trkpt><trkpt lat="37.92398498878131" lon="15.144997287588994"><ele>378.25</ele><time>2026-04-09T08:42:07.999Z</time></trkpt><trkpt lat="37.92406017685925" lon="15.144963250485754"><ele>379.0</ele><time>2026-04-09T08:42:08.999Z</time></trkpt><trkpt lat="37.92424031681055" lon="15.145298887727373"><ele>379.66666666666663</ele><time>2026-04-09T08:42:09.999Z</time></trkpt><trkpt lat="37.92432589930554" lon="15.145291963991337"><ele>380.3333333333333</ele><time>2026-04-09T08:42:10.999Z</time></trkpt><trkpt lat="37.92441542465731" lon="15.14527556082695"><ele>381.0</ele><time>2026-04-09T08:42:11.999Z</time></trkpt><trkpt lat="37.92450511890186" lon="15.145267885391686"><ele>381.6666666666667</ele><time>2026-04-09T08:42:12.999Z</time></trkpt><trkpt lat="37.92458814236183" lon="15.145269530649971"><ele>382.33333333333337</ele><time>2026-04-09T08:42:13.999Z</time></trkpt><trkpt lat="37.92466511916826" lon="15.14527816927234"><ele>383.0</ele><time>2026-04-09T08:42:14.999Z</time></trkpt><trkpt lat="37.924742490675705" lon="15.145315072904294"><ele>383.0</ele><time>2026-04-09T08:42:15.999Z</time></trkpt><trkpt lat="37.92481539998178" lon="15.145372778593233"><ele>383.0</ele><time>2026-04-09T08:42:16.999Z</time></trkpt><trkpt lat="37.92489391415395" lon="15.145413249408318"><ele>383.0</ele><time>2026-04-09T08:42:17.999Z</time></trkpt><trkpt lat="37.9249764923965" lon="15.145442244169823"><ele>383.0</ele><time>2026-04-09T08:42:18.999Z</time></trkpt><trkpt lat="37.92506692260093" lon="15.145468362663834"><ele>383.0</ele><time>2026-04-09T08:42:19.999Z</time></trkpt><trkpt lat="37.925151521559826" lon="15.145503914430138"><ele>383.0</ele><time>2026-04-09T08:42:20.999Z</time></trkpt><trkpt lat="37.92522095040061" lon="15.145555853380971"><ele>384.33333333333337</ele><time>2026-04-09T08:42:21.999Z</time></trkpt><trkpt lat="37.92529306565686" lon="15.145614565241955"><ele>385.6666666666667</ele><time>2026-04-09T08:42:22.999Z</time></trkpt><trkpt lat="37.925367715912635" lon="15.145686359349668"><ele>387.0</ele><time>2026-04-09T08:42:23.999Z</time></trkpt><trkpt lat="37.92543286802674" lon="15.145747599885208"><ele>388.33333333333337</ele><time>2026-04-09T08:42:24.999Z</time></trkpt><trkpt lat="37.92549714836462" lon="15.145779709774517"><ele>389.6666666666667</ele><time>2026-04-09T08:42:25.999Z</time></trkpt><trkpt lat="37.92559935347054" lon="15.14580015439872"><ele>391.0</ele><time>2026-04-09T08:42:27.999Z</time></trkpt><trkpt lat="37.92566869414734" lon="15.145821928251745"><ele>391.50000000000006</ele><time>2026-04-09T08:42:29.999Z</time></trkpt><trkpt lat="37.925746953036004" lon="15.145841056254142"><ele>392.0</ele><time>2026-04-09T08:42:31.999Z</time></trkpt><trkpt lat="37.925841070558256" lon="15.145837169504432"><ele>392.5</ele><time>2026-04-09T08:42:33.999Z</time></trkpt><trkpt lat="37.92593138388436" lon="15.145788370129212"><ele>393.0</ele><time>2026-04-09T08:42:35.999Z</time></trkpt><trkpt lat="37.925961051223396" lon="15.145689710971624"><ele>393.50000000000006</ele><time>2026-04-09T08:42:37.999Z</time></trkpt><trkpt lat="37.92596576002618" lon="15.145608713669159"><ele>394.0</ele><time>2026-04-09T08:42:38.999Z</time></trkpt><trkpt lat="37.92597367166528" lon="15.145525978376085"><ele>395.0</ele><time>2026-04-09T08:42:39.999Z</time></trkpt><trkpt lat="37.926016569379605" lon="15.145381302791742"><ele>396.0</ele><time>2026-04-09T08:42:41.999Z</time></trkpt><trkpt lat="37.92610200167007" lon="15.145310645993446"><ele>397.0</ele><time>2026-04-09T08:42:43.999Z</time></trkpt><trkpt lat="37.92617736034004" lon="15.14527712225601"><ele>398.0</ele><time>2026-04-09T08:42:44.999Z</time></trkpt><trkpt lat="37.92624395844216" lon="15.145250686254654"><ele>399.0</ele><time>2026-04-09T08:42:45.999Z</time></trkpt><trkpt lat="37.92637836740543" lon="15.145189026975372"><ele>399.0</ele><time>2026-04-09T08:42:47.999Z</time></trkpt><trkpt lat="37.92646086843328" lon="15.145166925060783"><ele>399.0</ele><time>2026-04-09T08:42:48.999Z</time></trkpt><trkpt lat="37.926537582041284" lon="15.145159924906151"><ele>399.0</ele><time>2026-04-09T08:42:49.999Z</time></trkpt><trkpt lat="37.92663048930686" lon="15.14515998051847"><ele>399.0</ele><time>2026-04-09T08:42:50.999Z</time></trkpt><trkpt lat="37.92671331808336" lon="15.145157359383987"><ele>399.0</ele><time>2026-04-09T08:42:51.999Z</time></trkpt><trkpt lat="37.92680154084158" lon="15.145154039145272"><ele>399.0</ele><time>2026-04-09T08:42:52.999Z</time></trkpt><trkpt lat="37.926901082733195" lon="15.145166587453996"><ele>400.0</ele><time>2026-04-09T08:42:53.999Z</time></trkpt><trkpt lat="37.927008595415565" lon="15.145171066828226"><ele>401.0</ele><time>2026-04-09T08:42:54.999Z</time></trkpt><trkpt lat="37.927101675048704" lon="15.14516178114996"><ele>402.0</ele><time>2026-04-09T08:42:55.999Z</time></trkpt><trkpt lat="37.92718565854449" lon="15.145173856418332"><ele>403.0</ele><time>2026-04-09T08:42:56.999Z</time></trkpt><trkpt lat="37.92727366946216" lon="15.145186271127761"><ele>404.0</ele><time>2026-04-09T08:42:57.999Z</time></trkpt><trkpt lat="37.92736392839207" lon="15.145194944335818"><ele>404.0</ele><time>2026-04-09T08:42:58.999Z</time></trkpt><trkpt lat="37.92746889398724" lon="15.14520886225418"><ele>404.0</ele><time>2026-04-09T08:42:59.999Z</time></trkpt><trkpt lat="37.9275648082107" lon="15.14522295658332"><ele>404.0</ele><time>2026-04-09T08:43:00.999Z</time></trkpt><trkpt lat="37.927672615314506" lon="15.145245710650222"><ele>404.0</ele><time>2026-04-09T08:43:01.999Z</time></trkpt><trkpt lat="37.92776834866914" lon="15.14525850523719"><ele>404.0</ele><time>2026-04-09T08:43:02.999Z</time></trkpt><trkpt lat="37.92786360026006" lon="15.145268268850248"><ele>405.16666666666663</ele><time>2026-04-09T08:43:03.999Z</time></trkpt><trkpt lat="37.92794207178335" lon="15.145285865954243"><ele>406.3333333333333</ele><time>2026-04-09T08:43:04.999Z</time></trkpt><trkpt lat="37.928015471119956" lon="15.14533620154553"><ele>407.5</ele><time>2026-04-09T08:43:05.999Z</time></trkpt><trkpt lat="37.92807936153013" lon="15.145411872298908"><ele>408.66666666666663</ele><time>2026-04-09T08:43:06.999Z</time></trkpt><trkpt lat="37.928140619960466" lon="15.14548667382596"><ele>409.8333333333333</ele><time>2026-04-09T08:43:07.999Z</time></trkpt><trkpt lat="37.9282201029464" lon="15.145535022044966"><ele>411.0</ele><time>2026-04-09T08:43:08.999Z</time></trkpt><trkpt lat="37.92830592994232" lon="15.145528990992238"><ele>412.0</ele><time>2026-04-09T08:43:09.999Z</time></trkpt><trkpt lat="37.928406778540506" lon="15.14552465124428"><ele>413.0</ele><time>2026-04-09T08:43:10.999Z</time></trkpt><trkpt lat="37.92852238989328" lon="15.145543112016073"><ele>414.0</ele><time>2026-04-09T08:43:11.999Z</time></trkpt><trkpt lat="37.92863557705372" lon="15.145555051781617"><ele>415.0</ele><time>2026-04-09T08:43:12.999Z</time></trkpt><trkpt lat="37.928748195705275" lon="15.145575255803033"><ele>416.0</ele><time>2026-04-09T08:43:13.999Z</time></trkpt><trkpt lat="37.9288472293329" lon="15.145612440322958"><ele>416.0</ele><time>2026-04-09T08:43:14.999Z</time></trkpt><trkpt lat="37.92895474552894" lon="15.145634321563945"><ele>416.0</ele><time>2026-04-09T08:43:15.999Z</time></trkpt><trkpt lat="37.9290515337694" lon="15.145622578457846"><ele>416.0</ele><time>2026-04-09T08:43:16.999Z</time></trkpt><trkpt lat="37.92916093464887" lon="15.145628865748952"><ele>416.0</ele><time>2026-04-09T08:43:17.999Z</time></trkpt><trkpt lat="37.9292525762819" lon="15.14568850334556"><ele>416.0</ele><time>2026-04-09T08:43:18.999Z</time></trkpt><trkpt lat="37.92934831001146" lon="15.14572982495992"><ele>417.8</ele><time>2026-04-09T08:43:19.999Z</time></trkpt><trkpt lat="37.92945207227166" lon="15.14573596611554"><ele>419.6</ele><time>2026-04-09T08:43:20.999Z</time></trkpt><trkpt lat="37.9295546867268" lon="15.145744445980363"><ele>421.4</ele><time>2026-04-09T08:43:21.999Z</time></trkpt><trkpt lat="37.929642401595856" lon="15.145789759306464"><ele>423.2</ele><time>2026-04-09T08:43:22.999Z</time></trkpt><trkpt lat="37.929726448622766" lon="15.145852084452343"><ele>425.0</ele><time>2026-04-09T08:43:23.999Z</time></trkpt><trkpt lat="37.9298056087939" lon="15.145909559950649"><ele>424.99999999999994</ele><time>2026-04-09T08:43:24.999Z</time></trkpt><trkpt lat="37.929888774995696" lon="15.14593334460705"><ele>425.0</ele><time>2026-04-09T08:43:25.999Z</time></trkpt><trkpt lat="37.929966057632306" lon="15.145900930029795"><ele>425.0</ele><time>2026-04-09T08:43:26.999Z</time></trkpt><trkpt lat="37.93002626958566" lon="15.145837785918749"><ele>425.0</ele><time>2026-04-09T08:43:27.999Z</time></trkpt><trkpt lat="37.93004991799258" lon="15.145755967180653"><ele>424.99999999999994</ele><time>2026-04-09T08:43:28.999Z</time></trkpt><trkpt lat="37.93005986739159" lon="15.145669550171634"><ele>425.0</ele><time>2026-04-09T08:43:29.999Z</time></trkpt><trkpt lat="37.93016173180325" lon="15.145601822142169"><ele>426.0</ele><time>2026-04-09T08:43:31.999Z</time></trkpt><trkpt lat="37.93024894917619" lon="15.145637524616829"><ele>427.0</ele><time>2026-04-09T08:43:32.999Z</time></trkpt><trkpt lat="37.93033186559169" lon="15.145686443199537"><ele>428.0</ele><time>2026-04-09T08:43:33.999Z</time></trkpt><trkpt lat="37.930413347484524" lon="15.14575841734224"><ele>429.0</ele><time>2026-04-09T08:43:34.999Z</time></trkpt><trkpt lat="37.930485194747384" lon="15.145821996635144"><ele>430.0</ele><time>2026-04-09T08:43:35.999Z</time></trkpt><trkpt lat="37.93058455013282" lon="15.14585272541668"><ele>430.0</ele><time>2026-04-09T08:43:36.999Z</time></trkpt><trkpt lat="37.930686484562756" lon="15.1458518902422"><ele>430.0</ele><time>2026-04-09T08:43:37.999Z</time></trkpt><trkpt lat="37.930784320114405" lon="15.145863019178426"><ele>430.0</ele><time>2026-04-09T08:43:38.999Z</time></trkpt><trkpt lat="37.930878286794574" lon="15.145918758120423"><ele>430.0</ele><time>2026-04-09T08:43:39.999Z</time></trkpt><trkpt lat="37.93097037564015" lon="15.14595927004337"><ele>430.0</ele><time>2026-04-09T08:43:40.999Z</time></trkpt><trkpt lat="37.931075458214174" lon="15.14596903576046"><ele>431.2</ele><time>2026-04-09T08:43:41.999Z</time></trkpt><trkpt lat="37.931202409493864" lon="15.145960776408993"><ele>432.4</ele><time>2026-04-09T08:43:42.999Z</time></trkpt><trkpt lat="37.93131469711251" lon="15.14598697131466"><ele>433.6</ele><time>2026-04-09T08:43:43.999Z</time></trkpt><trkpt lat="37.93142111767107" lon="15.146026019770838"><ele>434.8</ele><time>2026-04-09T08:43:44.999Z</time></trkpt><trkpt lat="37.93151663051099" lon="15.146037540738531"><ele>436.0</ele><time>2026-04-09T08:43:45.999Z</time></trkpt><trkpt lat="37.931616986611914" lon="15.14600622483455"><ele>436.0</ele><time>2026-04-09T08:43:46.999Z</time></trkpt><trkpt lat="37.93171539641741" lon="15.145972804202524"><ele>436.0</ele><time>2026-04-09T08:43:47.999Z</time></trkpt><trkpt lat="37.93181641423828" lon="15.14594838141187"><ele>436.0</ele><time>2026-04-09T08:43:48.999Z</time></trkpt><trkpt lat="37.93192358699382" lon="15.145955943624742"><ele>436.0</ele><time>2026-04-09T08:43:49.999Z</time></trkpt><trkpt lat="37.93203383871275" lon="15.145932416139892"><ele>436.0</ele><time>2026-04-09T08:43:50.999Z</time></trkpt><trkpt lat="37.93214302550097" lon="15.14592093905128"><ele>437.4</ele><time>2026-04-09T08:43:51.999Z</time></trkpt><trkpt lat="37.932237430502425" lon="15.14596579365539"><ele>438.8</ele><time>2026-04-09T08:43:52.999Z</time></trkpt><trkpt lat="37.93234203700279" lon="15.14594548529247"><ele>440.19999999999993</ele><time>2026-04-09T08:43:53.999Z</time></trkpt><trkpt lat="37.93243925750826" lon="15.145933249058409"><ele>441.59999999999997</ele><time>2026-04-09T08:43:54.999Z</time></trkpt><trkpt lat="37.932544764157434" lon="15.145887658728038"><ele>443.0</ele><time>2026-04-09T08:43:55.999Z</time></trkpt><trkpt lat="37.93265699636869" lon="15.14584157728738"><ele>444.75</ele><time>2026-04-09T08:43:56.999Z</time></trkpt><trkpt lat="37.93278220196374" lon="15.14582178602019"><ele>446.5</ele><time>2026-04-09T08:43:57.999Z</time></trkpt><trkpt lat="37.93291122320421" lon="15.145794921117934"><ele>448.25</ele><time>2026-04-09T08:43:58.999Z</time></trkpt><trkpt lat="37.93303210624499" lon="15.145749943279833"><ele>450.0</ele><time>2026-04-09T08:43:59.999Z</time></trkpt><trkpt lat="37.93313365193141" lon="15.145723887179885"><ele>450.0</ele><time>2026-04-09T08:44:00.999Z</time></trkpt><trkpt lat="37.93322281153119" lon="15.145715484246214"><ele>450.0</ele><time>2026-04-09T08:44:01.999Z</time></trkpt><trkpt lat="37.933296020715446" lon="15.145681578028258"><ele>450.0</ele><time>2026-04-09T08:44:02.999Z</time></trkpt><trkpt lat="37.93335953592279" lon="15.145602217086195"><ele>450.0</ele><time>2026-04-09T08:44:03.999Z</time></trkpt><trkpt lat="37.93342363365101" lon="15.145510825051803"><ele>450.0</ele><time>2026-04-09T08:44:04.999Z</time></trkpt><trkpt lat="37.93351139492308" lon="15.145426546461941"><ele>451.0</ele><time>2026-04-09T08:44:05.999Z</time></trkpt><trkpt lat="37.93359524349092" lon="15.145332038411208"><ele>452.0</ele><time>2026-04-09T08:44:06.999Z</time></trkpt><trkpt lat="37.93367811067547" lon="15.145241932918692"><ele>453.0</ele><time>2026-04-09T08:44:07.999Z</time></trkpt><trkpt lat="37.9337728874905" lon="15.145189445249166"><ele>454.0</ele><time>2026-04-09T08:44:08.999Z</time></trkpt><trkpt lat="37.933884728538835" lon="15.14514657011252"><ele>455.0</ele><time>2026-04-09T08:44:09.999Z</time></trkpt><trkpt lat="37.933994792332896" lon="15.145128561748626"><ele>455.0</ele><time>2026-04-09T08:44:10.999Z</time></trkpt><trkpt lat="37.93410336068004" lon="15.145069051367544"><ele>455.0</ele><time>2026-04-09T08:44:11.999Z</time></trkpt><trkpt lat="37.934214071666446" lon="15.145041539498573"><ele>455.0</ele><time>2026-04-09T08:44:12.999Z</time></trkpt><trkpt lat="37.93433731282013" lon="15.145029779665647"><ele>455.0</ele><time>2026-04-09T08:44:13.999Z</time></trkpt><trkpt lat="37.934471709657274" lon="15.144994802995205"><ele>456.5</ele><time>2026-04-09T08:44:14.999Z</time></trkpt><trkpt lat="37.93459403314892" lon="15.14491595710625"><ele>458.0</ele><time>2026-04-09T08:44:15.999Z</time></trkpt><trkpt lat="37.93470373069966" lon="15.144879294483307"><ele>459.5</ele><time>2026-04-09T08:44:16.999Z</time></trkpt><trkpt lat="37.934818092744074" lon="15.144884242460506"><ele>461.0</ele><time>2026-04-09T08:44:17.999Z</time></trkpt><trkpt lat="37.93491741175115" lon="15.144892289270924"><ele>463.0</ele><time>2026-04-09T08:44:18.999Z</time></trkpt><trkpt lat="37.93506917597319" lon="15.144922855144047"><ele>465.0</ele><time>2026-04-09T08:44:19.999Z</time></trkpt><trkpt lat="37.93520085408217" lon="15.144874154844576"><ele>467.0</ele><time>2026-04-09T08:44:20.999Z</time></trkpt><trkpt lat="37.935289105753625" lon="15.144844255073401"><ele>469.0</ele><time>2026-04-09T08:44:21.999Z</time></trkpt><trkpt lat="37.93539839409109" lon="15.144839756862797"><ele>471.75</ele><time>2026-04-09T08:44:22.999Z</time></trkpt><trkpt lat="37.93552353618876" lon="15.144763949034461"><ele>474.5</ele><time>2026-04-09T08:44:23.999Z</time></trkpt><trkpt lat="37.935613580589376" lon="15.144690238666639"><ele>477.25</ele><time>2026-04-09T08:44:24.999Z</time></trkpt><trkpt lat="37.93571175534905" lon="15.144635914213254"><ele>480.0</ele><time>2026-04-09T08:44:25.999Z</time></trkpt><trkpt lat="37.935808406087965" lon="15.144603256623176"><ele>480.5</ele><time>2026-04-09T08:44:26.999Z</time></trkpt><trkpt lat="37.93589269313967" lon="15.144577029041695"><ele>481.0</ele><time>2026-04-09T08:44:27.999Z</time></trkpt><trkpt lat="37.93597314680641" lon="15.1445572489994"><ele>481.5</ele><time>2026-04-09T08:44:28.999Z</time></trkpt><trkpt lat="37.9360565364108" lon="15.144553037480293"><ele>482.0</ele><time>2026-04-09T08:44:29.999Z</time></trkpt><trkpt lat="37.93612383541189" lon="15.144581147616524"><ele>482.5</ele><time>2026-04-09T08:44:30.999Z</time></trkpt><trkpt lat="37.93620159973952" lon="15.144565791533775"><ele>483.0</ele><time>2026-04-09T08:44:32.999Z</time></trkpt><trkpt lat="37.93628377705592" lon="15.144589960090764"><ele>483.0</ele><time>2026-04-09T08:44:57Z</time></trkpt><trkpt lat="37.93636651670267" lon="15.144609280312148"><ele>482.99999999999994</ele><time>2026-04-09T08:44:59Z</time></trkpt><trkpt lat="37.93645487964791" lon="15.144648602129086"><ele>482.99999999999994</ele><time>2026-04-09T08:45:01Z</time></trkpt><trkpt lat="37.93656988984805" lon="15.144669049500155"><ele>483.0</ele><time>2026-04-09T08:45:03Z</time></trkpt><trkpt lat="37.93668465207862" lon="15.144684242946601"><ele>483.0</ele><time>2026-04-09T08:45:05Z</time></trkpt><trkpt lat="37.93674864247911" lon="15.144695197883719"><ele>482.8333333333333</ele><time>2026-04-09T08:45:06Z</time></trkpt><trkpt lat="37.93681216716429" lon="15.144721884849538"><ele>482.66666666666663</ele><time>2026-04-09T08:45:07Z</time></trkpt><trkpt lat="37.93689662952167" lon="15.144605979089032"><ele>482.5</ele><time>2026-04-09T08:45:08Z</time></trkpt><trkpt lat="37.93695846869838" lon="15.144583188895481"><ele>482.3333333333333</ele><time>2026-04-09T08:45:09Z</time></trkpt><trkpt lat="37.937021500353154" lon="15.144568018899523"><ele>482.16666666666663</ele><time>2026-04-09T08:45:10Z</time></trkpt><trkpt lat="37.93709931113537" lon="15.1445558849646"><ele>482.0</ele><time>2026-04-09T08:45:11Z</time></trkpt><trkpt lat="37.93719949679274" lon="15.144866898899306"><ele>482.0</ele><time>2026-04-09T08:45:12Z</time></trkpt><trkpt lat="37.9372612921213" lon="15.144885007580035"><ele>482.0</ele><time>2026-04-09T08:45:14Z</time></trkpt><trkpt lat="37.93737110844093" lon="15.14489975846435"><ele>482.0</ele><time>2026-04-09T08:45:16Z</time></trkpt><trkpt lat="37.93753486427709" lon="15.144786952778354"><ele>482.0</ele><time>2026-04-09T08:45:18Z</time></trkpt><trkpt lat="37.93765595701263" lon="15.14473371621424"><ele>486.0</ele><time>2026-04-09T08:45:20Z</time></trkpt><trkpt lat="37.93767925214863" lon="15.144167554690487"><ele>490.0</ele><time>2026-04-09T08:45:22Z</time></trkpt><trkpt lat="37.93774997346807" lon="15.144044559888098"><ele>490.00000000000006</ele><time>2026-04-09T08:45:24Z</time></trkpt><trkpt lat="37.937830350501415" lon="15.143953277142893"><ele>490.0</ele><time>2026-04-09T08:45:26Z</time></trkpt><trkpt lat="37.9378864475472" lon="15.143908814430052"><ele>490.0</ele><time>2026-04-09T08:45:27Z</time></trkpt><trkpt lat="37.93800847585688" lon="15.143840017249849"><ele>490.0</ele><time>2026-04-09T08:45:29Z</time></trkpt><trkpt lat="37.9380654429661" lon="15.143796762139436"><ele>490.00000000000006</ele><time>2026-04-09T08:45:30Z</time></trkpt><trkpt lat="37.93812615594835" lon="15.143758331575054"><ele>490.0</ele><time>2026-04-09T08:45:31Z</time></trkpt><trkpt lat="37.93823331854231" lon="15.143674918202716"><ele>490.0</ele><time>2026-04-09T08:45:33Z</time></trkpt><trkpt lat="37.938291843348665" lon="15.143636173762191"><ele>490.0</ele><time>2026-04-09T08:45:34Z</time></trkpt><trkpt lat="37.93839151093996" lon="15.143543562187334"><ele>490.0</ele><time>2026-04-09T08:45:36Z</time></trkpt><trkpt lat="37.93844602314519" lon="15.143499423003874"><ele>490.0</ele><time>2026-04-09T08:45:37Z</time></trkpt><trkpt lat="37.938561746726506" lon="15.14344671584907"><ele>490.0</ele><time>2026-04-09T08:45:39Z</time></trkpt><trkpt lat="37.93867069058981" lon="15.14339036292384"><ele>490.8571428571429</ele><time>2026-04-09T08:45:41Z</time></trkpt><trkpt lat="37.9387292428977" lon="15.143354747855192"><ele>491.7142857142857</ele><time>2026-04-09T08:45:42Z</time></trkpt><trkpt lat="37.93879063073566" lon="15.143324501333256"><ele>492.57142857142856</ele><time>2026-04-09T08:45:43Z</time></trkpt><trkpt lat="37.93887753320633" lon="15.143288276253335"><ele>493.42857142857144</ele><time>2026-04-09T08:45:44Z</time></trkpt><trkpt lat="37.93893885463582" lon="15.143241330733817"><ele>494.28571428571433</ele><time>2026-04-09T08:45:45Z</time></trkpt><trkpt lat="37.939016217810135" lon="15.143190917258112"><ele>495.14285714285717</ele><time>2026-04-09T08:45:46Z</time></trkpt><trkpt lat="37.93907272835872" lon="15.143149321336667"><ele>496.0</ele><time>2026-04-09T08:45:47Z</time></trkpt><trkpt lat="37.9391405952408" lon="15.143111577590679"><ele>497.50000000000006</ele><time>2026-04-09T08:45:48Z</time></trkpt><trkpt lat="37.93922840074178" lon="15.143011017699873"><ele>499.0</ele><time>2026-04-09T08:45:49.999Z</time></trkpt><trkpt lat="37.93928192193572" lon="15.142952751278932"><ele>500.5</ele><time>2026-04-09T08:45:50.999Z</time></trkpt><trkpt lat="37.93934128979182" lon="15.142913737178063"><ele>502.0</ele><time>2026-04-09T08:45:51.999Z</time></trkpt><trkpt lat="37.93940037484154" lon="15.142882830238587"><ele>503.50000000000006</ele><time>2026-04-09T08:45:52.999Z</time></trkpt><trkpt lat="37.9395038788824" lon="15.142845133351576"><ele>505.0</ele><time>2026-04-09T08:45:54.999Z</time></trkpt><trkpt lat="37.939615751522815" lon="15.14279198801628"><ele>505.0</ele><time>2026-04-09T08:45:56.999Z</time></trkpt><trkpt lat="37.93971661139764" lon="15.142761428565164"><ele>505.0</ele><time>2026-04-09T08:45:58.999Z</time></trkpt><trkpt lat="37.939798475226254" lon="15.142692521520722"><ele>505.0</ele><time>2026-04-09T08:46:00.999Z</time></trkpt><trkpt lat="37.93988514987345" lon="15.142594186223661"><ele>505.0</ele><time>2026-04-09T08:46:02.999Z</time></trkpt><trkpt lat="37.93994226836757" lon="15.14254734892975"><ele>505.0</ele><time>2026-04-09T08:46:03.999Z</time></trkpt><trkpt lat="37.940036916266436" lon="15.142450133026012"><ele>505.6666666666667</ele><time>2026-04-09T08:46:05.999Z</time></trkpt><trkpt lat="37.94012161883136" lon="15.142391644163961"><ele>506.33333333333337</ele><time>2026-04-09T08:46:07.999Z</time></trkpt><trkpt lat="37.94022815445333" lon="15.142345904800786"><ele>507.0</ele><time>2026-04-09T08:46:09.999Z</time></trkpt><trkpt lat="37.940288523742744" lon="15.142304312354852"><ele>507.66666666666663</ele><time>2026-04-09T08:46:10.999Z</time></trkpt><trkpt lat="37.940348964892365" lon="15.142267113599145"><ele>508.3333333333333</ele><time>2026-04-09T08:46:11.999Z</time></trkpt><trkpt lat="37.940422698626534" lon="15.142236127496751"><ele>509.0</ele><time>2026-04-09T08:46:12.999Z</time></trkpt><trkpt lat="37.94048949746904" lon="15.142223927008107"><ele>512.0</ele><time>2026-04-09T08:46:13.999Z</time></trkpt><trkpt lat="37.940561296588406" lon="15.142212518021047"><ele>515.0</ele><time>2026-04-09T08:46:14.999Z</time></trkpt><trkpt lat="37.94063081960203" lon="15.142203653857196"><ele>518.0</ele><time>2026-04-09T08:46:15.999Z</time></trkpt><trkpt lat="37.94073540048518" lon="15.1421477863047"><ele>521.0</ele><time>2026-04-09T08:46:17.999Z</time></trkpt><trkpt lat="37.940839344715926" lon="15.142078825874254"><ele>524.0</ele><time>2026-04-09T08:46:19.999Z</time></trkpt><trkpt lat="37.9409376965821" lon="15.142061655584639"><ele>524.0</ele><time>2026-04-09T08:46:21.999Z</time></trkpt><trkpt lat="37.94100397939818" lon="15.142001953150528"><ele>524.0</ele><time>2026-04-09T08:46:23.999Z</time></trkpt><trkpt lat="37.941018523823324" lon="15.14188834414036"><ele>524.0</ele><time>2026-04-09T08:46:25.999Z</time></trkpt><trkpt lat="37.94096929321669" lon="15.141806921432686"><ele>524.0</ele><time>2026-04-09T08:46:27.999Z</time></trkpt><trkpt lat="37.94090569786309" lon="15.141741309676311"><ele>524.0</ele><time>2026-04-09T08:46:42.999Z</time></trkpt><trkpt lat="37.94083283357585" lon="15.141650034299305"><ele>524.0</ele><time>2026-04-09T08:46:44.999Z</time></trkpt><trkpt lat="37.94073586445646" lon="15.141643126861505"><ele>524.0</ele><time>2026-04-09T08:46:47Z</time></trkpt><trkpt lat="37.94066930373765" lon="15.14169742971424"><ele>524.0</ele><time>2026-04-09T08:46:48Z</time></trkpt><trkpt lat="37.940613237203564" lon="15.14173445956531"><ele>524.0</ele><time>2026-04-09T08:46:49Z</time></trkpt><trkpt lat="37.94054266851177" lon="15.141756103438782"><ele>524.0</ele><time>2026-04-09T08:46:50Z</time></trkpt><trkpt lat="37.940431643553566" lon="15.14175328210088"><ele>524.0</ele><time>2026-04-09T08:46:52Z</time></trkpt><trkpt lat="37.94039741614874" lon="15.141673411667671"><ele>524.0</ele><time>2026-04-09T08:46:54Z</time></trkpt><trkpt lat="37.9404713481599" lon="15.141611785559409"><ele>524.0</ele><time>2026-04-09T08:46:56Z</time></trkpt><trkpt lat="37.940601814532045" lon="15.141621417352122"><ele>524.0</ele><time>2026-04-09T08:46:58Z</time></trkpt><trkpt lat="37.94063407500177" lon="15.141534608297135"><ele>524.0</ele><time>2026-04-09T08:47:00Z</time></trkpt><trkpt lat="37.94052896876352" lon="15.141471416446722"><ele>524.0</ele><time>2026-04-09T08:47:02Z</time></trkpt><trkpt lat="37.940444181964" lon="15.141483954652239"><ele>524.0</ele><time>2026-04-09T08:47:03Z</time></trkpt><trkpt lat="37.94036733412189" lon="15.141498312856289"><ele>528.3333333333333</ele><time>2026-04-09T08:47:04Z</time></trkpt><trkpt lat="37.94030544292644" lon="15.1414822454484"><ele>532.6666666666666</ele><time>2026-04-09T08:47:05Z</time></trkpt><trkpt lat="37.94024511616763" lon="15.141448993930622"><ele>537.0</ele><time>2026-04-09T08:47:06Z</time></trkpt><trkpt lat="37.94018991683401" lon="15.141396150004585"><ele>541.3333333333334</ele><time>2026-04-09T08:47:07Z</time></trkpt><trkpt lat="37.9400760780969" lon="15.141404685400627"><ele>545.6666666666667</ele><time>2026-04-09T08:47:09Z</time></trkpt><trkpt lat="37.94001187453594" lon="15.141453746080073"><ele>550.0</ele><time>2026-04-09T08:47:10Z</time></trkpt><trkpt lat="37.939949620476504" lon="15.141480598430928"><ele>550.0</ele><time>2026-04-09T08:47:11Z</time></trkpt><trkpt lat="37.93987416119181" lon="15.141481746817568"><ele>550.0</ele><time>2026-04-09T08:47:12Z</time></trkpt><trkpt lat="37.939806342670536" lon="15.141476983382766"><ele>550.0</ele><time>2026-04-09T08:47:13Z</time></trkpt><trkpt lat="37.93973430001727" lon="15.141411643025704"><ele>550.0</ele><time>2026-04-09T08:47:15Z</time></trkpt><trkpt lat="37.93970194808851" lon="15.141281707812377"><ele>550.0</ele><time>2026-04-09T08:47:17Z</time></trkpt><trkpt lat="37.93977495751394" lon="15.141255601918386"><ele>550.0</ele><time>2026-04-09T08:47:19Z</time></trkpt><trkpt lat="37.9398942183389" lon="15.141267306705217"><ele>550.0</ele><time>2026-04-09T08:47:21Z</time></trkpt><trkpt lat="37.9399699276674" lon="15.141251961535238"><ele>550.0</ele><time>2026-04-09T08:47:22Z</time></trkpt><trkpt lat="37.94005163208174" lon="15.141225064925871"><ele>550.0</ele><time>2026-04-09T08:47:23Z</time></trkpt><trkpt lat="37.9401263312073" lon="15.141134848632914"><ele>550.0</ele><time>2026-04-09T08:47:25Z</time></trkpt><trkpt lat="37.94017971856742" lon="15.141086185912645"><ele>550.0</ele><time>2026-04-09T08:47:26Z</time></trkpt><trkpt lat="37.940294629525866" lon="15.141137009530377"><ele>550.8333333333334</ele><time>2026-04-09T08:47:28Z</time></trkpt><trkpt lat="37.94040102282984" lon="15.141143359907964"><ele>551.6666666666667</ele><time>2026-04-09T08:47:30Z</time></trkpt><trkpt lat="37.94046223111557" lon="15.14111919337956"><ele>552.5</ele><time>2026-04-09T08:47:31Z</time></trkpt><trkpt lat="37.940525541764586" lon="15.14108971692636"><ele>553.3333333333334</ele><time>2026-04-09T08:47:32Z</time></trkpt><trkpt lat="37.940635520086566" lon="15.141024747654642"><ele>554.1666666666666</ele><time>2026-04-09T08:47:34Z</time></trkpt><trkpt lat="37.94070020989849" lon="15.140979268556407"><ele>555.0</ele><time>2026-04-09T08:47:35Z</time></trkpt><trkpt lat="37.94076678628058" lon="15.140945169845155"><ele>555.0</ele><time>2026-04-09T08:47:36Z</time></trkpt><trkpt lat="37.94087612468539" lon="15.140914370549709"><ele>555.0</ele><time>2026-04-09T08:47:38Z</time></trkpt><trkpt lat="37.94095329051623" lon="15.14089021489798"><ele>555.0</ele><time>2026-04-09T08:47:40Z</time></trkpt><trkpt lat="37.94091574320559" lon="15.140787101514633"><ele>555.0</ele><time>2026-04-09T08:47:42Z</time></trkpt><trkpt lat="37.94082368058535" lon="15.140796059357529"><ele>555.0</ele><time>2026-04-09T08:47:44Z</time></trkpt><trkpt lat="37.94074905918628" lon="15.14080418060256"><ele>555.0</ele><time>2026-04-09T08:47:45Z</time></trkpt><trkpt lat="37.94067701654339" lon="15.14079902625186"><ele>555.0</ele><time>2026-04-09T08:47:46Z</time></trkpt><trkpt lat="37.940609741145494" lon="15.140806658133679"><ele>555.0</ele><time>2026-04-09T08:47:47Z</time></trkpt><trkpt lat="37.94048068072995" lon="15.14078736325493"><ele>555.0</ele><time>2026-04-09T08:47:49Z</time></trkpt><trkpt lat="37.940397371159946" lon="15.140699377226262"><ele>555.0</ele><time>2026-04-09T08:47:51Z</time></trkpt><trkpt lat="37.9403175435442" lon="15.140579042516189"><ele>555.0</ele><time>2026-04-09T08:47:53Z</time></trkpt><trkpt lat="37.940280461262" lon="15.14050723205008"><ele>558.5</ele><time>2026-04-09T08:47:54Z</time></trkpt><trkpt lat="37.9402243603849" lon="15.140446098136534"><ele>562.0</ele><time>2026-04-09T08:47:55Z</time></trkpt><trkpt lat="37.94016341331131" lon="15.140401329227883"><ele>565.5</ele><time>2026-04-09T08:47:56Z</time></trkpt><trkpt lat="37.94008730007859" lon="15.140366204185005"><ele>569.0</ele><time>2026-04-09T08:47:57Z</time></trkpt><trkpt lat="37.94001767590926" lon="15.140335479272666"><ele>572.5</ele><time>2026-04-09T08:47:58Z</time></trkpt><trkpt lat="37.93992536633914" lon="15.140257151944198"><ele>576.0</ele><time>2026-04-09T08:48:00Z</time></trkpt><trkpt lat="37.9398721921169" lon="15.14020679897636"><ele>576.0</ele><time>2026-04-09T08:48:01Z</time></trkpt><trkpt lat="37.939816057483" lon="15.140155553340259"><ele>576.0</ele><time>2026-04-09T08:48:02Z</time></trkpt><trkpt lat="37.93978093977197" lon="15.14006635854772"><ele>576.0</ele><time>2026-04-09T08:48:04Z</time></trkpt><trkpt lat="37.93983281993505" lon="15.139995274787223"><ele>576.0</ele><time>2026-04-09T08:48:06Z</time></trkpt><trkpt lat="37.93991268031748" lon="15.140014374086569"><ele>576.0</ele><time>2026-04-09T08:48:08Z</time></trkpt><trkpt lat="37.94001966366102" lon="15.140015977370624"><ele>576.0</ele><time>2026-04-09T08:48:10Z</time></trkpt><trkpt lat="37.94008826839093" lon="15.140012998637241"><ele>578.4</ele><time>2026-04-09T08:48:11Z</time></trkpt><trkpt lat="37.94019781474658" lon="15.13996097087453"><ele>580.8</ele><time>2026-04-09T08:48:13Z</time></trkpt><trkpt lat="37.94028142701833" lon="15.139924919352808"><ele>583.1999999999999</ele><time>2026-04-09T08:48:14Z</time></trkpt><trkpt lat="37.94036873339878" lon="15.139917720245704"><ele>585.6</ele><time>2026-04-09T08:48:15Z</time></trkpt><trkpt lat="37.940459557410556" lon="15.139925866091342"><ele>588.0</ele><time>2026-04-09T08:48:16Z</time></trkpt><trkpt lat="37.940533700384634" lon="15.139956635510073"><ele>588.0</ele><time>2026-04-09T08:48:17Z</time></trkpt><trkpt lat="37.94061403221013" lon="15.139991609881449"><ele>588.0</ele><time>2026-04-09T08:48:18Z</time></trkpt><trkpt lat="37.94074790572927" lon="15.1400033987362"><ele>588.0</ele><time>2026-04-09T08:48:20Z</time></trkpt><trkpt lat="37.9408386972445" lon="15.139980649519096"><ele>588.0</ele><time>2026-04-09T08:48:21Z</time></trkpt><trkpt lat="37.94095130707404" lon="15.13993536288575"><ele>588.0</ele><time>2026-04-09T08:48:22Z</time></trkpt><trkpt lat="37.94106715875011" lon="15.139881498634443"><ele>593.6</ele><time>2026-04-09T08:48:23Z</time></trkpt><trkpt lat="37.941176974888236" lon="15.13982008432563"><ele>599.1999999999999</ele><time>2026-04-09T08:48:24Z</time></trkpt><trkpt lat="37.94126075554486" lon="15.139775489955696"><ele>604.8</ele><time>2026-04-09T08:48:25Z</time></trkpt><trkpt lat="37.9413492011619" lon="15.13977418325319"><ele>610.4</ele><time>2026-04-09T08:48:26Z</time></trkpt><trkpt lat="37.94142123705137" lon="15.139789406383736"><ele>616.0</ele><time>2026-04-09T08:48:27Z</time></trkpt><trkpt lat="37.941504414817736" lon="15.139727494596299"><ele>616.0</ele><time>2026-04-09T08:48:29Z</time></trkpt><trkpt lat="37.941474121460665" lon="15.139588920126071"><ele>616.0</ele><time>2026-04-09T08:48:31Z</time></trkpt><trkpt lat="37.941402122476354" lon="15.13955552605156"><ele>616.0</ele><time>2026-04-09T08:48:32Z</time></trkpt><trkpt lat="37.94132197637448" lon="15.139562706839"><ele>616.0</ele><time>2026-04-09T08:48:33Z</time></trkpt><trkpt lat="37.941221026870416" lon="15.139577517032315"><ele>616.0</ele><time>2026-04-09T08:48:34Z</time></trkpt><trkpt lat="37.94111468072972" lon="15.13960447443864"><ele>616.0</ele><time>2026-04-09T08:48:35Z</time></trkpt><trkpt lat="37.9410218335084" lon="15.139609225335228"><ele>616.0</ele><time>2026-04-09T08:48:36Z</time></trkpt><trkpt lat="37.94095790031011" lon="15.1395795996995"><ele>616.0</ele><time>2026-04-09T08:48:37Z</time></trkpt><trkpt lat="37.94088700432208" lon="15.13954152993866"><ele>616.0</ele><time>2026-04-09T08:48:38Z</time></trkpt><trkpt lat="37.94082398247007" lon="15.139489142068246"><ele>616.0</ele><time>2026-04-09T08:48:39Z</time></trkpt><trkpt lat="37.940767877158734" lon="15.139411970929023"><ele>616.0</ele><time>2026-04-09T08:48:40Z</time></trkpt><trkpt lat="37.94072227457306" lon="15.13933507261955"><ele>615.8333333333334</ele><time>2026-04-09T08:48:41Z</time></trkpt><trkpt lat="37.94068624970256" lon="15.139244274290386"><ele>615.6666666666667</ele><time>2026-04-09T08:48:42Z</time></trkpt><trkpt lat="37.94062386337192" lon="15.13917256130622"><ele>615.5</ele><time>2026-04-09T08:48:43Z</time></trkpt><trkpt lat="37.94057904120692" lon="15.13910146131401"><ele>615.3333333333334</ele><time>2026-04-09T08:48:43.999Z</time></trkpt><trkpt lat="37.940533269552255" lon="15.139026636564127"><ele>615.1666666666666</ele><time>2026-04-09T08:48:44.999Z</time></trkpt><trkpt lat="37.94047222941672" lon="15.13896832076372"><ele>615.0</ele><time>2026-04-09T08:48:45.999Z</time></trkpt><trkpt lat="37.94042332566121" lon="15.138909391193263"><ele>619.8</ele><time>2026-04-09T08:48:46.999Z</time></trkpt><trkpt lat="37.94038977742926" lon="15.138823785657163"><ele>624.6</ele><time>2026-04-09T08:48:47.999Z</time></trkpt><trkpt lat="37.9403638884273" lon="15.138729560170233"><ele>629.4</ele><time>2026-04-09T08:48:48.999Z</time></trkpt><trkpt lat="37.940341585377396" lon="15.138623855702589"><ele>634.2</ele><time>2026-04-09T08:48:49.999Z</time></trkpt><trkpt lat="37.9403129714906" lon="15.138512868786272"><ele>639.0</ele><time>2026-04-09T08:48:50.999Z</time></trkpt><trkpt lat="37.940245727071" lon="15.13837847725443"><ele>639.0</ele><time>2026-04-09T08:48:53Z</time></trkpt><trkpt lat="37.94020982514789" lon="15.13827323727455"><ele>639.0</ele><time>2026-04-09T08:48:55Z</time></trkpt><trkpt lat="37.940304144072726" lon="15.138220553948978"><ele>639.0</ele><time>2026-04-09T08:48:57Z</time></trkpt><trkpt lat="37.94036371026398" lon="15.138257745042784"><ele>639.0</ele><time>2026-04-09T08:48:58Z</time></trkpt><trkpt lat="37.94041161244643" lon="15.13831560547765"><ele>639.0</ele><time>2026-04-09T08:48:59Z</time></trkpt><trkpt lat="37.94045468642574" lon="15.138409618355093"><ele>639.0</ele><time>2026-04-09T08:49:00Z</time></trkpt><trkpt lat="37.94049329509623" lon="15.138509199133477"><ele>639.0</ele><time>2026-04-09T08:49:01Z</time></trkpt><trkpt lat="37.94057665321717" lon="15.138593206423879"><ele>639.0</ele><time>2026-04-09T08:49:03Z</time></trkpt><trkpt lat="37.940658502355745" lon="15.138606567798229"><ele>639.0</ele><time>2026-04-09T08:49:04Z</time></trkpt><trkpt lat="37.94076407827348" lon="15.138615440611765"><ele>639.0</ele><time>2026-04-09T08:49:05Z</time></trkpt><trkpt lat="37.94086636130326" lon="15.138645164163332"><ele>639.0</ele><time>2026-04-09T08:49:06Z</time></trkpt><trkpt lat="37.940951933852126" lon="15.138692200020529"><ele>640.5</ele><time>2026-04-09T08:49:07Z</time></trkpt><trkpt lat="37.941025140618905" lon="15.138739564195285"><ele>642.0</ele><time>2026-04-09T08:49:08Z</time></trkpt><trkpt lat="37.941090031862316" lon="15.138777548866058"><ele>643.5</ele><time>2026-04-09T08:49:09Z</time></trkpt><trkpt lat="37.94118384441516" lon="15.138759173703237"><ele>645.0</ele><time>2026-04-09T08:49:11Z</time></trkpt><trkpt lat="37.94116673216711" lon="15.138639234239681"><ele>646.5</ele><time>2026-04-09T08:49:13Z</time></trkpt><trkpt lat="37.941109778913315" lon="15.138577156560752"><ele>648.0</ele><time>2026-04-09T08:49:14Z</time></trkpt><trkpt lat="37.941040418901814" lon="15.138507709807989"><ele>648.0</ele><time>2026-04-09T08:49:15Z</time></trkpt><trkpt lat="37.94099095577877" lon="15.138402051205205"><ele>648.0</ele><time>2026-04-09T08:49:16Z</time></trkpt><trkpt lat="37.940952206637675" lon="15.138284035292019"><ele>648.0</ele><time>2026-04-09T08:49:17Z</time></trkpt><trkpt lat="37.94089101523091" lon="15.138195660102127"><ele>648.0</ele><time>2026-04-09T08:49:18Z</time></trkpt><trkpt lat="37.94081483517949" lon="15.138123812324812"><ele>648.0</ele><time>2026-04-09T08:49:19Z</time></trkpt><trkpt lat="37.940761871517225" lon="15.138037366069607"><ele>650.2</ele><time>2026-04-09T08:49:20Z</time></trkpt><trkpt lat="37.940726203175124" lon="15.13793363692846"><ele>652.4</ele><time>2026-04-09T08:49:21Z</time></trkpt><trkpt lat="37.94069505787786" lon="15.137811254566166"><ele>654.6</ele><time>2026-04-09T08:49:22Z</time></trkpt><trkpt lat="37.94067674096064" lon="15.137688758328526"><ele>656.8000000000001</ele><time>2026-04-09T08:49:23Z</time></trkpt><trkpt lat="37.940648366173946" lon="15.13757067381651"><ele>659.0</ele><time>2026-04-09T08:49:24Z</time></trkpt><trkpt lat="37.94061092930454" lon="15.137506135957064"><ele>659.0</ele><time>2026-04-09T08:49:25Z</time></trkpt><trkpt lat="37.9405562891232" lon="15.137434410905328"><ele>659.0</ele><time>2026-04-09T08:49:26Z</time></trkpt><trkpt lat="37.940550217016394" lon="15.137331208698745"><ele>659.0</ele><time>2026-04-09T08:49:28Z</time></trkpt><trkpt lat="37.94063383473634" lon="15.137342931086174"><ele>659.0</ele><time>2026-04-09T08:49:30Z</time></trkpt><trkpt lat="37.94072763136298" lon="15.13745855223066"><ele>659.0</ele><time>2026-04-09T08:49:32Z</time></trkpt><trkpt lat="37.94077859460056" lon="15.137536781882861"><ele>659.0</ele><time>2026-04-09T08:49:33Z</time></trkpt><trkpt lat="37.940830165513404" lon="15.137627337842652"><ele>659.0</ele><time>2026-04-09T08:49:34Z</time></trkpt><trkpt lat="37.94093286778349" lon="15.137735620394814"><ele>659.0</ele><time>2026-04-09T08:49:36Z</time></trkpt><trkpt lat="37.941012285908485" lon="15.13777175311035"><ele>659.0</ele><time>2026-04-09T08:49:37Z</time></trkpt><trkpt lat="37.94108751505727" lon="15.13780327681984"><ele>659.0</ele><time>2026-04-09T08:49:38Z</time></trkpt><trkpt lat="37.941149389355346" lon="15.137833531908122"><ele>662.0</ele><time>2026-04-09T08:49:39Z</time></trkpt><trkpt lat="37.941230094463066" lon="15.137851549904381"><ele>665.0</ele><time>2026-04-09T08:49:40Z</time></trkpt><trkpt lat="37.94129317852346" lon="15.137849011981835"><ele>668.0</ele><time>2026-04-09T08:49:41Z</time></trkpt><trkpt lat="37.94138019059659" lon="15.137838926493203"><ele>671.0</ele><time>2026-04-09T08:49:42Z</time></trkpt><trkpt lat="37.94147277879333" lon="15.13784138723707"><ele>674.0</ele><time>2026-04-09T08:49:43Z</time></trkpt><trkpt lat="37.941572802404664" lon="15.13785680948083"><ele>677.0</ele><time>2026-04-09T08:49:44Z</time></trkpt><trkpt lat="37.941641587360536" lon="15.137827320098832"><ele>677.0</ele><time>2026-04-09T08:49:46Z</time></trkpt><trkpt lat="37.94160958741905" lon="15.137694268168554"><ele>677.0</ele><time>2026-04-09T08:49:48Z</time></trkpt><trkpt lat="37.941550347399485" lon="15.137656288273106"><ele>677.0</ele><time>2026-04-09T08:49:49Z</time></trkpt><trkpt lat="37.9414635979758" lon="15.137622157134084"><ele>677.0</ele><time>2026-04-09T08:49:50Z</time></trkpt><trkpt lat="37.94136800564756" lon="15.13757140158747"><ele>677.0</ele><time>2026-04-09T08:49:51Z</time></trkpt><trkpt lat="37.94127695033214" lon="15.137536994417038"><ele>677.0</ele><time>2026-04-09T08:49:52Z</time></trkpt><trkpt lat="37.94119892758767" lon="15.13748176372481"><ele>677.0</ele><time>2026-04-09T08:49:53Z</time></trkpt><trkpt lat="37.94113634945157" lon="15.137405894761734"><ele>677.0</ele><time>2026-04-09T08:49:54Z</time></trkpt><trkpt lat="37.941084878472786" lon="15.137310784187381"><ele>677.0</ele><time>2026-04-09T08:49:55Z</time></trkpt><trkpt lat="37.94104451828245" lon="15.137214430940276"><ele>677.0</ele><time>2026-04-09T08:49:56Z</time></trkpt><trkpt lat="37.94100858958487" lon="15.137128570647715"><ele>677.0</ele><time>2026-04-09T08:49:57Z</time></trkpt><trkpt lat="37.94098502098326" lon="15.137019150416604"><ele>680.3333333333333</ele><time>2026-04-09T08:49:58Z</time></trkpt><trkpt lat="37.9409731475859" lon="15.13688733189055"><ele>683.6666666666666</ele><time>2026-04-09T08:49:59Z</time></trkpt><trkpt lat="37.94096886753902" lon="15.136771129242726"><ele>687.0</ele><time>2026-04-09T08:50:00Z</time></trkpt><trkpt lat="37.940968379456116" lon="15.136646588753727"><ele>690.3333333333334</ele><time>2026-04-09T08:50:01Z</time></trkpt><trkpt lat="37.94096975922066" lon="15.136545157487598"><ele>693.6666666666667</ele><time>2026-04-09T08:50:02Z</time></trkpt><trkpt lat="37.940958327003166" lon="15.136459502097997"><ele>697.0</ele><time>2026-04-09T08:50:03Z</time></trkpt><trkpt lat="37.940866561421174" lon="15.136341847308982"><ele>697.0</ele><time>2026-04-09T08:50:05Z</time></trkpt><trkpt lat="37.940801451583425" lon="15.136293488853575"><ele>697.0</ele><time>2026-04-09T08:50:06Z</time></trkpt><trkpt lat="37.94073351415668" lon="15.136221585496937"><ele>697.0</ele><time>2026-04-09T08:50:07Z</time></trkpt><trkpt lat="37.94070056235445" lon="15.136141364536462"><ele>697.0</ele><time>2026-04-09T08:50:08Z</time></trkpt><trkpt lat="37.940655048648516" lon="15.136052747696237"><ele>697.0</ele><time>2026-04-09T08:50:09Z</time></trkpt><trkpt lat="37.94061874868698" lon="15.135978292150206"><ele>697.0</ele><time>2026-04-09T08:50:11Z</time></trkpt><trkpt lat="37.94070029992783" lon="15.13595620872021"><ele>697.0</ele><time>2026-04-09T08:50:13Z</time></trkpt><trkpt lat="37.940783247286504" lon="15.136069211940733"><ele>697.0</ele><time>2026-04-09T08:50:15Z</time></trkpt><trkpt lat="37.940827324928804" lon="15.13613459202504"><ele>697.0</ele><time>2026-04-09T08:50:16Z</time></trkpt><trkpt lat="37.94088121110654" lon="15.136183530590118"><ele>697.0</ele><time>2026-04-09T08:50:17Z</time></trkpt><trkpt lat="37.94097402800208" lon="15.13622438719658"><ele>697.0</ele><time>2026-04-09T08:50:18Z</time></trkpt><trkpt lat="37.9410649983098" lon="15.136243850403554"><ele>697.0</ele><time>2026-04-09T08:50:19Z</time></trkpt><trkpt lat="37.94113355490996" lon="15.13628489529179"><ele>698.1666666666667</ele><time>2026-04-09T08:50:20Z</time></trkpt><trkpt lat="37.94117693178186" lon="15.136356982334737"><ele>699.3333333333334</ele><time>2026-04-09T08:50:21Z</time></trkpt><trkpt lat="37.94119899545798" lon="15.136473040038283"><ele>700.5</ele><time>2026-04-09T08:50:22Z</time></trkpt><trkpt lat="37.94122596904722" lon="15.13657264832048"><ele>701.6666666666666</ele><time>2026-04-09T08:50:23Z</time></trkpt><trkpt lat="37.94122885107859" lon="15.13668839912435"><ele>702.8333333333333</ele><time>2026-04-09T08:50:24Z</time></trkpt><trkpt lat="37.94125353109514" lon="15.13680858916681"><ele>704.0</ele><time>2026-04-09T08:50:26Z</time></trkpt><trkpt lat="37.9413194043902" lon="15.136853847766389"><ele>704.0</ele><time>2026-04-09T08:50:27Z</time></trkpt><trkpt lat="37.94140749452247" lon="15.136875949578668"><ele>704.0</ele><time>2026-04-09T08:50:28Z</time></trkpt><trkpt lat="37.941504763143584" lon="15.136914533631822"><ele>704.0</ele><time>2026-04-09T08:50:29Z</time></trkpt><trkpt lat="37.94156903887512" lon="15.13696282401231"><ele>704.0</ele><time>2026-04-09T08:50:30Z</time></trkpt><trkpt lat="37.941672420777564" lon="15.136883838152373"><ele>704.0</ele><time>2026-04-09T08:50:32Z</time></trkpt><trkpt lat="37.941718924448104" lon="15.13677715515835"><ele>703.3333333333333</ele><time>2026-04-09T08:50:33Z</time></trkpt><trkpt lat="37.94176324478527" lon="15.136651695624243"><ele>702.6666666666666</ele><time>2026-04-09T08:50:34Z</time></trkpt><trkpt lat="37.94180812022843" lon="15.1365889794341"><ele>702.0</ele><time>2026-04-09T08:50:35Z</time></trkpt><trkpt lat="37.94177991245407" lon="15.136517162281756"><ele>701.3333333333334</ele><time>2026-04-09T08:50:37Z</time></trkpt><trkpt lat="37.94172102348263" lon="15.136486558488361"><ele>700.6666666666667</ele><time>2026-04-09T08:50:39Z</time></trkpt><trkpt lat="37.94161802130665" lon="15.136474666841501"><ele>700.0</ele><time>2026-04-09T08:50:53Z</time></trkpt><trkpt lat="37.94153021626961" lon="15.13645008776072"><ele>704.0</ele><time>2026-04-09T08:50:55Z</time></trkpt><trkpt lat="37.94149023700615" lon="15.136359066622543"><ele>708.0</ele><time>2026-04-09T08:51:30Z</time></trkpt><trkpt lat="37.94148006688816" lon="15.136247503341242"><ele>712.0</ele><time>2026-04-09T08:51:33Z</time></trkpt><trkpt lat="37.94146085553568" lon="15.136099719026639"><ele>716.0</ele><time>2026-04-09T08:51:35Z</time></trkpt><trkpt lat="37.94145165025656" lon="15.136001119143822"><ele>720.0</ele><time>2026-04-09T08:51:36Z</time></trkpt><trkpt lat="37.941430231561675" lon="15.135906768581345"><ele>724.0</ele><time>2026-04-09T08:51:37Z</time></trkpt><trkpt lat="37.941377966339736" lon="15.135829799066247"><ele>724.0</ele><time>2026-04-09T08:51:39Z</time></trkpt><trkpt lat="37.941315956472465" lon="15.135807441370384"><ele>724.0</ele><time>2026-04-09T08:51:40Z</time></trkpt><trkpt lat="37.941218731488796" lon="15.135775480080714"><ele>724.0</ele><time>2026-04-09T08:51:42Z</time></trkpt><trkpt lat="37.94127128059702" lon="15.135694141312104"><ele>724.0</ele><time>2026-04-09T08:51:44Z</time></trkpt><trkpt lat="37.94139961781312" lon="15.135660218702384"><ele>724.0</ele><time>2026-04-09T08:51:46Z</time></trkpt><trkpt lat="37.941501000809964" lon="15.135722006983759"><ele>724.0</ele><time>2026-04-09T08:51:48Z</time></trkpt><trkpt lat="37.94157828478492" lon="15.135821148093973"><ele>724.0</ele><time>2026-04-09T08:51:49Z</time></trkpt><trkpt lat="37.94164296371045" lon="15.135936947536228"><ele>724.0</ele><time>2026-04-09T08:51:50Z</time></trkpt><trkpt lat="37.941684381388704" lon="15.136042702056702"><ele>724.0</ele><time>2026-04-09T08:51:51Z</time></trkpt><trkpt lat="37.94170588287922" lon="15.136120191784036"><ele>724.0</ele><time>2026-04-09T08:51:52Z</time></trkpt><trkpt lat="37.94181853745434" lon="15.136122930474487"><ele>723.4000000000001</ele><time>2026-04-09T08:51:54Z</time></trkpt><trkpt lat="37.941912059582215" lon="15.136079377050748"><ele>722.8</ele><time>2026-04-09T08:51:55Z</time></trkpt><trkpt lat="37.94200592175645" lon="15.136018017368906"><ele>722.2</ele><time>2026-04-09T08:51:56Z</time></trkpt><trkpt lat="37.94209238305403" lon="15.135951809052488"><ele>721.5999999999999</ele><time>2026-04-09T08:51:57Z</time></trkpt><trkpt lat="37.942170709876414" lon="15.13590138078491"><ele>721.0</ele><time>2026-04-09T08:51:58Z</time></trkpt><trkpt lat="37.94225718907487" lon="15.135870659412422"><ele>721.0</ele><time>2026-04-09T08:51:59Z</time></trkpt><trkpt lat="37.94231568730809" lon="15.13581729704893"><ele>721.0</ele><time>2026-04-09T08:52:00Z</time></trkpt><trkpt lat="37.94230715169716" lon="15.135731652068754"><ele>721.0</ele><time>2026-04-09T08:52:01Z</time></trkpt><trkpt lat="37.9422248041311" lon="15.135656660172566"><ele>721.0</ele><time>2026-04-09T08:52:03Z</time></trkpt><trkpt lat="37.9421467118505" lon="15.135675439916252"><ele>721.0</ele><time>2026-04-09T08:52:04Z</time></trkpt><trkpt lat="37.94206242109838" lon="15.135708635798151"><ele>721.0</ele><time>2026-04-09T08:52:05Z</time></trkpt><trkpt lat="37.94196923270318" lon="15.135730802304666"><ele>721.0</ele><time>2026-04-09T08:52:06Z</time></trkpt><trkpt lat="37.94188239434189" lon="15.135733887888229"><ele>721.0</ele><time>2026-04-09T08:52:08Z</time></trkpt><trkpt lat="37.941817340298634" lon="15.135653520611223"><ele>721.0</ele><time>2026-04-09T08:52:10Z</time></trkpt><trkpt lat="37.94175970974312" lon="15.135546225224596"><ele>721.0</ele><time>2026-04-09T08:52:11Z</time></trkpt><trkpt lat="37.941679108386246" lon="15.13540924651342"><ele>721.0</ele><time>2026-04-09T08:52:12Z</time></trkpt><trkpt lat="37.94160735628945" lon="15.135294168563124"><ele>724.3333333333334</ele><time>2026-04-09T08:52:13Z</time></trkpt><trkpt lat="37.94152971143342" lon="15.135197340736388"><ele>727.6666666666667</ele><time>2026-04-09T08:52:14Z</time></trkpt><trkpt lat="37.94146825165783" lon="15.135113361094303"><ele>731.0</ele><time>2026-04-09T08:52:15Z</time></trkpt><trkpt lat="37.94142723278512" lon="15.135044925974224"><ele>734.3333333333334</ele><time>2026-04-09T08:52:16Z</time></trkpt><trkpt lat="37.94138782758018" lon="15.134958877744182"><ele>737.6666666666666</ele><time>2026-04-09T08:52:17Z</time></trkpt><trkpt lat="37.94135163909242" lon="15.134846064444538"><ele>741.0</ele><time>2026-04-09T08:52:18Z</time></trkpt><trkpt lat="37.94131704336975" lon="15.134728433249933"><ele>742.1666666666666</ele><time>2026-04-09T08:52:19Z</time></trkpt><trkpt lat="37.94128165875386" lon="15.134629689900343"><ele>743.3333333333334</ele><time>2026-04-09T08:52:20Z</time></trkpt><trkpt lat="37.94124985893839" lon="15.134513102527096"><ele>744.5</ele><time>2026-04-09T08:52:22Z</time></trkpt><trkpt lat="37.94133138640796" lon="15.134460150408092"><ele>745.6666666666667</ele><time>2026-04-09T08:52:24Z</time></trkpt><trkpt lat="37.94139432950171" lon="15.134539192037655"><ele>746.8333333333334</ele><time>2026-04-09T08:52:26Z</time></trkpt><trkpt lat="37.941440454202066" lon="15.134608650020384"><ele>748.0</ele><time>2026-04-09T08:52:27Z</time></trkpt><trkpt lat="37.94148293624697" lon="15.134679223852002"><ele>748.0</ele><time>2026-04-09T08:52:28Z</time></trkpt><trkpt lat="37.94154402825061" lon="15.134763456020348"><ele>748.0</ele><time>2026-04-09T08:52:29Z</time></trkpt><trkpt lat="37.94161458974183" lon="15.134844296234075"><ele>748.0</ele><time>2026-04-09T08:52:30Z</time></trkpt><trkpt lat="37.941691044371375" lon="15.13490691807494"><ele>748.0</ele><time>2026-04-09T08:52:31Z</time></trkpt><trkpt lat="37.94179110724775" lon="15.134965466314199"><ele>748.0</ele><time>2026-04-09T08:52:32Z</time></trkpt><trkpt lat="37.941881689544736" lon="15.135030525213347"><ele>746.6666666666667</ele><time>2026-04-09T08:52:33Z</time></trkpt><trkpt lat="37.941944960737175" lon="15.135084247321135"><ele>745.3333333333334</ele><time>2026-04-09T08:52:34Z</time></trkpt><trkpt lat="37.9420122360363" lon="15.13512371720375"><ele>744.0</ele><time>2026-04-09T08:52:36Z</time></trkpt><trkpt lat="37.942024117358926" lon="15.134994377136607"><ele>742.6666666666666</ele><time>2026-04-09T08:52:38Z</time></trkpt><trkpt lat="37.94197363349888" lon="15.134931298325306"><ele>741.3333333333333</ele><time>2026-04-09T08:52:39Z</time></trkpt><trkpt lat="37.94188684018007" lon="15.134869678533919"><ele>740.0</ele><time>2026-04-09T08:52:40Z</time></trkpt><trkpt lat="37.9418022338722" lon="15.134776836718766"><ele>743.4</ele><time>2026-04-09T08:52:41Z</time></trkpt><trkpt lat="37.94176753819395" lon="15.13466289124446"><ele>746.8</ele><time>2026-04-09T08:52:42Z</time></trkpt><trkpt lat="37.94175824821355" lon="15.134547909539867"><ele>750.2</ele><time>2026-04-09T08:52:43Z</time></trkpt><trkpt lat="37.94178224663818" lon="15.1344505711559"><ele>753.6</ele><time>2026-04-09T08:52:44Z</time></trkpt><trkpt lat="37.941831901835165" lon="15.134363957122225"><ele>757.0</ele><time>2026-04-09T08:52:45Z</time></trkpt><trkpt lat="37.94190477483187" lon="15.134249522895512"><ele>757.0</ele><time>2026-04-09T08:52:46Z</time></trkpt><trkpt lat="37.94199808061625" lon="15.134117368541272"><ele>757.0</ele><time>2026-04-09T08:52:47Z</time></trkpt><trkpt lat="37.942079805188364" lon="15.13397236457157"><ele>757.0</ele><time>2026-04-09T08:52:48Z</time></trkpt><trkpt lat="37.94215076418599" lon="15.133875746247252"><ele>757.0</ele><time>2026-04-09T08:52:49Z</time></trkpt><trkpt lat="37.94223215325606" lon="15.133809066884535"><ele>757.5</ele><time>2026-04-09T08:52:50Z</time></trkpt><trkpt lat="37.942325920995565" lon="15.133764075011705"><ele>758.0</ele><time>2026-04-09T08:52:51Z</time></trkpt><trkpt lat="37.9424073234337" lon="15.133730618384787"><ele>758.5</ele><time>2026-04-09T08:52:52Z</time></trkpt><trkpt lat="37.942476066599795" lon="15.133686958416323"><ele>759.0</ele><time>2026-04-09T08:52:54Z</time></trkpt><trkpt lat="37.94252535985285" lon="15.133622892556694"><ele>759.5</ele><time>2026-04-09T08:52:56Z</time></trkpt><trkpt lat="37.942587544487914" lon="15.133607035522493"><ele>760.0</ele><time>2026-04-09T08:52:59Z</time></trkpt><trkpt lat="37.942631225035825" lon="15.133548192494379"><ele>760.0</ele><time>2026-04-09T08:53:51Z</time></trkpt><trkpt lat="37.94268703092849" lon="15.133456428584907"><ele>760.0</ele><time>2026-04-09T08:55:33.999Z</time></trkpt><trkpt lat="37.94271817693161" lon="15.133283873170368"><ele>760.0</ele><time>2026-04-09T08:55:35.999Z</time></trkpt><trkpt lat="37.942723339556075" lon="15.13315328891429"><ele>760.0</ele><time>2026-04-09T08:55:36.999Z</time></trkpt><trkpt lat="37.94273527635624" lon="15.133023997060558"><ele>760.0</ele><time>2026-04-09T08:55:37.999Z</time></trkpt><trkpt lat="37.94276555618471" lon="15.132930407506004"><ele>763.5</ele><time>2026-04-09T08:55:38.999Z</time></trkpt><trkpt lat="37.94282438582798" lon="15.132873201646273"><ele>767.0</ele><time>2026-04-09T08:55:39.999Z</time></trkpt><trkpt lat="37.94288055601902" lon="15.132828787028691"><ele>770.5</ele><time>2026-04-09T08:55:40.999Z</time></trkpt><trkpt lat="37.94294159253425" lon="15.132759056784826"><ele>774.0</ele><time>2026-04-09T08:55:41.999Z</time></trkpt><trkpt lat="37.9430175751507" lon="15.132673081653481"><ele>777.4999999999999</ele><time>2026-04-09T08:55:42.999Z</time></trkpt><trkpt lat="37.943114784498654" lon="15.1325983287661"><ele>781.0</ele><time>2026-04-09T08:55:43.999Z</time></trkpt><trkpt lat="37.94321825401041" lon="15.132521725366319"><ele>781.0</ele><time>2026-04-09T08:55:44.999Z</time></trkpt><trkpt lat="37.9433080430485" lon="15.132435254355794"><ele>781.0</ele><time>2026-04-09T08:55:45.999Z</time></trkpt><trkpt lat="37.94338295244998" lon="15.132320935011712"><ele>781.0</ele><time>2026-04-09T08:55:46.999Z</time></trkpt><trkpt lat="37.94344884805855" lon="15.132217127317414"><ele>781.0</ele><time>2026-04-09T08:55:47.999Z</time></trkpt><trkpt lat="37.94351930480928" lon="15.132137626621216"><ele>781.0</ele><time>2026-04-09T08:55:48.999Z</time></trkpt><trkpt lat="37.9436191170674" lon="15.13209264381541"><ele>784.8</ele><time>2026-04-09T08:55:49.999Z</time></trkpt><trkpt lat="37.94374631025897" lon="15.132065382583097"><ele>788.5999999999999</ele><time>2026-04-09T08:55:50.999Z</time></trkpt><trkpt lat="37.94386643912975" lon="15.132044612300305"><ele>792.4</ele><time>2026-04-09T08:55:51.999Z</time></trkpt><trkpt lat="37.94396370244191" lon="15.132013837233787"><ele>796.2</ele><time>2026-04-09T08:55:52.999Z</time></trkpt><trkpt lat="37.94403192001265" lon="15.131974115401016"><ele>800.0</ele><time>2026-04-09T08:55:53.999Z</time></trkpt><trkpt lat="37.94411158568599" lon="15.131912679790483"><ele>800.0</ele><time>2026-04-09T08:55:54.999Z</time></trkpt><trkpt lat="37.94420967013978" lon="15.131823793118873"><ele>800.0</ele><time>2026-04-09T08:55:55.999Z</time></trkpt><trkpt lat="37.944318558620964" lon="15.131727496413584"><ele>800.0</ele><time>2026-04-09T08:55:56.999Z</time></trkpt><trkpt lat="37.94442996408977" lon="15.131647939389868"><ele>800.0</ele><time>2026-04-09T08:55:57.999Z</time></trkpt><trkpt lat="37.94454874096192" lon="15.131595657469674"><ele>799.2</ele><time>2026-04-09T08:55:58.999Z</time></trkpt><trkpt lat="37.944656311609066" lon="15.131568067197403"><ele>798.4</ele><time>2026-04-09T08:55:59.999Z</time></trkpt><trkpt lat="37.94475468074748" lon="15.131570011129584"><ele>797.5999999999999</ele><time>2026-04-09T08:56:00.999Z</time></trkpt><trkpt lat="37.94485476368286" lon="15.131562178980717"><ele>796.8</ele><time>2026-04-09T08:56:01.999Z</time></trkpt><trkpt lat="37.94494015252217" lon="15.131524907815967"><ele>796.0</ele><time>2026-04-09T08:56:02.999Z</time></trkpt><trkpt lat="37.94501680845054" lon="15.131502581078639"><ele>797.9999999999999</ele><time>2026-04-09T08:56:03.999Z</time></trkpt><trkpt lat="37.9450747228541" lon="15.131469169540868"><ele>800.0</ele><time>2026-04-09T08:56:04.999Z</time></trkpt><trkpt lat="37.94513519728055" lon="15.131398498809912"><ele>802.0</ele><time>2026-04-09T08:56:05.999Z</time></trkpt><trkpt lat="37.94520858876799" lon="15.131292435278413"><ele>804.0</ele><time>2026-04-09T08:56:06.999Z</time></trkpt><trkpt lat="37.94528117150266" lon="15.131201017403882"><ele>805.9999999999999</ele><time>2026-04-09T08:56:07.999Z</time></trkpt><trkpt lat="37.945331885152164" lon="15.13112156784818"><ele>808.0</ele><time>2026-04-09T08:56:08.999Z</time></trkpt><trkpt lat="37.94538970897811" lon="15.131006911176144"><ele>808.0</ele><time>2026-04-09T08:56:09.999Z</time></trkpt><trkpt lat="37.94544553809682" lon="15.130899672127772"><ele>808.0</ele><time>2026-04-09T08:56:10.999Z</time></trkpt><trkpt lat="37.94552509084305" lon="15.130809740254273"><ele>808.0</ele><time>2026-04-09T08:56:11.999Z</time></trkpt><trkpt lat="37.945613217120616" lon="15.130720368475224"><ele>808.0</ele><time>2026-04-09T08:56:12.999Z</time></trkpt><trkpt lat="37.94569652375934" lon="15.130628924927342"><ele>808.0</ele><time>2026-04-09T08:56:13.999Z</time></trkpt><trkpt lat="37.94577293477752" lon="15.130546301796796"><ele>813.2</ele><time>2026-04-09T08:56:14.999Z</time></trkpt><trkpt lat="37.94585562850849" lon="15.130467487941411"><ele>818.4</ele><time>2026-04-09T08:56:15.999Z</time></trkpt><trkpt lat="37.9459283855101" lon="15.13041013571422"><ele>823.6</ele><time>2026-04-09T08:56:16.999Z</time></trkpt><trkpt lat="37.946000220160705" lon="15.130382409561047"><ele>828.8000000000001</ele><time>2026-04-09T08:56:17.999Z</time></trkpt><trkpt lat="37.94609106368113" lon="15.130400718321791"><ele>834.0</ele><time>2026-04-09T08:56:18.999Z</time></trkpt><trkpt lat="37.94618168563503" lon="15.13043753328677"><ele>834.6</ele><time>2026-04-09T08:56:19.999Z</time></trkpt><trkpt lat="37.94628389550321" lon="15.130470895805534"><ele>835.2</ele><time>2026-04-09T08:56:20.999Z</time></trkpt><trkpt lat="37.946374947973325" lon="15.13049069166036"><ele>835.8000000000001</ele><time>2026-04-09T08:56:21.999Z</time></trkpt><trkpt lat="37.9464614270062" lon="15.130504373734773"><ele>836.4000000000001</ele><time>2026-04-09T08:56:22.999Z</time></trkpt><trkpt lat="37.946536751721645" lon="15.130503863454512"><ele>837.0</ele><time>2026-04-09T08:56:23.999Z</time></trkpt><trkpt lat="37.9466260902365" lon="15.130499118260515"><ele>837.0</ele><time>2026-04-09T08:56:24.999Z</time></trkpt><trkpt lat="37.946708880146794" lon="15.13049248316711"><ele>837.0</ele><time>2026-04-09T08:56:25.999Z</time></trkpt><trkpt lat="37.94677049268579" lon="15.13051588460068"><ele>837.0</ele><time>2026-04-09T08:56:27.999Z</time></trkpt><trkpt lat="37.94682660461933" lon="15.130586314880656"><ele>837.0</ele><time>2026-04-09T08:56:29.999Z</time></trkpt><trkpt lat="37.94687711386638" lon="15.13064097087432"><ele>837.0</ele><time>2026-04-09T08:56:30.999Z</time></trkpt><trkpt lat="37.94693386459119" lon="15.130687178151694"><ele>837.0</ele><time>2026-04-09T08:56:31.999Z</time></trkpt><trkpt lat="37.9470310751464" lon="15.130710168750527"><ele>838.6666666666666</ele><time>2026-04-09T08:56:33.999Z</time></trkpt><trkpt lat="37.947094140807344" lon="15.130675854421847"><ele>840.3333333333333</ele><time>2026-04-09T08:56:34.999Z</time></trkpt><trkpt lat="37.94719442916102" lon="15.130644719981778"><ele>842.0</ele><time>2026-04-09T08:56:35.999Z</time></trkpt><trkpt lat="37.94727734362428" lon="15.13062003031036"><ele>843.6666666666666</ele><time>2026-04-09T08:56:36.999Z</time></trkpt><trkpt lat="37.94734612821852" lon="15.130607739506308"><ele>845.3333333333333</ele><time>2026-04-09T08:56:37.999Z</time></trkpt><trkpt lat="37.947395612116814" lon="15.130528896991025"><ele>847.0</ele><time>2026-04-09T08:56:39.999Z</time></trkpt><trkpt lat="37.947312029315036" lon="15.130437290586666"><ele>847.0</ele><time>2026-04-09T08:56:41.999Z</time></trkpt><trkpt lat="37.94722264050555" lon="15.130389702015187"><ele>847.0</ele><time>2026-04-09T08:56:43.999Z</time></trkpt><trkpt lat="37.94716818695489" lon="15.130307541202873"><ele>847.0</ele><time>2026-04-09T08:56:45.999Z</time></trkpt><trkpt lat="37.94711364139238" lon="15.13025758229628"><ele>847.0</ele><time>2026-04-09T08:57:21.999Z</time></trkpt><trkpt lat="37.947027540085394" lon="15.130164804512303"><ele>847.0</ele><time>2026-04-09T08:57:23.999Z</time></trkpt><trkpt lat="37.94694679242947" lon="15.130115577339314"><ele>847.0</ele><time>2026-04-09T08:57:25.999Z</time></trkpt><trkpt lat="37.946876038897656" lon="15.130058821064711"><ele>847.0</ele><time>2026-04-09T08:57:27.999Z</time></trkpt><trkpt lat="37.94678677926622" lon="15.129976237156312"><ele>847.0</ele><time>2026-04-09T08:57:29.999Z</time></trkpt><trkpt lat="37.94667672159615" lon="15.129895594252822"><ele>847.0</ele><time>2026-04-09T08:57:31.999Z</time></trkpt><trkpt lat="37.9466139880681" lon="15.129841477100674"><ele>847.0</ele><time>2026-04-09T08:57:32.999Z</time></trkpt><trkpt lat="37.946538900308255" lon="15.129759174124814"><ele>849.0</ele><time>2026-04-09T08:57:34.999Z</time></trkpt><trkpt lat="37.946582952539906" lon="15.129670494960479"><ele>851.0</ele><time>2026-04-09T08:57:36.999Z</time></trkpt><trkpt lat="37.94670939807305" lon="15.129630260672537"><ele>853.0</ele><time>2026-04-09T08:57:38.999Z</time></trkpt><trkpt lat="37.946791668272226" lon="15.12961611018523"><ele>855.0</ele><time>2026-04-09T08:57:39.999Z</time></trkpt><trkpt lat="37.94687914909913" lon="15.129577381290996"><ele>857.0</ele><time>2026-04-09T08:57:40.999Z</time></trkpt><trkpt lat="37.946965529366935" lon="15.12951900360066"><ele>858.4000000000001</ele><time>2026-04-09T08:57:41.999Z</time></trkpt><trkpt lat="37.94705540099158" lon="15.129477199621885"><ele>859.8000000000001</ele><time>2026-04-09T08:57:42.999Z</time></trkpt><trkpt lat="37.94715734269677" lon="15.129460223474327"><ele>861.2</ele><time>2026-04-09T08:57:43.999Z</time></trkpt><trkpt lat="37.94724964435873" lon="15.129456434870944"><ele>862.6</ele><time>2026-04-09T08:57:44.999Z</time></trkpt><trkpt lat="37.947349315060066" lon="15.129449650808048"><ele>864.0</ele><time>2026-04-09T08:57:45.999Z</time></trkpt><trkpt lat="37.947433839388204" lon="15.129439675691284"><ele>864.0</ele><time>2026-04-09T08:57:46.999Z</time></trkpt><trkpt lat="37.947524568653186" lon="15.129382806988401"><ele>864.0</ele><time>2026-04-09T08:57:48.999Z</time></trkpt><trkpt lat="37.94737172058933" lon="15.129298043482013"><ele>864.0</ele><time>2026-04-09T08:57:54.999Z</time></trkpt><trkpt lat="37.947269478329574" lon="15.12931601835324"><ele>864.0</ele><time>2026-04-09T08:57:55.999Z</time></trkpt><trkpt lat="37.94713277468357" lon="15.129310009318582"><ele>864.0</ele><time>2026-04-09T08:57:56.999Z</time></trkpt><trkpt lat="37.947014570145605" lon="15.129296886971236"><ele>864.0</ele><time>2026-04-09T08:57:57.999Z</time></trkpt><trkpt lat="37.946920729810614" lon="15.12930081920608"><ele>864.0</ele><time>2026-04-09T08:57:58.999Z</time></trkpt><trkpt lat="37.94683903436383" lon="15.129291496783793"><ele>864.0</ele><time>2026-04-09T08:57:59.999Z</time></trkpt><trkpt lat="37.94677390113527" lon="15.129297360756883"><ele>864.0</ele><time>2026-04-09T08:58:00.999Z</time></trkpt><trkpt lat="37.94669117151055" lon="15.129294850375272"><ele>864.0</ele><time>2026-04-09T08:58:02.999Z</time></trkpt><trkpt lat="37.94663334130519" lon="15.129246308620125"><ele>862.8333333333334</ele><time>2026-04-09T08:58:05.999Z</time></trkpt><trkpt lat="37.94655800646575" lon="15.129221687807602"><ele>861.6666666666667</ele><time>2026-04-09T08:59:01.999Z</time></trkpt><trkpt lat="37.94647374558342" lon="15.1292027787621"><ele>860.5</ele><time>2026-04-09T08:59:09.999Z</time></trkpt><trkpt lat="37.94654177960654" lon="15.129214467450517"><ele>859.3333333333334</ele><time>2026-04-09T08:59:13.999Z</time></trkpt><trkpt lat="37.94663035239189" lon="15.129213495648324"><ele>858.1666666666667</ele><time>2026-04-09T09:00:29.999Z</time></trkpt><trkpt lat="37.94670179672782" lon="15.129129366554618"><ele>857.0</ele><time>2026-04-09T09:00:31.999Z</time></trkpt><trkpt lat="37.94676950765686" lon="15.129037464024046"><ele>860.0000000000001</ele><time>2026-04-09T09:00:33.999Z</time></trkpt><trkpt lat="37.946816622253856" lon="15.128974829324433"><ele>863.0</ele><time>2026-04-09T09:00:34.999Z</time></trkpt><trkpt lat="37.946896086915274" lon="15.128869188259564"><ele>866.0</ele><time>2026-04-09T09:00:36.999Z</time></trkpt><trkpt lat="37.94694299146411" lon="15.128800937219218"><ele>869.0</ele><time>2026-04-09T09:00:37.999Z</time></trkpt><trkpt lat="37.94699660916603" lon="15.128739848784287"><ele>872.0000000000001</ele><time>2026-04-09T09:00:38.999Z</time></trkpt><trkpt lat="37.94705964951159" lon="15.128668022901136"><ele>875.0</ele><time>2026-04-09T09:00:39.999Z</time></trkpt><trkpt lat="37.947118495679895" lon="15.128600977568256"><ele>875.0</ele><time>2026-04-09T09:00:40.999Z</time></trkpt><trkpt lat="37.94721628061006" lon="15.12849284544009"><ele>875.0</ele><time>2026-04-09T09:00:42.999Z</time></trkpt><trkpt lat="37.94728929041485" lon="15.128415432439912"><ele>875.0</ele><time>2026-04-09T09:00:43.999Z</time></trkpt><trkpt lat="37.9473620760818" lon="15.128338257225348"><ele>875.0</ele><time>2026-04-09T09:00:44.999Z</time></trkpt><trkpt lat="37.94742878292983" lon="15.128267527154575"><ele>875.0</ele><time>2026-04-09T09:00:45.999Z</time></trkpt><trkpt lat="37.9477155905782" lon="15.128517440162053"><ele>878.3333333333334</ele><time>2026-04-09T09:00:46.999Z</time></trkpt><trkpt lat="37.94778939641148" lon="15.128481143448418"><ele>881.6666666666667</ele><time>2026-04-09T09:00:47.999Z</time></trkpt><trkpt lat="37.947865862365994" lon="15.12846127867903"><ele>885.0</ele><time>2026-04-09T09:00:48.999Z</time></trkpt><trkpt lat="37.94794148720379" lon="15.128438279407499"><ele>888.3333333333333</ele><time>2026-04-09T09:00:49.999Z</time></trkpt><trkpt lat="37.94802952899045" lon="15.128408798279926"><ele>891.6666666666666</ele><time>2026-04-09T09:00:50.999Z</time></trkpt><trkpt lat="37.948106176048185" lon="15.128379615282224"><ele>895.0</ele><time>2026-04-09T09:00:51.999Z</time></trkpt><trkpt lat="37.94822043704473" lon="15.12837202003997"><ele>895.0</ele><time>2026-04-09T09:00:53.999Z</time></trkpt><trkpt lat="37.94832548360071" lon="15.128345957516148"><ele>895.0</ele><time>2026-04-09T09:00:55.999Z</time></trkpt><trkpt lat="37.94845819672371" lon="15.12830840227659"><ele>895.0</ele><time>2026-04-09T09:00:57.999Z</time></trkpt><trkpt lat="37.948525163818566" lon="15.12828808725104"><ele>895.0</ele><time>2026-04-09T09:00:58.999Z</time></trkpt><trkpt lat="37.94859963523164" lon="15.128278988197584"><ele>895.0</ele><time>2026-04-09T09:00:59.999Z</time></trkpt><trkpt lat="37.94867607645032" lon="15.12827350206287"><ele>896.6666666666666</ele><time>2026-04-09T09:01:00.999Z</time></trkpt><trkpt lat="37.948758042727526" lon="15.12826550615125"><ele>898.3333333333333</ele><time>2026-04-09T09:01:01.999Z</time></trkpt><trkpt lat="37.948827717762974" lon="15.128246095410876"><ele>900.0</ele><time>2026-04-09T09:01:02.999Z</time></trkpt><trkpt lat="37.94892042992714" lon="15.128229854326088"><ele>901.6666666666667</ele><time>2026-04-09T09:01:03.999Z</time></trkpt><trkpt lat="37.94900195740782" lon="15.128213803653392"><ele>903.3333333333334</ele><time>2026-04-09T09:01:04.999Z</time></trkpt><trkpt lat="37.9490635323115" lon="15.12818588570552"><ele>905.0</ele><time>2026-04-09T09:01:05.999Z</time></trkpt><trkpt lat="37.94915544332243" lon="15.128159362245848"><ele>907.6666666666667</ele><time>2026-04-09T09:01:06.999Z</time></trkpt><trkpt lat="37.94925898224131" lon="15.128132598637656"><ele>910.3333333333334</ele><time>2026-04-09T09:01:07.999Z</time></trkpt><trkpt lat="37.9493510167111" lon="15.128127588097376"><ele>913.0</ele><time>2026-04-09T09:01:08.999Z</time></trkpt><trkpt lat="37.949440796676505" lon="15.128142688960684"><ele>915.6666666666667</ele><time>2026-04-09T09:01:09.999Z</time></trkpt><trkpt lat="37.949504860914345" lon="15.128172557613901"><ele>918.3333333333334</ele><time>2026-04-09T09:01:10.999Z</time></trkpt><trkpt lat="37.949590132144785" lon="15.128204523615736"><ele>921.0</ele><time>2026-04-09T09:01:11.999Z</time></trkpt><trkpt lat="37.949659844347835" lon="15.128227643452705"><ele>922.3333333333334</ele><time>2026-04-09T09:01:12.999Z</time></trkpt><trkpt lat="37.94973211785069" lon="15.128244972711832"><ele>923.6666666666667</ele><time>2026-04-09T09:01:13.999Z</time></trkpt><trkpt lat="37.949801690081635" lon="15.128265503937234"><ele>925.0</ele><time>2026-04-09T09:01:14.999Z</time></trkpt><trkpt lat="37.949872568005425" lon="15.128289354340865"><ele>926.3333333333334</ele><time>2026-04-09T09:01:15.999Z</time></trkpt><trkpt lat="37.94993869711662" lon="15.128299821544148"><ele>927.6666666666667</ele><time>2026-04-09T09:01:16.999Z</time></trkpt><trkpt lat="37.95005155879338" lon="15.128242841450573"><ele>929.0</ele><time>2026-04-09T09:01:18.999Z</time></trkpt><trkpt lat="37.95011625699825" lon="15.128200752733758"><ele>930.6666666666667</ele><time>2026-04-09T09:01:19.999Z</time></trkpt><trkpt lat="37.950175757514565" lon="15.128159939449263"><ele>932.3333333333334</ele><time>2026-04-09T09:01:20.999Z</time></trkpt><trkpt lat="37.950236364195725" lon="15.128127349885018"><ele>934.0</ele><time>2026-04-09T09:01:21.999Z</time></trkpt><trkpt lat="37.950333863745215" lon="15.128128453974828"><ele>935.6666666666667</ele><time>2026-04-09T09:01:23.999Z</time></trkpt><trkpt lat="37.95040949121214" lon="15.128163890356193"><ele>937.3333333333334</ele><time>2026-04-09T09:01:26.999Z</time></trkpt><trkpt lat="37.950498714076" lon="15.128149254768607"><ele>939.0</ele><time>2026-04-09T09:02:39Z</time></trkpt><trkpt lat="37.950559312592" lon="15.128110229422338"><ele>939.0</ele><time>2026-04-09T09:02:40Z</time></trkpt><trkpt lat="37.95062808807618" lon="15.128085229649134"><ele>939.0</ele><time>2026-04-09T09:02:41Z</time></trkpt><trkpt lat="37.95069795977484" lon="15.128077067731997"><ele>939.0</ele><time>2026-04-09T09:02:42Z</time></trkpt><trkpt lat="37.950776180291555" lon="15.128064367091527"><ele>939.0</ele><time>2026-04-09T09:02:43Z</time></trkpt><trkpt lat="37.95086590859335" lon="15.127994604395836"><ele>939.0</ele><time>2026-04-09T09:02:44Z</time></trkpt><trkpt lat="37.950915875597175" lon="15.12791197022992"><ele>939.0</ele><time>2026-04-09T09:02:45Z</time></trkpt><trkpt lat="37.95098196066793" lon="15.127825707273415"><ele>939.6</ele><time>2026-04-09T09:02:46Z</time></trkpt><trkpt lat="37.95106146579531" lon="15.127757928454967"><ele>940.2</ele><time>2026-04-09T09:02:47Z</time></trkpt><trkpt lat="37.95114447431829" lon="15.127691907751116"><ele>940.8000000000001</ele><time>2026-04-09T09:02:48Z</time></trkpt><trkpt lat="37.95122159589463" lon="15.12762049758545"><ele>941.4000000000001</ele><time>2026-04-09T09:02:49Z</time></trkpt><trkpt lat="37.9512923154505" lon="15.127552134581144"><ele>942.0</ele><time>2026-04-09T09:02:50Z</time></trkpt><trkpt lat="37.951352710527495" lon="15.12750097153658"><ele>942.0</ele><time>2026-04-09T09:02:51Z</time></trkpt><trkpt lat="37.95146011746986" lon="15.127458976750011"><ele>942.0</ele><time>2026-04-09T09:02:52.999Z</time></trkpt><trkpt lat="37.9515177664156" lon="15.127418196371334"><ele>942.0</ele><time>2026-04-09T09:02:53.999Z</time></trkpt><trkpt lat="37.95160233580625" lon="15.127368086377473"><ele>942.0</ele><time>2026-04-09T09:02:54.999Z</time></trkpt><trkpt lat="37.951676438454555" lon="15.127324506384731"><ele>942.0</ele><time>2026-04-09T09:02:55.999Z</time></trkpt><trkpt lat="37.95176484574474" lon="15.127286321311253"><ele>942.0</ele><time>2026-04-09T09:02:56.999Z</time></trkpt><trkpt lat="37.951850440092365" lon="15.127254171544118"><ele>944.8333333333334</ele><time>2026-04-09T09:02:57.999Z</time></trkpt><trkpt lat="37.95191863787715" lon="15.127202731165301"><ele>947.6666666666667</ele><time>2026-04-09T09:02:58.999Z</time></trkpt><trkpt lat="37.951972207121216" lon="15.127144419661098"><ele>950.5</ele><time>2026-04-09T09:02:59.999Z</time></trkpt><trkpt lat="37.95204604035302" lon="15.127085362407703"><ele>953.3333333333334</ele><time>2026-04-09T09:03:00.999Z</time></trkpt><trkpt lat="37.952119376892405" lon="15.127041398637862"><ele>956.1666666666667</ele><time>2026-04-09T09:03:01.999Z</time></trkpt><trkpt lat="37.952193380559315" lon="15.126993972017184"><ele>959.0</ele><time>2026-04-09T09:03:02.999Z</time></trkpt><trkpt lat="37.95225325204359" lon="15.126956112384343"><ele>959.0000000000001</ele><time>2026-04-09T09:03:03.999Z</time></trkpt><trkpt lat="37.95229861377821" lon="15.126881056683413"><ele>959.0</ele><time>2026-04-09T09:03:05.999Z</time></trkpt><trkpt lat="37.95232806051721" lon="15.126781731507295"><ele>959.0</ele><time>2026-04-09T09:03:07.999Z</time></trkpt><trkpt lat="37.95235573489835" lon="15.12670424244395"><ele>959.0</ele><time>2026-04-09T09:03:09.999Z</time></trkpt><trkpt lat="37.95238351253164" lon="15.126621972546939"><ele>959.0000000000001</ele><time>2026-04-09T09:03:11.999Z</time></trkpt><trkpt lat="37.95242056975625" lon="15.126507805680275"><ele>959.0</ele><time>2026-04-09T09:03:13.999Z</time></trkpt><trkpt lat="37.95251281478649" lon="15.126507926300263"><ele>962.0</ele><time>2026-04-09T09:03:16.999Z</time></trkpt><trkpt lat="37.952609299586115" lon="15.126504023769986"><ele>965.0000000000001</ele><time>2026-04-09T09:03:20.999Z</time></trkpt><trkpt lat="37.952689747919884" lon="15.126484518428915"><ele>968.0000000000001</ele><time>2026-04-09T09:03:22.999Z</time></trkpt><trkpt lat="37.95277207444263" lon="15.126462229392503"><ele>971.0</ele><time>2026-04-09T09:03:24.999Z</time></trkpt><trkpt lat="37.95285899001008" lon="15.126415598953859"><ele>974.0</ele><time>2026-04-09T09:03:26.999Z</time></trkpt><trkpt lat="37.95298387916392" lon="15.1263757559103"><ele>974.0000000000001</ele><time>2026-04-09T09:03:28.999Z</time></trkpt><trkpt lat="37.9530602363975" lon="15.126376243910142"><ele>974.0</ele><time>2026-04-09T09:03:29.999Z</time></trkpt><trkpt lat="37.953132300009834" lon="15.126394694888106"><ele>974.0</ele><time>2026-04-09T09:03:30.999Z</time></trkpt><trkpt lat="37.95320784607711" lon="15.12641809578"><ele>974.0</ele><time>2026-04-09T09:03:31.999Z</time></trkpt><trkpt lat="37.95330255621696" lon="15.12639782038901"><ele>974.0000000000001</ele><time>2026-04-09T09:03:34Z</time></trkpt><trkpt lat="37.953377334100956" lon="15.12637557625086"><ele>974.0</ele><time>2026-04-09T09:03:36Z</time></trkpt><trkpt lat="37.95345401609264" lon="15.12632592485543"><ele>975.6666666666667</ele><time>2026-04-09T09:03:39Z</time></trkpt><trkpt lat="37.953506427550806" lon="15.126276522789633"><ele>977.3333333333334</ele><time>2026-04-09T09:03:42Z</time></trkpt><trkpt lat="37.95358391875612" lon="15.126227635408043"><ele>979.0</ele><time>2026-04-09T09:05:26Z</time></trkpt><trkpt lat="37.953603311169395" lon="15.126121054224448"><ele>980.6666666666667</ele><time>2026-04-09T09:05:28Z</time></trkpt><trkpt lat="37.95366957699336" lon="15.12606004117687"><ele>982.3333333333334</ele><time>2026-04-09T09:05:31Z</time></trkpt><trkpt lat="37.95362747215447" lon="15.12612138048974"><ele>984.0</ele><time>2026-04-09T09:07:10Z</time></trkpt><trkpt lat="37.9535552337298" lon="15.12620481291218"><ele>984.0</ele><time>2026-04-09T09:08:11Z</time></trkpt><trkpt lat="37.95347848008089" lon="15.126275076638818"><ele>984.0000000000001</ele><time>2026-04-09T09:08:14Z</time></trkpt><trkpt lat="37.95335485942719" lon="15.126298913415095"><ele>984.0000000000001</ele><time>2026-04-09T09:08:16Z</time></trkpt><trkpt lat="37.953285147965794" lon="15.12630397079076"><ele>984.0</ele><time>2026-04-09T09:08:17Z</time></trkpt><trkpt lat="37.95320553588026" lon="15.126205487198"><ele>984.0</ele><time>2026-04-09T09:08:19Z</time></trkpt><trkpt lat="37.95320949776063" lon="15.126115148018792"><ele>984.0</ele><time>2026-04-09T09:08:20Z</time></trkpt><trkpt lat="37.953253929081214" lon="15.12602492288376"><ele>984.0000000000001</ele><time>2026-04-09T09:08:21Z</time></trkpt><trkpt lat="37.95333209475435" lon="15.125931943895832"><ele>984.0000000000001</ele><time>2026-04-09T09:08:22Z</time></trkpt><trkpt lat="37.95341539128424" lon="15.125834214782358"><ele>984.0</ele><time>2026-04-09T09:08:23Z</time></trkpt><trkpt lat="37.953498433253664" lon="15.125720725820212"><ele>984.0</ele><time>2026-04-09T09:08:24Z</time></trkpt><trkpt lat="37.95358315498971" lon="15.125602233526184"><ele>983.25</ele><time>2026-04-09T09:08:25Z</time></trkpt><trkpt lat="37.95366731944448" lon="15.125483324673727"><ele>982.5</ele><time>2026-04-09T09:08:26Z</time></trkpt><trkpt lat="37.95374922054801" lon="15.125367306168872"><ele>981.75</ele><time>2026-04-09T09:08:27Z</time></trkpt><trkpt lat="37.9538202450613" lon="15.125250749999529"><ele>981.0</ele><time>2026-04-09T09:08:28Z</time></trkpt><trkpt lat="37.95386631320925" lon="15.125126061451367"><ele>981.0</ele><time>2026-04-09T09:08:29Z</time></trkpt><trkpt lat="37.953882664177996" lon="15.124992691061669"><ele>980.9999999999999</ele><time>2026-04-09T09:08:30Z</time></trkpt><trkpt lat="37.95386027121795" lon="15.124859191020281"><ele>980.9999999999999</ele><time>2026-04-09T09:08:31Z</time></trkpt><trkpt lat="37.95384823152804" lon="15.124726678848065"><ele>981.0</ele><time>2026-04-09T09:08:32Z</time></trkpt><trkpt lat="37.953835849886445" lon="15.124611362117315"><ele>981.0</ele><time>2026-04-09T09:08:33Z</time></trkpt><trkpt lat="37.95381713068494" lon="15.124501434683415"><ele>979.6666666666666</ele><time>2026-04-09T09:08:34Z</time></trkpt><trkpt lat="37.953830689235225" lon="15.124402709415648"><ele>978.3333333333333</ele><time>2026-04-09T09:08:35Z</time></trkpt><trkpt lat="37.95381972261989" lon="15.12430516460626"><ele>977.0</ele><time>2026-04-09T09:08:36Z</time></trkpt><trkpt lat="37.95381049357671" lon="15.124218891903809"><ele>975.6666666666666</ele><time>2026-04-09T09:08:37Z</time></trkpt><trkpt lat="37.95381074357771" lon="15.12408725701403"><ele>974.3333333333333</ele><time>2026-04-09T09:08:39Z</time></trkpt><trkpt lat="37.95383764923437" lon="15.123965081992973"><ele>973.0</ele><time>2026-04-09T09:08:41Z</time></trkpt><trkpt lat="37.953898051802625" lon="15.123847531572801"><ele>972.0</ele><time>2026-04-09T09:08:43Z</time></trkpt><trkpt lat="37.953976054259286" lon="15.123756002477759"><ele>971.0</ele><time>2026-04-09T09:08:45Z</time></trkpt><trkpt lat="37.95407111238238" lon="15.123662103482275"><ele>970.0</ele><time>2026-04-09T09:08:47Z</time></trkpt><trkpt lat="37.95412541012174" lon="15.123604487705808"><ele>969.0</ele><time>2026-04-09T09:08:48Z</time></trkpt><trkpt lat="37.954195538700155" lon="15.123523936254674"><ele>968.0</ele><time>2026-04-09T09:08:49Z</time></trkpt><trkpt lat="37.95427672975696" lon="15.123443156236576"><ele>968.0</ele><time>2026-04-09T09:08:50Z</time></trkpt><trkpt lat="37.95436762995648" lon="15.123381155502422"><ele>968.0</ele><time>2026-04-09T09:08:51Z</time></trkpt><trkpt lat="37.95446908722709" lon="15.12334443065443"><ele>968.0</ele><time>2026-04-09T09:08:52Z</time></trkpt><trkpt lat="37.95456646764205" lon="15.12332905129806"><ele>968.0</ele><time>2026-04-09T09:08:53Z</time></trkpt><trkpt lat="37.9546670073317" lon="15.123313451268077"><ele>968.0</ele><time>2026-04-09T09:08:54Z</time></trkpt><trkpt lat="37.95475907683538" lon="15.123284225808291"><ele>965.2</ele><time>2026-04-09T09:08:55Z</time></trkpt><trkpt lat="37.954836516116615" lon="15.123223879808265"><ele>962.4</ele><time>2026-04-09T09:08:56Z</time></trkpt><trkpt lat="37.95490394909511" lon="15.123134931021001"><ele>959.6000000000001</ele><time>2026-04-09T09:08:57Z</time></trkpt><trkpt lat="37.95495775565157" lon="15.123028416399185"><ele>956.8000000000001</ele><time>2026-04-09T09:08:58Z</time></trkpt><trkpt lat="37.954993987811996" lon="15.122912693962673"><ele>954.0</ele><time>2026-04-09T09:08:59Z</time></trkpt><trkpt lat="37.955020817301474" lon="15.12279676959813"><ele>953.0</ele><time>2026-04-09T09:09:00Z</time></trkpt><trkpt lat="37.95504724659556" lon="15.122682232061662"><ele>952.0000000000001</ele><time>2026-04-09T09:09:01Z</time></trkpt><trkpt lat="37.95507729136846" lon="15.12257156403308"><ele>951.0000000000001</ele><time>2026-04-09T09:09:02Z</time></trkpt><trkpt lat="37.95510993470185" lon="15.122457815782072"><ele>950.0</ele><time>2026-04-09T09:09:03Z</time></trkpt><trkpt lat="37.95515505034038" lon="15.122351178450074"><ele>949.0</ele><time>2026-04-09T09:09:04Z</time></trkpt><trkpt lat="37.95521841440415" lon="15.122262023917559"><ele>949.0</ele><time>2026-04-09T09:09:05Z</time></trkpt><trkpt lat="37.955295034516205" lon="15.122192524918704"><ele>949.0000000000001</ele><time>2026-04-09T09:09:06Z</time></trkpt><trkpt lat="37.95536815095755" lon="15.12212207007158"><ele>949.0000000000001</ele><time>2026-04-09T09:09:07Z</time></trkpt><trkpt lat="37.95544289535456" lon="15.122050868328413"><ele>949.0</ele><time>2026-04-09T09:09:08Z</time></trkpt><trkpt lat="37.95551209980407" lon="15.121972014720894"><ele>949.0</ele><time>2026-04-09T09:09:09Z</time></trkpt><trkpt lat="37.95558182529965" lon="15.12189608766166"><ele>949.0</ele><time>2026-04-09T09:09:10Z</time></trkpt><trkpt lat="37.955653027697174" lon="15.121821062221471"><ele>949.0000000000001</ele><time>2026-04-09T09:09:11Z</time></trkpt><trkpt lat="37.95572860921246" lon="15.121746190328889"><ele>949.0000000000001</ele><time>2026-04-09T09:09:12Z</time></trkpt><trkpt lat="37.955805230389515" lon="15.121676499346888"><ele>949.0</ele><time>2026-04-09T09:09:13Z</time></trkpt><trkpt lat="37.95588784791238" lon="15.121619585462632"><ele>949.0</ele><time>2026-04-09T09:09:14Z</time></trkpt><trkpt lat="37.95597310823481" lon="15.121580964311535"><ele>948.0</ele><time>2026-04-09T09:09:15Z</time></trkpt><trkpt lat="37.95605759082885" lon="15.12156900397143"><ele>947.0000000000001</ele><time>2026-04-09T09:09:16Z</time></trkpt><trkpt lat="37.956206579990685" lon="15.121553156585037"><ele>946.0000000000001</ele><time>2026-04-09T09:09:18Z</time></trkpt><trkpt lat="37.956266369579616" lon="15.121524270005251"><ele>945.0</ele><time>2026-04-09T09:09:19Z</time></trkpt><trkpt lat="37.956346897542794" lon="15.121424946302632"><ele>944.0</ele><time>2026-04-09T09:09:21Z</time></trkpt><trkpt lat="37.956385686128435" lon="15.121332448591081"><ele>944.0000000000001</ele><time>2026-04-09T09:09:23Z</time></trkpt><trkpt lat="37.95646122860217" lon="15.121300347681487"><ele>944.0</ele><time>2026-04-09T09:09:26Z</time></trkpt><trkpt lat="37.956558162544994" lon="15.12136956694127"><ele>944.0</ele><time>2026-04-09T09:09:28Z</time></trkpt><trkpt lat="37.95661558124699" lon="15.121413853534872"><ele>944.0</ele><time>2026-04-09T09:09:29Z</time></trkpt><trkpt lat="37.95671692850177" lon="15.121458441018648"><ele>944.0000000000001</ele><time>2026-04-09T09:09:31Z</time></trkpt><trkpt lat="37.95679183901901" lon="15.12145618501606"><ele>944.0</ele><time>2026-04-09T09:09:34Z</time></trkpt><trkpt lat="37.95685751808715" lon="15.12142739244348"><ele>947.2</ele><time>2026-04-09T09:09:36Z</time></trkpt><trkpt lat="37.95693469972051" lon="15.121238816644512"><ele>950.4000000000001</ele><time>2026-04-09T09:09:38Z</time></trkpt><trkpt lat="37.95696679518961" lon="15.12115177979798"><ele>953.6</ele><time>2026-04-09T09:09:39Z</time></trkpt><trkpt lat="37.95700979405189" lon="15.121084964059952"><ele>956.8</ele><time>2026-04-09T09:09:40Z</time></trkpt><trkpt lat="37.957070794801915" lon="15.12105235505501"><ele>960.0</ele><time>2026-04-09T09:09:41Z</time></trkpt><trkpt lat="37.95715303346827" lon="15.121033782874731"><ele>960.0</ele><time>2026-04-09T09:09:42Z</time></trkpt><trkpt lat="37.95721008994858" lon="15.120995385858091"><ele>960.0</ele><time>2026-04-09T09:09:43Z</time></trkpt><trkpt lat="37.957245142778916" lon="15.120906697036201"><ele>960.0</ele><time>2026-04-09T09:09:44Z</time></trkpt><trkpt lat="37.95723363163158" lon="15.120785691736135"><ele>960.0</ele><time>2026-04-09T09:09:45Z</time></trkpt><trkpt lat="37.95714522486181" lon="15.12069716210114"><ele>960.0</ele><time>2026-04-09T09:09:46Z</time></trkpt><trkpt lat="37.95710540663077" lon="15.120608151248225"><ele>960.0</ele><time>2026-04-09T09:09:47Z</time></trkpt><trkpt lat="37.957086869433176" lon="15.120499598589868"><ele>962.6</ele><time>2026-04-09T09:09:48Z</time></trkpt><trkpt lat="37.95704312148797" lon="15.12039663566746"><ele>965.2</ele><time>2026-04-09T09:09:49Z</time></trkpt><trkpt lat="37.95696355764215" lon="15.120305808266888"><ele>967.8</ele><time>2026-04-09T09:09:50Z</time></trkpt><trkpt lat="37.9568678019529" lon="15.120261545761934"><ele>970.4</ele><time>2026-04-09T09:09:51Z</time></trkpt><trkpt lat="37.95680987425571" lon="15.120193058789845"><ele>973.0</ele><time>2026-04-09T09:09:52Z</time></trkpt><trkpt lat="37.95680803298053" lon="15.12009588831052"><ele>972.9999999999999</ele><time>2026-04-09T09:09:53Z</time></trkpt><trkpt lat="37.95677559494485" lon="15.119997781773463"><ele>973.0</ele><time>2026-04-09T09:09:54Z</time></trkpt><trkpt lat="37.95674358360477" lon="15.119915178225849"><ele>973.0</ele><time>2026-04-09T09:09:55Z</time></trkpt><trkpt lat="37.95667322538228" lon="15.119860054339634"><ele>973.0</ele><time>2026-04-09T09:09:56Z</time></trkpt><trkpt lat="37.95657440081824" lon="15.119827711014857"><ele>972.9999999999999</ele><time>2026-04-09T09:09:57Z</time></trkpt><trkpt lat="37.95648863628144" lon="15.119797411523376"><ele>973.0</ele><time>2026-04-09T09:09:58Z</time></trkpt><trkpt lat="37.956395364002766" lon="15.119754655206473"><ele>972.0</ele><time>2026-04-09T09:09:59Z</time></trkpt><trkpt lat="37.95631966294807" lon="15.119682428721285"><ele>971.0</ele><time>2026-04-09T09:10:00Z</time></trkpt><trkpt lat="37.95626705454832" lon="15.119596829436786"><ele>970.0</ele><time>2026-04-09T09:10:01Z</time></trkpt><trkpt lat="37.956273464824775" lon="15.1194551698484"><ele>969.0</ele><time>2026-04-09T09:10:03Z</time></trkpt><trkpt lat="37.956315953952114" lon="15.119367100493966"><ele>968.0</ele><time>2026-04-09T09:10:04Z</time></trkpt><trkpt lat="37.9563723458208" lon="15.119234197532627"><ele>968.0</ele><time>2026-04-09T09:10:05Z</time></trkpt><trkpt lat="37.95643356758476" lon="15.11910066777105"><ele>968.0</ele><time>2026-04-09T09:10:06Z</time></trkpt><trkpt lat="37.95650006729703" lon="15.118965122661203"><ele>968.0</ele><time>2026-04-09T09:10:07Z</time></trkpt><trkpt lat="37.95655872202855" lon="15.1188474812576"><ele>968.0</ele><time>2026-04-09T09:10:08Z</time></trkpt><trkpt lat="37.956612059187904" lon="15.118753356884508"><ele>968.0</ele><time>2026-04-09T09:10:09Z</time></trkpt><trkpt lat="37.956674473015205" lon="15.118686280495586"><ele>971.2</ele><time>2026-04-09T09:10:10Z</time></trkpt><trkpt lat="37.95675676200436" lon="15.118638066999882"><ele>974.4</ele><time>2026-04-09T09:10:11Z</time></trkpt><trkpt lat="37.95682127941747" lon="15.118548484073026"><ele>977.6000000000001</ele><time>2026-04-09T09:10:12Z</time></trkpt><trkpt lat="37.956880700903504" lon="15.118460619062562"><ele>980.8000000000001</ele><time>2026-04-09T09:10:13Z</time></trkpt><trkpt lat="37.95694038838945" lon="15.118370696170482"><ele>984.0</ele><time>2026-04-09T09:10:14Z</time></trkpt><trkpt lat="37.956968954651124" lon="15.118267932282002"><ele>983.8333333333334</ele><time>2026-04-09T09:10:15Z</time></trkpt><trkpt lat="37.95699884147589" lon="15.118192099335774"><ele>983.6666666666667</ele><time>2026-04-09T09:10:16Z</time></trkpt><trkpt lat="37.95706152851784" lon="15.118096415355618"><ele>983.5</ele><time>2026-04-09T09:10:18Z</time></trkpt><trkpt lat="37.95709663334024" lon="15.118020492154253"><ele>983.3333333333334</ele><time>2026-04-09T09:10:20Z</time></trkpt><trkpt lat="37.95716273757565" lon="15.117933622223543"><ele>983.1666666666667</ele><time>2026-04-09T09:11:11Z</time></trkpt><trkpt lat="37.95719043294074" lon="15.117804477599096"><ele>983.0</ele><time>2026-04-09T09:11:13Z</time></trkpt><trkpt lat="37.957185852173296" lon="15.117696830085807"><ele>983.0000000000001</ele><time>2026-04-09T09:11:15Z</time></trkpt><trkpt lat="37.95713640825729" lon="15.117623480892423"><ele>983.0</ele><time>2026-04-09T09:14:18Z</time></trkpt><trkpt lat="37.95712042432936" lon="15.117701516002493"><ele>983.0</ele><time>2026-04-09T09:28:57.001Z</time></trkpt><trkpt lat="37.95717874950178" lon="15.117664168317848"><ele>983.0</ele><time>2026-04-09T09:40:55.999Z</time></trkpt><trkpt lat="37.957213662427236" lon="15.117769736768796"><ele>983.0000000000001</ele><time>2026-04-09T09:41:02.999Z</time></trkpt><trkpt lat="37.957183242797306" lon="15.117896173344043"><ele>983.0</ele><time>2026-04-09T09:41:04.999Z</time></trkpt><trkpt lat="37.95714001091432" lon="15.117982972887784"><ele>983.0</ele><time>2026-04-09T09:41:07.999Z</time></trkpt><trkpt lat="37.95711551019513" lon="15.117873307840124"><ele>983.0</ele><time>2026-04-09T09:41:10.999Z</time></trkpt><trkpt lat="37.95710934727737" lon="15.117656493980265"><ele>983.0</ele><time>2026-04-09T09:41:12.999Z</time></trkpt><trkpt lat="37.957096952912856" lon="15.11749982563534"><ele>983.0</ele><time>2026-04-09T09:41:13.999Z</time></trkpt><trkpt lat="37.957091211541666" lon="15.117340186483972"><ele>982.4</ele><time>2026-04-09T09:41:14.999Z</time></trkpt><trkpt lat="37.957081517585976" lon="15.117209052441961"><ele>981.8</ele><time>2026-04-09T09:41:15.999Z</time></trkpt><trkpt lat="37.957059148376516" lon="15.117099106972615"><ele>981.2</ele><time>2026-04-09T09:41:16.999Z</time></trkpt><trkpt lat="37.957028570314094" lon="15.117001750446683"><ele>980.6</ele><time>2026-04-09T09:41:17.999Z</time></trkpt><trkpt lat="37.95700352079804" lon="15.11689971383265"><ele>980.0</ele><time>2026-04-09T09:41:18.999Z</time></trkpt><trkpt lat="37.956997289142905" lon="15.116785367748403"><ele>980.0</ele><time>2026-04-09T09:41:20Z</time></trkpt><trkpt lat="37.95701205344665" lon="15.116681611596523"><ele>980.0</ele><time>2026-04-09T09:41:21Z</time></trkpt><trkpt lat="37.957054830137345" lon="15.116470514032812"><ele>980.0</ele><time>2026-04-09T09:41:23Z</time></trkpt><trkpt lat="37.95705925347099" lon="15.1163833782878"><ele>980.0</ele><time>2026-04-09T09:41:24Z</time></trkpt><trkpt lat="37.95701873141949" lon="15.116242007374805"><ele>980.0</ele><time>2026-04-09T09:41:26Z</time></trkpt><trkpt lat="37.9570112038139" lon="15.116162408573782"><ele>978.5000000000001</ele><time>2026-04-09T09:41:27Z</time></trkpt><trkpt lat="37.95696727643438" lon="15.116094489567242"><ele>977.0</ele><time>2026-04-09T09:41:28Z</time></trkpt><trkpt lat="37.95692525372925" lon="15.116031251930028"><ele>975.5</ele><time>2026-04-09T09:41:29Z</time></trkpt><trkpt lat="37.956842899366976" lon="15.115917399257906"><ele>974.0</ele><time>2026-04-09T09:41:31Z</time></trkpt><trkpt lat="37.95679587351906" lon="15.115856501049306"><ele>972.5000000000001</ele><time>2026-04-09T09:41:32Z</time></trkpt><trkpt lat="37.95673277061599" lon="15.1157468184037"><ele>971.0</ele><time>2026-04-09T09:41:34Z</time></trkpt><trkpt lat="37.956685267382404" lon="15.11562120649593"><ele>969.1666666666667</ele><time>2026-04-09T09:41:36Z</time></trkpt><trkpt lat="37.95665593768459" lon="15.115538417697822"><ele>967.3333333333334</ele><time>2026-04-09T09:41:38Z</time></trkpt><trkpt lat="37.95662974084107" lon="15.115464471996694"><ele>965.5</ele><time>2026-04-09T09:41:40Z</time></trkpt><trkpt lat="37.95659268656794" lon="15.115387381375337"><ele>963.6666666666667</ele><time>2026-04-09T09:41:42Z</time></trkpt><trkpt lat="37.95656215668489" lon="15.115299897923625"><ele>961.8333333333334</ele><time>2026-04-09T09:41:45Z</time></trkpt><trkpt lat="37.95661482523295" lon="15.115422369471302"><ele>960.0</ele><time>2026-04-09T09:42:07Z</time></trkpt><trkpt lat="37.95666842699527" lon="15.115573671472635"><ele>960.0</ele><time>2026-04-09T09:42:09Z</time></trkpt><trkpt lat="37.956699439273" lon="15.115661210250348"><ele>960.0</ele><time>2026-04-09T09:42:10Z</time></trkpt><trkpt lat="37.956729760733964" lon="15.115746799383823"><ele>960.0</ele><time>2026-04-09T09:42:11Z</time></trkpt><trkpt lat="37.95680020401157" lon="15.115890370118466"><ele>960.0</ele><time>2026-04-09T09:42:13Z</time></trkpt><trkpt lat="37.95688134376101" lon="15.115994833934433"><ele>960.0</ele><time>2026-04-09T09:42:15Z</time></trkpt><trkpt lat="37.95695798738258" lon="15.116076344630596"><ele>958.5</ele><time>2026-04-09T09:42:17Z</time></trkpt><trkpt lat="37.95701691563026" lon="15.11615751701622"><ele>957.0</ele><time>2026-04-09T09:42:19Z</time></trkpt><trkpt lat="37.95696997050715" lon="15.116051763770496"><ele>955.5</ele><time>2026-04-09T09:42:25Z</time></trkpt><trkpt lat="37.95692163174317" lon="15.115975148063203"><ele>954.0</ele><time>2026-04-09T09:42:28Z</time></trkpt><trkpt lat="37.95709283281914" lon="15.115715455077792"><ele>954.0</ele><time>2026-04-09T09:42:30Z</time></trkpt><trkpt lat="37.9571282179504" lon="15.115634673954574"><ele>954.0</ele><time>2026-04-09T09:42:32Z</time></trkpt><trkpt lat="37.95721040150996" lon="15.11555395983447"><ele>954.0</ele><time>2026-04-09T09:42:34Z</time></trkpt><trkpt lat="37.95726884778161" lon="15.115515413278583"><ele>954.0</ele><time>2026-04-09T09:42:35Z</time></trkpt><trkpt lat="37.957335870916815" lon="15.115490039494215"><ele>954.0</ele><time>2026-04-09T09:42:36Z</time></trkpt><trkpt lat="37.957455188949005" lon="15.11546483240921"><ele>954.0</ele><time>2026-04-09T09:42:38Z</time></trkpt><trkpt lat="37.957591667887" lon="15.115469155667746"><ele>953.8333333333334</ele><time>2026-04-09T09:42:40Z</time></trkpt><trkpt lat="37.95768031006588" lon="15.115481699450221"><ele>953.6666666666667</ele><time>2026-04-09T09:42:41Z</time></trkpt><trkpt lat="37.95776270953044" lon="15.115491933363575"><ele>953.5</ele><time>2026-04-09T09:42:42Z</time></trkpt><trkpt lat="37.95785381877092" lon="15.115482244406412"><ele>953.3333333333334</ele><time>2026-04-09T09:42:43Z</time></trkpt><trkpt lat="37.95793286894926" lon="15.115457404778681"><ele>953.1666666666667</ele><time>2026-04-09T09:42:44Z</time></trkpt><trkpt lat="37.95799214332886" lon="15.115424344170034"><ele>953.0</ele><time>2026-04-09T09:42:45Z</time></trkpt><trkpt lat="37.95804317121159" lon="15.115362609199819"><ele>953.0000000000001</ele><time>2026-04-09T09:43:00.999Z</time></trkpt><trkpt lat="37.95809488317307" lon="15.115313354474704"><ele>953.0</ele><time>2026-04-09T09:43:03.999Z</time></trkpt><trkpt lat="37.958156286068935" lon="15.115243422431096"><ele>953.0</ele><time>2026-04-09T09:43:05.999Z</time></trkpt><trkpt lat="37.95824553414234" lon="15.115171017761005"><ele>953.0</ele><time>2026-04-09T09:43:07.999Z</time></trkpt><trkpt lat="37.958342092421375" lon="15.115153544102094"><ele>953.0000000000001</ele><time>2026-04-09T09:43:09.999Z</time></trkpt><trkpt lat="37.958413156036514" lon="15.115240297519412"><ele>953.0</ele><time>2026-04-09T09:43:11.999Z</time></trkpt><trkpt lat="37.95844123981084" lon="15.115341295932721"><ele>947.5999999999999</ele><time>2026-04-09T09:43:15.999Z</time></trkpt><trkpt lat="37.958505649033086" lon="15.115403014711568"><ele>942.1999999999999</ele><time>2026-04-09T09:43:18.999Z</time></trkpt><trkpt lat="37.95858255359177" lon="15.11541472137405"><ele>936.8</ele><time>2026-04-09T09:43:20.999Z</time></trkpt><trkpt lat="37.95869503320122" lon="15.115474027753958"><ele>931.4</ele><time>2026-04-09T09:43:22.999Z</time></trkpt><trkpt lat="37.95876373960816" lon="15.11555683346171"><ele>926.0</ele><time>2026-04-09T09:43:24.999Z</time></trkpt><trkpt lat="37.9588066306912" lon="15.115636425937705"><ele>929.5000000000001</ele><time>2026-04-09T09:43:27Z</time></trkpt><trkpt lat="37.9588486442925" lon="15.115752656892694"><ele>933.0</ele><time>2026-04-09T09:43:29Z</time></trkpt><trkpt lat="37.958894623558706" lon="15.115846533844637"><ele>936.5</ele><time>2026-04-09T09:43:31Z</time></trkpt><trkpt lat="37.9589522260833" lon="15.115919628694462"><ele>940.0</ele><time>2026-04-09T09:43:33Z</time></trkpt><trkpt lat="37.959022386969636" lon="15.115963019818553"><ele>943.5000000000001</ele><time>2026-04-09T09:43:44Z</time></trkpt><trkpt lat="37.95909671141427" lon="15.115991759028432"><ele>947.0</ele><time>2026-04-09T09:43:46Z</time></trkpt><trkpt lat="37.95917042236813" lon="15.116004178003966"><ele>942.0</ele><time>2026-04-09T09:43:49Z</time></trkpt><trkpt lat="37.95923584414172" lon="15.11605738257867"><ele>937.0</ele><time>2026-04-09T09:43:51Z</time></trkpt><trkpt lat="37.95930656711987" lon="15.116135810959511"><ele>932.0</ele><time>2026-04-09T09:43:54Z</time></trkpt><trkpt lat="37.95941223137559" lon="15.116185084256864"><ele>927.0</ele><time>2026-04-09T09:43:56Z</time></trkpt><trkpt lat="37.95952561931273" lon="15.116203025049527"><ele>922.0</ele><time>2026-04-09T09:43:58Z</time></trkpt><trkpt lat="37.959604574878895" lon="15.11628657406669"><ele>921.9999999999999</ele><time>2026-04-09T09:44:00Z</time></trkpt><trkpt lat="37.959655573568654" lon="15.11636609706581"><ele>922.0</ele><time>2026-04-09T09:44:02Z</time></trkpt><trkpt lat="37.95973372968283" lon="15.116379199679523"><ele>922.0</ele><time>2026-04-09T09:44:04Z</time></trkpt><trkpt lat="37.959808840150174" lon="15.116387427357665"><ele>922.0</ele><time>2026-04-09T09:44:05Z</time></trkpt><trkpt lat="37.95987449119318" lon="15.116385400096165"><ele>921.9999999999999</ele><time>2026-04-09T09:44:06Z</time></trkpt><trkpt lat="37.960002858121676" lon="15.11637838665703"><ele>922.0</ele><time>2026-04-09T09:44:08Z</time></trkpt><trkpt lat="37.96010908172532" lon="15.116401579718888"><ele>920.3333333333333</ele><time>2026-04-09T09:44:10Z</time></trkpt><trkpt lat="37.960211547905836" lon="15.116456919623527"><ele>918.6666666666666</ele><time>2026-04-09T09:44:12Z</time></trkpt><trkpt lat="37.96028220368223" lon="15.116441053903925"><ele>917.0</ele><time>2026-04-09T09:44:14Z</time></trkpt><trkpt lat="37.96027541704927" lon="15.116353217226584"><ele>915.3333333333333</ele><time>2026-04-09T09:44:16Z</time></trkpt><trkpt lat="37.96019451789172" lon="15.116282606905195"><ele>913.6666666666666</ele><time>2026-04-09T09:44:18Z</time></trkpt><trkpt lat="37.960130607448285" lon="15.116249682194976"><ele>912.0</ele><time>2026-04-09T09:44:20Z</time></trkpt><trkpt lat="37.96007175819098" lon="15.116182101013841"><ele>913.6666666666666</ele><time>2026-04-09T09:44:23Z</time></trkpt><trkpt lat="37.96001426301303" lon="15.116114818638994"><ele>915.3333333333333</ele><time>2026-04-09T09:44:25Z</time></trkpt><trkpt lat="37.959945261414695" lon="15.116045411436899"><ele>917.0</ele><time>2026-04-09T09:44:27Z</time></trkpt><trkpt lat="37.95990445687613" lon="15.115975029376438"><ele>918.6666666666666</ele><time>2026-04-09T09:44:29Z</time></trkpt><trkpt lat="37.95985886317992" lon="15.115886814326025"><ele>920.3333333333333</ele><time>2026-04-09T09:44:32Z</time></trkpt><trkpt lat="37.959804286965905" lon="15.115757462263778"><ele>922.0</ele><time>2026-04-09T09:44:34Z</time></trkpt><trkpt lat="37.959721904854256" lon="15.115651177927655"><ele>917.4000000000001</ele><time>2026-04-09T09:44:36Z</time></trkpt><trkpt lat="37.95963785842171" lon="15.115571557017937"><ele>912.8000000000001</ele><time>2026-04-09T09:44:38Z</time></trkpt><trkpt lat="37.959560972493485" lon="15.115491454784921"><ele>908.2</ele><time>2026-04-09T09:44:40Z</time></trkpt><trkpt lat="37.95952443136355" lon="15.115367566255188"><ele>903.6</ele><time>2026-04-09T09:44:42Z</time></trkpt><trkpt lat="37.959480374720485" lon="15.115237874386418"><ele>899.0</ele><time>2026-04-09T09:44:44Z</time></trkpt><trkpt lat="37.95943551750075" lon="15.115118503283"><ele>899.0000000000001</ele><time>2026-04-09T09:44:46Z</time></trkpt><trkpt lat="37.95939823105606" lon="15.114999607069667"><ele>899.0</ele><time>2026-04-09T09:44:48Z</time></trkpt><trkpt lat="37.95934283992408" lon="15.114950720129837"><ele>899.0</ele><time>2026-04-09T09:44:50Z</time></trkpt><trkpt lat="37.95928273360069" lon="15.114925363761056"><ele>899.0</ele><time>2026-04-09T09:44:53Z</time></trkpt><trkpt lat="37.95921237912635" lon="15.1148893929325"><ele>899.0000000000001</ele><time>2026-04-09T09:44:56Z</time></trkpt><trkpt lat="37.95915091061021" lon="15.11481121226015"><ele>899.0</ele><time>2026-04-09T09:44:58Z</time></trkpt><trkpt lat="37.95913240373086" lon="15.114707345963026"><ele>900.3333333333334</ele><time>2026-04-09T09:45:00Z</time></trkpt><trkpt lat="37.959107768917015" lon="15.114623098616617"><ele>901.6666666666667</ele><time>2026-04-09T09:45:02Z</time></trkpt><trkpt lat="37.95906182876487" lon="15.11454927714301"><ele>903.0</ele><time>2026-04-09T09:45:04Z</time></trkpt><trkpt lat="37.959078093924106" lon="15.114445490172432"><ele>904.3333333333333</ele><time>2026-04-09T09:45:07Z</time></trkpt><trkpt lat="37.95916484372923" lon="15.114524429120786"><ele>905.6666666666666</ele><time>2026-04-09T09:45:10Z</time></trkpt><trkpt lat="37.9592370148138" lon="15.114595987397857"><ele>907.0</ele><time>2026-04-09T09:45:12Z</time></trkpt><trkpt lat="37.959333570816895" lon="15.11463434629976"><ele>905.6666666666666</ele><time>2026-04-09T09:45:13.999Z</time></trkpt><trkpt lat="37.95942724839824" lon="15.114626781791722"><ele>904.3333333333333</ele><time>2026-04-09T09:45:15.999Z</time></trkpt><trkpt lat="37.95947674461526" lon="15.114732315044781"><ele>903.0</ele><time>2026-04-09T09:45:18.999Z</time></trkpt><trkpt lat="37.95949856754713" lon="15.114819178293741"><ele>901.6666666666667</ele><time>2026-04-09T09:45:20.999Z</time></trkpt><trkpt lat="37.959527419507836" lon="15.114913059510634"><ele>900.3333333333334</ele><time>2026-04-09T09:45:22.999Z</time></trkpt><trkpt lat="37.95958625902343" lon="15.114978142246203"><ele>899.0</ele><time>2026-04-09T09:45:24.999Z</time></trkpt><trkpt lat="37.959609433922466" lon="15.115064899985702"><ele>899.0000000000001</ele><time>2026-04-09T09:45:28.999Z</time></trkpt><trkpt lat="37.9596526608433" lon="15.115150990800348"><ele>899.0</ele><time>2026-04-09T09:45:31Z</time></trkpt><trkpt lat="37.95971108609003" lon="15.115238055702433"><ele>899.0</ele><time>2026-04-09T09:45:33Z</time></trkpt><trkpt lat="37.95980440252973" lon="15.115307506160265"><ele>899.0</ele><time>2026-04-09T09:45:35Z</time></trkpt><trkpt lat="37.95989530499307" lon="15.115367248198655"><ele>899.0000000000001</ele><time>2026-04-09T09:45:37Z</time></trkpt><trkpt lat="37.959956970657245" lon="15.115389430237931"><ele>899.0</ele><time>2026-04-09T09:45:39Z</time></trkpt><trkpt lat="37.96004813540346" lon="15.115490658950794"><ele>899.0</ele><time>2026-04-09T09:45:42Z</time></trkpt><trkpt lat="37.960104099929715" lon="15.11554978052731"><ele>899.0000000000001</ele><time>2026-04-09T09:45:43Z</time></trkpt><trkpt lat="37.96023075727963" lon="15.115621767209706"><ele>899.0000000000001</ele><time>2026-04-09T09:45:45Z</time></trkpt><trkpt lat="37.96030466957405" lon="15.115655483093477"><ele>899.0</ele><time>2026-04-09T09:45:46Z</time></trkpt><trkpt lat="37.96037140433516" lon="15.115748373015734"><ele>899.0</ele><time>2026-04-09T09:45:48Z</time></trkpt><trkpt lat="37.96046986687158" lon="15.115847616064721"><ele>901.6</ele><time>2026-04-09T09:45:50Z</time></trkpt><trkpt lat="37.96053003451804" lon="15.115895701341518"><ele>904.2</ele><time>2026-04-09T09:45:51Z</time></trkpt><trkpt lat="37.960614446619616" lon="15.115990039576673"><ele>906.8000000000001</ele><time>2026-04-09T09:45:53Z</time></trkpt><trkpt lat="37.96063690901025" lon="15.116070383150888"><ele>909.4000000000001</ele><time>2026-04-09T09:45:55Z</time></trkpt><trkpt lat="37.96057931809877" lon="15.115962490433152"><ele>912.0</ele><time>2026-04-09T09:57:08Z</time></trkpt><trkpt lat="37.96049653251899" lon="15.115858651738261"><ele>912.0</ele><time>2026-04-09T09:57:10Z</time></trkpt><trkpt lat="37.960432532110524" lon="15.115794848439187"><ele>912.0</ele><time>2026-04-09T09:57:12Z</time></trkpt><trkpt lat="37.960366563012215" lon="15.11571838247844"><ele>912.0</ele><time>2026-04-09T09:57:14Z</time></trkpt><trkpt lat="37.960268757278946" lon="15.115648536047818"><ele>912.0</ele><time>2026-04-09T09:57:16Z</time></trkpt><trkpt lat="37.960159106659475" lon="15.115606771007295"><ele>912.0</ele><time>2026-04-09T09:57:18Z</time></trkpt><trkpt lat="37.96006619053693" lon="15.11554579736482"><ele>909.8333333333334</ele><time>2026-04-09T09:57:19.999Z</time></trkpt><trkpt lat="37.96001402875475" lon="15.1154425274519"><ele>907.6666666666667</ele><time>2026-04-09T09:57:21.999Z</time></trkpt><trkpt lat="37.959940479806335" lon="15.115384255945822"><ele>905.5</ele><time>2026-04-09T09:57:23.999Z</time></trkpt><trkpt lat="37.95984046082273" lon="15.115331539906972"><ele>903.3333333333334</ele><time>2026-04-09T09:57:26.999Z</time></trkpt><trkpt lat="37.95977767774001" lon="15.115282610621163"><ele>901.1666666666667</ele><time>2026-04-09T09:57:27.999Z</time></trkpt><trkpt lat="37.959712145454134" lon="15.115229183103475"><ele>899.0</ele><time>2026-04-09T09:57:28.999Z</time></trkpt><trkpt lat="37.95963267097906" lon="15.115110127627633"><ele>899.0000000000001</ele><time>2026-04-09T09:57:30.999Z</time></trkpt><trkpt lat="37.95961235281431" lon="15.115031971142121"><ele>899.0</ele><time>2026-04-09T09:57:31.999Z</time></trkpt><trkpt lat="37.95957597235397" lon="15.114929198838794"><ele>899.0</ele><time>2026-04-09T09:57:33.999Z</time></trkpt><trkpt lat="37.959533318571886" lon="15.114870311813725"><ele>899.0</ele><time>2026-04-09T09:57:35.999Z</time></trkpt><trkpt lat="37.959497607307824" lon="15.1147998110417"><ele>899.0000000000001</ele><time>2026-04-09T09:57:37.999Z</time></trkpt><trkpt lat="37.959464099414014" lon="15.114696290802947"><ele>899.0</ele><time>2026-04-09T09:57:40.999Z</time></trkpt><trkpt lat="37.95938509573447" lon="15.114618292434779"><ele>900.3333333333334</ele><time>2026-04-09T09:57:43.999Z</time></trkpt><trkpt lat="37.9592932697088" lon="15.11461118949573"><ele>901.6666666666667</ele><time>2026-04-09T09:57:45.999Z</time></trkpt><trkpt lat="37.959196913019575" lon="15.114568961286773"><ele>903.0</ele><time>2026-04-09T09:57:47.999Z</time></trkpt><trkpt lat="37.95912277239425" lon="15.114476858776102"><ele>904.3333333333333</ele><time>2026-04-09T09:57:49.999Z</time></trkpt><trkpt lat="37.95904621699623" lon="15.114473167500277"><ele>905.6666666666666</ele><time>2026-04-09T09:57:51.999Z</time></trkpt><trkpt lat="37.95905141003915" lon="15.114557133984848"><ele>907.0</ele><time>2026-04-09T09:57:53.999Z</time></trkpt><trkpt lat="37.95911787352463" lon="15.114663396184739"><ele>906.9999999999999</ele><time>2026-04-09T09:57:55.999Z</time></trkpt><trkpt lat="37.959153280516006" lon="15.114806297229457"><ele>907.0</ele><time>2026-04-09T09:57:57.999Z</time></trkpt><trkpt lat="37.959177928459866" lon="15.11488463302286"><ele>907.0</ele><time>2026-04-09T09:57:58.999Z</time></trkpt><trkpt lat="37.95926156709164" lon="15.114922555939867"><ele>907.0</ele><time>2026-04-09T09:58:00.999Z</time></trkpt><trkpt lat="37.959322599749335" lon="15.114946040512173"><ele>906.9999999999999</ele><time>2026-04-09T09:58:03.999Z</time></trkpt><trkpt lat="37.959395638162334" lon="15.115005404825338"><ele>907.0</ele><time>2026-04-09T09:58:07Z</time></trkpt><trkpt lat="37.95943908348204" lon="15.115109515687848"><ele>905.857142857143</ele><time>2026-04-09T09:58:09Z</time></trkpt><trkpt lat="37.9594585382548" lon="15.115188685496774"><ele>904.7142857142858</ele><time>2026-04-09T09:58:10Z</time></trkpt><trkpt lat="37.95948076814041" lon="15.115268476760686"><ele>903.5714285714286</ele><time>2026-04-09T09:58:11Z</time></trkpt><trkpt lat="37.95951139093319" lon="15.115352704478502"><ele>902.4285714285714</ele><time>2026-04-09T09:58:12Z</time></trkpt><trkpt lat="37.95955390034704" lon="15.115445804755025"><ele>901.2857142857142</ele><time>2026-04-09T09:58:13Z</time></trkpt><trkpt lat="37.95958898737774" lon="15.115512986601862"><ele>900.142857142857</ele><time>2026-04-09T09:58:14Z</time></trkpt><trkpt lat="37.95963932895452" lon="15.115578259975118"><ele>898.9999999999999</ele><time>2026-04-09T09:58:16Z</time></trkpt><trkpt lat="37.959708597938736" lon="15.115636173134359"><ele>899.0000000000001</ele><time>2026-04-09T09:58:18Z</time></trkpt><trkpt lat="37.959770221904" lon="15.11571672992661"><ele>899.0</ele><time>2026-04-09T09:58:20Z</time></trkpt><trkpt lat="37.959824056088436" lon="15.115826262614497"><ele>899.0</ele><time>2026-04-09T09:58:22Z</time></trkpt><trkpt lat="37.95985796788322" lon="15.115899380239313"><ele>899.0</ele><time>2026-04-09T09:58:23Z</time></trkpt><trkpt lat="37.959893264510924" lon="15.1160075139776"><ele>899.0000000000001</ele><time>2026-04-09T09:58:25Z</time></trkpt><trkpt lat="37.959962639539064" lon="15.116068359691127"><ele>899.0</ele><time>2026-04-09T09:58:29Z</time></trkpt><trkpt lat="37.960044289789174" lon="15.116150485082768"><ele>901.1666666666667</ele><time>2026-04-09T09:58:31Z</time></trkpt><trkpt lat="37.96010800392082" lon="15.116238098012964"><ele>903.3333333333334</ele><time>2026-04-09T09:58:33Z</time></trkpt><trkpt lat="37.960173645070746" lon="15.1163056160436"><ele>905.5</ele><time>2026-04-09T09:58:39Z</time></trkpt><trkpt lat="37.960236301976515" lon="15.116350685005278"><ele>907.6666666666667</ele><time>2026-04-09T09:58:42Z</time></trkpt><trkpt lat="37.96026912285751" lon="15.116424605692158"><ele>909.8333333333334</ele><time>2026-04-09T09:58:44Z</time></trkpt><trkpt lat="37.96021158287672" lon="15.116475056015052"><ele>912.0</ele><time>2026-04-09T09:58:46Z</time></trkpt><trkpt lat="37.960101758185026" lon="15.116442561725128"><ele>912.0</ele><time>2026-04-09T09:58:48Z</time></trkpt><trkpt lat="37.960045581235775" lon="15.116397858276068"><ele>912.0</ele><time>2026-04-09T09:58:49Z</time></trkpt><trkpt lat="37.95994062722846" lon="15.116383994254939"><ele>912.0</ele><time>2026-04-09T09:58:51Z</time></trkpt><trkpt lat="37.95985231038663" lon="15.116396299249592"><ele>912.0</ele><time>2026-04-09T09:58:52Z</time></trkpt><trkpt lat="37.95974561777588" lon="15.116401070275975"><ele>912.0</ele><time>2026-04-09T09:58:53Z</time></trkpt><trkpt lat="37.959675997199746" lon="15.116390732872642"><ele>912.0</ele><time>2026-04-09T09:58:54Z</time></trkpt><trkpt lat="37.95959497757879" lon="15.116332336494178"><ele>913.4285714285713</ele><time>2026-04-09T09:58:56Z</time></trkpt><trkpt lat="37.95955424165263" lon="15.116261504170994"><ele>914.8571428571428</ele><time>2026-04-09T09:58:58Z</time></trkpt><trkpt lat="37.959497794936816" lon="15.116201390714137"><ele>916.2857142857142</ele><time>2026-04-09T09:58:59Z</time></trkpt><trkpt lat="37.959437857684286" lon="15.11617154316983"><ele>917.7142857142858</ele><time>2026-04-09T09:59:00Z</time></trkpt><trkpt lat="37.95936791142984" lon="15.11617406520154"><ele>919.1428571428572</ele><time>2026-04-09T09:59:01Z</time></trkpt><trkpt lat="37.95928761623685" lon="15.11615555042249"><ele>920.5714285714287</ele><time>2026-04-09T09:59:02Z</time></trkpt><trkpt lat="37.95923515549294" lon="15.116106427871973"><ele>922.0</ele><time>2026-04-09T09:59:03Z</time></trkpt><trkpt lat="37.959159908940485" lon="15.116000366188118"><ele>922.6666666666666</ele><time>2026-04-09T09:59:05Z</time></trkpt><trkpt lat="37.959049103944416" lon="15.115975433613622"><ele>923.3333333333333</ele><time>2026-04-09T09:59:07Z</time></trkpt><trkpt lat="37.95897780016043" lon="15.11595385833471"><ele>924.0</ele><time>2026-04-09T09:59:08Z</time></trkpt><trkpt lat="37.95891970298113" lon="15.115906944887387"><ele>924.6666666666667</ele><time>2026-04-09T09:59:09Z</time></trkpt><trkpt lat="37.9588756942562" lon="15.115833054038765"><ele>925.3333333333334</ele><time>2026-04-09T09:59:10Z</time></trkpt><trkpt lat="37.95883475910035" lon="15.115721704483889"><ele>926.0</ele><time>2026-04-09T09:59:11Z</time></trkpt><trkpt lat="37.95881058670755" lon="15.115639320167741"><ele>926.0</ele><time>2026-04-09T09:59:12Z</time></trkpt><trkpt lat="37.95874628812269" lon="15.115526241474019"><ele>926.0</ele><time>2026-04-09T09:59:14Z</time></trkpt><trkpt lat="37.95863940343194" lon="15.115436644539322"><ele>926.0</ele><time>2026-04-09T09:59:16Z</time></trkpt><trkpt lat="37.95852706784046" lon="15.115404938193299"><ele>926.0</ele><time>2026-04-09T09:59:18Z</time></trkpt><trkpt lat="37.95843649341443" lon="15.115359049156556"><ele>926.0</ele><time>2026-04-09T09:59:19.999Z</time></trkpt><trkpt lat="37.958400296768176" lon="15.115235925353618"><ele>925.9999999999999</ele><time>2026-04-09T09:59:21.999Z</time></trkpt><trkpt lat="37.9583395586624" lon="15.115159477496194"><ele>925.9999999999999</ele><time>2026-04-09T09:59:23.999Z</time></trkpt><trkpt lat="37.95824901705638" lon="15.11516675506722"><ele>926.0</ele><time>2026-04-09T09:59:25.999Z</time></trkpt><trkpt lat="37.95814397763947" lon="15.115245944189338"><ele>926.0</ele><time>2026-04-09T09:59:27.999Z</time></trkpt><trkpt lat="37.95809400714763" lon="15.115301152782363"><ele>930.5000000000001</ele><time>2026-04-09T09:59:28.999Z</time></trkpt><trkpt lat="37.95804681637147" lon="15.11535681597694"><ele>935.0</ele><time>2026-04-09T09:59:29.999Z</time></trkpt><trkpt lat="37.95794450496634" lon="15.115444970717519"><ele>939.5</ele><time>2026-04-09T09:59:31.999Z</time></trkpt><trkpt lat="37.95788059184988" lon="15.115463913680644"><ele>944.0</ele><time>2026-04-09T09:59:32.999Z</time></trkpt><trkpt lat="37.95781340747132" lon="15.115481584403458"><ele>948.5000000000001</ele><time>2026-04-09T09:59:33.999Z</time></trkpt><trkpt lat="37.95774400437137" lon="15.115494673878224"><ele>953.0</ele><time>2026-04-09T09:59:34.999Z</time></trkpt><trkpt lat="37.95766777701235" lon="15.115489799320805"><ele>953.0</ele><time>2026-04-09T09:59:35.999Z</time></trkpt><trkpt lat="37.95759536328124" lon="15.115470124535808"><ele>953.0</ele><time>2026-04-09T09:59:36.999Z</time></trkpt><trkpt lat="37.95751551826681" lon="15.115462353954499"><ele>953.0</ele><time>2026-04-09T09:59:37.999Z</time></trkpt><trkpt lat="37.95744540101765" lon="15.11546959820988"><ele>953.0</ele><time>2026-04-09T09:59:38.999Z</time></trkpt><trkpt lat="37.95738215829349" lon="15.115477233367272"><ele>953.0</ele><time>2026-04-09T09:59:39.999Z</time></trkpt><trkpt lat="37.95731486978517" lon="15.115499720534787"><ele>953.0</ele><time>2026-04-09T09:59:40.999Z</time></trkpt><trkpt lat="37.95725516150861" lon="15.115530967798495"><ele>953.0</ele><time>2026-04-09T09:59:41.999Z</time></trkpt><trkpt lat="37.957144065310366" lon="15.115610035281177"><ele>956.0000000000001</ele><time>2026-04-09T09:59:43.999Z</time></trkpt><trkpt lat="37.95707545510593" lon="15.115740829852921"><ele>959.0</ele><time>2026-04-09T09:59:45.999Z</time></trkpt><trkpt lat="37.9570542894469" lon="15.11582631070675"><ele>962.0</ele><time>2026-04-09T09:59:46.999Z</time></trkpt><trkpt lat="37.9570458987467" lon="15.115981559861082"><ele>965.0</ele><time>2026-04-09T09:59:48.999Z</time></trkpt><trkpt lat="37.95704781789082" lon="15.116065322829021"><ele>968.0000000000001</ele><time>2026-04-09T09:59:49.999Z</time></trkpt><trkpt lat="37.95705158457784" lon="15.116146979839584"><ele>971.0</ele><time>2026-04-09T09:59:50.999Z</time></trkpt><trkpt lat="37.957061464124415" lon="15.116287809858777"><ele>971.0000000000001</ele><time>2026-04-09T09:59:52.999Z</time></trkpt><trkpt lat="37.957070471734184" lon="15.116391930914332"><ele>971.0</ele><time>2026-04-09T09:59:54.999Z</time></trkpt><trkpt lat="37.957043666976624" lon="15.116466160373244"><ele>971.0</ele><time>2026-04-09T10:01:07Z</time></trkpt><trkpt lat="37.95701100246502" lon="15.116615190395796"><ele>971.0</ele><time>2026-04-09T10:01:09Z</time></trkpt><trkpt lat="37.956992092545654" lon="15.116711704769006"><ele>971.0000000000001</ele><time>2026-04-09T10:01:10Z</time></trkpt><trkpt lat="37.95698001290484" lon="15.11679700686409"><ele>971.0</ele><time>2026-04-09T10:01:11Z</time></trkpt><trkpt lat="37.956987031124825" lon="15.116893979156814"><ele>972.5000000000001</ele><time>2026-04-09T10:01:12Z</time></trkpt><trkpt lat="37.957006825723056" lon="15.116986203571289"><ele>974.0</ele><time>2026-04-09T10:01:13Z</time></trkpt><trkpt lat="37.95703090078352" lon="15.117088297559135"><ele>975.5</ele><time>2026-04-09T10:01:14Z</time></trkpt><trkpt lat="37.957054976976195" lon="15.11719977253179"><ele>977.0</ele><time>2026-04-09T10:01:15Z</time></trkpt><trkpt lat="37.95707029785255" lon="15.11730998009894"><ele>978.5000000000001</ele><time>2026-04-09T10:01:16Z</time></trkpt><trkpt lat="37.9570774550513" lon="15.11740966730907"><ele>980.0</ele><time>2026-04-09T10:01:17Z</time></trkpt><trkpt lat="37.95707308213748" lon="15.11751654090865"><ele>980.5000000000001</ele><time>2026-04-09T10:01:18Z</time></trkpt><trkpt lat="37.95707735622688" lon="15.11761625274523"><ele>981.0</ele><time>2026-04-09T10:01:19Z</time></trkpt><trkpt lat="37.95709658183314" lon="15.1177084282139"><ele>981.5</ele><time>2026-04-09T10:01:20Z</time></trkpt><trkpt lat="37.95710542497313" lon="15.117792497094984"><ele>982.0</ele><time>2026-04-09T10:01:21Z</time></trkpt><trkpt lat="37.95709783520434" lon="15.11791458933046"><ele>982.5000000000001</ele><time>2026-04-09T10:01:22.999Z</time></trkpt><trkpt lat="37.957063149792624" lon="15.118016373561431"><ele>983.0</ele><time>2026-04-09T10:01:27.999Z</time></trkpt><trkpt lat="37.956992008962196" lon="15.118141939719898"><ele>983.2</ele><time>2026-04-09T10:01:29.999Z</time></trkpt><trkpt lat="37.95694093820312" lon="15.118236158055389"><ele>983.4</ele><time>2026-04-09T10:01:30.999Z</time></trkpt><trkpt lat="37.95691450825424" lon="15.118360031830443"><ele>983.6000000000001</ele><time>2026-04-09T10:01:31.999Z</time></trkpt><trkpt lat="37.956855921624225" lon="15.118461757922914"><ele>983.8000000000001</ele><time>2026-04-09T10:01:32.999Z</time></trkpt><trkpt lat="37.95680223423969" lon="15.118537997504252"><ele>984.0</ele><time>2026-04-09T10:01:33.999Z</time></trkpt><trkpt lat="37.95673718522466" lon="15.118609139073818"><ele>979.2</ele><time>2026-04-09T10:01:34.999Z</time></trkpt><trkpt lat="37.95665721292146" lon="15.11865634545836"><ele>974.4000000000001</ele><time>2026-04-09T10:01:35.999Z</time></trkpt><trkpt lat="37.9565969821134" lon="15.118736821896347"><ele>969.6</ele><time>2026-04-09T10:01:36.999Z</time></trkpt><trkpt lat="37.95654458882623" lon="15.118812147963839"><ele>964.8</ele><time>2026-04-09T10:01:37.999Z</time></trkpt><trkpt lat="37.95649581270925" lon="15.118924836961545"><ele>960.0</ele><time>2026-04-09T10:01:38.999Z</time></trkpt><trkpt lat="37.956441118761624" lon="15.119037289059"><ele>961.6</ele><time>2026-04-09T10:01:39.999Z</time></trkpt><trkpt lat="37.956389732945034" lon="15.119151667543385"><ele>963.2</ele><time>2026-04-09T10:01:40.999Z</time></trkpt><trkpt lat="37.95634021582799" lon="15.119246551816547"><ele>964.8</ele><time>2026-04-09T10:01:41.999Z</time></trkpt><trkpt lat="37.956291765967265" lon="15.119343607249093"><ele>966.4</ele><time>2026-04-09T10:01:42.999Z</time></trkpt><trkpt lat="37.956252352183775" lon="15.119442914658554"><ele>968.0</ele><time>2026-04-09T10:01:43.999Z</time></trkpt><trkpt lat="37.956236905722605" lon="15.119545072706092"><ele>968.0000000000001</ele><time>2026-04-09T10:01:44.999Z</time></trkpt><trkpt lat="37.95624497817461" lon="15.1196328774104"><ele>968.0</ele><time>2026-04-09T10:01:45.999Z</time></trkpt><trkpt lat="37.956293602531645" lon="15.119711818886053"><ele>968.0</ele><time>2026-04-09T10:01:46.999Z</time></trkpt><trkpt lat="37.95636741360734" lon="15.119788751181177"><ele>968.0</ele><time>2026-04-09T10:01:47.999Z</time></trkpt><trkpt lat="37.956456649661966" lon="15.119839109048819"><ele>968.0000000000001</ele><time>2026-04-09T10:01:48.999Z</time></trkpt><trkpt lat="37.956552525982644" lon="15.1198740241426"><ele>968.0</ele><time>2026-04-09T10:01:49.999Z</time></trkpt><trkpt lat="37.9566378999811" lon="15.119905612784265"><ele>968.8333333333334</ele><time>2026-04-09T10:01:50.999Z</time></trkpt><trkpt lat="37.956706055121" lon="15.119945428460278"><ele>969.6666666666667</ele><time>2026-04-09T10:01:51.999Z</time></trkpt><trkpt lat="37.956771288646266" lon="15.120082421582007"><ele>970.5</ele><time>2026-04-09T10:01:53.999Z</time></trkpt><trkpt lat="37.95679084704031" lon="15.120174946370396"><ele>971.3333333333333</ele><time>2026-04-09T10:01:54.999Z</time></trkpt><trkpt lat="37.95682100653518" lon="15.120264930723922"><ele>972.1666666666666</ele><time>2026-04-09T10:01:55.999Z</time></trkpt><trkpt lat="37.95686258291076" lon="15.120333072193528"><ele>973.0</ele><time>2026-04-09T10:01:56.999Z</time></trkpt><trkpt lat="37.9569465079258" lon="15.120371066078452"><ele>972.9999999999999</ele><time>2026-04-09T10:01:57.999Z</time></trkpt><trkpt lat="37.9570157819286" lon="15.120436225995796"><ele>973.0</ele><time>2026-04-09T10:01:58.999Z</time></trkpt><trkpt lat="37.95707660088079" lon="15.120524772982582"><ele>973.0</ele><time>2026-04-09T10:01:59.999Z</time></trkpt><trkpt lat="37.95708331274478" lon="15.120646730857883"><ele>973.0</ele><time>2026-04-09T10:02:00.999Z</time></trkpt><trkpt lat="37.957134284760535" lon="15.120731266296149"><ele>972.9999999999999</ele><time>2026-04-09T10:02:01.999Z</time></trkpt><trkpt lat="37.95718453968415" lon="15.120802981202125"><ele>973.0</ele><time>2026-04-09T10:02:02.999Z</time></trkpt><trkpt lat="37.95721338510152" lon="15.120949554004785"><ele>970.8333333333333</ele><time>2026-04-09T10:02:04.999Z</time></trkpt><trkpt lat="37.957159699182114" lon="15.121011803468623"><ele>968.6666666666666</ele><time>2026-04-09T10:02:05.999Z</time></trkpt><trkpt lat="37.95707612403655" lon="15.121014965172247"><ele>966.5</ele><time>2026-04-09T10:02:06.999Z</time></trkpt><trkpt lat="37.95699553548673" lon="15.121056929721634"><ele>964.3333333333333</ele><time>2026-04-09T10:02:07.999Z</time></trkpt><trkpt lat="37.95693651901239" lon="15.121135988491577"><ele>962.1666666666666</ele><time>2026-04-09T10:02:08.999Z</time></trkpt><trkpt lat="37.95691046322287" lon="15.121231658874123"><ele>960.0</ele><time>2026-04-09T10:02:09.999Z</time></trkpt><trkpt lat="37.95687471342912" lon="15.121347761265463"><ele>960.0</ele><time>2026-04-09T10:02:10.999Z</time></trkpt><trkpt lat="37.95679354845668" lon="15.121444439606645"><ele>960.0</ele><time>2026-04-09T10:02:12.999Z</time></trkpt><trkpt lat="37.95668007131666" lon="15.121396243911047"><ele>960.0</ele><time>2026-04-09T10:02:14.999Z</time></trkpt><trkpt lat="37.95657193710631" lon="15.121327712976353"><ele>960.0</ele><time>2026-04-09T10:02:16.999Z</time></trkpt><trkpt lat="37.95651036160567" lon="15.121291978830573"><ele>960.0</ele><time>2026-04-09T10:02:18Z</time></trkpt><trkpt lat="37.95641252842764" lon="15.121261296747313"><ele>956.8</ele><time>2026-04-09T10:02:20Z</time></trkpt><trkpt lat="37.9563479836199" lon="15.12125117934208"><ele>953.6</ele><time>2026-04-09T10:02:22Z</time></trkpt><trkpt lat="37.956294013876956" lon="15.121446346091705"><ele>950.4000000000001</ele><time>2026-04-09T10:02:23Z</time></trkpt><trkpt lat="37.95624025272751" lon="15.12151270964849"><ele>947.2</ele><time>2026-04-09T10:02:24Z</time></trkpt><trkpt lat="37.95616180381265" lon="15.121510202328164"><ele>944.0</ele><time>2026-04-09T10:02:25Z</time></trkpt><trkpt lat="37.95607599190041" lon="15.121540067980371"><ele>944.0</ele><time>2026-04-09T10:02:26Z</time></trkpt><trkpt lat="37.95597784852607" lon="15.121546775245347"><ele>944.0</ele><time>2026-04-09T10:02:27Z</time></trkpt><trkpt lat="37.95588824022702" lon="15.121593272291493"><ele>944.0</ele><time>2026-04-09T10:02:28Z</time></trkpt><trkpt lat="37.9557827543462" lon="15.121661365451608"><ele>944.0</ele><time>2026-04-09T10:02:29Z</time></trkpt><trkpt lat="37.95567475733922" lon="15.121776494083331"><ele>945.25</ele><time>2026-04-09T10:02:30Z</time></trkpt><trkpt lat="37.955570998294235" lon="15.121884172305794"><ele>946.5</ele><time>2026-04-09T10:02:31Z</time></trkpt><trkpt lat="37.95544705599026" lon="15.122002348357091"><ele>947.75</ele><time>2026-04-09T10:02:32Z</time></trkpt><trkpt lat="37.95532956297075" lon="15.12212226019389"><ele>949.0</ele><time>2026-04-09T10:02:33Z</time></trkpt><trkpt lat="37.955230911424664" lon="15.12222951669921"><ele>949.0</ele><time>2026-04-09T10:02:34Z</time></trkpt><trkpt lat="37.95513075773749" lon="15.12233546673976"><ele>949.0</ele><time>2026-04-09T10:02:35Z</time></trkpt><trkpt lat="37.95507527088744" lon="15.122490586328217"><ele>949.0</ele><time>2026-04-09T10:02:36Z</time></trkpt><trkpt lat="37.95503286023336" lon="15.122654469251474"><ele>949.0</ele><time>2026-04-09T10:02:37Z</time></trkpt><trkpt lat="37.954997679970454" lon="15.12283207165862"><ele>950.25</ele><time>2026-04-09T10:02:38Z</time></trkpt><trkpt lat="37.95495883400986" lon="15.12298964015226"><ele>951.5</ele><time>2026-04-09T10:02:39Z</time></trkpt><trkpt lat="37.954902290811724" lon="15.123120452919355"><ele>952.75</ele><time>2026-04-09T10:02:40Z</time></trkpt><trkpt lat="37.95481505356735" lon="15.123225724311457"><ele>954.0</ele><time>2026-04-09T10:02:41Z</time></trkpt><trkpt lat="37.95471262151349" lon="15.12326516879848"><ele>957.5</ele><time>2026-04-09T10:02:42Z</time></trkpt><trkpt lat="37.95460878738318" lon="15.123305183969384"><ele>961.0</ele><time>2026-04-09T10:02:43Z</time></trkpt><trkpt lat="37.9544903193692" lon="15.123315565487898"><ele>964.5</ele><time>2026-04-09T10:02:44Z</time></trkpt><trkpt lat="37.9543695762161" lon="15.123353422973633"><ele>968.0</ele><time>2026-04-09T10:02:45Z</time></trkpt><trkpt lat="37.95424873965412" lon="15.123431467283483"><ele>964.5</ele><time>2026-04-09T10:02:46Z</time></trkpt><trkpt lat="37.954134624865254" lon="15.123540565620942"><ele>961.0</ele><time>2026-04-09T10:02:47Z</time></trkpt><trkpt lat="37.95402737304018" lon="15.123661841291126"><ele>957.5</ele><time>2026-04-09T10:02:48Z</time></trkpt><trkpt lat="37.953932837945345" lon="15.123768815973783"><ele>954.0</ele><time>2026-04-09T10:02:49Z</time></trkpt><trkpt lat="37.95384957469026" lon="15.123864916861471"><ele>954.0</ele><time>2026-04-09T10:02:50Z</time></trkpt><trkpt lat="37.95378772641054" lon="15.123978528374737"><ele>954.0</ele><time>2026-04-09T10:02:51Z</time></trkpt><trkpt lat="37.95376377701093" lon="15.124108785350279"><ele>954.0</ele><time>2026-04-09T10:02:52Z</time></trkpt><trkpt lat="37.953760538391585" lon="15.124253425360546"><ele>954.0</ele><time>2026-04-09T10:02:53Z</time></trkpt><trkpt lat="37.95377709760342" lon="15.124414009003708"><ele>958.75</ele><time>2026-04-09T10:02:54Z</time></trkpt><trkpt lat="37.95380558365091" lon="15.124583309002745"><ele>963.5</ele><time>2026-04-09T10:02:55Z</time></trkpt><trkpt lat="37.953831970204334" lon="15.124764269757693"><ele>968.25</ele><time>2026-04-09T10:02:56Z</time></trkpt><trkpt lat="37.95384609877912" lon="15.124953629901393"><ele>973.0</ele><time>2026-04-09T10:02:57Z</time></trkpt><trkpt lat="37.953830412218196" lon="15.125135858882107"><ele>975.0</ele><time>2026-04-09T10:02:58Z</time></trkpt><trkpt lat="37.95377845001526" lon="15.125304283539199"><ele>977.0</ele><time>2026-04-09T10:02:59Z</time></trkpt><trkpt lat="37.95369394644273" lon="15.125444852038253"><ele>979.0</ele><time>2026-04-09T10:03:00Z</time></trkpt><trkpt lat="37.95359271474749" lon="15.125570769975816"><ele>981.0</ele><time>2026-04-09T10:03:01Z</time></trkpt><trkpt lat="37.95348797596451" lon="15.125699642235162"><ele>981.5999999999999</ele><time>2026-04-09T10:03:02Z</time></trkpt><trkpt lat="37.95339429265596" lon="15.125823805766647"><ele>982.1999999999999</ele><time>2026-04-09T10:03:03Z</time></trkpt><trkpt lat="37.95331348070353" lon="15.125934590616795"><ele>982.8000000000001</ele><time>2026-04-09T10:03:04Z</time></trkpt><trkpt lat="37.953245578705996" lon="15.126031010221453"><ele>983.4000000000001</ele><time>2026-04-09T10:03:05Z</time></trkpt><trkpt lat="37.95320264294946" lon="15.126125943960414"><ele>984.0</ele><time>2026-04-09T10:03:06Z</time></trkpt><trkpt lat="37.95320084139228" lon="15.126225296952011"><ele>984.0</ele><time>2026-04-09T10:03:07Z</time></trkpt><trkpt lat="37.95324186352373" lon="15.12631401983201"><ele>984.0000000000001</ele><time>2026-04-09T10:03:08Z</time></trkpt><trkpt lat="37.95331783751671" lon="15.1263599495232"><ele>984.0000000000001</ele><time>2026-04-09T10:03:09Z</time></trkpt><trkpt lat="37.9534144200442" lon="15.126352616982047"><ele>984.0</ele><time>2026-04-09T10:03:10Z</time></trkpt><trkpt lat="37.95351757490653" lon="15.126309013163652"><ele>984.0</ele><time>2026-04-09T10:03:11Z</time></trkpt><trkpt lat="37.95363231996559" lon="15.126263411601292"><ele>984.0</ele><time>2026-04-09T10:03:12Z</time></trkpt><trkpt lat="37.95376019619056" lon="15.126221164420473"><ele>984.0</ele><time>2026-04-09T10:03:13Z</time></trkpt><trkpt lat="37.9538998751564" lon="15.126182946946283"><ele>984.0</ele><time>2026-04-09T10:03:14Z</time></trkpt><trkpt lat="37.95405391871759" lon="15.126144827943408"><ele>984.0</ele><time>2026-04-09T10:03:15Z</time></trkpt><trkpt lat="37.954207434779015" lon="15.126099285626102"><ele>985.0</ele><time>2026-04-09T10:03:16Z</time></trkpt><trkpt lat="37.954369438590405" lon="15.126038361856953"><ele>986.0</ele><time>2026-04-09T10:03:17Z</time></trkpt><trkpt lat="37.95452927105463" lon="15.125964129681849"><ele>987.0</ele><time>2026-04-09T10:03:18Z</time></trkpt><trkpt lat="37.954674646599344" lon="15.12589432676368"><ele>987.0</ele><time>2026-04-09T10:03:19Z</time></trkpt><trkpt lat="37.95480681509516" lon="15.125845352332862"><ele>987.0</ele><time>2026-04-09T10:03:20Z</time></trkpt><trkpt lat="37.95493647354141" lon="15.125804071237939"><ele>987.0</ele><time>2026-04-09T10:03:21Z</time></trkpt><trkpt lat="37.955067290374835" lon="15.125771986112403"><ele>987.0</ele><time>2026-04-09T10:03:22Z</time></trkpt><trkpt lat="37.95519721001401" lon="15.125762912213089"><ele>987.75</ele><time>2026-04-09T10:03:23Z</time></trkpt><trkpt lat="37.95532883677359" lon="15.125774827691869"><ele>988.5</ele><time>2026-04-09T10:03:24Z</time></trkpt><trkpt lat="37.95546067431163" lon="15.125802469609475"><ele>989.25</ele><time>2026-04-09T10:03:25Z</time></trkpt><trkpt lat="37.955590074423924" lon="15.125831967346446"><ele>990.0</ele><time>2026-04-09T10:03:26Z</time></trkpt><trkpt lat="37.95571596629628" lon="15.125856809009882"><ele>990.0</ele><time>2026-04-09T10:03:27Z</time></trkpt><trkpt lat="37.955827263372505" lon="15.125877078628298"><ele>990.0</ele><time>2026-04-09T10:03:27.999Z</time></trkpt><trkpt lat="37.95592072242897" lon="15.125883407610575"><ele>990.0</ele><time>2026-04-09T10:03:28.999Z</time></trkpt><trkpt lat="37.95601143530006" lon="15.125845753627024"><ele>990.0</ele><time>2026-04-09T10:03:29.999Z</time></trkpt><trkpt lat="37.956115368453084" lon="15.12576782350062"><ele>990.0</ele><time>2026-04-09T10:03:30.999Z</time></trkpt><trkpt lat="37.95622162793075" lon="15.12567892574735"><ele>996.5</ele><time>2026-04-09T10:03:31.999Z</time></trkpt><trkpt lat="37.956332843336746" lon="15.125599018358582"><ele>1003.0</ele><time>2026-04-09T10:03:32.999Z</time></trkpt><trkpt lat="37.956452189512795" lon="15.125543169839998"><ele>1009.5</ele><time>2026-04-09T10:03:33.999Z</time></trkpt><trkpt lat="37.95657674033658" lon="15.125500673251064"><ele>1016.0</ele><time>2026-04-09T10:03:34.999Z</time></trkpt><trkpt lat="37.9567045657359" lon="15.125467134802696"><ele>1016.0</ele><time>2026-04-09T10:03:35.999Z</time></trkpt><trkpt lat="37.956836389117036" lon="15.125443727097506"><ele>1016.0</ele><time>2026-04-09T10:03:36.999Z</time></trkpt><trkpt lat="37.95696934480999" lon="15.125420812007981"><ele>1016.0</ele><time>2026-04-09T10:03:37.999Z</time></trkpt><trkpt lat="37.95709899466814" lon="15.125384100859351"><ele>1016.0</ele><time>2026-04-09T10:03:38.999Z</time></trkpt><trkpt lat="37.95722829536312" lon="15.125335022164757"><ele>1016.0</ele><time>2026-04-09T10:03:39.999Z</time></trkpt><trkpt lat="37.95735727004853" lon="15.125284337535714"><ele>1016.0</ele><time>2026-04-09T10:03:40.999Z</time></trkpt><trkpt lat="37.957474665872525" lon="15.125246396323254"><ele>1016.0</ele><time>2026-04-09T10:03:41.999Z</time></trkpt><trkpt lat="37.95759608332246" lon="15.125211201101726"><ele>1016.0</ele><time>2026-04-09T10:03:42.999Z</time></trkpt><trkpt lat="37.95770816260359" lon="15.125199788203473"><ele>1017.4</ele><time>2026-04-09T10:03:43.999Z</time></trkpt><trkpt lat="37.95781624686527" lon="15.125211978703984"><ele>1018.8</ele><time>2026-04-09T10:03:44.999Z</time></trkpt><trkpt lat="37.95792548246732" lon="15.125237680880105"><ele>1020.1999999999999</ele><time>2026-04-09T10:03:45.999Z</time></trkpt><trkpt lat="37.95803073765958" lon="15.125265585026602"><ele>1021.5999999999999</ele><time>2026-04-09T10:03:46.999Z</time></trkpt><trkpt lat="37.958127428233254" lon="15.125302610635332"><ele>1023.0</ele><time>2026-04-09T10:03:47.999Z</time></trkpt><trkpt lat="37.9582318903145" lon="15.125317688299116"><ele>1023.0</ele><time>2026-04-09T10:03:48.999Z</time></trkpt><trkpt lat="37.958322155157624" lon="15.125341298272666"><ele>1023.0</ele><time>2026-04-09T10:03:49.999Z</time></trkpt><trkpt lat="37.95840976816096" lon="15.125378636121061"><ele>1023.0</ele><time>2026-04-09T10:03:50.999Z</time></trkpt><trkpt lat="37.95848886012979" lon="15.125440480672596"><ele>1023.0</ele><time>2026-04-09T10:03:51.999Z</time></trkpt><trkpt lat="37.958550893394104" lon="15.125539570799983"><ele>1023.0</ele><time>2026-04-09T10:03:52.999Z</time></trkpt><trkpt lat="37.95860588942769" lon="15.125640936315369"><ele>1021.8</ele><time>2026-04-09T10:03:53.999Z</time></trkpt><trkpt lat="37.95867014999807" lon="15.125730795211139"><ele>1020.5999999999999</ele><time>2026-04-09T10:03:54.999Z</time></trkpt><trkpt lat="37.958755975842095" lon="15.125783428325642"><ele>1019.4000000000001</ele><time>2026-04-09T10:03:55.999Z</time></trkpt><trkpt lat="37.95886401466408" lon="15.125841008550774"><ele>1018.2</ele><time>2026-04-09T10:03:56.999Z</time></trkpt><trkpt lat="37.95898658099598" lon="15.125879488511513"><ele>1017.0</ele><time>2026-04-09T10:03:57.999Z</time></trkpt><trkpt lat="37.959116439124166" lon="15.125933112567692"><ele>1023.6666666666667</ele><time>2026-04-09T10:03:58.999Z</time></trkpt><trkpt lat="37.95925702297758" lon="15.125998855463191"><ele>1030.3333333333335</ele><time>2026-04-09T10:03:59.999Z</time></trkpt><trkpt lat="37.959399329734666" lon="15.12605954491844"><ele>1037.0</ele><time>2026-04-09T10:04:00.999Z</time></trkpt><trkpt lat="37.959543810494466" lon="15.126139352867428"><ele>1037.0</ele><time>2026-04-09T10:04:01.999Z</time></trkpt><trkpt lat="37.95969165389282" lon="15.126212357900128"><ele>1037.0</ele><time>2026-04-09T10:04:02.999Z</time></trkpt><trkpt lat="37.95986407615277" lon="15.126276452280482"><ele>1037.0</ele><time>2026-04-09T10:04:03.999Z</time></trkpt><trkpt lat="37.96001701404815" lon="15.126354913386574"><ele>1035.6666666666667</ele><time>2026-04-09T10:04:04.999Z</time></trkpt><trkpt lat="37.96016930275197" lon="15.1264621240011"><ele>1034.3333333333333</ele><time>2026-04-09T10:04:05.999Z</time></trkpt><trkpt lat="37.96031036025817" lon="15.126580354159726"><ele>1033.0</ele><time>2026-04-09T10:04:06.999Z</time></trkpt><trkpt lat="37.960442127065384" lon="15.126703852264766"><ele>1033.0</ele><time>2026-04-09T10:04:07.999Z</time></trkpt><trkpt lat="37.96057656564158" lon="15.126825324176083"><ele>1033.0</ele><time>2026-04-09T10:04:08.999Z</time></trkpt><trkpt lat="37.96070646601761" lon="15.126914306899312"><ele>1033.0</ele><time>2026-04-09T10:04:09.999Z</time></trkpt><trkpt lat="37.960833737274164" lon="15.126987864237735"><ele>1039.25</ele><time>2026-04-09T10:04:10.999Z</time></trkpt><trkpt lat="37.960952305154436" lon="15.127060876967722"><ele>1045.5</ele><time>2026-04-09T10:04:11.999Z</time></trkpt><trkpt lat="37.96106531840258" lon="15.127138539546355"><ele>1051.75</ele><time>2026-04-09T10:04:12.999Z</time></trkpt><trkpt lat="37.96115634834346" lon="15.127223908713788"><ele>1058.0</ele><time>2026-04-09T10:04:13.999Z</time></trkpt><trkpt lat="37.96122713815623" lon="15.12733541143256"><ele>1054.25</ele><time>2026-04-09T10:04:14.999Z</time></trkpt><trkpt lat="37.96126788907859" lon="15.127482488088855"><ele>1050.5</ele><time>2026-04-09T10:04:15.999Z</time></trkpt><trkpt lat="37.96128607115666" lon="15.127643137130862"><ele>1046.75</ele><time>2026-04-09T10:04:16.999Z</time></trkpt><trkpt lat="37.96132059453824" lon="15.127799180575307"><ele>1043.0</ele><time>2026-04-09T10:04:17.999Z</time></trkpt><trkpt lat="37.96139064568603" lon="15.127940585049886"><ele>1043.0</ele><time>2026-04-09T10:04:18.999Z</time></trkpt><trkpt lat="37.96149877112836" lon="15.128071095889108"><ele>1043.0</ele><time>2026-04-09T10:04:19.999Z</time></trkpt><trkpt lat="37.9616193103515" lon="15.128181885180567"><ele>1043.0</ele><time>2026-04-09T10:04:20.999Z</time></trkpt><trkpt lat="37.961756239202856" lon="15.12829901396508"><ele>1047.6666666666667</ele><time>2026-04-09T10:04:21.999Z</time></trkpt><trkpt lat="37.96189186286308" lon="15.128408249291548"><ele>1052.3333333333333</ele><time>2026-04-09T10:04:23Z</time></trkpt><trkpt lat="37.9620245608484" lon="15.12855754079144"><ele>1057.0</ele><time>2026-04-09T10:04:24Z</time></trkpt><trkpt lat="37.96214558131836" lon="15.128674521170346"><ele>1057.0</ele><time>2026-04-09T10:04:25Z</time></trkpt><trkpt lat="37.96226903887628" lon="15.128786094573641"><ele>1057.0</ele><time>2026-04-09T10:04:26Z</time></trkpt><trkpt lat="37.9623734131437" lon="15.128888773780735"><ele>1057.0</ele><time>2026-04-09T10:04:27Z</time></trkpt><trkpt lat="37.9624788048595" lon="15.128978681289206"><ele>1057.0</ele><time>2026-04-09T10:04:28Z</time></trkpt><trkpt lat="37.96259758275553" lon="15.129047547234064"><ele>1056.0</ele><time>2026-04-09T10:04:29Z</time></trkpt><trkpt lat="37.962730789065375" lon="15.129089972481147"><ele>1055.0</ele><time>2026-04-09T10:04:30Z</time></trkpt><trkpt lat="37.96286184463464" lon="15.129125323966052"><ele>1054.0</ele><time>2026-04-09T10:04:31Z</time></trkpt><trkpt lat="37.96297977476403" lon="15.129176230712776"><ele>1053.0</ele><time>2026-04-09T10:04:32Z</time></trkpt><trkpt lat="37.96306157818071" lon="15.129263471406691"><ele>1053.0</ele><time>2026-04-09T10:04:33Z</time></trkpt><trkpt lat="37.96311973377757" lon="15.129387346304242"><ele>1053.0</ele><time>2026-04-09T10:04:34Z</time></trkpt><trkpt lat="37.963194374014236" lon="15.129510681251716"><ele>1053.0</ele><time>2026-04-09T10:04:35Z</time></trkpt><trkpt lat="37.9633060909568" lon="15.129592604045703"><ele>1053.0</ele><time>2026-04-09T10:04:36Z</time></trkpt><trkpt lat="37.963432353889885" lon="15.129662553914315"><ele>1056.75</ele><time>2026-04-09T10:04:37Z</time></trkpt><trkpt lat="37.96355989264362" lon="15.12972737932248"><ele>1060.5</ele><time>2026-04-09T10:04:38Z</time></trkpt><trkpt lat="37.96368680942124" lon="15.129762068605675"><ele>1064.25</ele><time>2026-04-09T10:04:39Z</time></trkpt><trkpt lat="37.963823580097696" lon="15.129768799219098"><ele>1068.0</ele><time>2026-04-09T10:04:40Z</time></trkpt><trkpt lat="37.963965212341634" lon="15.129754065747425"><ele>1068.0</ele><time>2026-04-09T10:04:41Z</time></trkpt><trkpt lat="37.96410636375783" lon="15.129732803334566"><ele>1068.0</ele><time>2026-04-09T10:04:42Z</time></trkpt><trkpt lat="37.9642444368605" lon="15.129720314051971"><ele>1068.0</ele><time>2026-04-09T10:04:43Z</time></trkpt><trkpt lat="37.96436952234665" lon="15.129718362949047"><ele>1068.0</ele><time>2026-04-09T10:04:44Z</time></trkpt><trkpt lat="37.96448740092738" lon="15.129729202202299"><ele>1072.0</ele><time>2026-04-09T10:04:45Z</time></trkpt><trkpt lat="37.964604275595185" lon="15.129739244282984"><ele>1076.0</ele><time>2026-04-09T10:04:46Z</time></trkpt><trkpt lat="37.964726913068155" lon="15.129767676314987"><ele>1080.0</ele><time>2026-04-09T10:04:47Z</time></trkpt><trkpt lat="37.96484437473921" lon="15.129827208828765"><ele>1084.0</ele><time>2026-04-09T10:04:48Z</time></trkpt><trkpt lat="37.96495801833543" lon="15.129901899450969"><ele>1085.5</ele><time>2026-04-09T10:04:49Z</time></trkpt><trkpt lat="37.96507355761378" lon="15.129982694139393"><ele>1087.0</ele><time>2026-04-09T10:04:50Z</time></trkpt><trkpt lat="37.96519718030922" lon="15.130067996307327"><ele>1088.5</ele><time>2026-04-09T10:04:51Z</time></trkpt><trkpt lat="37.96532684900482" lon="15.130157863421577"><ele>1090.0</ele><time>2026-04-09T10:04:52Z</time></trkpt><trkpt lat="37.96546140847099" lon="15.130244005579216"><ele>1090.0</ele><time>2026-04-09T10:04:53Z</time></trkpt><trkpt lat="37.96558028822202" lon="15.130316995835733"><ele>1090.0</ele><time>2026-04-09T10:04:54Z</time></trkpt><trkpt lat="37.965667376887026" lon="15.130374642098767"><ele>1090.0</ele><time>2026-04-09T10:04:55Z</time></trkpt><trkpt lat="37.96573404005702" lon="15.130417615005372"><ele>1090.0</ele><time>2026-04-09T10:04:56Z</time></trkpt><trkpt lat="37.965790490418584" lon="15.130462292817107"><ele>1090.0</ele><time>2026-04-09T10:04:57Z</time></trkpt><trkpt lat="37.96586879702856" lon="15.13057874032076"><ele>1093.8333333333333</ele><time>2026-04-09T10:04:59Z</time></trkpt><trkpt lat="37.96591007240496" lon="15.13065415155164"><ele>1097.6666666666665</ele><time>2026-04-09T10:05:00Z</time></trkpt><trkpt lat="37.96594810148839" lon="15.13074129145957"><ele>1101.5</ele><time>2026-04-09T10:05:01Z</time></trkpt><trkpt lat="37.96600202799729" lon="15.130831583179297"><ele>1105.3333333333333</ele><time>2026-04-09T10:05:02Z</time></trkpt><trkpt lat="37.96604331531233" lon="15.130930573459382"><ele>1109.1666666666667</ele><time>2026-04-09T10:05:03Z</time></trkpt><trkpt lat="37.966071957797595" lon="15.131041632602626"><ele>1113.0</ele><time>2026-04-09T10:05:04Z</time></trkpt><trkpt lat="37.966122350088874" lon="15.131139048537722"><ele>1113.0</ele><time>2026-04-09T10:05:05Z</time></trkpt><trkpt lat="37.966246646555334" lon="15.131322901773549"><ele>1113.0</ele><time>2026-04-09T10:05:06Z</time></trkpt><trkpt lat="37.966317886746246" lon="15.13147034749116"><ele>1113.0</ele><time>2026-04-09T10:05:07Z</time></trkpt><trkpt lat="37.966395690538015" lon="15.131621466599208"><ele>1107.75</ele><time>2026-04-09T10:05:08Z</time></trkpt><trkpt lat="37.96646508732171" lon="15.131795400582327"><ele>1102.5</ele><time>2026-04-09T10:05:09Z</time></trkpt><trkpt lat="37.96653904041862" lon="15.13195900135711"><ele>1097.25</ele><time>2026-04-09T10:05:10Z</time></trkpt><trkpt lat="37.96660343022975" lon="15.132123458995503"><ele>1092.0</ele><time>2026-04-09T10:05:11Z</time></trkpt><trkpt lat="37.96666935797166" lon="15.132285715572909"><ele>1097.0</ele><time>2026-04-09T10:05:12Z</time></trkpt><trkpt lat="37.966734962901256" lon="15.132453787137202"><ele>1102.0</ele><time>2026-04-09T10:05:13Z</time></trkpt><trkpt lat="37.96679943722633" lon="15.13262462033774"><ele>1107.0</ele><time>2026-04-09T10:05:14Z</time></trkpt><trkpt lat="37.96688575452932" lon="15.132784729674691"><ele>1107.0</ele><time>2026-04-09T10:05:15Z</time></trkpt><trkpt lat="37.966975669502894" lon="15.132935447004527"><ele>1107.0</ele><time>2026-04-09T10:05:16Z</time></trkpt><trkpt lat="37.96704908102295" lon="15.133088216261196"><ele>1107.0</ele><time>2026-04-09T10:05:17Z</time></trkpt><trkpt lat="37.9671049354258" lon="15.133222205049204"><ele>1107.0</ele><time>2026-04-09T10:05:18Z</time></trkpt><trkpt lat="37.9671611825657" lon="15.13333518030397"><ele>1104.0</ele><time>2026-04-09T10:05:19Z</time></trkpt><trkpt lat="37.96723915751545" lon="15.133404747829653"><ele>1101.0</ele><time>2026-04-09T10:05:20Z</time></trkpt><trkpt lat="37.96734284344595" lon="15.133431305382315"><ele>1098.0</ele><time>2026-04-09T10:05:21Z</time></trkpt><trkpt lat="37.96746078495066" lon="15.133412650071634"><ele>1095.0</ele><time>2026-04-09T10:05:22Z</time></trkpt><trkpt lat="37.9675865674974" lon="15.133370894399258"><ele>1095.0</ele><time>2026-04-09T10:05:23Z</time></trkpt><trkpt lat="37.967715986233465" lon="15.133322330810296"><ele>1095.0</ele><time>2026-04-09T10:05:24Z</time></trkpt><trkpt lat="37.96784428586188" lon="15.133287055331424"><ele>1095.0</ele><time>2026-04-09T10:05:25Z</time></trkpt><trkpt lat="37.96796053632015" lon="15.133251586491353"><ele>1095.0</ele><time>2026-04-09T10:05:26Z</time></trkpt><trkpt lat="37.96805899331696" lon="15.133200601339743"><ele>1098.6666666666667</ele><time>2026-04-09T10:05:27Z</time></trkpt><trkpt lat="37.96814029807844" lon="15.133116007223043"><ele>1102.3333333333333</ele><time>2026-04-09T10:05:28Z</time></trkpt><trkpt lat="37.96820473691976" lon="15.133038595706177"><ele>1106.0</ele><time>2026-04-09T10:05:29Z</time></trkpt><trkpt lat="37.968275192173174" lon="15.133009549173918"><ele>1109.6666666666665</ele><time>2026-04-09T10:05:30Z</time></trkpt><trkpt lat="37.968346147508214" lon="15.133037681042708"><ele>1113.3333333333333</ele><time>2026-04-09T10:05:31Z</time></trkpt><trkpt lat="37.968417396254154" lon="15.13312220436214"><ele>1117.0</ele><time>2026-04-09T10:05:32Z</time></trkpt><trkpt lat="37.968460680701135" lon="15.13325568196786"><ele>1120.75</ele><time>2026-04-09T10:05:33Z</time></trkpt><trkpt lat="37.9684628482537" lon="15.1333988758012"><ele>1124.5</ele><time>2026-04-09T10:05:34Z</time></trkpt><trkpt lat="37.96841108921173" lon="15.133559471706814"><ele>1128.25</ele><time>2026-04-09T10:05:35Z</time></trkpt><trkpt lat="37.968374493278446" lon="15.133717923553396"><ele>1132.0</ele><time>2026-04-09T10:05:36Z</time></trkpt><trkpt lat="37.96834763412591" lon="15.133867677638897"><ele>1132.0</ele><time>2026-04-09T10:05:37Z</time></trkpt><trkpt lat="37.96838127455144" lon="15.134008185708185"><ele>1132.0</ele><time>2026-04-09T10:05:38Z</time></trkpt><trkpt lat="37.968430252384415" lon="15.134154212698853"><ele>1132.0</ele><time>2026-04-09T10:05:39Z</time></trkpt><trkpt lat="37.96846470414797" lon="15.134279107507366"><ele>1132.0</ele><time>2026-04-09T10:05:40Z</time></trkpt><trkpt lat="37.96844724950737" lon="15.134396849892457"><ele>1132.0</ele><time>2026-04-09T10:05:41Z</time></trkpt><trkpt lat="37.96839036301846" lon="15.134514033823468"><ele>1125.5</ele><time>2026-04-09T10:05:42Z</time></trkpt><trkpt lat="37.96830019582473" lon="15.13461655451471"><ele>1119.0</ele><time>2026-04-09T10:05:43Z</time></trkpt><trkpt lat="37.96820888217316" lon="15.134737894603091"><ele>1112.5</ele><time>2026-04-09T10:05:43.999Z</time></trkpt><trkpt lat="37.968139186098924" lon="15.134893238593447"><ele>1106.0</ele><time>2026-04-09T10:05:44.999Z</time></trkpt><trkpt lat="37.968102251059065" lon="15.135082953070874"><ele>1106.0</ele><time>2026-04-09T10:05:45.999Z</time></trkpt><trkpt lat="37.96807822488817" lon="15.135293309797941"><ele>1106.0</ele><time>2026-04-09T10:05:46.999Z</time></trkpt><trkpt lat="37.96804599331984" lon="15.135503757928657"><ele>1106.0</ele><time>2026-04-09T10:05:47.999Z</time></trkpt><trkpt lat="37.96799980965031" lon="15.135703460541919"><ele>1111.3333333333335</ele><time>2026-04-09T10:05:48.999Z</time></trkpt><trkpt lat="37.967965407109396" lon="15.135927402920855"><ele>1116.6666666666667</ele><time>2026-04-09T10:05:49.999Z</time></trkpt><trkpt lat="37.96796244051061" lon="15.136163849169609"><ele>1122.0</ele><time>2026-04-09T10:05:50.999Z</time></trkpt><trkpt lat="37.96798648521474" lon="15.13642952194191"><ele>1121.5</ele><time>2026-04-09T10:05:51.999Z</time></trkpt><trkpt lat="37.968007807088874" lon="15.136628444092148"><ele>1121.0</ele><time>2026-04-09T10:05:52.999Z</time></trkpt><trkpt lat="37.968020306665785" lon="15.136799626078496"><ele>1120.5</ele><time>2026-04-09T10:05:53.999Z</time></trkpt><trkpt lat="37.968039388544284" lon="15.136929781775684"><ele>1120.0</ele><time>2026-04-09T10:05:54.999Z</time></trkpt><trkpt lat="37.968087992683344" lon="15.137030786124278"><ele>1120.0</ele><time>2026-04-09T10:05:55.999Z</time></trkpt><trkpt lat="37.968170527450745" lon="15.137091570090437"><ele>1120.0</ele><time>2026-04-09T10:05:56.999Z</time></trkpt><trkpt lat="37.968273300950855" lon="15.137115132017161"><ele>1120.0</ele><time>2026-04-09T10:05:57.999Z</time></trkpt><trkpt lat="37.96838455312898" lon="15.137076248060511"><ele>1120.0</ele><time>2026-04-09T10:05:58.999Z</time></trkpt><trkpt lat="37.96850129499613" lon="15.1370031644659"><ele>1120.0</ele><time>2026-04-09T10:05:59.999Z</time></trkpt><trkpt lat="37.968626191093165" lon="15.136919554104411"><ele>1123.0</ele><time>2026-04-09T10:06:00.999Z</time></trkpt><trkpt lat="37.96876425362342" lon="15.136854718290751"><ele>1126.0</ele><time>2026-04-09T10:06:01.999Z</time></trkpt><trkpt lat="37.96891318614679" lon="15.136818397455393"><ele>1129.0</ele><time>2026-04-09T10:06:02.999Z</time></trkpt><trkpt lat="37.96905558470412" lon="15.136805121433046"><ele>1132.0</ele><time>2026-04-09T10:06:03.999Z</time></trkpt><trkpt lat="37.96918119313755" lon="15.136806024316234"><ele>1128.6</ele><time>2026-04-09T10:06:04.999Z</time></trkpt><trkpt lat="37.96929640813972" lon="15.136829533417202"><ele>1125.2</ele><time>2026-04-09T10:06:05.999Z</time></trkpt><trkpt lat="37.96938918451919" lon="15.136845985010064"><ele>1121.8</ele><time>2026-04-09T10:06:06.999Z</time></trkpt><trkpt lat="37.96949477625542" lon="15.136779008371569"><ele>1118.4</ele><time>2026-04-09T10:06:07.999Z</time></trkpt><trkpt lat="37.96958044457234" lon="15.136685967145796"><ele>1115.0</ele><time>2026-04-09T10:06:08.999Z</time></trkpt><trkpt lat="37.96967726586165" lon="15.13657527540055"><ele>1114.5</ele><time>2026-04-09T10:06:09.999Z</time></trkpt><trkpt lat="37.96978536201773" lon="15.136459720126172"><ele>1114.0</ele><time>2026-04-09T10:06:10.999Z</time></trkpt><trkpt lat="37.9698946295201" lon="15.136336200626955"><ele>1113.5</ele><time>2026-04-09T10:06:11.999Z</time></trkpt><trkpt lat="37.97000659827085" lon="15.136199971785118"><ele>1113.0</ele><time>2026-04-09T10:06:12.999Z</time></trkpt><trkpt lat="37.970121209424015" lon="15.136053307117734"><ele>1113.0</ele><time>2026-04-09T10:06:13.999Z</time></trkpt><trkpt lat="37.97023727819058" lon="15.135894818334073"><ele>1113.0</ele><time>2026-04-09T10:06:14.999Z</time></trkpt><trkpt lat="37.97034537490406" lon="15.13573508144065"><ele>1113.0</ele><time>2026-04-09T10:06:15.999Z</time></trkpt><trkpt lat="37.97044844839846" lon="15.135576592466345"><ele>1119.5</ele><time>2026-04-09T10:06:16.999Z</time></trkpt><trkpt lat="37.97055176803203" lon="15.13544361315468"><ele>1126.0</ele><time>2026-04-09T10:06:17.999Z</time></trkpt><trkpt lat="37.97063341975193" lon="15.135299112804681"><ele>1132.5</ele><time>2026-04-09T10:06:18.999Z</time></trkpt><trkpt lat="37.9706948546124" lon="15.135149939797634"><ele>1139.0</ele><time>2026-04-09T10:06:19.999Z</time></trkpt><trkpt lat="37.97075136246343" lon="15.135013732842285"><ele>1139.0</ele><time>2026-04-09T10:06:20.999Z</time></trkpt><trkpt lat="37.97081893964813" lon="15.134907713287463"><ele>1139.0</ele><time>2026-04-09T10:06:21.999Z</time></trkpt><trkpt lat="37.97089636752698" lon="15.134817011418642"><ele>1139.0</ele><time>2026-04-09T10:06:22.999Z</time></trkpt><trkpt lat="37.97101181095615" lon="15.134736464680667"><ele>1139.0</ele><time>2026-04-09T10:06:23.999Z</time></trkpt><trkpt lat="37.97112612098093" lon="15.134697003156434"><ele>1141.8</ele><time>2026-04-09T10:06:24.999Z</time></trkpt><trkpt lat="37.97123118691197" lon="15.134665215168782"><ele>1144.6000000000001</ele><time>2026-04-09T10:06:25.999Z</time></trkpt><trkpt lat="37.97130588567736" lon="15.134640396988024"><ele>1147.4</ele><time>2026-04-09T10:06:26.999Z</time></trkpt><trkpt lat="37.97136996379536" lon="15.134607592042059"><ele>1150.2</ele><time>2026-04-09T10:06:27.999Z</time></trkpt><trkpt lat="37.9714768911452" lon="15.134606168005853"><ele>1153.0</ele><time>2026-04-09T10:06:30Z</time></trkpt><trkpt lat="37.97154370589296" lon="15.134691727594452"><ele>1153.0</ele><time>2026-04-09T10:06:32Z</time></trkpt><trkpt lat="37.97164244693059" lon="15.134543216075858"><ele>1153.0</ele><time>2026-04-09T10:06:36Z</time></trkpt><trkpt lat="37.971659255505664" lon="15.134443230191934"><ele>1153.0</ele><time>2026-04-09T10:06:37Z</time></trkpt><trkpt lat="37.97168321698579" lon="15.134330811227635"><ele>1153.0</ele><time>2026-04-09T10:06:38Z</time></trkpt><trkpt lat="37.97173706793472" lon="15.134215055885168"><ele>1153.0</ele><time>2026-04-09T10:06:39Z</time></trkpt><trkpt lat="37.97182570087002" lon="15.134105959827401"><ele>1157.5</ele><time>2026-04-09T10:06:40Z</time></trkpt><trkpt lat="37.97193259357719" lon="15.133981017889736"><ele>1162.0</ele><time>2026-04-09T10:06:41Z</time></trkpt><trkpt lat="37.97203266310198" lon="15.133860728281034"><ele>1166.5</ele><time>2026-04-09T10:06:42Z</time></trkpt><trkpt lat="37.97211578647112" lon="15.133776213129359"><ele>1171.0</ele><time>2026-04-09T10:06:43Z</time></trkpt><trkpt lat="37.972200007027354" lon="15.133721229966905"><ele>1171.0</ele><time>2026-04-09T10:06:44Z</time></trkpt><trkpt lat="37.97229009925105" lon="15.13371020528734"><ele>1171.0</ele><time>2026-04-09T10:06:45Z</time></trkpt><trkpt lat="37.97237365172597" lon="15.133751750124723"><ele>1171.0</ele><time>2026-04-09T10:06:46Z</time></trkpt><trkpt lat="37.97245736643705" lon="15.13374649429227"><ele>1171.0</ele><time>2026-04-09T10:06:47Z</time></trkpt><trkpt lat="37.97252580423165" lon="15.133717267446992"><ele>1171.0</ele><time>2026-04-09T10:06:48Z</time></trkpt><trkpt lat="37.972587260637575" lon="15.13361254182981"><ele>1171.0</ele><time>2026-04-09T10:06:49Z</time></trkpt><trkpt lat="37.97254018926352" lon="15.133430602255478"><ele>1170.2</ele><time>2026-04-09T10:06:50Z</time></trkpt><trkpt lat="37.972548949588955" lon="15.133289894577992"><ele>1169.3999999999999</ele><time>2026-04-09T10:06:51Z</time></trkpt><trkpt lat="37.97255816425301" lon="15.133140640527966"><ele>1168.6</ele><time>2026-04-09T10:06:52Z</time></trkpt><trkpt lat="37.97254194576358" lon="15.13300269468285"><ele>1167.8</ele><time>2026-04-09T10:06:53Z</time></trkpt><trkpt lat="37.9724969083292" lon="15.13290675049023"><ele>1167.0</ele><time>2026-04-09T10:06:54Z</time></trkpt><trkpt lat="37.97242465295572" lon="15.13284494403085"><ele>1173.75</ele><time>2026-04-09T10:06:55Z</time></trkpt><trkpt lat="37.97233851618473" lon="15.13279987211308"><ele>1180.5</ele><time>2026-04-09T10:06:56Z</time></trkpt><trkpt lat="37.972223337495166" lon="15.132757501052144"><ele>1187.25</ele><time>2026-04-09T10:06:57Z</time></trkpt><trkpt lat="37.972088882272104" lon="15.132723124415934"><ele>1194.0</ele><time>2026-04-09T10:06:58Z</time></trkpt><trkpt lat="37.97199645893495" lon="15.132648067023311"><ele>1194.0</ele><time>2026-04-09T10:06:59Z</time></trkpt><trkpt lat="37.97190446052586" lon="15.132560342222991"><ele>1194.0</ele><time>2026-04-09T10:07:00Z</time></trkpt><trkpt lat="37.97178396597942" lon="15.132462569786597"><ele>1194.0</ele><time>2026-04-09T10:07:01Z</time></trkpt><trkpt lat="37.9716739410709" lon="15.13239744924819"><ele>1194.0</ele><time>2026-04-09T10:07:02Z</time></trkpt><trkpt lat="37.97158383568513" lon="15.13232847160716"><ele>1193.6000000000001</ele><time>2026-04-09T10:07:03Z</time></trkpt><trkpt lat="37.97152774801377" lon="15.132255943711552"><ele>1193.2</ele><time>2026-04-09T10:07:04Z</time></trkpt><trkpt lat="37.97149295841811" lon="15.132179417061387"><ele>1192.8000000000002</ele><time>2026-04-09T10:07:05Z</time></trkpt><trkpt lat="37.97150865822883" lon="15.132014647488171"><ele>1192.4</ele><time>2026-04-09T10:07:07Z</time></trkpt><trkpt lat="37.97157090943284" lon="15.131930369771531"><ele>1192.0</ele><time>2026-04-09T10:07:08Z</time></trkpt><trkpt lat="37.97164966189552" lon="15.131850506495175"><ele>1195.0</ele><time>2026-04-09T10:07:09Z</time></trkpt><trkpt lat="37.97177168787874" lon="15.131786276361412"><ele>1198.0</ele><time>2026-04-09T10:07:10Z</time></trkpt><trkpt lat="37.971891244022245" lon="15.131715412543683"><ele>1201.0</ele><time>2026-04-09T10:07:11Z</time></trkpt><trkpt lat="37.97200139321422" lon="15.131627169106364"><ele>1204.0</ele><time>2026-04-09T10:07:12Z</time></trkpt><trkpt lat="37.972080683259655" lon="15.1315146264987"><ele>1204.0</ele><time>2026-04-09T10:07:13Z</time></trkpt><trkpt lat="37.97214878117345" lon="15.131390744002108"><ele>1204.0</ele><time>2026-04-09T10:07:14Z</time></trkpt><trkpt lat="37.97220735011891" lon="15.13128207266258"><ele>1204.0</ele><time>2026-04-09T10:07:15Z</time></trkpt><trkpt lat="37.97230469696899" lon="15.131236817331358"><ele>1204.0</ele><time>2026-04-09T10:07:16Z</time></trkpt><trkpt lat="37.97237962819573" lon="15.131140985231259"><ele>1204.0</ele><time>2026-04-09T10:07:17Z</time></trkpt><trkpt lat="37.9724565967831" lon="15.131031343713088"><ele>1204.0</ele><time>2026-04-09T10:07:18Z</time></trkpt><trkpt lat="37.97250234190444" lon="15.130902342793837"><ele>1204.0</ele><time>2026-04-09T10:07:19Z</time></trkpt><trkpt lat="37.97254319496027" lon="15.130760450683994"><ele>1204.0</ele><time>2026-04-09T10:07:20Z</time></trkpt><trkpt lat="37.972577533795594" lon="15.130621068901364"><ele>1204.0</ele><time>2026-04-09T10:07:21Z</time></trkpt><trkpt lat="37.972594822664995" lon="15.130469102832308"><ele>1206.25</ele><time>2026-04-09T10:07:22Z</time></trkpt><trkpt lat="37.972588963501465" lon="15.130308062634873"><ele>1208.5</ele><time>2026-04-09T10:07:23Z</time></trkpt><trkpt lat="37.97256240439499" lon="15.130141712369335"><ele>1210.75</ele><time>2026-04-09T10:07:24Z</time></trkpt><trkpt lat="37.9725271116883" lon="15.12997957813528"><ele>1213.0</ele><time>2026-04-09T10:07:25Z</time></trkpt><trkpt lat="37.972494039822415" lon="15.129829070525071"><ele>1213.0</ele><time>2026-04-09T10:07:26Z</time></trkpt><trkpt lat="37.972461683799885" lon="15.129707929853014"><ele>1213.0</ele><time>2026-04-09T10:07:27Z</time></trkpt><trkpt lat="37.972427161720766" lon="15.129582042265108"><ele>1213.0</ele><time>2026-04-09T10:07:28Z</time></trkpt><trkpt lat="37.97231365113779" lon="15.129486694020386"><ele>1213.0</ele><time>2026-04-09T10:07:29Z</time></trkpt><trkpt lat="37.97222000999261" lon="15.129352384313725"><ele>1213.0</ele><time>2026-04-09T10:07:30Z</time></trkpt><trkpt lat="37.97212681113385" lon="15.12921852587693"><ele>1213.0</ele><time>2026-04-09T10:07:31Z</time></trkpt><trkpt lat="37.972046587531956" lon="15.129057475994204"><ele>1213.0</ele><time>2026-04-09T10:07:32Z</time></trkpt><trkpt lat="37.97196845401974" lon="15.128912661531077"><ele>1213.0</ele><time>2026-04-09T10:07:33Z</time></trkpt><trkpt lat="37.97190875154886" lon="15.128791483135887"><ele>1214.0</ele><time>2026-04-09T10:07:34Z</time></trkpt><trkpt lat="37.97186519883941" lon="15.128662102225782"><ele>1215.0</ele><time>2026-04-09T10:07:35Z</time></trkpt><trkpt lat="37.97183585126096" lon="15.128514850398936"><ele>1216.0</ele><time>2026-04-09T10:07:36Z</time></trkpt><trkpt lat="37.9718103327212" lon="15.128345760415902"><ele>1217.0</ele><time>2026-04-09T10:07:37Z</time></trkpt><trkpt lat="37.971787332520854" lon="15.128184992002225"><ele>1220.0</ele><time>2026-04-09T10:07:38Z</time></trkpt><trkpt lat="37.97176960830175" lon="15.128055608303773"><ele>1223.0</ele><time>2026-04-09T10:07:39Z</time></trkpt><trkpt lat="37.97175378291342" lon="15.127954216174118"><ele>1226.0</ele><time>2026-04-09T10:07:40Z</time></trkpt><trkpt lat="37.97171406220694" lon="15.127826022033233"><ele>1229.0</ele><time>2026-04-09T10:07:42Z</time></trkpt><trkpt lat="37.97166122080238" lon="15.127778400143637"><ele>1232.0</ele><time>2026-04-09T10:07:43Z</time></trkpt><trkpt lat="37.971592659037746" lon="15.1277952417909"><ele>1235.0</ele><time>2026-04-09T10:07:44Z</time></trkpt><trkpt lat="37.97152767294807" lon="15.127770719813821"><ele>1235.1666666666667</ele><time>2026-04-09T10:07:46Z</time></trkpt><trkpt lat="37.971518237561696" lon="15.127643577712384"><ele>1235.3333333333335</ele><time>2026-04-09T10:07:49Z</time></trkpt><trkpt lat="37.97155031443143" lon="15.127493517873203"><ele>1235.5</ele><time>2026-04-09T10:07:51Z</time></trkpt><trkpt lat="37.971564253526445" lon="15.127412911218185"><ele>1235.6666666666667</ele><time>2026-04-09T10:07:52Z</time></trkpt><trkpt lat="37.97157213588916" lon="15.127331518401649"><ele>1235.8333333333333</ele><time>2026-04-09T10:07:53Z</time></trkpt><trkpt lat="37.971576787784656" lon="15.12724849771166"><ele>1236.0</ele><time>2026-04-09T10:07:54Z</time></trkpt><trkpt lat="37.97158080841155" lon="15.127151892215243"><ele>1233.8</ele><time>2026-04-09T10:07:55Z</time></trkpt><trkpt lat="37.971601831066494" lon="15.12704923003505"><ele>1231.6</ele><time>2026-04-09T10:07:56Z</time></trkpt><trkpt lat="37.97160814466589" lon="15.126936529805326"><ele>1229.4</ele><time>2026-04-09T10:07:57Z</time></trkpt><trkpt lat="37.97161414718994" lon="15.126829382396012"><ele>1227.2</ele><time>2026-04-09T10:07:58Z</time></trkpt><trkpt lat="37.97162212844736" lon="15.126693456832307"><ele>1225.0</ele><time>2026-04-09T10:07:59Z</time></trkpt><trkpt lat="37.97163077553784" lon="15.126558931999964"><ele>1223.6666666666665</ele><time>2026-04-09T10:08:00Z</time></trkpt><trkpt lat="37.97163603560702" lon="15.126435977553909"><ele>1222.3333333333333</ele><time>2026-04-09T10:08:01Z</time></trkpt><trkpt lat="37.9716418726323" lon="15.126329097310325"><ele>1221.0</ele><time>2026-04-09T10:08:02Z</time></trkpt><trkpt lat="37.971649858580406" lon="15.12622605320777"><ele>1219.6666666666667</ele><time>2026-04-09T10:08:03Z</time></trkpt><trkpt lat="37.971662481830386" lon="15.126129450327939"><ele>1218.3333333333335</ele><time>2026-04-09T10:08:04Z</time></trkpt><trkpt lat="37.9716922344092" lon="15.12604532574293"><ele>1217.0</ele><time>2026-04-09T10:08:05Z</time></trkpt><trkpt lat="37.971740875785535" lon="15.125956041964635"><ele>1219.3333333333335</ele><time>2026-04-09T10:08:06Z</time></trkpt><trkpt lat="37.97177785438372" lon="15.125877119684466"><ele>1221.6666666666667</ele><time>2026-04-09T10:08:07Z</time></trkpt><trkpt lat="37.971787340466726" lon="15.125780580188511"><ele>1224.0</ele><time>2026-04-09T10:08:08Z</time></trkpt><trkpt lat="37.97178887706891" lon="15.12569151831528"><ele>1226.3333333333333</ele><time>2026-04-09T10:08:09Z</time></trkpt><trkpt lat="37.97179344621977" lon="15.125593050368934"><ele>1228.6666666666665</ele><time>2026-04-09T10:08:10Z</time></trkpt><trkpt lat="37.97176675134028" lon="15.125499044551638"><ele>1231.0</ele><time>2026-04-09T10:08:11Z</time></trkpt><trkpt lat="37.97174698910106" lon="15.125393923152627"><ele>1231.0</ele><time>2026-04-09T10:08:12Z</time></trkpt><trkpt lat="37.97173582126666" lon="15.125312354018373"><ele>1231.0</ele><time>2026-04-09T10:08:13Z</time></trkpt><trkpt lat="37.971729452764734" lon="15.125226678309051"><ele>1231.0</ele><time>2026-04-09T10:08:14Z</time></trkpt><trkpt lat="37.97175886906958" lon="15.12512951023509"><ele>1231.0</ele><time>2026-04-09T10:08:15Z</time></trkpt><trkpt lat="37.97182282361694" lon="15.125043332611035"><ele>1231.0</ele><time>2026-04-09T10:08:16Z</time></trkpt><trkpt lat="37.971872560279486" lon="15.12495073096134"><ele>1231.0</ele><time>2026-04-09T10:08:17Z</time></trkpt><trkpt lat="37.971964802407385" lon="15.12488505955061"><ele>1225.75</ele><time>2026-04-09T10:08:17.999Z</time></trkpt><trkpt lat="37.97207358802691" lon="15.124831866079804"><ele>1220.5</ele><time>2026-04-09T10:08:18.999Z</time></trkpt><trkpt lat="37.97220035574359" lon="15.124798886437626"><ele>1215.25</ele><time>2026-04-09T10:08:19.999Z</time></trkpt><trkpt lat="37.97230855589244" lon="15.124803991807736"><ele>1210.0</ele><time>2026-04-09T10:08:20.999Z</time></trkpt><trkpt lat="37.97241087972256" lon="15.124810523564623"><ele>1210.0</ele><time>2026-04-09T10:08:21.999Z</time></trkpt><trkpt lat="37.972495024208776" lon="15.124786666156393"><ele>1210.0</ele><time>2026-04-09T10:08:22.999Z</time></trkpt><trkpt lat="37.97256845171297" lon="15.124729703875854"><ele>1210.0</ele><time>2026-04-09T10:08:23.999Z</time></trkpt><trkpt lat="37.972638583858654" lon="15.124648762933234"><ele>1210.0</ele><time>2026-04-09T10:08:24.999Z</time></trkpt><trkpt lat="37.97270037193077" lon="15.12453304627588"><ele>1210.0</ele><time>2026-04-09T10:08:25.999Z</time></trkpt><trkpt lat="37.97275247925583" lon="15.124398855515938"><ele>1210.75</ele><time>2026-04-09T10:08:26.999Z</time></trkpt><trkpt lat="37.97278791577617" lon="15.124271606511106"><ele>1211.5</ele><time>2026-04-09T10:08:27.999Z</time></trkpt><trkpt lat="37.97282005641507" lon="15.124132073371062"><ele>1212.25</ele><time>2026-04-09T10:08:28.998Z</time></trkpt><trkpt lat="37.97283973256509" lon="15.123967689247904"><ele>1213.0</ele><time>2026-04-09T10:08:29.998Z</time></trkpt><trkpt lat="37.972845037652405" lon="15.1237975740325"><ele>1213.0</ele><time>2026-04-09T10:08:30.998Z</time></trkpt><trkpt lat="37.97282391416843" lon="15.123618253016968"><ele>1213.0</ele><time>2026-04-09T10:08:31.998Z</time></trkpt><trkpt lat="37.97283440344369" lon="15.123451791023642"><ele>1213.0</ele><time>2026-04-09T10:08:32.998Z</time></trkpt><trkpt lat="37.97283135635595" lon="15.123322319533774"><ele>1213.0</ele><time>2026-04-09T10:08:33.998Z</time></trkpt><trkpt lat="37.97283007625544" lon="15.123230268880585"><ele>1213.0</ele><time>2026-04-09T10:08:34.999Z</time></trkpt><trkpt lat="37.97283651029993" lon="15.123130230906662"><ele>1208.4</ele><time>2026-04-09T10:08:35.999Z</time></trkpt><trkpt lat="37.97286677571115" lon="15.12306016046431"><ele>1203.8</ele><time>2026-04-09T10:08:36.999Z</time></trkpt><trkpt lat="37.9729367797134" lon="15.1230331254167"><ele>1199.2</ele><time>2026-04-09T10:08:37.999Z</time></trkpt><trkpt lat="37.97301757008751" lon="15.123043872883981"><ele>1194.6</ele><time>2026-04-09T10:08:38.999Z</time></trkpt><trkpt lat="37.973111584436396" lon="15.123093038485642"><ele>1190.0</ele><time>2026-04-09T10:08:39.999Z</time></trkpt><trkpt lat="37.97323017620079" lon="15.123164491082091"><ele>1190.0</ele><time>2026-04-09T10:08:40.999Z</time></trkpt><trkpt lat="37.973342257930575" lon="15.123198965582926"><ele>1190.0</ele><time>2026-04-09T10:08:41.999Z</time></trkpt><trkpt lat="37.97345154904518" lon="15.123194853616598"><ele>1190.0</ele><time>2026-04-09T10:08:42.999Z</time></trkpt><trkpt lat="37.97354471189838" lon="15.123182177003052"><ele>1190.0</ele><time>2026-04-09T10:08:43.999Z</time></trkpt><trkpt lat="37.97363013252155" lon="15.123179136898129"><ele>1190.0</ele><time>2026-04-09T10:08:44.999Z</time></trkpt><trkpt lat="37.97371588922483" lon="15.123161884420524"><ele>1192.6</ele><time>2026-04-09T10:08:45.999Z</time></trkpt><trkpt lat="37.97378240822715" lon="15.123119831893426"><ele>1195.2</ele><time>2026-04-09T10:08:46.999Z</time></trkpt><trkpt lat="37.973830289569364" lon="15.123003623855112"><ele>1197.8</ele><time>2026-04-09T10:08:47.999Z</time></trkpt><trkpt lat="37.97383580603858" lon="15.122892192722023"><ele>1200.4</ele><time>2026-04-09T10:08:48.999Z</time></trkpt><trkpt lat="37.97381608731317" lon="15.122783257754769"><ele>1203.0</ele><time>2026-04-09T10:08:49.999Z</time></trkpt><trkpt lat="37.97377627939095" lon="15.122641328727171"><ele>1203.0</ele><time>2026-04-09T10:08:50.999Z</time></trkpt><trkpt lat="37.97373665522115" lon="15.122468719168715"><ele>1203.0</ele><time>2026-04-09T10:08:51.999Z</time></trkpt><trkpt lat="37.97369495180689" lon="15.1222743700421"><ele>1203.0</ele><time>2026-04-09T10:08:52.999Z</time></trkpt><trkpt lat="37.97367889864108" lon="15.122109728155323"><ele>1203.0</ele><time>2026-04-09T10:08:53.999Z</time></trkpt><trkpt lat="37.973665191877494" lon="15.121946724403672"><ele>1204.5</ele><time>2026-04-09T10:08:54.999Z</time></trkpt><trkpt lat="37.973638700707575" lon="15.12180080254"><ele>1206.0</ele><time>2026-04-09T10:08:55.999Z</time></trkpt><trkpt lat="37.973589192068246" lon="15.1216666562968"><ele>1207.5</ele><time>2026-04-09T10:08:56.999Z</time></trkpt><trkpt lat="37.9734918701168" lon="15.12155472658311"><ele>1209.0</ele><time>2026-04-09T10:08:57.999Z</time></trkpt><trkpt lat="37.9734010854483" lon="15.1214510638707"><ele>1206.6000000000001</ele><time>2026-04-09T10:08:58.999Z</time></trkpt><trkpt lat="37.97335633366986" lon="15.121341570627246"><ele>1204.2</ele><time>2026-04-09T10:08:59.999Z</time></trkpt><trkpt lat="37.97332285196761" lon="15.121202553360193"><ele>1201.8000000000002</ele><time>2026-04-09T10:09:00.999Z</time></trkpt><trkpt lat="37.97332476415945" lon="15.121084302992635"><ele>1199.4</ele><time>2026-04-09T10:09:01.999Z</time></trkpt><trkpt lat="37.97336532698689" lon="15.120967724930015"><ele>1197.0</ele><time>2026-04-09T10:09:02.999Z</time></trkpt><trkpt lat="37.973384802174756" lon="15.120834715533968"><ele>1198.8</ele><time>2026-04-09T10:09:03.999Z</time></trkpt><trkpt lat="37.97336597120099" lon="15.120714229178205"><ele>1200.6</ele><time>2026-04-09T10:09:04.999Z</time></trkpt><trkpt lat="37.97330635712111" lon="15.120605130222891"><ele>1202.3999999999999</ele><time>2026-04-09T10:09:05.999Z</time></trkpt><trkpt lat="37.97323763102885" lon="15.120526044371596"><ele>1204.2</ele><time>2026-04-09T10:09:06.999Z</time></trkpt><trkpt lat="37.97315320603916" lon="15.120441779224942"><ele>1206.0</ele><time>2026-04-09T10:09:07.999Z</time></trkpt><trkpt lat="37.9730795725916" lon="15.120346403811823"><ele>1206.0</ele><time>2026-04-09T10:09:08.999Z</time></trkpt><trkpt lat="37.97303800408846" lon="15.12024331506844"><ele>1206.0</ele><time>2026-04-09T10:09:09.999Z</time></trkpt><trkpt lat="37.97300290813418" lon="15.120107737066569"><ele>1206.0</ele><time>2026-04-09T10:09:10.999Z</time></trkpt><trkpt lat="37.97296950871216" lon="15.119961679164128"><ele>1206.0</ele><time>2026-04-09T10:09:11.999Z</time></trkpt><trkpt lat="37.97293821725332" lon="15.119823129983848"><ele>1206.0</ele><time>2026-04-09T10:09:12.999Z</time></trkpt><trkpt lat="37.972914871652925" lon="15.119702106229319"><ele>1204.2</ele><time>2026-04-09T10:09:13.999Z</time></trkpt><trkpt lat="37.97292362213868" lon="15.119585838523996"><ele>1202.3999999999999</ele><time>2026-04-09T10:09:14.999Z</time></trkpt><trkpt lat="37.97297185272289" lon="15.119490785745377"><ele>1200.6</ele><time>2026-04-09T10:09:15.999Z</time></trkpt><trkpt lat="37.97304434049314" lon="15.119422910357416"><ele>1198.8</ele><time>2026-04-09T10:09:16.999Z</time></trkpt><trkpt lat="37.97312864061611" lon="15.119331177984442"><ele>1197.0</ele><time>2026-04-09T10:09:17.999Z</time></trkpt><trkpt lat="37.97320894873857" lon="15.119270083439934"><ele>1197.0</ele><time>2026-04-09T10:09:18.999Z</time></trkpt><trkpt lat="37.97328474701588" lon="15.119192608248248"><ele>1197.0</ele><time>2026-04-09T10:09:19.999Z</time></trkpt><trkpt lat="37.97332479579986" lon="15.119057984662431"><ele>1197.0</ele><time>2026-04-09T10:09:20.999Z</time></trkpt><trkpt lat="37.97335404766304" lon="15.11893676950732"><ele>1197.0</ele><time>2026-04-09T10:09:21.999Z</time></trkpt><trkpt lat="37.97340474634338" lon="15.118824913517324"><ele>1197.0</ele><time>2026-04-09T10:09:22.999Z</time></trkpt><trkpt lat="37.97349412781054" lon="15.118779919921328"><ele>1195.6</ele><time>2026-04-09T10:09:23.999Z</time></trkpt><trkpt lat="37.973598613656094" lon="15.118757607042877"><ele>1194.2</ele><time>2026-04-09T10:09:24.999Z</time></trkpt><trkpt lat="37.973715114960704" lon="15.118726861919058"><ele>1192.8</ele><time>2026-04-09T10:09:25.999Z</time></trkpt><trkpt lat="37.97383328418742" lon="15.11871979416274"><ele>1191.4</ele><time>2026-04-09T10:09:26.999Z</time></trkpt><trkpt lat="37.97393650182937" lon="15.118697296741773"><ele>1190.0</ele><time>2026-04-09T10:09:27.999Z</time></trkpt><trkpt lat="37.974025668442316" lon="15.118642955277197"><ele>1190.0</ele><time>2026-04-09T10:09:28.999Z</time></trkpt><trkpt lat="37.97408728202462" lon="15.118560006697656"><ele>1190.0</ele><time>2026-04-09T10:09:29.999Z</time></trkpt><trkpt lat="37.97412199698814" lon="15.118455332611921"><ele>1190.0</ele><time>2026-04-09T10:09:30.999Z</time></trkpt><trkpt lat="37.97413134877701" lon="15.118339862030593"><ele>1190.0</ele><time>2026-04-09T10:09:31.999Z</time></trkpt><trkpt lat="37.97411473669314" lon="15.1182096174326"><ele>1190.0</ele><time>2026-04-09T10:09:32.999Z</time></trkpt><trkpt lat="37.974105174900934" lon="15.118092942152218"><ele>1189.8333333333335</ele><time>2026-04-09T10:09:33.999Z</time></trkpt><trkpt lat="37.97408909304606" lon="15.118000691465209"><ele>1189.6666666666667</ele><time>2026-04-09T10:09:34.999Z</time></trkpt><trkpt lat="37.97408067197737" lon="15.117917676147291"><ele>1189.5</ele><time>2026-04-09T10:09:35.999Z</time></trkpt><trkpt lat="37.974099243162144" lon="15.117819027131143"><ele>1189.3333333333333</ele><time>2026-04-09T10:09:36.999Z</time></trkpt><trkpt lat="37.97411269984036" lon="15.117718493300178"><ele>1189.1666666666665</ele><time>2026-04-09T10:09:37.999Z</time></trkpt><trkpt lat="37.97413755039364" lon="15.117610578787678"><ele>1189.0</ele><time>2026-04-09T10:09:38.999Z</time></trkpt><trkpt lat="37.97413207790354" lon="15.117496904416129"><ele>1190.2</ele><time>2026-04-09T10:09:39.999Z</time></trkpt><trkpt lat="37.974107852722895" lon="15.117386457948028"><ele>1191.4</ele><time>2026-04-09T10:09:40.999Z</time></trkpt><trkpt lat="37.97403928700722" lon="15.117272602094902"><ele>1192.6</ele><time>2026-04-09T10:09:41.999Z</time></trkpt><trkpt lat="37.97397413600111" lon="15.117179397023595"><ele>1193.8</ele><time>2026-04-09T10:09:42.999Z</time></trkpt><trkpt lat="37.97390276335122" lon="15.117096970065214"><ele>1195.0</ele><time>2026-04-09T10:09:43.999Z</time></trkpt><trkpt lat="37.97383245258227" lon="15.11702106754785"><ele>1195.0</ele><time>2026-04-09T10:09:44.999Z</time></trkpt><trkpt lat="37.97377672771597" lon="15.11694984804768"><ele>1195.0</ele><time>2026-04-09T10:09:45.999Z</time></trkpt><trkpt lat="37.97373868885555" lon="15.116875660570642"><ele>1195.0</ele><time>2026-04-09T10:09:46.999Z</time></trkpt><trkpt lat="37.97371098644721" lon="15.116781778586144"><ele>1195.0</ele><time>2026-04-09T10:09:47.999Z</time></trkpt><trkpt lat="37.97371976439447" lon="15.11667936661249"><ele>1195.0</ele><time>2026-04-09T10:09:48.999Z</time></trkpt><trkpt lat="37.97372810292553" lon="15.116572904876742"><ele>1195.0</ele><time>2026-04-09T10:09:49.999Z</time></trkpt><trkpt lat="37.973741717720074" lon="15.116463092328953"><ele>1194.3333333333333</ele><time>2026-04-09T10:09:50.999Z</time></trkpt><trkpt lat="37.973760396369165" lon="15.116363360928926"><ele>1193.6666666666665</ele><time>2026-04-09T10:09:51.999Z</time></trkpt><trkpt lat="37.97378644452515" lon="15.116256536392392"><ele>1193.0</ele><time>2026-04-09T10:09:52.999Z</time></trkpt><trkpt lat="37.9738189515327" lon="15.11614826863219"><ele>1192.3333333333333</ele><time>2026-04-09T10:09:53.999Z</time></trkpt><trkpt lat="37.973861026575605" lon="15.116056965591138"><ele>1191.6666666666667</ele><time>2026-04-09T10:09:54.999Z</time></trkpt><trkpt lat="37.973902090755956" lon="15.11599129754924"><ele>1191.0</ele><time>2026-04-09T10:09:55.999Z</time></trkpt><trkpt lat="37.97394593496729" lon="15.115868071539603"><ele>1191.0</ele><time>2026-04-09T10:09:57.999Z</time></trkpt><trkpt lat="37.97395150707753" lon="15.115767587737526"><ele>1191.0</ele><time>2026-04-09T10:10:00.999Z</time></trkpt><trkpt lat="37.97388995234927" lon="15.115617579885926"><ele>1191.0</ele><time>2026-04-09T10:10:09.999Z</time></trkpt><trkpt lat="37.97383051172099" lon="15.115572073843499"><ele>1191.0</ele><time>2026-04-09T10:10:10.999Z</time></trkpt><trkpt lat="37.973765026939084" lon="15.115562599742123"><ele>1191.0</ele><time>2026-04-09T10:10:11.999Z</time></trkpt><trkpt lat="37.973694445625014" lon="15.11555695414031"><ele>1191.0</ele><time>2026-04-09T10:10:12.999Z</time></trkpt><trkpt lat="37.97360736797128" lon="15.115556948571642"><ele>1190.0</ele><time>2026-04-09T10:10:13.999Z</time></trkpt><trkpt lat="37.97350992606711" lon="15.115556948570127"><ele>1189.0</ele><time>2026-04-09T10:10:14.999Z</time></trkpt><trkpt lat="37.97343210994147" lon="15.115560476417565"><ele>1188.0</ele><time>2026-04-09T10:10:15.999Z</time></trkpt><trkpt lat="37.97334884170927" lon="15.115582300994197"><ele>1187.0</ele><time>2026-04-09T10:10:16.999Z</time></trkpt><trkpt lat="37.973266022487856" lon="15.115620089209187"><ele>1186.0</ele><time>2026-04-09T10:10:17.999Z</time></trkpt><trkpt lat="37.973180064650535" lon="15.115681642592945"><ele>1185.0</ele><time>2026-04-09T10:10:18.999Z</time></trkpt><trkpt lat="37.97310468897999" lon="15.115735322735665"><ele>1185.0</ele><time>2026-04-09T10:10:19.999Z</time></trkpt><trkpt lat="37.97304049339006" lon="15.11578707474102"><ele>1185.0</ele><time>2026-04-09T10:10:20.999Z</time></trkpt><trkpt lat="37.972981972113246" lon="15.115825436115147"><ele>1185.0</ele><time>2026-04-09T10:10:21.999Z</time></trkpt><trkpt lat="37.97292165535757" lon="15.11584840889423"><ele>1185.0</ele><time>2026-04-09T10:10:22.999Z</time></trkpt><trkpt lat="37.9728589650823" lon="15.115874854157587"><ele>1185.0</ele><time>2026-04-09T10:10:23.999Z</time></trkpt><trkpt lat="37.972779817018534" lon="15.115779892266238"><ele>1185.0</ele><time>2026-04-09T10:10:25.999Z</time></trkpt><trkpt lat="37.97274650032008" lon="15.115688925253837"><ele>1185.0</ele><time>2026-04-09T10:10:27.999Z</time></trkpt><trkpt lat="37.97277117075776" lon="15.115584584132005"><ele>1185.0</ele><time>2026-04-09T10:10:29.999Z</time></trkpt><trkpt lat="37.97281210638414" lon="15.115519453080967"><ele>1185.0</ele><time>2026-04-09T10:10:30.999Z</time></trkpt><trkpt lat="37.97285486674754" lon="15.115416391627003"><ele>1185.0</ele><time>2026-04-09T10:10:31.999Z</time></trkpt><trkpt lat="37.97289453932667" lon="15.115294620549648"><ele>1185.0</ele><time>2026-04-09T10:10:32.999Z</time></trkpt><trkpt lat="37.97290337958253" lon="15.115149506003466"><ele>1185.0</ele><time>2026-04-09T10:10:33.999Z</time></trkpt><trkpt lat="37.97292321088398" lon="15.115011390228936"><ele>1185.0</ele><time>2026-04-09T10:10:34.999Z</time></trkpt><trkpt lat="37.9729565694505" lon="15.11488915538935"><ele>1185.0</ele><time>2026-04-09T10:10:35.999Z</time></trkpt><trkpt lat="37.97298209933229" lon="15.114767042509136"><ele>1185.0</ele><time>2026-04-09T10:10:36.999Z</time></trkpt><trkpt lat="37.97301452689028" lon="15.114644058069173"><ele>1185.0</ele><time>2026-04-09T10:10:37.998Z</time></trkpt><trkpt lat="37.97305080575127" lon="15.114518334927988"><ele>1183.2</ele><time>2026-04-09T10:10:38.998Z</time></trkpt><trkpt lat="37.973091771470585" lon="15.114394192054617"><ele>1181.4</ele><time>2026-04-09T10:10:39.998Z</time></trkpt><trkpt lat="37.97314252284978" lon="15.114259975785112"><ele>1179.6</ele><time>2026-04-09T10:10:40.999Z</time></trkpt><trkpt lat="37.97319741913028" lon="15.114126278493277"><ele>1177.8</ele><time>2026-04-09T10:10:41.999Z</time></trkpt><trkpt lat="37.97324902342672" lon="15.114023523437213"><ele>1176.0</ele><time>2026-04-09T10:10:42.999Z</time></trkpt><trkpt lat="37.97331235162155" lon="15.113940760823862"><ele>1180.5</ele><time>2026-04-09T10:10:43.999Z</time></trkpt><trkpt lat="37.97339435694985" lon="15.11386188841072"><ele>1185.0</ele><time>2026-04-09T10:10:44.999Z</time></trkpt><trkpt lat="37.97350695150703" lon="15.113792546620024"><ele>1189.5</ele><time>2026-04-09T10:10:45.999Z</time></trkpt><trkpt lat="37.97360013892584" lon="15.113671924194852"><ele>1194.0</ele><time>2026-04-09T10:10:46.999Z</time></trkpt><trkpt lat="37.973674488016016" lon="15.113540286492116"><ele>1194.0</ele><time>2026-04-09T10:10:47.999Z</time></trkpt><trkpt lat="37.97372443898377" lon="15.113394149309253"><ele>1194.0</ele><time>2026-04-09T10:10:48.999Z</time></trkpt><trkpt lat="37.97377890487992" lon="15.113256519783425"><ele>1194.0</ele><time>2026-04-09T10:10:49.999Z</time></trkpt><trkpt lat="37.973842531414675" lon="15.113126659212709"><ele>1194.0</ele><time>2026-04-09T10:10:50.999Z</time></trkpt><trkpt lat="37.97392513357718" lon="15.112980734046518"><ele>1191.0</ele><time>2026-04-09T10:10:51.999Z</time></trkpt><trkpt lat="37.97400845605504" lon="15.112835118497305"><ele>1188.0</ele><time>2026-04-09T10:10:52.999Z</time></trkpt><trkpt lat="37.97407572333539" lon="15.112689324324663"><ele>1185.0</ele><time>2026-04-09T10:10:53.999Z</time></trkpt><trkpt lat="37.97413037800257" lon="15.112524174040223"><ele>1182.0</ele><time>2026-04-09T10:10:54.999Z</time></trkpt><trkpt lat="37.974168828787455" lon="15.112338003876868"><ele>1188.0</ele><time>2026-04-09T10:10:55.999Z</time></trkpt><trkpt lat="37.974192558620544" lon="15.11216842360981"><ele>1194.0</ele><time>2026-04-09T10:10:56.999Z</time></trkpt><trkpt lat="37.97421427340541" lon="15.112010848069424"><ele>1200.0</ele><time>2026-04-09T10:10:57.999Z</time></trkpt><trkpt lat="37.97423535654799" lon="15.111856660025559"><ele>1206.0</ele><time>2026-04-09T10:10:58.999Z</time></trkpt><trkpt lat="37.97425424814328" lon="15.111718499585699"><ele>1206.0</ele><time>2026-04-09T10:10:59.999Z</time></trkpt><trkpt lat="37.97427241018307" lon="15.111585674377759"><ele>1206.0</ele><time>2026-04-09T10:11:00.999Z</time></trkpt><trkpt lat="37.974300919382166" lon="15.111447875383424"><ele>1206.0</ele><time>2026-04-09T10:11:01.999Z</time></trkpt><trkpt lat="37.97435049553558" lon="15.111343556028336"><ele>1206.0</ele><time>2026-04-09T10:11:02.999Z</time></trkpt><trkpt lat="37.97441542254075" lon="15.111232669647071"><ele>1206.0</ele><time>2026-04-09T10:11:03.999Z</time></trkpt><trkpt lat="37.97448521385414" lon="15.111140149300955"><ele>1202.8</ele><time>2026-04-09T10:11:04.999Z</time></trkpt><trkpt lat="37.97451595399415" lon="15.111063035783527"><ele>1199.6</ele><time>2026-04-09T10:11:05.999Z</time></trkpt><trkpt lat="37.97457091790562" lon="15.110952473645487"><ele>1196.4</ele><time>2026-04-09T10:11:07.999Z</time></trkpt><trkpt lat="37.97459048344602" lon="15.11086482330653"><ele>1193.2</ele><time>2026-04-09T10:11:10.999Z</time></trkpt><trkpt lat="37.97462827776364" lon="15.110698268306804"><ele>1190.0</ele><time>2026-04-09T10:12:01.999Z</time></trkpt><trkpt lat="37.974636766791455" lon="15.11057221815816"><ele>1187.0</ele><time>2026-04-09T10:12:02.999Z</time></trkpt><trkpt lat="37.97463117527376" lon="15.110407897274897"><ele>1184.0</ele><time>2026-04-09T10:12:03.999Z</time></trkpt><trkpt lat="37.974608958992626" lon="15.110255574966537"><ele>1181.0</ele><time>2026-04-09T10:12:04.999Z</time></trkpt><trkpt lat="37.97461498509126" lon="15.110102630173204"><ele>1178.0</ele><time>2026-04-09T10:12:05.999Z</time></trkpt><trkpt lat="37.97463597011835" lon="15.109952920948041"><ele>1177.5</ele><time>2026-04-09T10:12:06.999Z</time></trkpt><trkpt lat="37.97470124417436" lon="15.109834999711385"><ele>1177.0</ele><time>2026-04-09T10:12:07.999Z</time></trkpt><trkpt lat="37.974771890591775" lon="15.109716002883125"><ele>1176.5</ele><time>2026-04-09T10:12:08.999Z</time></trkpt><trkpt lat="37.97486199240758" lon="15.10959277901086"><ele>1176.0</ele><time>2026-04-09T10:12:09.999Z</time></trkpt><trkpt lat="37.974957390486644" lon="15.109467588229775"><ele>1180.75</ele><time>2026-04-09T10:12:10.999Z</time></trkpt><trkpt lat="37.97503594296989" lon="15.109323540438503"><ele>1185.5</ele><time>2026-04-09T10:12:11.999Z</time></trkpt><trkpt lat="37.975114703667415" lon="15.109179812439125"><ele>1190.25</ele><time>2026-04-09T10:12:12.999Z</time></trkpt><trkpt lat="37.97517379539559" lon="15.109003087561895"><ele>1195.0</ele><time>2026-04-09T10:12:13.999Z</time></trkpt><trkpt lat="37.97521070299433" lon="15.108816024101648"><ele>1195.0</ele><time>2026-04-09T10:12:14.999Z</time></trkpt><trkpt lat="37.97522930404876" lon="15.108624521867227"><ele>1195.0</ele><time>2026-04-09T10:12:15.999Z</time></trkpt><trkpt lat="37.97522954205852" lon="15.10845479540158"><ele>1195.0</ele><time>2026-04-09T10:12:16.999Z</time></trkpt><trkpt lat="37.97525299571124" lon="15.10830636846645"><ele>1195.0</ele><time>2026-04-09T10:12:17.999Z</time></trkpt><trkpt lat="37.97528118864361" lon="15.108169553597454"><ele>1192.5</ele><time>2026-04-09T10:12:18.999Z</time></trkpt><trkpt lat="37.975307136446695" lon="15.108058223356219"><ele>1190.0</ele><time>2026-04-09T10:12:19.999Z</time></trkpt><trkpt lat="37.97533404746547" lon="15.107950709639214"><ele>1187.5</ele><time>2026-04-09T10:12:20.999Z</time></trkpt><trkpt lat="37.975349161919326" lon="15.107847919314281"><ele>1185.0</ele><time>2026-04-09T10:12:21.999Z</time></trkpt><trkpt lat="37.975389595633736" lon="15.107780824838164"><ele>1182.5</ele><time>2026-04-09T10:12:22.999Z</time></trkpt><trkpt lat="37.97546466701423" lon="15.10773659320675"><ele>1180.0</ele><time>2026-04-09T10:12:23.999Z</time></trkpt><trkpt lat="37.97554864608885" lon="15.107684977714712"><ele>1180.0</ele><time>2026-04-09T10:12:24.999Z</time></trkpt><trkpt lat="37.975632160146624" lon="15.10760216620976"><ele>1180.0</ele><time>2026-04-09T10:12:25.999Z</time></trkpt><trkpt lat="37.97571343259666" lon="15.10749081924228"><ele>1180.0</ele><time>2026-04-09T10:12:26.999Z</time></trkpt><trkpt lat="37.97575837482613" lon="15.107326733015372"><ele>1180.0</ele><time>2026-04-09T10:12:27.999Z</time></trkpt><trkpt lat="37.97580102684314" lon="15.107142543490257"><ele>1183.3333333333333</ele><time>2026-04-09T10:12:28.999Z</time></trkpt><trkpt lat="37.97585821988634" lon="15.106958726671252"><ele>1186.6666666666667</ele><time>2026-04-09T10:12:29.999Z</time></trkpt><trkpt lat="37.97591227497262" lon="15.10677354133796"><ele>1190.0</ele><time>2026-04-09T10:12:30.999Z</time></trkpt><trkpt lat="37.97596015771617" lon="15.106586063056971"><ele>1191.0</ele><time>2026-04-09T10:12:31.999Z</time></trkpt><trkpt lat="37.97599369955919" lon="15.106402184897869"><ele>1192.0</ele><time>2026-04-09T10:12:32.999Z</time></trkpt><trkpt lat="37.975997773232116" lon="15.106183505902113"><ele>1193.0</ele><time>2026-04-09T10:12:33.999Z</time></trkpt><trkpt lat="37.97602074325735" lon="15.105982875840397"><ele>1193.0</ele><time>2026-04-09T10:12:34.999Z</time></trkpt><trkpt lat="37.97602966747947" lon="15.105814685294662"><ele>1193.0</ele><time>2026-04-09T10:12:35.999Z</time></trkpt><trkpt lat="37.97604124655899" lon="15.105641937170441"><ele>1193.0</ele><time>2026-04-09T10:12:36.999Z</time></trkpt><trkpt lat="37.976062448105225" lon="15.105472754089174"><ele>1193.0</ele><time>2026-04-09T10:12:37.999Z</time></trkpt><trkpt lat="37.97608904661776" lon="15.105319664271036"><ele>1192.5</ele><time>2026-04-09T10:12:38.999Z</time></trkpt><trkpt lat="37.97610447371604" lon="15.10517698675381"><ele>1192.0</ele><time>2026-04-09T10:12:39.999Z</time></trkpt><trkpt lat="37.97608555407334" lon="15.105029482803731"><ele>1191.5</ele><time>2026-04-09T10:12:40.999Z</time></trkpt><trkpt lat="37.976032957349844" lon="15.10487872162442"><ele>1191.0</ele><time>2026-04-09T10:12:41.999Z</time></trkpt><trkpt lat="37.97596995260279" lon="15.10471535719167"><ele>1193.25</ele><time>2026-04-09T10:12:42.999Z</time></trkpt><trkpt lat="37.97590610128981" lon="15.104552030616203"><ele>1195.5</ele><time>2026-04-09T10:12:43.999Z</time></trkpt><trkpt lat="37.97584549044708" lon="15.104408670745457"><ele>1197.75</ele><time>2026-04-09T10:12:44.999Z</time></trkpt><trkpt lat="37.975781081106206" lon="15.104288504989938"><ele>1200.0</ele><time>2026-04-09T10:12:45.999Z</time></trkpt><trkpt lat="37.97567589119536" lon="15.104212337900417"><ele>1194.1666666666667</ele><time>2026-04-09T10:12:46.999Z</time></trkpt><trkpt lat="37.97560771335324" lon="15.104118268172058"><ele>1188.3333333333333</ele><time>2026-04-09T10:12:47.999Z</time></trkpt><trkpt lat="37.97554341537668" lon="15.104048369213421"><ele>1182.5</ele><time>2026-04-09T10:12:48.999Z</time></trkpt><trkpt lat="37.9755172741076" lon="15.103975039911973"><ele>1176.6666666666665</ele><time>2026-04-09T10:12:49.999Z</time></trkpt><trkpt lat="37.97550419710294" lon="15.103828095313219"><ele>1170.8333333333333</ele><time>2026-04-09T10:12:51.999Z</time></trkpt><trkpt lat="37.975516021390064" lon="15.10374632514931"><ele>1165.0</ele><time>2026-04-09T10:12:52.999Z</time></trkpt><trkpt lat="37.97552911643801" lon="15.103617474766777"><ele>1165.0</ele><time>2026-04-09T10:12:53.999Z</time></trkpt><trkpt lat="37.97556556963467" lon="15.103483492118768"><ele>1165.0</ele><time>2026-04-09T10:12:54.999Z</time></trkpt><trkpt lat="37.97559850792972" lon="15.10333013278504"><ele>1165.0</ele><time>2026-04-09T10:12:55.999Z</time></trkpt><trkpt lat="37.97561767688882" lon="15.103157247192375"><ele>1165.0</ele><time>2026-04-09T10:12:56.999Z</time></trkpt><trkpt lat="37.97561583436827" lon="15.102991723569835"><ele>1162.75</ele><time>2026-04-09T10:12:57.999Z</time></trkpt><trkpt lat="37.975587611844844" lon="15.102824725351539"><ele>1160.5</ele><time>2026-04-09T10:12:58.999Z</time></trkpt><trkpt lat="37.97555417046873" lon="15.102661806929834"><ele>1158.25</ele><time>2026-04-09T10:12:59.999Z</time></trkpt><trkpt lat="37.97554944237409" lon="15.10248555891675"><ele>1156.0</ele><time>2026-04-09T10:13:00.999Z</time></trkpt><trkpt lat="37.97555007880889" lon="15.10227837205228"><ele>1151.3333333333333</ele><time>2026-04-09T10:13:01.999Z</time></trkpt><trkpt lat="37.975540290311365" lon="15.102038244734608"><ele>1146.6666666666667</ele><time>2026-04-09T10:13:02.999Z</time></trkpt><trkpt lat="37.97548419448254" lon="15.101865275565837"><ele>1142.0</ele><time>2026-04-09T10:13:03.999Z</time></trkpt><trkpt lat="37.97542802232825" lon="15.101708005743541"><ele>1142.0</ele><time>2026-04-09T10:13:04.999Z</time></trkpt><trkpt lat="37.97540547952276" lon="15.101533124031949"><ele>1142.0</ele><time>2026-04-09T10:13:05.999Z</time></trkpt><trkpt lat="37.975431166551736" lon="15.10139821407212"><ele>1142.0</ele><time>2026-04-09T10:13:06.999Z</time></trkpt><trkpt lat="37.97546571518181" lon="15.10126305955326"><ele>1142.0</ele><time>2026-04-09T10:13:07.999Z</time></trkpt><trkpt lat="37.97551315969549" lon="15.101107482954427"><ele>1142.0</ele><time>2026-04-09T10:13:08.999Z</time></trkpt><trkpt lat="37.97554477579603" lon="15.100947052026768"><ele>1142.0</ele><time>2026-04-09T10:13:09.999Z</time></trkpt><trkpt lat="37.97557209469312" lon="15.100806669534148"><ele>1142.0</ele><time>2026-04-09T10:13:10.999Z</time></trkpt><trkpt lat="37.97555404721797" lon="15.100662098665516"><ele>1142.0</ele><time>2026-04-09T10:13:11.999Z</time></trkpt><trkpt lat="37.975516680882194" lon="15.100508087951606"><ele>1141.75</ele><time>2026-04-09T10:13:12.999Z</time></trkpt><trkpt lat="37.975483646747655" lon="15.100351242162603"><ele>1141.5</ele><time>2026-04-09T10:13:13.999Z</time></trkpt><trkpt lat="37.975457117697" lon="15.100184606810036"><ele>1141.25</ele><time>2026-04-09T10:13:14.999Z</time></trkpt><trkpt lat="37.97542601001009" lon="15.100029170044037"><ele>1141.0</ele><time>2026-04-09T10:13:15.999Z</time></trkpt><trkpt lat="37.9753852141246" lon="15.099904306769888"><ele>1141.0</ele><time>2026-04-09T10:13:16.999Z</time></trkpt><trkpt lat="37.97533968591918" lon="15.099776710807985"><ele>1141.0</ele><time>2026-04-09T10:13:17.999Z</time></trkpt><trkpt lat="37.97530270556107" lon="15.099649008671625"><ele>1141.0</ele><time>2026-04-09T10:13:18.999Z</time></trkpt><trkpt lat="37.97525314269411" lon="15.09951492260128"><ele>1141.0</ele><time>2026-04-09T10:13:19.999Z</time></trkpt><trkpt lat="37.975182263718416" lon="15.09940751287688"><ele>1141.0</ele><time>2026-04-09T10:13:20.999Z</time></trkpt><trkpt lat="37.97510326796623" lon="15.09928662838702"><ele>1145.25</ele><time>2026-04-09T10:13:21.999Z</time></trkpt><trkpt lat="37.975005025034335" lon="15.099201729580516"><ele>1149.5</ele><time>2026-04-09T10:13:22.999Z</time></trkpt><trkpt lat="37.97490876681739" lon="15.099120421178727"><ele>1153.75</ele><time>2026-04-09T10:13:23.999Z</time></trkpt><trkpt lat="37.974820652093634" lon="15.099029766883346"><ele>1158.0</ele><time>2026-04-09T10:13:24.999Z</time></trkpt><trkpt lat="37.9747653013795" lon="15.098919357414363"><ele>1158.5</ele><time>2026-04-09T10:13:25.999Z</time></trkpt><trkpt lat="37.97471679353497" lon="15.098793235364635"><ele>1159.0</ele><time>2026-04-09T10:13:26.999Z</time></trkpt><trkpt lat="37.97465506015667" lon="15.098649826334153"><ele>1159.5</ele><time>2026-04-09T10:13:27.999Z</time></trkpt><trkpt lat="37.97458144228091" lon="15.098520470096474"><ele>1160.0</ele><time>2026-04-09T10:13:28.999Z</time></trkpt><trkpt lat="37.97452146994401" lon="15.098393755544599"><ele>1160.0</ele><time>2026-04-09T10:13:29.999Z</time></trkpt><trkpt lat="37.97449267049811" lon="15.098262580720966"><ele>1160.0</ele><time>2026-04-09T10:13:30.999Z</time></trkpt><trkpt lat="37.974472134881466" lon="15.09812566775319"><ele>1160.0</ele><time>2026-04-09T10:13:31.999Z</time></trkpt><trkpt lat="37.974432397350164" lon="15.097991960904407"><ele>1160.0</ele><time>2026-04-09T10:13:32.999Z</time></trkpt><trkpt lat="37.97440524811256" lon="15.09786375702716"><ele>1160.0</ele><time>2026-04-09T10:13:33.999Z</time></trkpt><trkpt lat="37.97429050264674" lon="15.097791088410684"><ele>1165.25</ele><time>2026-04-09T10:13:34.999Z</time></trkpt><trkpt lat="37.97418255228049" lon="15.0977183805324"><ele>1170.5</ele><time>2026-04-09T10:13:35.999Z</time></trkpt><trkpt lat="37.974066920801405" lon="15.097624703174745"><ele>1175.75</ele><time>2026-04-09T10:13:36.999Z</time></trkpt><trkpt lat="37.97396065107183" lon="15.09751991590439"><ele>1181.0</ele><time>2026-04-09T10:13:37.999Z</time></trkpt><trkpt lat="37.97385686087343" lon="15.097417573653486"><ele>1181.8</ele><time>2026-04-09T10:13:38.999Z</time></trkpt><trkpt lat="37.973758940922814" lon="15.09730888036219"><ele>1182.6</ele><time>2026-04-09T10:13:39.999Z</time></trkpt><trkpt lat="37.9736921621975" lon="15.097202806697073"><ele>1183.4</ele><time>2026-04-09T10:13:40.999Z</time></trkpt><trkpt lat="37.97366180428818" lon="15.097112193392183"><ele>1184.2</ele><time>2026-04-09T10:13:41.999Z</time></trkpt><trkpt lat="37.97369262377571" lon="15.096951278327161"><ele>1185.0</ele><time>2026-04-09T10:13:43.999Z</time></trkpt><trkpt lat="37.97374080399693" lon="15.096843936691062"><ele>1185.0</ele><time>2026-04-09T10:13:44.999Z</time></trkpt><trkpt lat="37.973768662268384" lon="15.09669279405639"><ele>1185.0</ele><time>2026-04-09T10:13:45.999Z</time></trkpt><trkpt lat="37.97380452105788" lon="15.096548188202126"><ele>1185.0</ele><time>2026-04-09T10:13:46.999Z</time></trkpt><trkpt lat="37.97381617152267" lon="15.096400590726702"><ele>1185.0</ele><time>2026-04-09T10:13:47.999Z</time></trkpt><trkpt lat="37.97380817532691" lon="15.096244777371846"><ele>1184.2</ele><time>2026-04-09T10:13:48.999Z</time></trkpt><trkpt lat="37.97378991750311" lon="15.096088255118676"><ele>1183.4</ele><time>2026-04-09T10:13:49.999Z</time></trkpt><trkpt lat="37.973792391433804" lon="15.095946736951653"><ele>1182.6</ele><time>2026-04-09T10:13:50.999Z</time></trkpt><trkpt lat="37.97379438105107" lon="15.095815939593916"><ele>1181.8</ele><time>2026-04-09T10:13:51.999Z</time></trkpt><trkpt lat="37.97382566092565" lon="15.095688972939536"><ele>1181.0</ele><time>2026-04-09T10:13:52.999Z</time></trkpt><trkpt lat="37.97386538428304" lon="15.095557528497139"><ele>1181.0</ele><time>2026-04-09T10:13:53.999Z</time></trkpt><trkpt lat="37.97392597228144" lon="15.09542774666072"><ele>1181.0</ele><time>2026-04-09T10:13:54.999Z</time></trkpt><trkpt lat="37.973997366482806" lon="15.095308691899826"><ele>1181.0</ele><time>2026-04-09T10:13:55.999Z</time></trkpt><trkpt lat="37.97408767618332" lon="15.095195977044195"><ele>1181.0</ele><time>2026-04-09T10:13:56.999Z</time></trkpt><trkpt lat="37.97418627630729" lon="15.095102718918382"><ele>1179.2</ele><time>2026-04-09T10:13:57.999Z</time></trkpt><trkpt lat="37.9742926483085" lon="15.095048046312012"><ele>1177.3999999999999</ele><time>2026-04-09T10:13:58.999Z</time></trkpt><trkpt lat="37.97439923365059" lon="15.09499326060705"><ele>1175.6</ele><time>2026-04-09T10:13:59.999Z</time></trkpt><trkpt lat="37.974504733123105" lon="15.094970148265363"><ele>1173.8</ele><time>2026-04-09T10:14:00.999Z</time></trkpt><trkpt lat="37.974605768237886" lon="15.094911328876766"><ele>1172.0</ele><time>2026-04-09T10:14:01.999Z</time></trkpt><trkpt lat="37.97469976090402" lon="15.094809629789143"><ele>1172.0</ele><time>2026-04-09T10:14:02.999Z</time></trkpt><trkpt lat="37.97477406531096" lon="15.094677302223467"><ele>1172.0</ele><time>2026-04-09T10:14:03.999Z</time></trkpt><trkpt lat="37.97483859348244" lon="15.094524108968153"><ele>1172.0</ele><time>2026-04-09T10:14:04.999Z</time></trkpt><trkpt lat="37.97489694205447" lon="15.094347452764866"><ele>1172.0</ele><time>2026-04-09T10:14:05.999Z</time></trkpt><trkpt lat="37.974935245154775" lon="15.094168143107996"><ele>1170.75</ele><time>2026-04-09T10:14:06.999Z</time></trkpt><trkpt lat="37.97495349410464" lon="15.09400015361949"><ele>1169.5</ele><time>2026-04-09T10:14:07.999Z</time></trkpt><trkpt lat="37.97496480152119" lon="15.093852132718595"><ele>1168.25</ele><time>2026-04-09T10:14:08.999Z</time></trkpt><trkpt lat="37.97497271561382" lon="15.093715497652891"><ele>1167.0</ele><time>2026-04-09T10:14:09.999Z</time></trkpt><trkpt lat="37.97500390656737" lon="15.093600878324668"><ele>1166.0</ele><time>2026-04-09T10:14:10.999Z</time></trkpt><trkpt lat="37.975037307476754" lon="15.093492561402847"><ele>1165.0</ele><time>2026-04-09T10:14:11.999Z</time></trkpt><trkpt lat="37.97509211464744" lon="15.09339744538292"><ele>1164.0</ele><time>2026-04-09T10:14:12.999Z</time></trkpt><trkpt lat="37.97518747990562" lon="15.093300960291138"><ele>1163.0</ele><time>2026-04-09T10:14:13.999Z</time></trkpt><trkpt lat="37.97527970584855" lon="15.093156137321659"><ele>1166.0</ele><time>2026-04-09T10:14:14.999Z</time></trkpt><trkpt lat="37.97535566538415" lon="15.093015383749067"><ele>1169.0</ele><time>2026-04-09T10:14:15.999Z</time></trkpt><trkpt lat="37.975401188565655" lon="15.092850932852343"><ele>1172.0</ele><time>2026-04-09T10:14:16.999Z</time></trkpt><trkpt lat="37.97544190860896" lon="15.092689993056506"><ele>1175.0</ele><time>2026-04-09T10:14:17.999Z</time></trkpt><trkpt lat="37.975516053847514" lon="15.092568470459799"><ele>1175.0</ele><time>2026-04-09T10:14:18.999Z</time></trkpt><trkpt lat="37.97560484797963" lon="15.092464711893065"><ele>1175.0</ele><time>2026-04-09T10:14:19.999Z</time></trkpt><trkpt lat="37.975670990943414" lon="15.092341737972209"><ele>1175.0</ele><time>2026-04-09T10:14:20.999Z</time></trkpt><trkpt lat="37.97570224729987" lon="15.092188695095125"><ele>1175.0</ele><time>2026-04-09T10:14:21.999Z</time></trkpt><trkpt lat="37.97572234085089" lon="15.092033155325954"><ele>1174.75</ele><time>2026-04-09T10:14:22.999Z</time></trkpt><trkpt lat="37.97572913155103" lon="15.091869137370963"><ele>1174.5</ele><time>2026-04-09T10:14:23.999Z</time></trkpt><trkpt lat="37.975720688869494" lon="15.091707883970539"><ele>1174.25</ele><time>2026-04-09T10:14:24.999Z</time></trkpt><trkpt lat="37.97570497954392" lon="15.091541498290423"><ele>1174.0</ele><time>2026-04-09T10:14:25.999Z</time></trkpt><trkpt lat="37.975710474973496" lon="15.091391644130573"><ele>1172.0</ele><time>2026-04-09T10:14:26.999Z</time></trkpt><trkpt lat="37.97572097156963" lon="15.091267548058278"><ele>1170.0</ele><time>2026-04-09T10:14:27.999Z</time></trkpt><trkpt lat="37.975755607329766" lon="15.091169250072236"><ele>1168.0</ele><time>2026-04-09T10:14:28.999Z</time></trkpt><trkpt lat="37.975829430455505" lon="15.091095514991233"><ele>1166.0</ele><time>2026-04-09T10:14:29.999Z</time></trkpt><trkpt lat="37.97593149568094" lon="15.09100013154356"><ele>1164.0</ele><time>2026-04-09T10:14:30.999Z</time></trkpt><trkpt lat="37.97605901951729" lon="15.090907397016188"><ele>1165.75</ele><time>2026-04-09T10:14:31.999Z</time></trkpt><trkpt lat="37.97618054062474" lon="15.090832508753502"><ele>1167.5</ele><time>2026-04-09T10:14:32.999Z</time></trkpt><trkpt lat="37.97629125259004" lon="15.090782985541873"><ele>1169.25</ele><time>2026-04-09T10:14:33.999Z</time></trkpt><trkpt lat="37.97638215378176" lon="15.090708701267392"><ele>1171.0</ele><time>2026-04-09T10:14:34.999Z</time></trkpt><trkpt lat="37.97645382849268" lon="15.090605238251223"><ele>1171.0</ele><time>2026-04-09T10:14:35.999Z</time></trkpt><trkpt lat="37.97651890317838" lon="15.090499566429996"><ele>1171.0</ele><time>2026-04-09T10:14:36.999Z</time></trkpt><trkpt lat="37.97652226382649" lon="15.090339940807414"><ele>1171.0</ele><time>2026-04-09T10:14:37.999Z</time></trkpt><trkpt lat="37.97653568071624" lon="15.090166749633534"><ele>1171.0</ele><time>2026-04-09T10:14:38.999Z</time></trkpt><trkpt lat="37.97658584848423" lon="15.09003345528654"><ele>1171.0</ele><time>2026-04-09T10:14:39.999Z</time></trkpt><trkpt lat="37.976655055154296" lon="15.089940734280678"><ele>1171.0</ele><time>2026-04-09T10:14:40.999Z</time></trkpt><trkpt lat="37.97673517272269" lon="15.08983355253083"><ele>1171.0</ele><time>2026-04-09T10:14:41.999Z</time></trkpt><trkpt lat="37.97681968562419" lon="15.089728296953304"><ele>1171.0</ele><time>2026-04-09T10:14:42.999Z</time></trkpt><trkpt lat="37.97688803743241" lon="15.08962695364725"><ele>1171.0</ele><time>2026-04-09T10:14:43.999Z</time></trkpt><trkpt lat="37.976928468832575" lon="15.08950927889664"><ele>1171.0</ele><time>2026-04-09T10:14:44.999Z</time></trkpt><trkpt lat="37.97692166421983" lon="15.089363258274856"><ele>1171.0</ele><time>2026-04-09T10:14:45.999Z</time></trkpt><trkpt lat="37.97687486457254" lon="15.089236625099014"><ele>1171.0</ele><time>2026-04-09T10:14:46.999Z</time></trkpt><trkpt lat="37.97683980637468" lon="15.089090139960918"><ele>1171.0</ele><time>2026-04-09T10:14:47.999Z</time></trkpt><trkpt lat="37.97681131974622" lon="15.088927577228095"><ele>1171.0</ele><time>2026-04-09T10:14:48.999Z</time></trkpt><trkpt lat="37.97679678914836" lon="15.088766572715292"><ele>1171.0</ele><time>2026-04-09T10:14:49.999Z</time></trkpt><trkpt lat="37.97679360323196" lon="15.088609310681218"><ele>1171.0</ele><time>2026-04-09T10:14:50.999Z</time></trkpt><trkpt lat="37.9767999096638" lon="15.088453428722554"><ele>1171.0</ele><time>2026-04-09T10:14:52Z</time></trkpt><trkpt lat="37.97681314513595" lon="15.088313680700514"><ele>1166.1666666666665</ele><time>2026-04-09T10:14:53Z</time></trkpt><trkpt lat="37.97683109251105" lon="15.08819361541796"><ele>1161.3333333333333</ele><time>2026-04-09T10:14:54Z</time></trkpt><trkpt lat="37.97685671618698" lon="15.088104643579204"><ele>1156.5</ele><time>2026-04-09T10:14:55Z</time></trkpt><trkpt lat="37.97696441739366" lon="15.088010803930995"><ele>1151.6666666666667</ele><time>2026-04-09T10:14:57Z</time></trkpt><trkpt lat="37.97703490333994" lon="15.088006878237904"><ele>1146.8333333333335</ele><time>2026-04-09T10:14:58Z</time></trkpt><trkpt lat="37.97710079920844" lon="15.087995298778015"><ele>1142.0</ele><time>2026-04-09T10:14:59Z</time></trkpt><trkpt lat="37.977173360737034" lon="15.087990059174938"><ele>1142.0</ele><time>2026-04-09T10:15:00Z</time></trkpt><trkpt lat="37.97725160812338" lon="15.088029718280543"><ele>1142.0</ele><time>2026-04-09T10:15:01Z</time></trkpt><trkpt lat="37.97734026613437" lon="15.08807736772889"><ele>1142.0</ele><time>2026-04-09T10:15:02Z</time></trkpt><trkpt lat="37.97742911584279" lon="15.088107999612275"><ele>1142.0</ele><time>2026-04-09T10:15:03Z</time></trkpt><trkpt lat="37.977521316072675" lon="15.08813200910284"><ele>1142.0</ele><time>2026-04-09T10:15:04Z</time></trkpt><trkpt lat="37.97762202321482" lon="15.088144126962119"><ele>1141.0</ele><time>2026-04-09T10:15:05Z</time></trkpt><trkpt lat="37.97772162314317" lon="15.08813222233355"><ele>1140.0</ele><time>2026-04-09T10:15:06Z</time></trkpt><trkpt lat="37.97781254189894" lon="15.088089037004524"><ele>1139.0</ele><time>2026-04-09T10:15:07Z</time></trkpt><trkpt lat="37.97789306499377" lon="15.08802940919498"><ele>1138.0</ele><time>2026-04-09T10:15:08Z</time></trkpt><trkpt lat="37.97797564513364" lon="15.087979575456691"><ele>1137.0</ele><time>2026-04-09T10:15:09Z</time></trkpt><trkpt lat="37.9780593392917" lon="15.087959668212473"><ele>1137.0</ele><time>2026-04-09T10:15:10Z</time></trkpt><trkpt lat="37.97813761284881" lon="15.087931139487205"><ele>1137.0</ele><time>2026-04-09T10:15:11Z</time></trkpt><trkpt lat="37.978216487637766" lon="15.087919137194055"><ele>1137.0</ele><time>2026-04-09T10:15:12Z</time></trkpt><trkpt lat="37.978305783221785" lon="15.08790363169915"><ele>1137.0</ele><time>2026-04-09T10:15:13Z</time></trkpt><trkpt lat="37.978390898178716" lon="15.087863455383715"><ele>1137.0</ele><time>2026-04-09T10:15:14Z</time></trkpt><trkpt lat="37.97848039396552" lon="15.087828086792884"><ele>1137.0</ele><time>2026-04-09T10:15:15Z</time></trkpt><trkpt lat="37.97856707330995" lon="15.087765770126339"><ele>1135.3333333333333</ele><time>2026-04-09T10:15:16Z</time></trkpt><trkpt lat="37.978635399566436" lon="15.087695136135556"><ele>1133.6666666666667</ele><time>2026-04-09T10:15:17Z</time></trkpt><trkpt lat="37.978704227481" lon="15.087615872577192"><ele>1132.0</ele><time>2026-04-09T10:15:18Z</time></trkpt><trkpt lat="37.97873517422373" lon="15.087508493693143"><ele>1130.3333333333335</ele><time>2026-04-09T10:15:19Z</time></trkpt><trkpt lat="37.97877682403191" lon="15.087418154935964"><ele>1128.6666666666667</ele><time>2026-04-09T10:15:20Z</time></trkpt><trkpt lat="37.9788249647783" lon="15.087321116751891"><ele>1127.0</ele><time>2026-04-09T10:15:21Z</time></trkpt><trkpt lat="37.978875857035284" lon="15.08723294215719"><ele>1127.0</ele><time>2026-04-09T10:15:22Z</time></trkpt><trkpt lat="37.97893281572347" lon="15.087149107587132"><ele>1127.0</ele><time>2026-04-09T10:15:23Z</time></trkpt><trkpt lat="37.9789934121874" lon="15.087083256382254"><ele>1127.0</ele><time>2026-04-09T10:15:24Z</time></trkpt><trkpt lat="37.979054525060384" lon="15.087017850244813"><ele>1127.0</ele><time>2026-04-09T10:15:25Z</time></trkpt><trkpt lat="37.97911389825323" lon="15.086944292302405"><ele>1127.0</ele><time>2026-04-09T10:15:26Z</time></trkpt><trkpt lat="37.97916970147043" lon="15.086866942561027"><ele>1127.0</ele><time>2026-04-09T10:15:27Z</time></trkpt><trkpt lat="37.97921987255444" lon="15.086763880225698"><ele>1126.5</ele><time>2026-04-09T10:15:28Z</time></trkpt><trkpt lat="37.97926447134012" lon="15.086661368345212"><ele>1126.0</ele><time>2026-04-09T10:15:29Z</time></trkpt><trkpt lat="37.97930553926366" lon="15.086549364977445"><ele>1125.5</ele><time>2026-04-09T10:15:30Z</time></trkpt><trkpt lat="37.97936246852914" lon="15.08646564280733"><ele>1125.0</ele><time>2026-04-09T10:15:31Z</time></trkpt><trkpt lat="37.97942134969214" lon="15.086385448334948"><ele>1124.5</ele><time>2026-04-09T10:15:32Z</time></trkpt><trkpt lat="37.979484149695416" lon="15.086316991655599"><ele>1124.0</ele><time>2026-04-09T10:15:33Z</time></trkpt><trkpt lat="37.97956694905435" lon="15.086283133032358"><ele>1121.5</ele><time>2026-04-09T10:15:34Z</time></trkpt><trkpt lat="37.97965501628619" lon="15.086251346704058"><ele>1119.0</ele><time>2026-04-09T10:15:35Z</time></trkpt><trkpt lat="37.979732295922645" lon="15.086223647794005"><ele>1116.5</ele><time>2026-04-09T10:15:36Z</time></trkpt><trkpt lat="37.97979243909117" lon="15.086170847442785"><ele>1114.0</ele><time>2026-04-09T10:15:37Z</time></trkpt><trkpt lat="37.979837594861834" lon="15.086100194981858"><ele>1111.5</ele><time>2026-04-09T10:15:38Z</time></trkpt><trkpt lat="37.97987345028109" lon="15.08601533299086"><ele>1109.0</ele><time>2026-04-09T10:15:39Z</time></trkpt><trkpt lat="37.97989462806801" lon="15.085929482555057"><ele>1109.0</ele><time>2026-04-09T10:15:40Z</time></trkpt><trkpt lat="37.97990810598504" lon="15.085838780576891"><ele>1109.0</ele><time>2026-04-09T10:15:40.999Z</time></trkpt><trkpt lat="37.979943891958804" lon="15.085732526851645"><ele>1109.0</ele><time>2026-04-09T10:15:41.999Z</time></trkpt><trkpt lat="37.97996362707199" lon="15.08560761064393"><ele>1109.0</ele><time>2026-04-09T10:15:42.999Z</time></trkpt><trkpt lat="37.97997217436049" lon="15.085486589762029"><ele>1109.0</ele><time>2026-04-09T10:15:43.999Z</time></trkpt><trkpt lat="37.979961404477585" lon="15.085369975832897"><ele>1106.8333333333335</ele><time>2026-04-09T10:15:44.999Z</time></trkpt><trkpt lat="37.97994228930225" lon="15.085256024863652"><ele>1104.6666666666667</ele><time>2026-04-09T10:15:45.999Z</time></trkpt><trkpt lat="37.97992213263459" lon="15.085147887079668"><ele>1102.5</ele><time>2026-04-09T10:15:46.999Z</time></trkpt><trkpt lat="37.979904156715044" lon="15.085046171553177"><ele>1100.3333333333333</ele><time>2026-04-09T10:15:47.999Z</time></trkpt><trkpt lat="37.97989198055694" lon="15.084959148018706"><ele>1098.1666666666665</ele><time>2026-04-09T10:15:48.999Z</time></trkpt><trkpt lat="37.97988230241411" lon="15.08486047954757"><ele>1096.0</ele><time>2026-04-09T10:15:49.999Z</time></trkpt><trkpt lat="37.97987364232814" lon="15.084770642615348"><ele>1094.4285714285716</ele><time>2026-04-09T10:15:50.999Z</time></trkpt><trkpt lat="37.97986079788917" lon="15.08468228686296"><ele>1092.857142857143</ele><time>2026-04-09T10:15:51.999Z</time></trkpt><trkpt lat="37.979846944997696" lon="15.084597548282892"><ele>1091.2857142857142</ele><time>2026-04-09T10:15:52.999Z</time></trkpt><trkpt lat="37.97983143363829" lon="15.084509503833377"><ele>1089.7142857142858</ele><time>2026-04-09T10:15:53.999Z</time></trkpt><trkpt lat="37.97981671557551" lon="15.084425962298692"><ele>1088.142857142857</ele><time>2026-04-09T10:15:54.999Z</time></trkpt><trkpt lat="37.97980109743513" lon="15.08433531779552"><ele>1086.5714285714287</ele><time>2026-04-09T10:15:55.999Z</time></trkpt><trkpt lat="37.9797866872601" lon="15.0842505252854"><ele>1085.0</ele><time>2026-04-09T10:15:56.999Z</time></trkpt><trkpt lat="37.9797585852" lon="15.084048654319657"><ele>1084.0</ele><time>2026-04-09T10:15:59.999Z</time></trkpt><trkpt lat="37.97974495698876" lon="15.083907683868185"><ele>1083.0</ele><time>2026-04-09T10:16:15.999Z</time></trkpt><trkpt lat="37.979734634395975" lon="15.08379557294278"><ele>1082.0</ele><time>2026-04-09T10:16:16.999Z</time></trkpt><trkpt lat="37.979713734239766" lon="15.08363621877735"><ele>1081.0</ele><time>2026-04-09T10:16:17.999Z</time></trkpt><trkpt lat="37.979690221821826" lon="15.083476553923404"><ele>1081.0</ele><time>2026-04-09T10:16:18.999Z</time></trkpt><trkpt lat="37.979685264393744" lon="15.083296834709229"><ele>1081.0</ele><time>2026-04-09T10:16:19.999Z</time></trkpt><trkpt lat="37.97969961578802" lon="15.083150103485467"><ele>1081.0</ele><time>2026-04-09T10:16:20.999Z</time></trkpt><trkpt lat="37.97972791862681" lon="15.083011595905305"><ele>1081.0</ele><time>2026-04-09T10:16:21.999Z</time></trkpt><trkpt lat="37.97979421894941" lon="15.082873152007293"><ele>1081.8</ele><time>2026-04-09T10:16:22.999Z</time></trkpt><trkpt lat="37.979831245540446" lon="15.082735988511764"><ele>1082.6</ele><time>2026-04-09T10:16:23.999Z</time></trkpt><trkpt lat="37.97979127408803" lon="15.08261238796692"><ele>1083.4</ele><time>2026-04-09T10:16:24.999Z</time></trkpt><trkpt lat="37.979802742809994" lon="15.082489026727233"><ele>1084.2</ele><time>2026-04-09T10:16:25.999Z</time></trkpt><trkpt lat="37.9798141678045" lon="15.082383712110513"><ele>1085.0</ele><time>2026-04-09T10:16:26.999Z</time></trkpt><trkpt lat="37.97983553699503" lon="15.082258636049742"><ele>1083.5</ele><time>2026-04-09T10:16:27.999Z</time></trkpt><trkpt lat="37.979832535596685" lon="15.08216020645897"><ele>1082.0</ele><time>2026-04-09T10:16:28.999Z</time></trkpt><trkpt lat="37.9798136416769" lon="15.082051316899513"><ele>1080.5</ele><time>2026-04-09T10:16:29.999Z</time></trkpt><trkpt lat="37.979774493929455" lon="15.081953055676399"><ele>1079.0</ele><time>2026-04-09T10:16:30.999Z</time></trkpt><trkpt lat="37.979716155111674" lon="15.081854709140998"><ele>1077.5</ele><time>2026-04-09T10:16:31.999Z</time></trkpt><trkpt lat="37.97966477741419" lon="15.081759082675651"><ele>1076.0</ele><time>2026-04-09T10:16:32.999Z</time></trkpt><trkpt lat="37.97961911351276" lon="15.08166741535285"><ele>1073.8333333333335</ele><time>2026-04-09T10:16:33.999Z</time></trkpt><trkpt lat="37.97957897451503" lon="15.081585258995496"><ele>1071.6666666666667</ele><time>2026-04-09T10:16:34.999Z</time></trkpt><trkpt lat="37.97951012262641" lon="15.081429769010754"><ele>1069.5</ele><time>2026-04-09T10:16:36.999Z</time></trkpt><trkpt lat="37.97948112125979" lon="15.081345374539717"><ele>1067.3333333333333</ele><time>2026-04-09T10:16:37.999Z</time></trkpt><trkpt lat="37.97945248426363" lon="15.08124623834258"><ele>1065.1666666666665</ele><time>2026-04-09T10:16:38.999Z</time></trkpt><trkpt lat="37.97943326755327" lon="15.081153953850524"><ele>1063.0</ele><time>2026-04-09T10:16:39.999Z</time></trkpt><trkpt lat="37.9794191283933" lon="15.081059972597131"><ele>1063.0</ele><time>2026-04-09T10:16:40.999Z</time></trkpt><trkpt lat="37.97941707494329" lon="15.080972641484747"><ele>1063.0</ele><time>2026-04-09T10:16:41.999Z</time></trkpt><trkpt lat="37.97943333582908" lon="15.080883792337332"><ele>1063.0</ele><time>2026-04-09T10:16:42.999Z</time></trkpt><trkpt lat="37.979462752063654" lon="15.080797202672732"><ele>1063.0</ele><time>2026-04-09T10:16:43.999Z</time></trkpt><trkpt lat="37.97949938947356" lon="15.08069433101642"><ele>1063.0</ele><time>2026-04-09T10:16:44.999Z</time></trkpt><trkpt lat="37.979533543590314" lon="15.080597206550259"><ele>1063.0</ele><time>2026-04-09T10:16:45.999Z</time></trkpt><trkpt lat="37.97956493527016" lon="15.080493052170345"><ele>1063.8</ele><time>2026-04-09T10:16:46.999Z</time></trkpt><trkpt lat="37.97959214425197" lon="15.080389595487327"><ele>1064.6</ele><time>2026-04-09T10:16:47.999Z</time></trkpt><trkpt lat="37.9796152582268" lon="15.080271614324822"><ele>1065.4</ele><time>2026-04-09T10:16:48.999Z</time></trkpt><trkpt lat="37.97963005288396" lon="15.080171723124403"><ele>1066.2</ele><time>2026-04-09T10:16:49.999Z</time></trkpt><trkpt lat="37.97963136444286" lon="15.080028675387462"><ele>1067.0</ele><time>2026-04-09T10:16:50.999Z</time></trkpt><trkpt lat="37.979617693042" lon="15.079862766116047"><ele>1070.5</ele><time>2026-04-09T10:16:51.999Z</time></trkpt><trkpt lat="37.979588671479746" lon="15.079693513223916"><ele>1074.0</ele><time>2026-04-09T10:16:52.999Z</time></trkpt><trkpt lat="37.979535552938735" lon="15.079533967300636"><ele>1077.5</ele><time>2026-04-09T10:16:53.999Z</time></trkpt><trkpt lat="37.97946294135536" lon="15.079397276105237"><ele>1081.0</ele><time>2026-04-09T10:16:54.999Z</time></trkpt><trkpt lat="37.97938617757054" lon="15.079274819276943"><ele>1081.0</ele><time>2026-04-09T10:16:55.999Z</time></trkpt><trkpt lat="37.97930412701743" lon="15.079158069938238"><ele>1081.0</ele><time>2026-04-09T10:16:56.999Z</time></trkpt><trkpt lat="37.97923214706686" lon="15.079045037153035"><ele>1081.0</ele><time>2026-04-09T10:16:58Z</time></trkpt><trkpt lat="37.979184584087086" lon="15.078942298213077"><ele>1081.0</ele><time>2026-04-09T10:16:59Z</time></trkpt><trkpt lat="37.97916104174074" lon="15.078843295256453"><ele>1081.0</ele><time>2026-04-09T10:17:00Z</time></trkpt><trkpt lat="37.97916516443266" lon="15.07873863713969"><ele>1080.0</ele><time>2026-04-09T10:17:01Z</time></trkpt><trkpt lat="37.979207181427434" lon="15.07865646649253"><ele>1079.0</ele><time>2026-04-09T10:17:02Z</time></trkpt><trkpt lat="37.97924941796196" lon="15.078510654908849"><ele>1078.0</ele><time>2026-04-09T10:17:03Z</time></trkpt><trkpt lat="37.979285984894396" lon="15.078365065624029"><ele>1077.0</ele><time>2026-04-09T10:17:04Z</time></trkpt><trkpt lat="37.979315282976316" lon="15.078221643749105"><ele>1076.0</ele><time>2026-04-09T10:17:05Z</time></trkpt><trkpt lat="37.97932799569683" lon="15.07806975587952"><ele>1073.3999999999999</ele><time>2026-04-09T10:17:06Z</time></trkpt><trkpt lat="37.97932112494531" lon="15.077908803607814"><ele>1070.8</ele><time>2026-04-09T10:17:07Z</time></trkpt><trkpt lat="37.97929378429152" lon="15.077760000245938"><ele>1068.1999999999998</ele><time>2026-04-09T10:17:08Z</time></trkpt><trkpt lat="37.97925824112135" lon="15.077640095222545"><ele>1065.6</ele><time>2026-04-09T10:17:09Z</time></trkpt><trkpt lat="37.97923514006942" lon="15.07755344061119"><ele>1063.0</ele><time>2026-04-09T10:17:10Z</time></trkpt><trkpt lat="37.979216378305765" lon="15.077411755988473"><ele>1065.3333333333333</ele><time>2026-04-09T10:17:12Z</time></trkpt><trkpt lat="37.97921340853787" lon="15.077317175204278"><ele>1067.6666666666665</ele><time>2026-04-09T10:17:14Z</time></trkpt><trkpt lat="37.97915409177817" lon="15.077346786405217"><ele>1070.0</ele><time>2026-04-09T10:20:35Z</time></trkpt><trkpt lat="37.979155632625776" lon="15.077231152580685"><ele>1072.3333333333333</ele><time>2026-04-09T10:26:42Z</time></trkpt><trkpt lat="37.9791399716478" lon="15.077133351746125"><ele>1074.6666666666667</ele><time>2026-04-09T10:26:43Z</time></trkpt><trkpt lat="37.97913133220875" lon="15.077039011924981"><ele>1077.0</ele><time>2026-04-09T10:26:44Z</time></trkpt><trkpt lat="37.97910635057014" lon="15.076940394338843"><ele>1077.0</ele><time>2026-04-09T10:26:45Z</time></trkpt><trkpt lat="37.97908828041786" lon="15.076818354014781"><ele>1077.0</ele><time>2026-04-09T10:26:46Z</time></trkpt><trkpt lat="37.97903123372433" lon="15.07670631472523"><ele>1077.0</ele><time>2026-04-09T10:26:47Z</time></trkpt><trkpt lat="37.97897151876496" lon="15.076595170602845"><ele>1077.0</ele><time>2026-04-09T10:26:48Z</time></trkpt><trkpt lat="37.978909173160076" lon="15.0764899287233"><ele>1077.0</ele><time>2026-04-09T10:26:49Z</time></trkpt><trkpt lat="37.978845491488926" lon="15.07638512127042"><ele>1074.0</ele><time>2026-04-09T10:26:50Z</time></trkpt><trkpt lat="37.97878811470932" lon="15.076290765327377"><ele>1071.0</ele><time>2026-04-09T10:26:51Z</time></trkpt><trkpt lat="37.978701250644036" lon="15.076209637602483"><ele>1068.0</ele><time>2026-04-09T10:26:52Z</time></trkpt><trkpt lat="37.978618985794974" lon="15.076124140275557"><ele>1065.0</ele><time>2026-04-09T10:26:53Z</time></trkpt><trkpt lat="37.97852577538593" lon="15.076053721168336"><ele>1062.0</ele><time>2026-04-09T10:26:54Z</time></trkpt><trkpt lat="37.978444597783856" lon="15.075966668937204"><ele>1062.0</ele><time>2026-04-09T10:26:55Z</time></trkpt><trkpt lat="37.978373330717176" lon="15.075891845815097"><ele>1062.0</ele><time>2026-04-09T10:26:56Z</time></trkpt><trkpt lat="37.97831922839154" lon="15.075810962655465"><ele>1062.0</ele><time>2026-04-09T10:26:56.999Z</time></trkpt><trkpt lat="37.9782893101851" lon="15.07571615906935"><ele>1062.0</ele><time>2026-04-09T10:26:57.999Z</time></trkpt><trkpt lat="37.97826318913971" lon="15.07560332130571"><ele>1062.0</ele><time>2026-04-09T10:26:58.999Z</time></trkpt><trkpt lat="37.97824079018749" lon="15.075468870254024"><ele>1062.4</ele><time>2026-04-09T10:26:59.999Z</time></trkpt><trkpt lat="37.97821994801208" lon="15.075329255553452"><ele>1062.8000000000002</ele><time>2026-04-09T10:27:00.999Z</time></trkpt><trkpt lat="37.97819959800311" lon="15.07521804231065"><ele>1063.2</ele><time>2026-04-09T10:27:01.999Z</time></trkpt><trkpt lat="37.978170217382235" lon="15.07510147972376"><ele>1063.6000000000001</ele><time>2026-04-09T10:27:02.999Z</time></trkpt><trkpt lat="37.978110992249434" lon="15.074989812706628"><ele>1064.0</ele><time>2026-04-09T10:27:03.999Z</time></trkpt><trkpt lat="37.97807207859008" lon="15.074856669163964"><ele>1064.0</ele><time>2026-04-09T10:27:04.999Z</time></trkpt><trkpt lat="37.97800445345699" lon="15.07473046577944"><ele>1064.0</ele><time>2026-04-09T10:27:05.999Z</time></trkpt><trkpt lat="37.97791744328534" lon="15.074602561912807"><ele>1064.0</ele><time>2026-04-09T10:27:06.999Z</time></trkpt><trkpt lat="37.97781765317656" lon="15.074472723199557"><ele>1064.0</ele><time>2026-04-09T10:27:07.999Z</time></trkpt><trkpt lat="37.97772928002014" lon="15.074356099236953"><ele>1064.0</ele><time>2026-04-09T10:27:08.999Z</time></trkpt><trkpt lat="37.97765199957418" lon="15.07423986152711"><ele>1064.0</ele><time>2026-04-09T10:27:09.999Z</time></trkpt><trkpt lat="37.977575746560355" lon="15.074117087763973"><ele>1064.0</ele><time>2026-04-09T10:27:10.999Z</time></trkpt><trkpt lat="37.97749169922895" lon="15.073974301322082"><ele>1064.0</ele><time>2026-04-09T10:27:11.999Z</time></trkpt><trkpt lat="37.97740972035752" lon="15.073821992019578"><ele>1062.5</ele><time>2026-04-09T10:27:12.999Z</time></trkpt><trkpt lat="37.977335422322966" lon="15.073671796595352"><ele>1061.0</ele><time>2026-04-09T10:27:13.999Z</time></trkpt><trkpt lat="37.97727230791556" lon="15.073526099305287"><ele>1059.5</ele><time>2026-04-09T10:27:14.999Z</time></trkpt><trkpt lat="37.97721990941781" lon="15.073393816891837"><ele>1058.0</ele><time>2026-04-09T10:27:15.999Z</time></trkpt><trkpt lat="37.977177902619324" lon="15.073261314413967"><ele>1058.0</ele><time>2026-04-09T10:27:16.999Z</time></trkpt><trkpt lat="37.977139048033884" lon="15.073114403787669"><ele>1058.0</ele><time>2026-04-09T10:27:17.999Z</time></trkpt><trkpt lat="37.97710403426605" lon="15.072945715587572"><ele>1058.0</ele><time>2026-04-09T10:27:18.999Z</time></trkpt><trkpt lat="37.97707894842611" lon="15.072776209538022"><ele>1058.0</ele><time>2026-04-09T10:27:19.999Z</time></trkpt><trkpt lat="37.97705171225465" lon="15.072619729016123"><ele>1058.0</ele><time>2026-04-09T10:27:20.999Z</time></trkpt><trkpt lat="37.97701101171701" lon="15.072454463724812"><ele>1058.0</ele><time>2026-04-09T10:27:21.999Z</time></trkpt><trkpt lat="37.9769614430712" lon="15.07231341360537"><ele>1058.0</ele><time>2026-04-09T10:27:22.999Z</time></trkpt><trkpt lat="37.97688506969091" lon="15.072187922747258"><ele>1058.0</ele><time>2026-04-09T10:27:23.999Z</time></trkpt><trkpt lat="37.976842022035896" lon="15.072053112632865"><ele>1055.8333333333335</ele><time>2026-04-09T10:27:24.999Z</time></trkpt><trkpt lat="37.97681662410697" lon="15.071907839070624"><ele>1053.6666666666667</ele><time>2026-04-09T10:27:25.999Z</time></trkpt><trkpt lat="37.976803822840026" lon="15.071775104621256"><ele>1051.5</ele><time>2026-04-09T10:27:26.999Z</time></trkpt><trkpt lat="37.97679805276051" lon="15.07168551651962"><ele>1049.3333333333333</ele><time>2026-04-09T10:27:28Z</time></trkpt><trkpt lat="37.976797012278546" lon="15.07160011008235"><ele>1047.1666666666665</ele><time>2026-04-09T10:27:32Z</time></trkpt><trkpt lat="37.97679254917967" lon="15.071511739162483"><ele>1045.0</ele><time>2026-04-09T10:27:34Z</time></trkpt><trkpt lat="37.976723693297465" lon="15.071366345993797"><ele>1048.4</ele><time>2026-04-09T10:27:36Z</time></trkpt><trkpt lat="37.97665663087329" lon="15.071283240731482"><ele>1051.8</ele><time>2026-04-09T10:27:37Z</time></trkpt><trkpt lat="37.9765786955073" lon="15.07120159767639"><ele>1055.2</ele><time>2026-04-09T10:27:38Z</time></trkpt><trkpt lat="37.97648216513635" lon="15.071136732395578"><ele>1058.6</ele><time>2026-04-09T10:27:39Z</time></trkpt><trkpt lat="37.976381762867575" lon="15.071047843578397"><ele>1062.0</ele><time>2026-04-09T10:27:40Z</time></trkpt><trkpt lat="37.97630302685774" lon="15.070930442108287"><ele>1062.0</ele><time>2026-04-09T10:27:41Z</time></trkpt><trkpt lat="37.9762189294536" lon="15.070842585330798"><ele>1062.0</ele><time>2026-04-09T10:27:42Z</time></trkpt><trkpt lat="37.97612991775199" lon="15.07079987221821"><ele>1062.0</ele><time>2026-04-09T10:27:43Z</time></trkpt><trkpt lat="37.976043729065" lon="15.07076077699713"><ele>1062.0</ele><time>2026-04-09T10:27:44Z</time></trkpt><trkpt lat="37.97597362160786" lon="15.07070997575098"><ele>1062.0</ele><time>2026-04-09T10:27:45Z</time></trkpt><trkpt lat="37.975917838879816" lon="15.070648688819684"><ele>1058.8333333333333</ele><time>2026-04-09T10:27:45.999Z</time></trkpt><trkpt lat="37.975893358688545" lon="15.070573360668037"><ele>1055.6666666666667</ele><time>2026-04-09T10:27:46.999Z</time></trkpt><trkpt lat="37.975880826942934" lon="15.070460129049374"><ele>1052.5</ele><time>2026-04-09T10:27:47.999Z</time></trkpt><trkpt lat="37.975855419548786" lon="15.070350225719721"><ele>1049.3333333333335</ele><time>2026-04-09T10:27:48.999Z</time></trkpt><trkpt lat="37.97585988383205" lon="15.0702375338829"><ele>1046.1666666666667</ele><time>2026-04-09T10:27:49.999Z</time></trkpt><trkpt lat="37.97584222692759" lon="15.070137660915574"><ele>1043.0</ele><time>2026-04-09T10:27:50.999Z</time></trkpt><trkpt lat="37.975776075852565" lon="15.070076943102714"><ele>1046.0</ele><time>2026-04-09T10:27:51.999Z</time></trkpt><trkpt lat="37.97576190876691" lon="15.069988497505426"><ele>1049.0</ele><time>2026-04-09T10:27:52.999Z</time></trkpt><trkpt lat="37.97578498932935" lon="15.06986545832637"><ele>1052.0</ele><time>2026-04-09T10:27:54.999Z</time></trkpt><trkpt lat="37.97584935402876" lon="15.069834536074923"><ele>1055.0</ele><time>2026-04-09T10:27:55.999Z</time></trkpt><trkpt lat="37.97591974150441" lon="15.069757379562713"><ele>1058.0</ele><time>2026-04-09T10:27:56.999Z</time></trkpt><trkpt lat="37.97596981412331" lon="15.069640474746935"><ele>1061.0</ele><time>2026-04-09T10:27:57.999Z</time></trkpt><trkpt lat="37.976049464384964" lon="15.069575100000474"><ele>1061.0</ele><time>2026-04-09T10:27:58.999Z</time></trkpt><trkpt lat="37.97609306541072" lon="15.06946008831621"><ele>1061.0</ele><time>2026-04-09T10:27:59.999Z</time></trkpt><trkpt lat="37.97607841946461" lon="15.069331020209361"><ele>1061.0</ele><time>2026-04-09T10:28:00.999Z</time></trkpt><trkpt lat="37.976140449450845" lon="15.069225742385871"><ele>1061.0</ele><time>2026-04-09T10:28:01.999Z</time></trkpt><trkpt lat="37.976216964903195" lon="15.06915438273834"><ele>1061.0</ele><time>2026-04-09T10:28:02.999Z</time></trkpt><trkpt lat="37.97627238150893" lon="15.069026874724136"><ele>1067.0</ele><time>2026-04-09T10:28:03.999Z</time></trkpt><trkpt lat="37.97631127461235" lon="15.06886732869559"><ele>1073.0</ele><time>2026-04-09T10:28:04.999Z</time></trkpt><trkpt lat="37.97632881645047" lon="15.068699844135653"><ele>1079.0</ele><time>2026-04-09T10:28:05.999Z</time></trkpt><trkpt lat="37.97637317792483" lon="15.068552387094794"><ele>1085.0</ele><time>2026-04-09T10:28:06.999Z</time></trkpt><trkpt lat="37.976420233931904" lon="15.068447165029667"><ele>1085.0</ele><time>2026-04-09T10:28:07.999Z</time></trkpt><trkpt lat="37.976504031912874" lon="15.068371959003523"><ele>1085.0</ele><time>2026-04-09T10:28:08.999Z</time></trkpt><trkpt lat="37.976557573578454" lon="15.068272022294124"><ele>1085.0</ele><time>2026-04-09T10:28:09.999Z</time></trkpt><trkpt lat="37.97661526481446" lon="15.068167914205056"><ele>1085.0</ele><time>2026-04-09T10:28:10.999Z</time></trkpt><trkpt lat="37.97667608159858" lon="15.068065820922817"><ele>1085.0</ele><time>2026-04-09T10:28:11.999Z</time></trkpt><trkpt lat="37.97669764778046" lon="15.067971696590105"><ele>1086.0</ele><time>2026-04-09T10:28:12.999Z</time></trkpt><trkpt lat="37.97665121266386" lon="15.06783890997238"><ele>1087.0</ele><time>2026-04-09T10:28:14.999Z</time></trkpt><trkpt lat="37.976590984008915" lon="15.06776859309684"><ele>1088.0</ele><time>2026-04-09T10:28:15.999Z</time></trkpt><trkpt lat="37.97650632495454" lon="15.067694636651336"><ele>1089.0</ele><time>2026-04-09T10:28:16.999Z</time></trkpt><trkpt lat="37.97642244173426" lon="15.067618627921561"><ele>1090.0</ele><time>2026-04-09T10:28:17.999Z</time></trkpt><trkpt lat="37.97633330098204" lon="15.067557440707466"><ele>1090.0</ele><time>2026-04-09T10:28:18.999Z</time></trkpt><trkpt lat="37.976207142894815" lon="15.067510329954981"><ele>1090.0</ele><time>2026-04-09T10:28:19.999Z</time></trkpt><trkpt lat="37.97606652087042" lon="15.067469426317032"><ele>1090.0</ele><time>2026-04-09T10:28:20.999Z</time></trkpt><trkpt lat="37.97593954162808" lon="15.067401196977837"><ele>1090.0</ele><time>2026-04-09T10:28:21.999Z</time></trkpt><trkpt lat="37.975826558937676" lon="15.067320715880607"><ele>1091.25</ele><time>2026-04-09T10:28:22.999Z</time></trkpt><trkpt lat="37.975723959678696" lon="15.06723936613029"><ele>1092.5</ele><time>2026-04-09T10:28:23.999Z</time></trkpt><trkpt lat="37.9756235660093" lon="15.067157427340943"><ele>1093.75</ele><time>2026-04-09T10:28:24.999Z</time></trkpt><trkpt lat="37.97551793287064" lon="15.06707599261094"><ele>1095.0</ele><time>2026-04-09T10:28:25.999Z</time></trkpt><trkpt lat="37.97540160882067" lon="15.067011712011123"><ele>1095.0</ele><time>2026-04-09T10:28:26.999Z</time></trkpt><trkpt lat="37.97529237923625" lon="15.066970154500309"><ele>1095.0</ele><time>2026-04-09T10:28:27.999Z</time></trkpt><trkpt lat="37.97519803795132" lon="15.066949416567633"><ele>1095.0</ele><time>2026-04-09T10:28:28.999Z</time></trkpt><trkpt lat="37.97511862018119" lon="15.066917041282537"><ele>1095.0</ele><time>2026-04-09T10:28:29.999Z</time></trkpt><trkpt lat="37.97505331902651" lon="15.066833451777587"><ele>1095.0</ele><time>2026-04-09T10:28:30.999Z</time></trkpt><trkpt lat="37.97500557360525" lon="15.066721765093058"><ele>1097.4</ele><time>2026-04-09T10:28:31.999Z</time></trkpt><trkpt lat="37.97497240989675" lon="15.066597805456732"><ele>1099.8</ele><time>2026-04-09T10:28:32.999Z</time></trkpt><trkpt lat="37.974941276738925" lon="15.066466191162986"><ele>1102.2</ele><time>2026-04-09T10:28:33.999Z</time></trkpt><trkpt lat="37.97492453078402" lon="15.066317999546278"><ele>1104.6</ele><time>2026-04-09T10:28:34.999Z</time></trkpt><trkpt lat="37.97489100685721" lon="15.066188726172996"><ele>1107.0</ele><time>2026-04-09T10:28:35.999Z</time></trkpt><trkpt lat="37.97482712687707" lon="15.06608663741703"><ele>1107.0</ele><time>2026-04-09T10:28:36.999Z</time></trkpt><trkpt lat="37.974760739863676" lon="15.066004761004507"><ele>1107.0</ele><time>2026-04-09T10:28:37.999Z</time></trkpt><trkpt lat="37.97467411958673" lon="15.065929539464701"><ele>1107.0</ele><time>2026-04-09T10:28:38.999Z</time></trkpt><trkpt lat="37.974596129388665" lon="15.06582384772973"><ele>1107.0</ele><time>2026-04-09T10:28:39.999Z</time></trkpt><trkpt lat="37.97453863157889" lon="15.065710420986402"><ele>1107.0</ele><time>2026-04-09T10:28:40.999Z</time></trkpt><trkpt lat="37.97446300653511" lon="15.065611452748676"><ele>1105.25</ele><time>2026-04-09T10:28:41.999Z</time></trkpt><trkpt lat="37.97438704659175" lon="15.065518597467554"><ele>1103.5</ele><time>2026-04-09T10:28:42.999Z</time></trkpt><trkpt lat="37.97428844369649" lon="15.065441155761173"><ele>1101.75</ele><time>2026-04-09T10:28:43.999Z</time></trkpt><trkpt lat="37.97417241113858" lon="15.065394455850141"><ele>1100.0</ele><time>2026-04-09T10:28:44.999Z</time></trkpt><trkpt lat="37.97408244883152" lon="15.065296307720327"><ele>1102.0</ele><time>2026-04-09T10:28:45.999Z</time></trkpt><trkpt lat="37.974016655158835" lon="15.065212327434724"><ele>1104.0</ele><time>2026-04-09T10:28:46.999Z</time></trkpt><trkpt lat="37.97397331058013" lon="15.065103910658927"><ele>1106.0</ele><time>2026-04-09T10:28:47.999Z</time></trkpt><trkpt lat="37.97392475233926" lon="15.064994393355766"><ele>1108.0</ele><time>2026-04-09T10:28:48.999Z</time></trkpt><trkpt lat="37.97386821258264" lon="15.064874558393958"><ele>1110.0</ele><time>2026-04-09T10:28:49.999Z</time></trkpt><trkpt lat="37.97379129695679" lon="15.064795270484213"><ele>1110.0</ele><time>2026-04-09T10:28:50.999Z</time></trkpt><trkpt lat="37.97371883958065" lon="15.064744717878472"><ele>1110.0</ele><time>2026-04-09T10:28:51.999Z</time></trkpt><trkpt lat="37.97362404407781" lon="15.064717912533677"><ele>1110.0</ele><time>2026-04-09T10:28:52.999Z</time></trkpt><trkpt lat="37.97351254953433" lon="15.064671844064149"><ele>1110.0</ele><time>2026-04-09T10:28:53.999Z</time></trkpt><trkpt lat="37.973406172730925" lon="15.064595572187992"><ele>1110.0</ele><time>2026-04-09T10:28:54.999Z</time></trkpt><trkpt lat="37.97331756494212" lon="15.064520447427165"><ele>1114.0</ele><time>2026-04-09T10:28:55.999Z</time></trkpt><trkpt lat="37.97323571442129" lon="15.064444731364626"><ele>1118.0</ele><time>2026-04-09T10:28:56.999Z</time></trkpt><trkpt lat="37.9731562166381" lon="15.064360425188104"><ele>1122.0</ele><time>2026-04-09T10:28:57.999Z</time></trkpt><trkpt lat="37.97308263315157" lon="15.064280578093099"><ele>1126.0</ele><time>2026-04-09T10:28:58.999Z</time></trkpt><trkpt lat="37.97295885943654" lon="15.064236389391127"><ele>1130.0</ele><time>2026-04-09T10:28:59.999Z</time></trkpt><trkpt lat="37.97284345311809" lon="15.064185739083294"><ele>1130.0</ele><time>2026-04-09T10:29:00.999Z</time></trkpt><trkpt lat="37.97278038196204" lon="15.064129996011909"><ele>1130.0</ele><time>2026-04-09T10:29:01.999Z</time></trkpt><trkpt lat="37.97271431441882" lon="15.064009770950012"><ele>1130.0</ele><time>2026-04-09T10:29:02.999Z</time></trkpt><trkpt lat="37.972647821409986" lon="15.063910711354474"><ele>1130.0</ele><time>2026-04-09T10:29:03.999Z</time></trkpt><trkpt lat="37.972586402973704" lon="15.063781671213938"><ele>1130.0</ele><time>2026-04-09T10:29:04.999Z</time></trkpt><trkpt lat="37.97250136169168" lon="15.063676205657554"><ele>1131.2</ele><time>2026-04-09T10:29:05.999Z</time></trkpt><trkpt lat="37.97244358259139" lon="15.063554659813398"><ele>1132.4</ele><time>2026-04-09T10:29:06.999Z</time></trkpt><trkpt lat="37.97237632084763" lon="15.063448784540267"><ele>1133.6</ele><time>2026-04-09T10:29:07.999Z</time></trkpt><trkpt lat="37.9723079825833" lon="15.063344463356996"><ele>1134.8</ele><time>2026-04-09T10:29:08.999Z</time></trkpt><trkpt lat="37.97223317372616" lon="15.063243853976823"><ele>1136.0</ele><time>2026-04-09T10:29:09.999Z</time></trkpt><trkpt lat="37.97214380446935" lon="15.063153118571563"><ele>1136.0</ele><time>2026-04-09T10:29:10.999Z</time></trkpt><trkpt lat="37.97203546115837" lon="15.06307455708737"><ele>1136.0</ele><time>2026-04-09T10:29:11.999Z</time></trkpt><trkpt lat="37.971972586054235" lon="15.062978271003558"><ele>1136.0</ele><time>2026-04-09T10:29:12.999Z</time></trkpt><trkpt lat="37.971923494710765" lon="15.062898147149452"><ele>1136.0</ele><time>2026-04-09T10:29:13.999Z</time></trkpt><trkpt lat="37.971887635324165" lon="15.06280174247239"><ele>1136.0</ele><time>2026-04-09T10:29:14.999Z</time></trkpt><trkpt lat="37.97182510252293" lon="15.062737321209585"><ele>1136.0</ele><time>2026-04-09T10:29:16.999Z</time></trkpt><trkpt lat="37.971786266371005" lon="15.062819177130274"><ele>1136.0</ele><time>2026-04-09T10:29:27.999Z</time></trkpt><trkpt lat="37.971787768815325" lon="15.062903467626699"><ele>1136.0</ele><time>2026-04-09T10:29:29.999Z</time></trkpt><trkpt lat="37.97172265366102" lon="15.062873025014243"><ele>1136.0</ele><time>2026-04-09T10:30:03Z</time></trkpt><trkpt lat="37.971641377047206" lon="15.062823204894173"><ele>1136.0</ele><time>2026-04-09T10:30:29.999Z</time></trkpt><trkpt lat="37.971549998581466" lon="15.0627468162775"><ele>1136.0</ele><time>2026-04-09T10:30:31.999Z</time></trkpt><trkpt lat="37.971481343710145" lon="15.062673362696858"><ele>1139.3999999999999</ele><time>2026-04-09T10:30:32.999Z</time></trkpt><trkpt lat="37.97140118225063" lon="15.062605040181047"><ele>1142.8</ele><time>2026-04-09T10:30:33.999Z</time></trkpt><trkpt lat="37.97131129382673" lon="15.062536254206906"><ele>1146.1999999999998</ele><time>2026-04-09T10:30:34.999Z</time></trkpt><trkpt lat="37.9712209003132" lon="15.062469989483528"><ele>1149.6</ele><time>2026-04-09T10:30:35.999Z</time></trkpt><trkpt lat="37.971134511874325" lon="15.06241926944089"><ele>1153.0</ele><time>2026-04-09T10:30:36.999Z</time></trkpt><trkpt lat="37.97104234874898" lon="15.062367636705211"><ele>1153.6666666666665</ele><time>2026-04-09T10:30:37.999Z</time></trkpt><trkpt lat="37.97097033536287" lon="15.06233193690724"><ele>1154.3333333333333</ele><time>2026-04-09T10:30:38.999Z</time></trkpt><trkpt lat="37.9708881936695" lon="15.062286308825554"><ele>1155.0</ele><time>2026-04-09T10:30:39.999Z</time></trkpt><trkpt lat="37.97082506785858" lon="15.062251611104738"><ele>1155.6666666666667</ele><time>2026-04-09T10:30:40.999Z</time></trkpt><trkpt lat="37.970732597898355" lon="15.062212834293605"><ele>1156.3333333333335</ele><time>2026-04-09T10:30:41.999Z</time></trkpt><trkpt lat="37.97063397372485" lon="15.062175683438962"><ele>1157.0</ele><time>2026-04-09T10:30:42.999Z</time></trkpt><trkpt lat="37.97055665987165" lon="15.062161778795165"><ele>1159.8333333333335</ele><time>2026-04-09T10:30:43.999Z</time></trkpt><trkpt lat="37.97046810747429" lon="15.062129541753988"><ele>1162.6666666666667</ele><time>2026-04-09T10:30:45.999Z</time></trkpt><trkpt lat="37.97039917059504" lon="15.062088908714447"><ele>1165.5</ele><time>2026-04-09T10:30:47.999Z</time></trkpt><trkpt lat="37.97032217368624" lon="15.062078235018417"><ele>1168.3333333333333</ele><time>2026-04-09T10:30:49.999Z</time></trkpt><trkpt lat="37.9702350529568" lon="15.062042818927209"><ele>1171.1666666666665</ele><time>2026-04-09T10:30:51.999Z</time></trkpt><trkpt lat="37.97014098758165" lon="15.061967063020333"><ele>1174.0</ele><time>2026-04-09T10:30:53.999Z</time></trkpt><trkpt lat="37.97005360151393" lon="15.061888521131259"><ele>1171.8</ele><time>2026-04-09T10:30:55.999Z</time></trkpt><trkpt lat="37.96997500052258" lon="15.061800800491579"><ele>1169.6000000000001</ele><time>2026-04-09T10:30:57.999Z</time></trkpt><trkpt lat="37.96987327681" lon="15.061695983564487"><ele>1167.4</ele><time>2026-04-09T10:30:59.999Z</time></trkpt><trkpt lat="37.96980647771236" lon="15.061663061920664"><ele>1165.2</ele><time>2026-04-09T10:31:00.999Z</time></trkpt><trkpt lat="37.96974137884156" lon="15.06166789440209"><ele>1163.0</ele><time>2026-04-09T10:31:01.999Z</time></trkpt><trkpt lat="37.969626977471286" lon="15.061715510121836"><ele>1163.0</ele><time>2026-04-09T10:31:03.999Z</time></trkpt><trkpt lat="37.96950165644803" lon="15.061766530858232"><ele>1163.0</ele><time>2026-04-09T10:31:05.999Z</time></trkpt><trkpt lat="37.96942592786015" lon="15.061787702733735"><ele>1163.0</ele><time>2026-04-09T10:31:06.999Z</time></trkpt><trkpt lat="37.96935999126823" lon="15.061794392584366"><ele>1163.0</ele><time>2026-04-09T10:31:07.999Z</time></trkpt><trkpt lat="37.96928835413622" lon="15.061791212608004"><ele>1163.0</ele><time>2026-04-09T10:31:08.999Z</time></trkpt><trkpt lat="37.96916287289975" lon="15.061755961094939"><ele>1164.0</ele><time>2026-04-09T10:31:10.999Z</time></trkpt><trkpt lat="37.969092008289614" lon="15.061735707066978"><ele>1165.0</ele><time>2026-04-09T10:31:11.999Z</time></trkpt><trkpt lat="37.96902375438569" lon="15.06173759106209"><ele>1166.0</ele><time>2026-04-09T10:31:12.999Z</time></trkpt><trkpt lat="37.96895836155719" lon="15.061778665442962"><ele>1167.0</ele><time>2026-04-09T10:31:13.999Z</time></trkpt><trkpt lat="37.968878176462475" lon="15.061847426072664"><ele>1168.0</ele><time>2026-04-09T10:31:15.999Z</time></trkpt><trkpt lat="37.96880003576368" lon="15.061780203715552"><ele>1169.0</ele><time>2026-04-09T10:31:17.999Z</time></trkpt><trkpt lat="37.96874206305504" lon="15.06171381124263"><ele>1174.2</ele><time>2026-04-09T10:31:18.999Z</time></trkpt><trkpt lat="37.968668089282154" lon="15.061614505911296"><ele>1179.4</ele><time>2026-04-09T10:31:20.999Z</time></trkpt><trkpt lat="37.96862840348874" lon="15.061486310184597"><ele>1184.6</ele><time>2026-04-09T10:31:22.999Z</time></trkpt><trkpt lat="37.96859798546306" lon="15.061397237053765"><ele>1189.8</ele><time>2026-04-09T10:31:23.999Z</time></trkpt><trkpt lat="37.96856162125528" lon="15.06130824158032"><ele>1195.0</ele><time>2026-04-09T10:31:24.999Z</time></trkpt><trkpt lat="37.96851782284705" lon="15.061223824394201"><ele>1195.0</ele><time>2026-04-09T10:31:25.999Z</time></trkpt><trkpt lat="37.96847765751975" lon="15.061140413683646"><ele>1195.0</ele><time>2026-04-09T10:31:26.999Z</time></trkpt><trkpt lat="37.96841903673658" lon="15.061001063164811"><ele>1195.0</ele><time>2026-04-09T10:31:28.999Z</time></trkpt><trkpt lat="37.96840090145036" lon="15.06092180664249"><ele>1195.0</ele><time>2026-04-09T10:31:29.999Z</time></trkpt><trkpt lat="37.96840136093808" lon="15.060767901875908"><ele>1195.0</ele><time>2026-04-09T10:31:31.999Z</time></trkpt><trkpt lat="37.96835135468063" lon="15.060662662863693"><ele>1193.5</ele><time>2026-04-09T10:31:33.999Z</time></trkpt><trkpt lat="37.96829192019024" lon="15.060617623089009"><ele>1192.0</ele><time>2026-04-09T10:31:34.999Z</time></trkpt><trkpt lat="37.96824352541261" lon="15.060549641766325"><ele>1190.5</ele><time>2026-04-09T10:31:35.999Z</time></trkpt><trkpt lat="37.96821028831401" lon="15.060465629150567"><ele>1189.0</ele><time>2026-04-09T10:31:36.999Z</time></trkpt><trkpt lat="37.96820583346763" lon="15.060383383948675"><ele>1187.5</ele><time>2026-04-09T10:31:37.999Z</time></trkpt><trkpt lat="37.968218742160595" lon="15.06030218627854"><ele>1186.0</ele><time>2026-04-09T10:31:39Z</time></trkpt><trkpt lat="37.96820310939911" lon="15.060154338340935"><ele>1186.0</ele><time>2026-04-09T10:31:41Z</time></trkpt><trkpt lat="37.96811972768257" lon="15.06005527105786"><ele>1186.0</ele><time>2026-04-09T10:31:43Z</time></trkpt><trkpt lat="37.96802690054297" lon="15.059978547711646"><ele>1186.0</ele><time>2026-04-09T10:31:45Z</time></trkpt><trkpt lat="37.96796670478873" lon="15.059881332150413"><ele>1186.0</ele><time>2026-04-09T10:31:47Z</time></trkpt><trkpt lat="37.96787508620018" lon="15.059787336157038"><ele>1186.0</ele><time>2026-04-09T10:31:49Z</time></trkpt><trkpt lat="37.96780950336682" lon="15.059739131746259"><ele>1185.6666666666665</ele><time>2026-04-09T10:31:50Z</time></trkpt><trkpt lat="37.96770893297315" lon="15.059680440203623"><ele>1185.3333333333333</ele><time>2026-04-09T10:31:52Z</time></trkpt><trkpt lat="37.96764748924195" lon="15.059588091633056"><ele>1185.0</ele><time>2026-04-09T10:31:54Z</time></trkpt><trkpt lat="37.96762077321169" lon="15.059499061747523"><ele>1184.6666666666667</ele><time>2026-04-09T10:31:55Z</time></trkpt><trkpt lat="37.96758337780038" lon="15.059427841023112"><ele>1184.3333333333335</ele><time>2026-04-09T10:31:56Z</time></trkpt><trkpt lat="37.96751979975215" lon="15.059388549138768"><ele>1184.0</ele><time>2026-04-09T10:31:57Z</time></trkpt><trkpt lat="37.96744711703152" lon="15.059391373205273"><ele>1184.0</ele><time>2026-04-09T10:31:58Z</time></trkpt><trkpt lat="37.96734622420206" lon="15.059337672012918"><ele>1184.0</ele><time>2026-04-09T10:32:00Z</time></trkpt><trkpt lat="37.967321004394854" lon="15.059264341410582"><ele>1184.0</ele><time>2026-04-09T10:32:01Z</time></trkpt><trkpt lat="37.96728410689372" lon="15.059182283827374"><ele>1184.0</ele><time>2026-04-09T10:32:02Z</time></trkpt><trkpt lat="37.9672434326056" lon="15.0591037818826"><ele>1184.0</ele><time>2026-04-09T10:32:03Z</time></trkpt><trkpt lat="37.96718088812498" lon="15.058999282912005"><ele>1184.0</ele><time>2026-04-09T10:32:04Z</time></trkpt><trkpt lat="37.96708659034374" lon="15.058860895374465"><ele>1188.5</ele><time>2026-04-09T10:32:06Z</time></trkpt><trkpt lat="37.96703402681983" lon="15.058800258444913"><ele>1193.0</ele><time>2026-04-09T10:32:07Z</time></trkpt><trkpt lat="37.96696167019704" lon="15.058724719081017"><ele>1197.5</ele><time>2026-04-09T10:32:08Z</time></trkpt><trkpt lat="37.96689826542574" lon="15.058686678304024"><ele>1202.0</ele><time>2026-04-09T10:32:09Z</time></trkpt><trkpt lat="37.966832382122725" lon="15.058636345439709"><ele>1206.5</ele><time>2026-04-09T10:32:10Z</time></trkpt><trkpt lat="37.966771043570304" lon="15.05856832325636"><ele>1211.0</ele><time>2026-04-09T10:32:11Z</time></trkpt><trkpt lat="37.966718136955706" lon="15.058504111312068"><ele>1210.2</ele><time>2026-04-09T10:32:12Z</time></trkpt><trkpt lat="37.96666373134198" lon="15.0584188943841"><ele>1209.3999999999999</ele><time>2026-04-09T10:32:13Z</time></trkpt><trkpt lat="37.96661443830312" lon="15.058321842521325"><ele>1208.6</ele><time>2026-04-09T10:32:14Z</time></trkpt><trkpt lat="37.96657560769538" lon="15.058245875494306"><ele>1207.8</ele><time>2026-04-09T10:32:15Z</time></trkpt><trkpt lat="37.966510499313515" lon="15.058116128659691"><ele>1207.0</ele><time>2026-04-09T10:32:17Z</time></trkpt><trkpt lat="37.96645873868093" lon="15.058022117910491"><ele>1207.0</ele><time>2026-04-09T10:32:19Z</time></trkpt><trkpt lat="37.96641118161796" lon="15.057958780404308"><ele>1207.0</ele><time>2026-04-09T10:32:21Z</time></trkpt><trkpt lat="37.96636585778879" lon="15.057900765149448"><ele>1207.0</ele><time>2026-04-09T10:34:17Z</time></trkpt><trkpt lat="37.96640865800943" lon="15.057960898225627"><ele>1207.0</ele><time>2026-04-09T10:34:33Z</time></trkpt><trkpt lat="37.966453458152216" lon="15.058017816346021"><ele>1207.0</ele><time>2026-04-09T10:34:34Z</time></trkpt><trkpt lat="37.966519554982874" lon="15.058118060885715"><ele>1207.0</ele><time>2026-04-09T10:34:35Z</time></trkpt><trkpt lat="37.96658069905409" lon="15.058240745799507"><ele>1207.8</ele><time>2026-04-09T10:34:36Z</time></trkpt><trkpt lat="37.96663050644173" lon="15.058369337999927"><ele>1208.6</ele><time>2026-04-09T10:34:37Z</time></trkpt><trkpt lat="37.9666888322411" lon="15.058476977130843"><ele>1209.3999999999999</ele><time>2026-04-09T10:34:38Z</time></trkpt><trkpt lat="37.96676155169857" lon="15.058563026014486"><ele>1210.2</ele><time>2026-04-09T10:34:39Z</time></trkpt><trkpt lat="37.96684153155831" lon="15.058642483287345"><ele>1211.0</ele><time>2026-04-09T10:34:40Z</time></trkpt><trkpt lat="37.9669055666406" lon="15.058702807872402"><ele>1211.0</ele><time>2026-04-09T10:34:41Z</time></trkpt><trkpt lat="37.96697645499947" lon="15.058763079161428"><ele>1211.0</ele><time>2026-04-09T10:34:42Z</time></trkpt><trkpt lat="37.96705346916884" lon="15.05881722569575"><ele>1211.0</ele><time>2026-04-09T10:34:43Z</time></trkpt><trkpt lat="37.96712120094889" lon="15.05888320045649"><ele>1211.0</ele><time>2026-04-09T10:34:44Z</time></trkpt><trkpt lat="37.96716547006342" lon="15.05895932366322"><ele>1211.0</ele><time>2026-04-09T10:34:45Z</time></trkpt><trkpt lat="37.96720211565967" lon="15.05902821811884"><ele>1211.0</ele><time>2026-04-09T10:34:46Z</time></trkpt><trkpt lat="37.96726230520375" lon="15.059121944388695"><ele>1209.5</ele><time>2026-04-09T10:34:47Z</time></trkpt><trkpt lat="37.96730872985553" lon="15.059204762876638"><ele>1208.0</ele><time>2026-04-09T10:34:48Z</time></trkpt><trkpt lat="37.96735003906725" lon="15.059292122815505"><ele>1206.5</ele><time>2026-04-09T10:34:49Z</time></trkpt><trkpt lat="37.96739694679928" lon="15.059400024005935"><ele>1205.0</ele><time>2026-04-09T10:34:51Z</time></trkpt><trkpt lat="37.96748383527379" lon="15.059442648438374"><ele>1203.5</ele><time>2026-04-09T10:34:53Z</time></trkpt><trkpt lat="37.967547651126246" lon="15.05944986527267"><ele>1202.0</ele><time>2026-04-09T10:34:54Z</time></trkpt><trkpt lat="37.967625431011285" lon="15.059468725243624"><ele>1202.0</ele><time>2026-04-09T10:34:55Z</time></trkpt><trkpt lat="37.967673382525696" lon="15.059591030567644"><ele>1202.0</ele><time>2026-04-09T10:34:56.999Z</time></trkpt><trkpt lat="37.96771323157555" lon="15.059691928448247"><ele>1202.0</ele><time>2026-04-09T10:34:58.999Z</time></trkpt><trkpt lat="37.96782594274434" lon="15.059764537507252"><ele>1202.0</ele><time>2026-04-09T10:35:00.999Z</time></trkpt><trkpt lat="37.96790278729681" lon="15.059805941053213"><ele>1202.0</ele><time>2026-04-09T10:35:01.999Z</time></trkpt><trkpt lat="37.96797227490784" lon="15.059870973233483"><ele>1202.0</ele><time>2026-04-09T10:35:02.999Z</time></trkpt><trkpt lat="37.968023235799635" lon="15.059937421022546"><ele>1202.0</ele><time>2026-04-09T10:35:03.999Z</time></trkpt><trkpt lat="37.968088743030336" lon="15.060053383292555"><ele>1202.0</ele><time>2026-04-09T10:35:05.999Z</time></trkpt><trkpt lat="37.96819491735759" lon="15.060153633528014"><ele>1202.0</ele><time>2026-04-09T10:35:07.999Z</time></trkpt><trkpt lat="37.96823649531291" lon="15.060222240831239"><ele>1202.0</ele><time>2026-04-09T10:35:08.999Z</time></trkpt><trkpt lat="37.96824795535278" lon="15.060301116005594"><ele>1202.0</ele><time>2026-04-09T10:35:09.999Z</time></trkpt><trkpt lat="37.968239852850516" lon="15.06038125420041"><ele>1200.8333333333335</ele><time>2026-04-09T10:35:10.999Z</time></trkpt><trkpt lat="37.968240849431616" lon="15.060546290191494"><ele>1199.6666666666667</ele><time>2026-04-09T10:35:12.999Z</time></trkpt><trkpt lat="37.968274660374256" lon="15.06062221334199"><ele>1198.5</ele><time>2026-04-09T10:35:13.999Z</time></trkpt><trkpt lat="37.96832814060932" lon="15.060690798263117"><ele>1197.3333333333333</ele><time>2026-04-09T10:35:14.999Z</time></trkpt><trkpt lat="37.96838920940955" lon="15.060741145254859"><ele>1196.1666666666665</ele><time>2026-04-09T10:35:15.999Z</time></trkpt><trkpt lat="37.96844116222835" lon="15.06080600576487"><ele>1195.0</ele><time>2026-04-09T10:35:16.999Z</time></trkpt><trkpt lat="37.96841911763454" lon="15.06095137012623"><ele>1195.0</ele><time>2026-04-09T10:35:18.999Z</time></trkpt><trkpt lat="37.96842659183535" lon="15.061030875788648"><ele>1195.0</ele><time>2026-04-09T10:35:19.999Z</time></trkpt><trkpt lat="37.96845827830693" lon="15.061105467343028"><ele>1195.0</ele><time>2026-04-09T10:35:20.999Z</time></trkpt><trkpt lat="37.968501454501705" lon="15.061179670450413"><ele>1195.0</ele><time>2026-04-09T10:35:21.999Z</time></trkpt><trkpt lat="37.96854856597192" lon="15.061263194165967"><ele>1195.0</ele><time>2026-04-09T10:35:22.999Z</time></trkpt><trkpt lat="37.968588569700344" lon="15.061356703994848"><ele>1195.0</ele><time>2026-04-09T10:35:23.999Z</time></trkpt><trkpt lat="37.968625040351576" lon="15.061456396970302"><ele>1195.0</ele><time>2026-04-09T10:35:24.999Z</time></trkpt><trkpt lat="37.968647067590524" lon="15.061547191501447"><ele>1195.0</ele><time>2026-04-09T10:35:25.999Z</time></trkpt><trkpt lat="37.96869366354956" lon="15.061669572027354"><ele>1195.0</ele><time>2026-04-09T10:35:27.999Z</time></trkpt><trkpt lat="37.96874172833689" lon="15.061731577898575"><ele>1195.0</ele><time>2026-04-09T10:35:28.999Z</time></trkpt><trkpt lat="37.968800170853136" lon="15.061788958635297"><ele>1195.0</ele><time>2026-04-09T10:35:29.999Z</time></trkpt><trkpt lat="37.96890227921815" lon="15.061851394431933"><ele>1195.0</ele><time>2026-04-09T10:35:31.999Z</time></trkpt><trkpt lat="37.968978825830575" lon="15.061811140047421"><ele>1188.5</ele><time>2026-04-09T10:35:33.999Z</time></trkpt><trkpt lat="37.96909826379124" lon="15.061730677794028"><ele>1182.0</ele><time>2026-04-09T10:35:35.999Z</time></trkpt><trkpt lat="37.96916818758545" lon="15.061734607653458"><ele>1175.5</ele><time>2026-04-09T10:35:36.999Z</time></trkpt><trkpt lat="37.96928613250583" lon="15.061798037239338"><ele>1169.0</ele><time>2026-04-09T10:35:38.999Z</time></trkpt><trkpt lat="37.96941101666614" lon="15.061795599795815"><ele>1168.0</ele><time>2026-04-09T10:35:40.999Z</time></trkpt><trkpt lat="37.96948529389859" lon="15.061785212449184"><ele>1167.0</ele><time>2026-04-09T10:35:41.999Z</time></trkpt><trkpt lat="37.969549453747454" lon="15.061757744756965"><ele>1166.0</ele><time>2026-04-09T10:35:42.999Z</time></trkpt><trkpt lat="37.96962186694776" lon="15.061735533875652"><ele>1165.0</ele><time>2026-04-09T10:35:43.999Z</time></trkpt><trkpt lat="37.96972973612816" lon="15.06168860412196"><ele>1164.0</ele><time>2026-04-09T10:35:45.999Z</time></trkpt><trkpt lat="37.969799940954985" lon="15.061664269302593"><ele>1163.0</ele><time>2026-04-09T10:35:46.999Z</time></trkpt><trkpt lat="37.96987191800128" lon="15.061673180994296"><ele>1163.0</ele><time>2026-04-09T10:35:47.999Z</time></trkpt><trkpt lat="37.969930708078046" lon="15.06171672379177"><ele>1163.0</ele><time>2026-04-09T10:35:48.999Z</time></trkpt><trkpt lat="37.969982039443764" lon="15.061780534433769"><ele>1163.0</ele><time>2026-04-09T10:35:50Z</time></trkpt><trkpt lat="37.970062790751356" lon="15.061889367505552"><ele>1163.0</ele><time>2026-04-09T10:35:52Z</time></trkpt><trkpt lat="37.97015568765187" lon="15.061978164996301"><ele>1163.0</ele><time>2026-04-09T10:35:54Z</time></trkpt><trkpt lat="37.97021262346934" lon="15.062017859496354"><ele>1163.0</ele><time>2026-04-09T10:35:55Z</time></trkpt><trkpt lat="37.9702728547978" lon="15.062059302704544"><ele>1165.2</ele><time>2026-04-09T10:35:56Z</time></trkpt><trkpt lat="37.97033290772672" lon="15.06208979606446"><ele>1167.4</ele><time>2026-04-09T10:35:57Z</time></trkpt><trkpt lat="37.97045861899792" lon="15.062112540517493"><ele>1169.6000000000001</ele><time>2026-04-09T10:35:59Z</time></trkpt><trkpt lat="37.97052385208382" lon="15.062147437924478"><ele>1171.8</ele><time>2026-04-09T10:36:00Z</time></trkpt><trkpt lat="37.97063745422115" lon="15.062202996931662"><ele>1174.0</ele><time>2026-04-09T10:36:02Z</time></trkpt><trkpt lat="37.970753133701386" lon="15.06224234793793"><ele>1174.0</ele><time>2026-04-09T10:36:04Z</time></trkpt><trkpt lat="37.97081968369717" lon="15.062262367323376"><ele>1174.0</ele><time>2026-04-09T10:36:05Z</time></trkpt><trkpt lat="37.970879022815716" lon="15.062291700614361"><ele>1174.0</ele><time>2026-04-09T10:36:06Z</time></trkpt><trkpt lat="37.97098622213489" lon="15.062336710055158"><ele>1174.0</ele><time>2026-04-09T10:36:08Z</time></trkpt><trkpt lat="37.971059606272426" lon="15.06236370622756"><ele>1174.0</ele><time>2026-04-09T10:36:09Z</time></trkpt><trkpt lat="37.97118024674628" lon="15.062447386425681"><ele>1171.0</ele><time>2026-04-09T10:36:11Z</time></trkpt><trkpt lat="37.97123871795184" lon="15.062482048678403"><ele>1168.0</ele><time>2026-04-09T10:36:12Z</time></trkpt><trkpt lat="37.97130571861654" lon="15.062528091980777"><ele>1165.0</ele><time>2026-04-09T10:36:13Z</time></trkpt><trkpt lat="37.9713610751201" lon="15.062570219992642"><ele>1162.0</ele><time>2026-04-09T10:36:14Z</time></trkpt><trkpt lat="37.97142050581117" lon="15.0626182598147"><ele>1159.0</ele><time>2026-04-09T10:36:15Z</time></trkpt><trkpt lat="37.97148640487391" lon="15.062671873294185"><ele>1156.0</ele><time>2026-04-09T10:36:16Z</time></trkpt><trkpt lat="37.97154847571822" lon="15.062722462285937"><ele>1153.0</ele><time>2026-04-09T10:36:17Z</time></trkpt><trkpt lat="37.97163054664296" lon="15.062785455285875"><ele>1153.0</ele><time>2026-04-09T10:36:19Z</time></trkpt><trkpt lat="37.97168698218823" lon="15.062849495919135"><ele>1153.0</ele><time>2026-04-09T10:36:22Z</time></trkpt><trkpt lat="37.971777177047" lon="15.062917123272332"><ele>1153.0</ele><time>2026-04-09T10:36:25Z</time></trkpt><trkpt lat="37.97181971633016" lon="15.062856750773804"><ele>1153.0</ele><time>2026-04-09T10:36:58Z</time></trkpt><trkpt lat="37.97182674880688" lon="15.062768162435468"><ele>1153.0</ele><time>2026-04-09T10:36:59Z</time></trkpt><trkpt lat="37.97183395140503" lon="15.062661644904727"><ele>1153.0</ele><time>2026-04-09T10:37:00Z</time></trkpt><trkpt lat="37.97184826588211" lon="15.062540048257704"><ele>1153.6666666666665</ele><time>2026-04-09T10:37:01Z</time></trkpt><trkpt lat="37.971859090419244" lon="15.062447675119506"><ele>1154.3333333333333</ele><time>2026-04-09T10:37:02Z</time></trkpt><trkpt lat="37.97184909360302" lon="15.062340748149882"><ele>1155.0</ele><time>2026-04-09T10:37:03Z</time></trkpt><trkpt lat="37.97181891142167" lon="15.062236378728894"><ele>1155.6666666666667</ele><time>2026-04-09T10:37:04Z</time></trkpt><trkpt lat="37.971767334823824" lon="15.062137603965652"><ele>1156.3333333333335</ele><time>2026-04-09T10:37:05Z</time></trkpt><trkpt lat="37.97170862639235" lon="15.06204284890042"><ele>1157.0</ele><time>2026-04-09T10:37:06Z</time></trkpt><trkpt lat="37.97163882861241" lon="15.061951593765224"><ele>1157.0</ele><time>2026-04-09T10:37:07Z</time></trkpt><trkpt lat="37.97158259937003" lon="15.061854532378149"><ele>1157.0</ele><time>2026-04-09T10:37:08Z</time></trkpt><trkpt lat="37.971549491012134" lon="15.061754204129212"><ele>1157.0</ele><time>2026-04-09T10:37:09Z</time></trkpt><trkpt lat="37.97152591730448" lon="15.061640183981877"><ele>1157.0</ele><time>2026-04-09T10:37:10Z</time></trkpt><trkpt lat="37.971516449365225" lon="15.061524251298593"><ele>1157.0</ele><time>2026-04-09T10:37:11Z</time></trkpt><trkpt lat="37.97149877731914" lon="15.061416027115621"><ele>1155.6</ele><time>2026-04-09T10:37:12Z</time></trkpt><trkpt lat="37.97147117406176" lon="15.061312568573399"><ele>1154.2</ele><time>2026-04-09T10:37:13Z</time></trkpt><trkpt lat="37.971432251247016" lon="15.061190061342963"><ele>1152.8</ele><time>2026-04-09T10:37:13.999Z</time></trkpt><trkpt lat="37.971398981659306" lon="15.06105983352378"><ele>1151.4</ele><time>2026-04-09T10:37:14.999Z</time></trkpt><trkpt lat="37.97138176192254" lon="15.060952733574954"><ele>1150.0</ele><time>2026-04-09T10:37:15.999Z</time></trkpt><trkpt lat="37.971404785814705" lon="15.060832814941946"><ele>1148.8</ele><time>2026-04-09T10:37:16.999Z</time></trkpt><trkpt lat="37.97139604295548" lon="15.06074101395205"><ele>1147.6</ele><time>2026-04-09T10:37:17.999Z</time></trkpt><trkpt lat="37.97135805688213" lon="15.06064655469707"><ele>1146.4</ele><time>2026-04-09T10:37:18.999Z</time></trkpt><trkpt lat="37.97130631946178" lon="15.060533448468185"><ele>1145.2</ele><time>2026-04-09T10:37:19.999Z</time></trkpt><trkpt lat="37.97124525916436" lon="15.060435612885772"><ele>1144.0</ele><time>2026-04-09T10:37:20.999Z</time></trkpt><trkpt lat="37.9711718937342" lon="15.060351865072292"><ele>1144.0</ele><time>2026-04-09T10:37:21.999Z</time></trkpt><trkpt lat="37.971137562219674" lon="15.060255108926656"><ele>1144.0</ele><time>2026-04-09T10:37:22.999Z</time></trkpt><trkpt lat="37.97113014460141" lon="15.060160935236599"><ele>1144.0</ele><time>2026-04-09T10:37:23.999Z</time></trkpt><trkpt lat="37.971097382135376" lon="15.060078714014352"><ele>1144.0</ele><time>2026-04-09T10:37:24.999Z</time></trkpt><trkpt lat="37.97108356266785" lon="15.059952652625999"><ele>1144.0</ele><time>2026-04-09T10:37:25.999Z</time></trkpt><trkpt lat="37.97103935740787" lon="15.059835511349167"><ele>1144.0</ele><time>2026-04-09T10:37:26.999Z</time></trkpt><trkpt lat="37.97101827566813" lon="15.059729266641645"><ele>1142.3333333333333</ele><time>2026-04-09T10:37:27.999Z</time></trkpt><trkpt lat="37.970977992566816" lon="15.05965005062094"><ele>1140.6666666666665</ele><time>2026-04-09T10:37:28.999Z</time></trkpt><trkpt lat="37.97095347059808" lon="15.059541965212896"><ele>1139.0</ele><time>2026-04-09T10:37:29.999Z</time></trkpt><trkpt lat="37.97091240323271" lon="15.05943429535083"><ele>1137.3333333333333</ele><time>2026-04-09T10:37:30.999Z</time></trkpt><trkpt lat="37.97089977359644" lon="15.059324646067017"><ele>1135.6666666666667</ele><time>2026-04-09T10:37:31.999Z</time></trkpt><trkpt lat="37.97086579617116" lon="15.059211283603956"><ele>1134.0</ele><time>2026-04-09T10:37:33.999Z</time></trkpt><trkpt lat="37.970806208214675" lon="15.05906672945375"><ele>1141.0</ele><time>2026-04-09T10:37:35.999Z</time></trkpt><trkpt lat="37.970776774755734" lon="15.058964162121848"><ele>1148.0</ele><time>2026-04-09T10:37:36.999Z</time></trkpt><trkpt lat="37.970748495912524" lon="15.058872989265076"><ele>1155.0</ele><time>2026-04-09T10:37:37.999Z</time></trkpt><trkpt lat="37.970723771041534" lon="15.058793663447947"><ele>1162.0</ele><time>2026-04-09T10:37:38.999Z</time></trkpt><trkpt lat="37.9707235402764" lon="15.058698101812952"><ele>1169.0</ele><time>2026-04-09T10:37:39.999Z</time></trkpt><trkpt lat="37.97067317731034" lon="15.058631943427383"><ele>1176.0</ele><time>2026-04-09T10:37:40.999Z</time></trkpt><trkpt lat="37.97058826949455" lon="15.05852172498517"><ele>1176.0</ele><time>2026-04-09T10:37:42.999Z</time></trkpt><trkpt lat="37.97053474326982" lon="15.058460154415824"><ele>1176.0</ele><time>2026-04-09T10:37:43.999Z</time></trkpt><trkpt lat="37.97050958831456" lon="15.058371907553822"><ele>1176.0</ele><time>2026-04-09T10:37:44.999Z</time></trkpt><trkpt lat="37.9705085045559" lon="15.058265384234101"><ele>1176.0</ele><time>2026-04-09T10:37:45.999Z</time></trkpt><trkpt lat="37.970526649781945" lon="15.058173619668013"><ele>1176.0</ele><time>2026-04-09T10:37:46.999Z</time></trkpt><trkpt lat="37.97056318650635" lon="15.058098248074977"><ele>1176.0</ele><time>2026-04-09T10:37:47.999Z</time></trkpt><trkpt lat="37.9705570917151" lon="15.057989862997603"><ele>1176.5</ele><time>2026-04-09T10:37:49.999Z</time></trkpt><trkpt lat="37.970530432412176" lon="15.05791664802911"><ele>1177.0</ele><time>2026-04-09T10:37:50.999Z</time></trkpt><trkpt lat="37.97045222011088" lon="15.057794081896128"><ele>1177.5</ele><time>2026-04-09T10:37:52.999Z</time></trkpt><trkpt lat="37.97043294890771" lon="15.057655018370639"><ele>1178.0</ele><time>2026-04-09T10:37:55Z</time></trkpt><trkpt lat="37.97047497591666" lon="15.057567482225268"><ele>1178.5</ele><time>2026-04-09T10:37:57Z</time></trkpt><trkpt lat="37.97048052649637" lon="15.057480305931689"><ele>1179.0</ele><time>2026-04-09T10:37:58Z</time></trkpt><trkpt lat="37.970510341200196" lon="15.057344492294769"><ele>1180.4</ele><time>2026-04-09T10:37:59Z</time></trkpt><trkpt lat="37.97054880358153" lon="15.057212648634748"><ele>1181.8000000000002</ele><time>2026-04-09T10:38:00Z</time></trkpt><trkpt lat="37.9706105320411" lon="15.057115361984343"><ele>1183.1999999999998</ele><time>2026-04-09T10:38:01Z</time></trkpt><trkpt lat="37.970616306417355" lon="15.057008056641562"><ele>1184.6</ele><time>2026-04-09T10:38:02Z</time></trkpt><trkpt lat="37.97061563871031" lon="15.056878675074614"><ele>1186.0</ele><time>2026-04-09T10:38:03Z</time></trkpt><trkpt lat="37.97059560776404" lon="15.056748409439072"><ele>1186.0</ele><time>2026-04-09T10:38:04Z</time></trkpt><trkpt lat="37.97058676754184" lon="15.056647035962284"><ele>1186.0</ele><time>2026-04-09T10:38:05Z</time></trkpt><trkpt lat="37.97055285943987" lon="15.05653368642828"><ele>1186.0</ele><time>2026-04-09T10:38:06Z</time></trkpt><trkpt lat="37.97050377853457" lon="15.056328361220972"><ele>1186.0</ele><time>2026-04-09T10:38:08Z</time></trkpt><trkpt lat="37.9704715095258" lon="15.056224510726025"><ele>1186.0</ele><time>2026-04-09T10:38:09Z</time></trkpt><trkpt lat="37.9704316587526" lon="15.056119693232388"><ele>1186.6666666666665</ele><time>2026-04-09T10:38:10Z</time></trkpt><trkpt lat="37.97037366500726" lon="15.056063946986054"><ele>1187.3333333333333</ele><time>2026-04-09T10:38:11Z</time></trkpt><trkpt lat="37.97030997723982" lon="15.055981229493296"><ele>1188.0</ele><time>2026-04-09T10:38:12Z</time></trkpt><trkpt lat="37.97023522790535" lon="15.055945817292299"><ele>1188.6666666666667</ele><time>2026-04-09T10:38:13Z</time></trkpt><trkpt lat="37.97016105098148" lon="15.05589202761835"><ele>1189.3333333333335</ele><time>2026-04-09T10:38:14Z</time></trkpt><trkpt lat="37.97007418435985" lon="15.055838217344961"><ele>1190.0</ele><time>2026-04-09T10:38:15Z</time></trkpt><trkpt lat="37.97001064629677" lon="15.055788125778957"><ele>1195.1666666666667</ele><time>2026-04-09T10:38:16Z</time></trkpt><trkpt lat="37.96995321554361" lon="15.055708530574666"><ele>1200.3333333333335</ele><time>2026-04-09T10:38:17Z</time></trkpt><trkpt lat="37.96993468785807" lon="15.055619461741575"><ele>1205.5</ele><time>2026-04-09T10:38:18Z</time></trkpt><trkpt lat="37.9699203181003" lon="15.055530254245923"><ele>1210.6666666666667</ele><time>2026-04-09T10:38:19Z</time></trkpt><trkpt lat="37.9699241059223" lon="15.055412115922735"><ele>1215.8333333333333</ele><time>2026-04-09T10:38:21Z</time></trkpt><trkpt lat="37.96998370039514" lon="15.05537116032157"><ele>1221.0</ele><time>2026-04-09T10:38:23Z</time></trkpt><trkpt lat="37.97003327712911" lon="15.055314514627769"><ele>1221.0</ele><time>2026-04-09T10:38:25Z</time></trkpt><trkpt lat="37.9701534466669" lon="15.055229217131803"><ele>1221.0</ele><time>2026-04-09T10:38:27Z</time></trkpt><trkpt lat="37.97024028103156" lon="15.055176997737709"><ele>1221.0</ele><time>2026-04-09T10:38:28Z</time></trkpt><trkpt lat="37.97032001984724" lon="15.055160813410561"><ele>1221.0</ele><time>2026-04-09T10:38:29Z</time></trkpt><trkpt lat="37.97040905893677" lon="15.055165095424423"><ele>1221.0</ele><time>2026-04-09T10:38:30Z</time></trkpt><trkpt lat="37.97047762324839" lon="15.055167397521144"><ele>1221.0</ele><time>2026-04-09T10:38:31Z</time></trkpt><trkpt lat="37.9705649820371" lon="15.055164688709915"><ele>1221.0</ele><time>2026-04-09T10:38:32Z</time></trkpt><trkpt lat="37.97063044442804" lon="15.05514160122916"><ele>1221.0</ele><time>2026-04-09T10:38:33Z</time></trkpt><trkpt lat="37.97072302402063" lon="15.05514343258768"><ele>1221.0</ele><time>2026-04-09T10:38:34Z</time></trkpt><trkpt lat="37.97081690639945" lon="15.055147857228537"><ele>1221.0</ele><time>2026-04-09T10:38:35Z</time></trkpt><trkpt lat="37.97092324271564" lon="15.05520524113177"><ele>1220.5</ele><time>2026-04-09T10:38:36Z</time></trkpt><trkpt lat="37.97104450230397" lon="15.055236847677989"><ele>1220.0</ele><time>2026-04-09T10:38:37Z</time></trkpt><trkpt lat="37.971182291604194" lon="15.055256761619692"><ele>1219.5</ele><time>2026-04-09T10:38:38Z</time></trkpt><trkpt lat="37.971293594986854" lon="15.055281817171082"><ele>1219.0</ele><time>2026-04-09T10:38:39Z</time></trkpt><trkpt lat="37.97139849386024" lon="15.055277053761424"><ele>1219.0</ele><time>2026-04-09T10:38:40Z</time></trkpt><trkpt lat="37.97150732906609" lon="15.055299885622897"><ele>1219.0</ele><time>2026-04-09T10:38:41Z</time></trkpt><trkpt lat="37.97161066707799" lon="15.055316648051058"><ele>1219.0</ele><time>2026-04-09T10:38:42Z</time></trkpt><trkpt lat="37.97169113745767" lon="15.055312719806226"><ele>1219.0</ele><time>2026-04-09T10:38:43Z</time></trkpt><trkpt lat="37.97177770861104" lon="15.055349492377461"><ele>1219.0</ele><time>2026-04-09T10:38:44Z</time></trkpt><trkpt lat="37.97186278443943" lon="15.055361426522117"><ele>1216.2</ele><time>2026-04-09T10:38:45Z</time></trkpt><trkpt lat="37.971928280492854" lon="15.055332401972898"><ele>1213.4</ele><time>2026-04-09T10:38:46Z</time></trkpt><trkpt lat="37.97203264609069" lon="15.055317909775159"><ele>1210.6</ele><time>2026-04-09T10:38:47Z</time></trkpt><trkpt lat="37.97212674601604" lon="15.05525025846625"><ele>1207.8</ele><time>2026-04-09T10:38:48Z</time></trkpt><trkpt lat="37.97225273188062" lon="15.0551827180674"><ele>1205.0</ele><time>2026-04-09T10:38:49Z</time></trkpt><trkpt lat="37.972361568272085" lon="15.05513785201001"><ele>1205.0</ele><time>2026-04-09T10:38:50Z</time></trkpt><trkpt lat="37.97246039941524" lon="15.055151551625594"><ele>1205.0</ele><time>2026-04-09T10:38:51Z</time></trkpt><trkpt lat="37.97256255496854" lon="15.05515227419319"><ele>1205.0</ele><time>2026-04-09T10:38:52Z</time></trkpt><trkpt lat="37.97263452216801" lon="15.055098947048117"><ele>1205.0</ele><time>2026-04-09T10:38:53Z</time></trkpt><trkpt lat="37.97270391431333" lon="15.055021044658282"><ele>1205.0</ele><time>2026-04-09T10:38:54Z</time></trkpt><trkpt lat="37.97277747214443" lon="15.054933460500713"><ele>1200.0</ele><time>2026-04-09T10:38:55Z</time></trkpt><trkpt lat="37.97282520770819" lon="15.054835348264918"><ele>1195.0</ele><time>2026-04-09T10:38:56Z</time></trkpt><trkpt lat="37.97285106220693" lon="15.05474726634433"><ele>1190.0</ele><time>2026-04-09T10:38:57Z</time></trkpt><trkpt lat="37.97285736468255" lon="15.054643562041067"><ele>1185.0</ele><time>2026-04-09T10:38:58Z</time></trkpt><trkpt lat="37.97279722599212" lon="15.054531028595195"><ele>1180.0</ele><time>2026-04-09T10:38:59Z</time></trkpt><trkpt lat="37.972737645132334" lon="15.054436024577317"><ele>1180.0</ele><time>2026-04-09T10:39:00Z</time></trkpt><trkpt lat="37.97270050938293" lon="15.05433501973325"><ele>1180.0</ele><time>2026-04-09T10:39:01Z</time></trkpt><trkpt lat="37.97268131422016" lon="15.054246165742649"><ele>1180.0</ele><time>2026-04-09T10:39:02Z</time></trkpt><trkpt lat="37.972712293857555" lon="15.054066990158073"><ele>1180.0</ele><time>2026-04-09T10:39:04Z</time></trkpt><trkpt lat="37.97273764509378" lon="15.053936607575887"><ele>1180.0</ele><time>2026-04-09T10:39:05Z</time></trkpt><trkpt lat="37.97276115070807" lon="15.053768399526799"><ele>1182.0</ele><time>2026-04-09T10:39:06Z</time></trkpt><trkpt lat="37.97277306075655" lon="15.053611495117218"><ele>1184.0</ele><time>2026-04-09T10:39:07Z</time></trkpt><trkpt lat="37.97278226532036" lon="15.05344429092262"><ele>1186.0</ele><time>2026-04-09T10:39:08Z</time></trkpt><trkpt lat="37.97278209362654" lon="15.053247282129202"><ele>1188.0</ele><time>2026-04-09T10:39:09Z</time></trkpt><trkpt lat="37.97277398107614" lon="15.053066897031544"><ele>1191.6</ele><time>2026-04-09T10:39:10Z</time></trkpt><trkpt lat="37.972759937812455" lon="15.052894696456645"><ele>1195.1999999999998</ele><time>2026-04-09T10:39:11Z</time></trkpt><trkpt lat="37.972743366484416" lon="15.052760442518574"><ele>1198.8</ele><time>2026-04-09T10:39:12Z</time></trkpt><trkpt lat="37.972722599391695" lon="15.052654971575224"><ele>1202.3999999999999</ele><time>2026-04-09T10:39:13Z</time></trkpt><trkpt lat="37.97267342950815" lon="15.052532667167084"><ele>1206.0</ele><time>2026-04-09T10:39:15Z</time></trkpt><trkpt lat="37.97260767671045" lon="15.052427770522469"><ele>1211.5</ele><time>2026-04-09T10:39:17Z</time></trkpt><trkpt lat="37.97256425782019" lon="15.052340244780765"><ele>1217.0</ele><time>2026-04-09T10:39:19Z</time></trkpt><trkpt lat="37.97240129385588" lon="15.052435364911734"><ele>1222.5</ele><time>2026-04-09T10:39:24.999Z</time></trkpt><trkpt lat="37.972283312736536" lon="15.052543045057627"><ele>1228.0</ele><time>2026-04-09T10:39:26.999Z</time></trkpt><trkpt lat="37.972193656791625" lon="15.052615120793938"><ele>1228.0</ele><time>2026-04-09T10:39:27.999Z</time></trkpt><trkpt lat="37.972069225840976" lon="15.05269040241901"><ele>1228.0</ele><time>2026-04-09T10:39:28.999Z</time></trkpt><trkpt lat="37.97194091330051" lon="15.052754013721872"><ele>1228.0</ele><time>2026-04-09T10:39:29.999Z</time></trkpt><trkpt lat="37.971810063991896" lon="15.052810891574838"><ele>1228.0</ele><time>2026-04-09T10:39:30.999Z</time></trkpt><trkpt lat="37.97167531765652" lon="15.052855772981257"><ele>1226.5</ele><time>2026-04-09T10:39:31.999Z</time></trkpt><trkpt lat="37.97154905740171" lon="15.052887983042007"><ele>1225.0</ele><time>2026-04-09T10:39:32.999Z</time></trkpt><trkpt lat="37.971437938623644" lon="15.052909313648088"><ele>1223.5</ele><time>2026-04-09T10:39:33.999Z</time></trkpt><trkpt lat="37.97132003015637" lon="15.052925904459993"><ele>1222.0</ele><time>2026-04-09T10:39:34.999Z</time></trkpt><trkpt lat="37.97117976979603" lon="15.052937355496125"><ele>1222.0</ele><time>2026-04-09T10:39:35.999Z</time></trkpt><trkpt lat="37.97103054542627" lon="15.052926196364316"><ele>1222.0</ele><time>2026-04-09T10:39:36.999Z</time></trkpt><trkpt lat="37.9709020116728" lon="15.052919950161945"><ele>1222.0</ele><time>2026-04-09T10:39:37.999Z</time></trkpt><trkpt lat="37.97079025626073" lon="15.052904115672886"><ele>1222.0</ele><time>2026-04-09T10:39:38.999Z</time></trkpt><trkpt lat="37.970684912430855" lon="15.052883478467598"><ele>1221.8</ele><time>2026-04-09T10:39:39.999Z</time></trkpt><trkpt lat="37.97058810205943" lon="15.05283764917783"><ele>1221.6</ele><time>2026-04-09T10:39:40.999Z</time></trkpt><trkpt lat="37.97049666777779" lon="15.05277873142193"><ele>1221.3999999999999</ele><time>2026-04-09T10:39:41.999Z</time></trkpt><trkpt lat="37.97040170942695" lon="15.052745352036153"><ele>1221.2</ele><time>2026-04-09T10:39:42.999Z</time></trkpt><trkpt lat="37.970294833801134" lon="15.052745567283003"><ele>1221.0</ele><time>2026-04-09T10:39:43.999Z</time></trkpt><trkpt lat="37.97019176720522" lon="15.052747293513624"><ele>1222.0</ele><time>2026-04-09T10:39:44.999Z</time></trkpt><trkpt lat="37.96999630027812" lon="15.052734306945315"><ele>1223.0</ele><time>2026-04-09T10:39:45.999Z</time></trkpt><trkpt lat="37.96984288177792" lon="15.052690421913704"><ele>1224.0</ele><time>2026-04-09T10:39:46.999Z</time></trkpt><trkpt lat="37.96970594044516" lon="15.052652757425381"><ele>1224.0</ele><time>2026-04-09T10:39:47.999Z</time></trkpt><trkpt lat="37.969589640129634" lon="15.05259406539069"><ele>1224.0</ele><time>2026-04-09T10:39:48.999Z</time></trkpt><trkpt lat="37.969476452431294" lon="15.052513151253832"><ele>1224.0</ele><time>2026-04-09T10:39:49.999Z</time></trkpt><trkpt lat="37.9693760905614" lon="15.052426871232285"><ele>1224.0</ele><time>2026-04-09T10:39:50.999Z</time></trkpt><trkpt lat="37.96928308877217" lon="15.052372263531392"><ele>1224.0</ele><time>2026-04-09T10:39:51.999Z</time></trkpt><trkpt lat="37.96919714379376" lon="15.052351953240043"><ele>1224.0</ele><time>2026-04-09T10:39:52.999Z</time></trkpt><trkpt lat="37.969127949912206" lon="15.052362267262948"><ele>1224.0</ele><time>2026-04-09T10:39:53.999Z</time></trkpt><trkpt lat="37.96907533080116" lon="15.052413343227473"><ele>1224.0</ele><time>2026-04-09T10:39:54.999Z</time></trkpt><trkpt lat="37.969044959337914" lon="15.052501487128854"><ele>1224.0</ele><time>2026-04-09T10:39:55.999Z</time></trkpt><trkpt lat="37.96900427646195" lon="15.052615334366694"><ele>1224.0</ele><time>2026-04-09T10:39:56.999Z</time></trkpt><trkpt lat="37.9689508927453" lon="15.052719594079111"><ele>1224.0</ele><time>2026-04-09T10:39:57.999Z</time></trkpt><trkpt lat="37.968906472731575" lon="15.052805536266419"><ele>1224.0</ele><time>2026-04-09T10:39:58.999Z</time></trkpt><trkpt lat="37.968898000191594" lon="15.052980273956042"><ele>1224.0</ele><time>2026-04-09T10:40:01Z</time></trkpt><trkpt lat="37.96888268626889" lon="15.05311343853423"><ele>1224.0</ele><time>2026-04-09T10:40:02Z</time></trkpt><trkpt lat="37.96886405653456" lon="15.053238142458424"><ele>1224.0</ele><time>2026-04-09T10:40:03Z</time></trkpt><trkpt lat="37.96887100009963" lon="15.053346373074724"><ele>1227.3333333333333</ele><time>2026-04-09T10:40:04Z</time></trkpt><trkpt lat="37.96884075079979" lon="15.053495816966265"><ele>1230.6666666666667</ele><time>2026-04-09T10:40:05Z</time></trkpt><trkpt lat="37.968826078015894" lon="15.053604329182196"><ele>1234.0</ele><time>2026-04-09T10:40:06Z</time></trkpt><trkpt lat="37.968769075804545" lon="15.053673854753193"><ele>1237.3333333333335</ele><time>2026-04-09T10:40:07Z</time></trkpt><trkpt lat="37.96872439966121" lon="15.053731283597669"><ele>1240.6666666666667</ele><time>2026-04-09T10:40:08Z</time></trkpt><trkpt lat="37.96864653417456" lon="15.053709894572313"><ele>1244.0</ele><time>2026-04-09T10:40:09Z</time></trkpt><trkpt lat="37.96855672691769" lon="15.053675230122204"><ele>1244.0</ele><time>2026-04-09T10:40:10Z</time></trkpt><trkpt lat="37.968460674443136" lon="15.053608306678754"><ele>1244.0</ele><time>2026-04-09T10:40:11Z</time></trkpt><trkpt lat="37.96836674668375" lon="15.053546029368638"><ele>1244.0</ele><time>2026-04-09T10:40:12Z</time></trkpt><trkpt lat="37.968288993811264" lon="15.05347658081692"><ele>1244.0</ele><time>2026-04-09T10:40:13Z</time></trkpt><trkpt lat="37.968189254850756" lon="15.053440775836473"><ele>1244.0</ele><time>2026-04-09T10:40:14Z</time></trkpt><trkpt lat="37.968077274060725" lon="15.053495972961455"><ele>1242.2</ele><time>2026-04-09T10:40:15Z</time></trkpt><trkpt lat="37.96795463739604" lon="15.05354654367973"><ele>1240.4</ele><time>2026-04-09T10:40:16Z</time></trkpt><trkpt lat="37.967862320363224" lon="15.05353839572277"><ele>1238.6</ele><time>2026-04-09T10:40:17Z</time></trkpt><trkpt lat="37.96778215032362" lon="15.053530997362055"><ele>1236.8</ele><time>2026-04-09T10:40:18Z</time></trkpt><trkpt lat="37.967675267388024" lon="15.053557130066794"><ele>1235.0</ele><time>2026-04-09T10:40:19Z</time></trkpt><trkpt lat="37.967570982041494" lon="15.053525216251268"><ele>1236.0</ele><time>2026-04-09T10:40:20Z</time></trkpt><trkpt lat="37.967504509773484" lon="15.053494224982586"><ele>1237.0</ele><time>2026-04-09T10:40:21Z</time></trkpt><trkpt lat="37.96740677310952" lon="15.053505109437394"><ele>1238.0</ele><time>2026-04-09T10:40:22Z</time></trkpt><trkpt lat="37.9673239997296" lon="15.053487436532182"><ele>1239.0</ele><time>2026-04-09T10:40:23Z</time></trkpt><trkpt lat="37.96723794325577" lon="15.05350573367315"><ele>1240.0</ele><time>2026-04-09T10:40:24Z</time></trkpt><trkpt lat="37.96715810793145" lon="15.053498990563165"><ele>1241.0</ele><time>2026-04-09T10:40:25Z</time></trkpt><trkpt lat="37.967088835273" lon="15.053472652319135"><ele>1241.0</ele><time>2026-04-09T10:40:26Z</time></trkpt><trkpt lat="37.96702359040706" lon="15.053327737630694"><ele>1241.0</ele><time>2026-04-09T10:40:28Z</time></trkpt><trkpt lat="37.966963560240806" lon="15.053223117064134"><ele>1241.0</ele><time>2026-04-09T10:40:29Z</time></trkpt><trkpt lat="37.966892498530385" lon="15.053148478525015"><ele>1241.0</ele><time>2026-04-09T10:40:30Z</time></trkpt><trkpt lat="37.96683247682436" lon="15.053114890858751"><ele>1241.0</ele><time>2026-04-09T10:40:31Z</time></trkpt><trkpt lat="37.966682409268216" lon="15.053128954387267"><ele>1237.6</ele><time>2026-04-09T10:40:33Z</time></trkpt><trkpt lat="37.96657011018904" lon="15.053133030204336"><ele>1234.1999999999998</ele><time>2026-04-09T10:40:34Z</time></trkpt><trkpt lat="37.96645400402067" lon="15.053150357702446"><ele>1230.8000000000002</ele><time>2026-04-09T10:40:35Z</time></trkpt><trkpt lat="37.966348861295685" lon="15.053163472806446"><ele>1227.4</ele><time>2026-04-09T10:40:36Z</time></trkpt><trkpt lat="37.9662664923809" lon="15.053183548949933"><ele>1224.0</ele><time>2026-04-09T10:40:37Z</time></trkpt><trkpt lat="37.966190796903675" lon="15.053178001700546"><ele>1224.0</ele><time>2026-04-09T10:40:38Z</time></trkpt><trkpt lat="37.96612021044259" lon="15.05316896906251"><ele>1224.0</ele><time>2026-04-09T10:40:39Z</time></trkpt><trkpt lat="37.96604683954222" lon="15.053175258879476"><ele>1224.0</ele><time>2026-04-09T10:40:42Z</time></trkpt><trkpt lat="37.96598329269817" lon="15.053187428238065"><ele>1224.0</ele><time>2026-04-09T10:40:43Z</time></trkpt><trkpt lat="37.96589564938166" lon="15.053206614137366"><ele>1224.0</ele><time>2026-04-09T10:40:45Z</time></trkpt><trkpt lat="37.965829094973536" lon="15.053231070279294"><ele>1224.0</ele><time>2026-04-09T10:40:46Z</time></trkpt><trkpt lat="37.965746018397105" lon="15.053260043172243"><ele>1225.8333333333333</ele><time>2026-04-09T10:40:47Z</time></trkpt><trkpt lat="37.96564147568599" lon="15.053280394579183"><ele>1227.6666666666667</ele><time>2026-04-09T10:40:48Z</time></trkpt><trkpt lat="37.96556240898327" lon="15.05331917402783"><ele>1229.5</ele><time>2026-04-09T10:40:49Z</time></trkpt><trkpt lat="37.96548805597431" lon="15.053326071894165"><ele>1231.3333333333335</ele><time>2026-04-09T10:40:50Z</time></trkpt><trkpt lat="37.965422652819434" lon="15.053335945900663"><ele>1233.1666666666667</ele><time>2026-04-09T10:40:51Z</time></trkpt><trkpt lat="37.96534173093992" lon="15.053348330270007"><ele>1235.0</ele><time>2026-04-09T10:40:53Z</time></trkpt><trkpt lat="37.96529470605591" lon="15.053457915040408"><ele>1237.6</ele><time>2026-04-09T10:40:54Z</time></trkpt><trkpt lat="37.96520422660384" lon="15.053481506581058"><ele>1240.2</ele><time>2026-04-09T10:40:55Z</time></trkpt><trkpt lat="37.96510010488383" lon="15.053516432062699"><ele>1242.8</ele><time>2026-04-09T10:40:56Z</time></trkpt><trkpt lat="37.96500930962588" lon="15.053528481667385"><ele>1245.4</ele><time>2026-04-09T10:40:57Z</time></trkpt><trkpt lat="37.96492372347277" lon="15.05356594026078"><ele>1248.0</ele><time>2026-04-09T10:40:58Z</time></trkpt><trkpt lat="37.964836585880136" lon="15.053611415079942"><ele>1248.0</ele><time>2026-04-09T10:40:59Z</time></trkpt><trkpt lat="37.9647657703792" lon="15.053654095600235"><ele>1248.0</ele><time>2026-04-09T10:41:00Z</time></trkpt><trkpt lat="37.96469805205608" lon="15.053707335123875"><ele>1248.0</ele><time>2026-04-09T10:41:01Z</time></trkpt><trkpt lat="37.964623745046836" lon="15.053769346089798"><ele>1248.0</ele><time>2026-04-09T10:41:02Z</time></trkpt><trkpt lat="37.964574458496834" lon="15.053848342079128"><ele>1248.0</ele><time>2026-04-09T10:41:03Z</time></trkpt><trkpt lat="37.964509332557014" lon="15.053951471943014"><ele>1248.0</ele><time>2026-04-09T10:41:04Z</time></trkpt><trkpt lat="37.96445353466735" lon="15.054050774329209"><ele>1247.8</ele><time>2026-04-09T10:41:05Z</time></trkpt><trkpt lat="37.96439485104489" lon="15.054149278376737"><ele>1247.6</ele><time>2026-04-09T10:41:06Z</time></trkpt><trkpt lat="37.96433256534641" lon="15.054237324893332"><ele>1247.4</ele><time>2026-04-09T10:41:07Z</time></trkpt><trkpt lat="37.96426751941522" lon="15.054297808905007"><ele>1247.2</ele><time>2026-04-09T10:41:08Z</time></trkpt><trkpt lat="37.96419130964828" lon="15.054353018112083"><ele>1247.0</ele><time>2026-04-09T10:41:09Z</time></trkpt><trkpt lat="37.964109671241935" lon="15.054431653526418"><ele>1247.0</ele><time>2026-04-09T10:41:10Z</time></trkpt><trkpt lat="37.96405629303971" lon="15.05449914976316"><ele>1247.0</ele><time>2026-04-09T10:41:11Z</time></trkpt><trkpt lat="37.964003327816485" lon="15.054555770039487"><ele>1247.0</ele><time>2026-04-09T10:41:12Z</time></trkpt><trkpt lat="37.96393568999583" lon="15.054610513730443"><ele>1247.0</ele><time>2026-04-09T10:41:13Z</time></trkpt><trkpt lat="37.963869580917404" lon="15.054670107007356"><ele>1247.0</ele><time>2026-04-09T10:41:14Z</time></trkpt><trkpt lat="37.96379252285938" lon="15.054782631157613"><ele>1247.0</ele><time>2026-04-09T10:41:16Z</time></trkpt><trkpt lat="37.96372523852211" lon="15.054830456719435"><ele>1247.0</ele><time>2026-04-09T10:41:18Z</time></trkpt><trkpt lat="37.96365213636371" lon="15.054876185222094"><ele>1247.0</ele><time>2026-04-09T10:41:29Z</time></trkpt><trkpt lat="37.963479202194485" lon="15.054896418079394"><ele>1247.0</ele><time>2026-04-09T10:41:31Z</time></trkpt><trkpt lat="37.963379704422834" lon="15.054904059428095"><ele>1247.0</ele><time>2026-04-09T10:41:32Z</time></trkpt><trkpt lat="37.963294994926926" lon="15.054887221817568"><ele>1247.0</ele><time>2026-04-09T10:41:32.999Z</time></trkpt><trkpt lat="37.96317321313765" lon="15.054810135589438"><ele>1248.0</ele><time>2026-04-09T10:41:34.999Z</time></trkpt><trkpt lat="37.96314060455127" lon="15.054741265890101"><ele>1249.0</ele><time>2026-04-09T10:41:35.999Z</time></trkpt><trkpt lat="37.963082051427264" lon="15.054666358140432"><ele>1250.0</ele><time>2026-04-09T10:41:36.999Z</time></trkpt><trkpt lat="37.96304618407361" lon="15.054577548559639"><ele>1251.0</ele><time>2026-04-09T10:41:37.999Z</time></trkpt><trkpt lat="37.96299397672774" lon="15.054481560939383"><ele>1252.0</ele><time>2026-04-09T10:41:38.999Z</time></trkpt><trkpt lat="37.9629335547108" lon="15.054387056385846"><ele>1253.0</ele><time>2026-04-09T10:41:39.999Z</time></trkpt><trkpt lat="37.9628772051691" lon="15.054281341777395"><ele>1253.0</ele><time>2026-04-09T10:41:40.999Z</time></trkpt><trkpt lat="37.962817214069894" lon="15.054187043764651"><ele>1253.0</ele><time>2026-04-09T10:41:41.999Z</time></trkpt><trkpt lat="37.962755470879166" lon="15.054109153800034"><ele>1253.0</ele><time>2026-04-09T10:41:42.999Z</time></trkpt><trkpt lat="37.962682242307" lon="15.054040030185606"><ele>1253.0</ele><time>2026-04-09T10:41:43.999Z</time></trkpt><trkpt lat="37.962604381344285" lon="15.053978705581219"><ele>1253.0</ele><time>2026-04-09T10:41:44.999Z</time></trkpt><trkpt lat="37.9625206327035" lon="15.053943761271166"><ele>1253.4</ele><time>2026-04-09T10:41:45.999Z</time></trkpt><trkpt lat="37.96241420030086" lon="15.053941257419087"><ele>1253.8</ele><time>2026-04-09T10:41:46.999Z</time></trkpt><trkpt lat="37.9623071496441" lon="15.05395061864203"><ele>1254.2</ele><time>2026-04-09T10:41:47.999Z</time></trkpt><trkpt lat="37.96221328678248" lon="15.053956271688008"><ele>1254.6</ele><time>2026-04-09T10:41:48.999Z</time></trkpt><trkpt lat="37.96211443200596" lon="15.053984446557335"><ele>1255.0</ele><time>2026-04-09T10:41:49.999Z</time></trkpt><trkpt lat="37.962005318746066" lon="15.054031902730884"><ele>1255.0</ele><time>2026-04-09T10:41:50.999Z</time></trkpt><trkpt lat="37.96190774390105" lon="15.05409639673074"><ele>1255.0</ele><time>2026-04-09T10:41:51.999Z</time></trkpt><trkpt lat="37.96182759432433" lon="15.054180748974574"><ele>1255.0</ele><time>2026-04-09T10:41:52.999Z</time></trkpt><trkpt lat="37.961761477074766" lon="15.054274278113938"><ele>1255.0</ele><time>2026-04-09T10:41:53.999Z</time></trkpt><trkpt lat="37.96170131719951" lon="15.054366023630651"><ele>1255.0</ele><time>2026-04-09T10:41:54.999Z</time></trkpt><trkpt lat="37.96164092175777" lon="15.05447758709268"><ele>1260.6</ele><time>2026-04-09T10:41:55.999Z</time></trkpt><trkpt lat="37.961583171695935" lon="15.054595343800765"><ele>1266.2</ele><time>2026-04-09T10:41:56.999Z</time></trkpt><trkpt lat="37.96151819331405" lon="15.054694061073011"><ele>1271.8000000000002</ele><time>2026-04-09T10:41:57.999Z</time></trkpt><trkpt lat="37.96144528478838" lon="15.054788112485227"><ele>1277.4</ele><time>2026-04-09T10:41:58.999Z</time></trkpt><trkpt lat="37.96136541483184" lon="15.054865155808947"><ele>1283.0</ele><time>2026-04-09T10:41:59.999Z</time></trkpt><trkpt lat="37.96126491991565" lon="15.054928513750504"><ele>1284.2</ele><time>2026-04-09T10:42:00.999Z</time></trkpt><trkpt lat="37.96116155891227" lon="15.054993328173795"><ele>1285.4</ele><time>2026-04-09T10:42:01.999Z</time></trkpt><trkpt lat="37.96106950200151" lon="15.055055918939637"><ele>1286.6000000000001</ele><time>2026-04-09T10:42:02.999Z</time></trkpt><trkpt lat="37.96098712679536" lon="15.055109298047457"><ele>1287.8000000000002</ele><time>2026-04-09T10:42:03.999Z</time></trkpt><trkpt lat="37.960911366419836" lon="15.055179393656926"><ele>1289.0</ele><time>2026-04-09T10:42:04.999Z</time></trkpt><trkpt lat="37.960830156659725" lon="15.055241755952716"><ele>1291.8333333333335</ele><time>2026-04-09T10:42:05.999Z</time></trkpt><trkpt lat="37.96074975114258" lon="15.055296013783133"><ele>1294.6666666666667</ele><time>2026-04-09T10:42:08Z</time></trkpt><trkpt lat="37.960711804030225" lon="15.055374612173486"><ele>1297.5</ele><time>2026-04-09T10:42:12Z</time></trkpt><trkpt lat="37.96064394064316" lon="15.055396755443612"><ele>1300.3333333333333</ele><time>2026-04-09T10:42:14Z</time></trkpt><trkpt lat="37.96058001164976" lon="15.0554050060487"><ele>1303.1666666666665</ele><time>2026-04-09T10:42:15Z</time></trkpt><trkpt lat="37.960475497384536" lon="15.05544161357003"><ele>1306.0</ele><time>2026-04-09T10:42:17Z</time></trkpt><trkpt lat="37.96041236696099" lon="15.05547375308862"><ele>1306.0</ele><time>2026-04-09T10:42:18Z</time></trkpt><trkpt lat="37.96033819255909" lon="15.055514695411311"><ele>1306.0</ele><time>2026-04-09T10:42:19Z</time></trkpt><trkpt lat="37.960263703875384" lon="15.055531038172262"><ele>1306.0</ele><time>2026-04-09T10:42:20Z</time></trkpt><trkpt lat="37.96018212511139" lon="15.0555493869483"><ele>1306.0</ele><time>2026-04-09T10:42:21Z</time></trkpt><trkpt lat="37.96010460392208" lon="15.055538569814676"><ele>1306.0</ele><time>2026-04-09T10:42:22Z</time></trkpt><trkpt lat="37.960027801946886" lon="15.055511614154597"><ele>1306.0</ele><time>2026-04-09T10:42:23Z</time></trkpt><trkpt lat="37.95996374361185" lon="15.055449023198548"><ele>1310.8</ele><time>2026-04-09T10:42:24Z</time></trkpt><trkpt lat="37.9599078847931" lon="15.05541206110098"><ele>1315.6</ele><time>2026-04-09T10:42:25Z</time></trkpt><trkpt lat="37.959810631349086" lon="15.055368716514876"><ele>1320.4</ele><time>2026-04-09T10:42:26Z</time></trkpt><trkpt lat="37.959712950853216" lon="15.055301880752324"><ele>1325.2</ele><time>2026-04-09T10:42:27Z</time></trkpt><trkpt lat="37.95962448497324" lon="15.055225151184"><ele>1330.0</ele><time>2026-04-09T10:42:28Z</time></trkpt><trkpt lat="37.959538145654584" lon="15.055163908762587"><ele>1330.0</ele><time>2026-04-09T10:42:29Z</time></trkpt><trkpt lat="37.95945514562986" lon="15.055111875412832"><ele>1330.0</ele><time>2026-04-09T10:42:30Z</time></trkpt><trkpt lat="37.95936566975101" lon="15.055072717087846"><ele>1330.0</ele><time>2026-04-09T10:42:31Z</time></trkpt><trkpt lat="37.95928893943741" lon="15.055030395605769"><ele>1330.0</ele><time>2026-04-09T10:42:32Z</time></trkpt><trkpt lat="37.95920416387346" lon="15.05498583330616"><ele>1330.0</ele><time>2026-04-09T10:42:33Z</time></trkpt><trkpt lat="37.959129553063754" lon="15.054925835625195"><ele>1331.5</ele><time>2026-04-09T10:42:34Z</time></trkpt><trkpt lat="37.95905038787297" lon="15.054869681998627"><ele>1333.0</ele><time>2026-04-09T10:42:35Z</time></trkpt><trkpt lat="37.95897769903592" lon="15.054831139184135"><ele>1334.5</ele><time>2026-04-09T10:42:36Z</time></trkpt><trkpt lat="37.958911696434605" lon="15.054795804985819"><ele>1336.0</ele><time>2026-04-09T10:42:37Z</time></trkpt><trkpt lat="37.95883453607131" lon="15.054787846586517"><ele>1337.5</ele><time>2026-04-09T10:42:38Z</time></trkpt><trkpt lat="37.958727658806566" lon="15.05479240842266"><ele>1339.0</ele><time>2026-04-09T10:42:39Z</time></trkpt><trkpt lat="37.958613325421204" lon="15.054780652656373"><ele>1339.0</ele><time>2026-04-09T10:42:40Z</time></trkpt><trkpt lat="37.958504990734866" lon="15.054743934115201"><ele>1339.0</ele><time>2026-04-09T10:42:41Z</time></trkpt><trkpt lat="37.95839818363975" lon="15.05471818646048"><ele>1339.0</ele><time>2026-04-09T10:42:42Z</time></trkpt><trkpt lat="37.958284131328924" lon="15.054714520061449"><ele>1339.0</ele><time>2026-04-09T10:42:43Z</time></trkpt><trkpt lat="37.95817859158394" lon="15.054702578232453"><ele>1339.0</ele><time>2026-04-09T10:42:44Z</time></trkpt><trkpt lat="37.95810638486266" lon="15.05468894984361"><ele>1337.3333333333333</ele><time>2026-04-09T10:42:45Z</time></trkpt><trkpt lat="37.95803678613456" lon="15.054715020102083"><ele>1335.6666666666665</ele><time>2026-04-09T10:42:47Z</time></trkpt><trkpt lat="37.95797777606145" lon="15.054757897017932"><ele>1334.0</ele><time>2026-04-09T10:42:48Z</time></trkpt><trkpt lat="37.95791729423522" lon="15.05481499585203"><ele>1332.3333333333333</ele><time>2026-04-09T10:42:49Z</time></trkpt><trkpt lat="37.957833932271114" lon="15.054824559554113"><ele>1330.6666666666667</ele><time>2026-04-09T10:42:50Z</time></trkpt><trkpt lat="37.9577554737156" lon="15.054802797911423"><ele>1329.0</ele><time>2026-04-09T10:42:51Z</time></trkpt><trkpt lat="37.95768502669074" lon="15.054751796344336"><ele>1329.0</ele><time>2026-04-09T10:42:52Z</time></trkpt><trkpt lat="37.95761130721441" lon="15.054709903212808"><ele>1329.0</ele><time>2026-04-09T10:42:53Z</time></trkpt><trkpt lat="37.957534743861814" lon="15.05467905679266"><ele>1329.0</ele><time>2026-04-09T10:42:54Z</time></trkpt><trkpt lat="37.957461007110275" lon="15.054650191644464"><ele>1329.0</ele><time>2026-04-09T10:42:55Z</time></trkpt><trkpt lat="37.957379881843934" lon="15.054611513790976"><ele>1329.0</ele><time>2026-04-09T10:42:56Z</time></trkpt><trkpt lat="37.95729906611562" lon="15.054547934850712"><ele>1329.0</ele><time>2026-04-09T10:42:57Z</time></trkpt><trkpt lat="37.9572472958453" lon="15.054453351906327"><ele>1327.5</ele><time>2026-04-09T10:42:58Z</time></trkpt><trkpt lat="37.957203942732036" lon="15.054355489623445"><ele>1326.0</ele><time>2026-04-09T10:42:59Z</time></trkpt><trkpt lat="37.957158019101655" lon="15.054264749351605"><ele>1324.5</ele><time>2026-04-09T10:43:00Z</time></trkpt><trkpt lat="37.95711163257548" lon="15.05419374913094"><ele>1323.0</ele><time>2026-04-09T10:43:01Z</time></trkpt><trkpt lat="37.95704183575076" lon="15.054076979938149"><ele>1321.5</ele><time>2026-04-09T10:43:03Z</time></trkpt><trkpt lat="37.95698231462298" lon="15.05402457232464"><ele>1320.0</ele><time>2026-04-09T10:43:04Z</time></trkpt><trkpt lat="37.9568768313259" lon="15.053957549053276"><ele>1318.3333333333333</ele><time>2026-04-09T10:43:05Z</time></trkpt><trkpt lat="37.9567716086107" lon="15.053896922290813"><ele>1316.6666666666667</ele><time>2026-04-09T10:43:06Z</time></trkpt><trkpt lat="37.956684971214145" lon="15.053827749375031"><ele>1315.0</ele><time>2026-04-09T10:43:07Z</time></trkpt><trkpt lat="37.95662979033169" lon="15.05374935304063"><ele>1313.3333333333335</ele><time>2026-04-09T10:43:08Z</time></trkpt><trkpt lat="37.95657257452225" lon="15.053694294565764"><ele>1311.6666666666667</ele><time>2026-04-09T10:43:09Z</time></trkpt><trkpt lat="37.95651366899731" lon="15.053641170486106"><ele>1310.0</ele><time>2026-04-09T10:43:10Z</time></trkpt><trkpt lat="37.956442633015676" lon="15.053617981944932"><ele>1309.6</ele><time>2026-04-09T10:43:11Z</time></trkpt><trkpt lat="37.95630057900411" lon="15.0536206510461"><ele>1309.2</ele><time>2026-04-09T10:43:13Z</time></trkpt><trkpt lat="37.956209603918296" lon="15.053617175936566"><ele>1308.8000000000002</ele><time>2026-04-09T10:43:14Z</time></trkpt><trkpt lat="37.95608903460267" lon="15.053624961670586"><ele>1308.4</ele><time>2026-04-09T10:43:15Z</time></trkpt><trkpt lat="37.956020397754315" lon="15.05366378217628"><ele>1308.0</ele><time>2026-04-09T10:43:16Z</time></trkpt><trkpt lat="37.95593169795277" lon="15.053691818106586"><ele>1307.6666666666667</ele><time>2026-04-09T10:43:17Z</time></trkpt><trkpt lat="37.95585793625971" lon="15.053714391495433"><ele>1307.3333333333333</ele><time>2026-04-09T10:43:18Z</time></trkpt><trkpt lat="37.95578940927368" lon="15.053701471003365"><ele>1307.0</ele><time>2026-04-09T10:43:19Z</time></trkpt><trkpt lat="37.955715514939804" lon="15.05365225872679"><ele>1306.6666666666665</ele><time>2026-04-09T10:43:20Z</time></trkpt><trkpt lat="37.95564288374793" lon="15.053606599846706"><ele>1306.3333333333333</ele><time>2026-04-09T10:43:21Z</time></trkpt><trkpt lat="37.95557214027422" lon="15.053566547559496"><ele>1306.0</ele><time>2026-04-09T10:43:22Z</time></trkpt><trkpt lat="37.95547155922141" lon="15.053510439858439"><ele>1306.0000000000002</ele><time>2026-04-09T10:43:24Z</time></trkpt><trkpt lat="37.95541510927713" lon="15.053462228606255"><ele>1306.0</ele><time>2026-04-09T10:43:25Z</time></trkpt><trkpt lat="37.95536312087519" lon="15.053411465292085"><ele>1306.0</ele><time>2026-04-09T10:43:26Z</time></trkpt><trkpt lat="37.95531399853445" lon="15.05334350867965"><ele>1306.0</ele><time>2026-04-09T10:43:27Z</time></trkpt><trkpt lat="37.955267352058456" lon="15.053265352218906"><ele>1306.0</ele><time>2026-04-09T10:43:28Z</time></trkpt><trkpt lat="37.9552276712611" lon="15.053185081530705"><ele>1306.0000000000002</ele><time>2026-04-09T10:43:29Z</time></trkpt><trkpt lat="37.95519135345083" lon="15.053107649515445"><ele>1306.0</ele><time>2026-04-09T10:43:30Z</time></trkpt><trkpt lat="37.95514639134391" lon="15.053043893354673"><ele>1304.5</ele><time>2026-04-09T10:43:31Z</time></trkpt><trkpt lat="37.95503192592852" lon="15.052988774113905"><ele>1303.0</ele><time>2026-04-09T10:43:33Z</time></trkpt><trkpt lat="37.954867792842364" lon="15.052977417006382"><ele>1301.5</ele><time>2026-04-09T10:43:35Z</time></trkpt><trkpt lat="37.9547878205442" lon="15.052975343824563"><ele>1300.0</ele><time>2026-04-09T10:43:36Z</time></trkpt><trkpt lat="37.95469661099584" lon="15.052971457092513"><ele>1300.0</ele><time>2026-04-09T10:43:37Z</time></trkpt><trkpt lat="37.9546181124567" lon="15.05296435750949"><ele>1300.0</ele><time>2026-04-09T10:43:38Z</time></trkpt><trkpt lat="37.954527663133725" lon="15.052937975842065"><ele>1300.0</ele><time>2026-04-09T10:43:39Z</time></trkpt><trkpt lat="37.954440057508215" lon="15.052887776780876"><ele>1300.0</ele><time>2026-04-09T10:43:40Z</time></trkpt><trkpt lat="37.95436715839809" lon="15.05281349080115"><ele>1300.0</ele><time>2026-04-09T10:43:41Z</time></trkpt><trkpt lat="37.954314706007835" lon="15.05274184368946"><ele>1300.0</ele><time>2026-04-09T10:43:42Z</time></trkpt><trkpt lat="37.95425895058222" lon="15.05266935448675"><ele>1298.6666666666665</ele><time>2026-04-09T10:43:43Z</time></trkpt><trkpt lat="37.95416197338329" lon="15.052557501133617"><ele>1297.3333333333333</ele><time>2026-04-09T10:43:45Z</time></trkpt><trkpt lat="37.95411883397558" lon="15.052486300752447"><ele>1296.0</ele><time>2026-04-09T10:43:46Z</time></trkpt><trkpt lat="37.95406296175635" lon="15.052434837305201"><ele>1294.6666666666667</ele><time>2026-04-09T10:43:47Z</time></trkpt><trkpt lat="37.95399221814751" lon="15.052399903091622"><ele>1293.3333333333335</ele><time>2026-04-09T10:43:48Z</time></trkpt><trkpt lat="37.953902090573266" lon="15.052377819764887"><ele>1292.0</ele><time>2026-04-09T10:43:49Z</time></trkpt><trkpt lat="37.953805444984035" lon="15.052350721440499"><ele>1292.0</ele><time>2026-04-09T10:43:50Z</time></trkpt><trkpt lat="37.953713634874816" lon="15.052318698296965"><ele>1292.0</ele><time>2026-04-09T10:43:51Z</time></trkpt><trkpt lat="37.95362416723305" lon="15.052289263870515"><ele>1292.0</ele><time>2026-04-09T10:43:52Z</time></trkpt><trkpt lat="37.95354350186867" lon="15.052249574611587"><ele>1292.0</ele><time>2026-04-09T10:43:53Z</time></trkpt><trkpt lat="37.953450932875114" lon="15.052230485670382"><ele>1292.0</ele><time>2026-04-09T10:43:54Z</time></trkpt><trkpt lat="37.953366887982924" lon="15.052218142564525"><ele>1293.6</ele><time>2026-04-09T10:43:55Z</time></trkpt><trkpt lat="37.953296275660634" lon="15.052206681080907"><ele>1295.1999999999998</ele><time>2026-04-09T10:43:55.999Z</time></trkpt><trkpt lat="37.95320814678264" lon="15.052159132884"><ele>1296.8</ele><time>2026-04-09T10:43:56.999Z</time></trkpt><trkpt lat="37.953138238277816" lon="15.05206964548113"><ele>1298.4</ele><time>2026-04-09T10:43:57.999Z</time></trkpt><trkpt lat="37.953090924745524" lon="15.051935787917596"><ele>1300.0</ele><time>2026-04-09T10:43:58.999Z</time></trkpt><trkpt lat="37.9530402009507" lon="15.05182046755352"><ele>1300.0</ele><time>2026-04-09T10:43:59.999Z</time></trkpt><trkpt lat="37.95297692730887" lon="15.051720071293568"><ele>1300.0</ele><time>2026-04-09T10:44:00.999Z</time></trkpt><trkpt lat="37.95291476568813" lon="15.051638855401315"><ele>1300.0</ele><time>2026-04-09T10:44:01.999Z</time></trkpt><trkpt lat="37.95287479003068" lon="15.051563378582257"><ele>1300.0</ele><time>2026-04-09T10:44:02.999Z</time></trkpt><trkpt lat="37.952845437493515" lon="15.051486030742803"><ele>1300.0</ele><time>2026-04-09T10:44:03.999Z</time></trkpt><trkpt lat="37.95280786199854" lon="15.051380335981651"><ele>1300.0</ele><time>2026-04-09T10:44:04.999Z</time></trkpt><trkpt lat="37.95275946843017" lon="15.051300749705607"><ele>1298.4</ele><time>2026-04-09T10:44:05.999Z</time></trkpt><trkpt lat="37.952651087830375" lon="15.051184735053631"><ele>1296.8</ele><time>2026-04-09T10:44:07.999Z</time></trkpt><trkpt lat="37.952612669758075" lon="15.05110039114674"><ele>1295.1999999999998</ele><time>2026-04-09T10:44:08.999Z</time></trkpt><trkpt lat="37.9525721233939" lon="15.051000469352237"><ele>1293.6</ele><time>2026-04-09T10:44:09.999Z</time></trkpt><trkpt lat="37.95253800111043" lon="15.050887894015892"><ele>1292.0</ele><time>2026-04-09T10:44:10.999Z</time></trkpt><trkpt lat="37.952514467129426" lon="15.050773025078737"><ele>1291.6666666666667</ele><time>2026-04-09T10:44:12.001Z</time></trkpt><trkpt lat="37.95247526837367" lon="15.05068074040322"><ele>1291.3333333333335</ele><time>2026-04-09T10:44:13.001Z</time></trkpt><trkpt lat="37.952418450105505" lon="15.050592115317926"><ele>1291.0</ele><time>2026-04-09T10:44:14.001Z</time></trkpt><trkpt lat="37.95237010357693" lon="15.050501735519832"><ele>1290.6666666666667</ele><time>2026-04-09T10:44:15.001Z</time></trkpt><trkpt lat="37.95232744272974" lon="15.050419700489426"><ele>1290.3333333333333</ele><time>2026-04-09T10:44:16.001Z</time></trkpt><trkpt lat="37.95226903737798" lon="15.050320185576885"><ele>1290.0</ele><time>2026-04-09T10:44:17.001Z</time></trkpt><trkpt lat="37.95220841825091" lon="15.050226947925074"><ele>1290.0</ele><time>2026-04-09T10:44:18.001Z</time></trkpt><trkpt lat="37.952148805988195" lon="15.050138236280402"><ele>1290.0</ele><time>2026-04-09T10:44:19.001Z</time></trkpt><trkpt lat="37.95208893403587" lon="15.050045493697551"><ele>1290.0</ele><time>2026-04-09T10:44:20.001Z</time></trkpt><trkpt lat="37.95204381772072" lon="15.049955224183025"><ele>1290.0</ele><time>2026-04-09T10:44:21.001Z</time></trkpt><trkpt lat="37.95200490059563" lon="15.049857581340992"><ele>1290.0</ele><time>2026-04-09T10:44:22.001Z</time></trkpt><trkpt lat="37.95194270496794" lon="15.04975677174461"><ele>1289.6666666666667</ele><time>2026-04-09T10:44:23.001Z</time></trkpt><trkpt lat="37.95188072149711" lon="15.049678287157338"><ele>1289.3333333333333</ele><time>2026-04-09T10:44:24.001Z</time></trkpt><trkpt lat="37.951814213704424" lon="15.049616073725815"><ele>1289.0</ele><time>2026-04-09T10:44:25.001Z</time></trkpt><trkpt lat="37.95173174913005" lon="15.049558979484155"><ele>1288.6666666666665</ele><time>2026-04-09T10:44:26.001Z</time></trkpt><trkpt lat="37.951661028405844" lon="15.049494835571295"><ele>1288.3333333333333</ele><time>2026-04-09T10:44:27.001Z</time></trkpt><trkpt lat="37.95159833526745" lon="15.049422581638325"><ele>1288.0</ele><time>2026-04-09T10:44:28.001Z</time></trkpt><trkpt lat="37.95154865176201" lon="15.049371360747843"><ele>1288.0</ele><time>2026-04-09T10:44:29.001Z</time></trkpt><trkpt lat="37.9514522894285" lon="15.049253030975288"><ele>1288.0</ele><time>2026-04-09T10:44:31.001Z</time></trkpt><trkpt lat="37.95141986826244" lon="15.049172217688659"><ele>1288.0</ele><time>2026-04-09T10:44:32Z</time></trkpt><trkpt lat="37.95139015243357" lon="15.049076396886084"><ele>1288.0</ele><time>2026-04-09T10:44:33Z</time></trkpt><trkpt lat="37.9513644937784" lon="15.048981500218254"><ele>1288.0</ele><time>2026-04-09T10:44:34Z</time></trkpt><trkpt lat="37.95133792292003" lon="15.048903037084864"><ele>1288.0</ele><time>2026-04-09T10:44:35Z</time></trkpt><trkpt lat="37.951289955741395" lon="15.04882238841652"><ele>1286.8333333333333</ele><time>2026-04-09T10:44:36Z</time></trkpt><trkpt lat="37.9512576789262" lon="15.04874599032693"><ele>1285.6666666666665</ele><time>2026-04-09T10:44:37Z</time></trkpt><trkpt lat="37.951225710630304" lon="15.048668262143934"><ele>1284.5</ele><time>2026-04-09T10:44:38Z</time></trkpt><trkpt lat="37.95122211448866" lon="15.048534273574111"><ele>1283.3333333333333</ele><time>2026-04-09T10:44:40Z</time></trkpt><trkpt lat="37.95123127967831" lon="15.048375360214743"><ele>1282.1666666666667</ele><time>2026-04-09T10:44:42Z</time></trkpt><trkpt lat="37.95125031845019" lon="15.048293259251498"><ele>1281.0</ele><time>2026-04-09T10:44:43Z</time></trkpt><trkpt lat="37.951291273317864" lon="15.048175069784229"><ele>1277.0</ele><time>2026-04-09T10:44:45Z</time></trkpt><trkpt lat="37.95131268679375" lon="15.04808800357283"><ele>1273.0</ele><time>2026-04-09T10:44:46Z</time></trkpt><trkpt lat="37.95128254513881" lon="15.0479947165489"><ele>1269.0</ele><time>2026-04-09T10:44:47Z</time></trkpt><trkpt lat="37.9512486818573" lon="15.047925597437027"><ele>1265.0</ele><time>2026-04-09T10:44:48Z</time></trkpt><trkpt lat="37.951180589170214" lon="15.047785046454857"><ele>1261.0</ele><time>2026-04-09T10:44:50Z</time></trkpt><trkpt lat="37.95113116347129" lon="15.047689550259387"><ele>1257.0</ele><time>2026-04-09T10:44:51Z</time></trkpt><trkpt lat="37.951090465682434" lon="15.047596306571608"><ele>1257.0</ele><time>2026-04-09T10:44:52Z</time></trkpt><trkpt lat="37.951042802882725" lon="15.047502122932714"><ele>1257.0</ele><time>2026-04-09T10:44:53Z</time></trkpt><trkpt lat="37.950985446811465" lon="15.047436129592324"><ele>1257.0</ele><time>2026-04-09T10:44:54Z</time></trkpt><trkpt lat="37.95092425537372" lon="15.047395639726941"><ele>1257.0</ele><time>2026-04-09T10:44:55Z</time></trkpt><trkpt lat="37.95086475428083" lon="15.0473379437294"><ele>1257.0</ele><time>2026-04-09T10:44:56Z</time></trkpt><trkpt lat="37.95081713515271" lon="15.047267602246054"><ele>1257.0</ele><time>2026-04-09T10:44:57Z</time></trkpt><trkpt lat="37.950784248663815" lon="15.0471880946123"><ele>1259.5</ele><time>2026-04-09T10:44:58Z</time></trkpt><trkpt lat="37.95074164305114" lon="15.04710091843834"><ele>1262.0</ele><time>2026-04-09T10:44:59Z</time></trkpt><trkpt lat="37.950688406540785" lon="15.04699921583575"><ele>1264.5</ele><time>2026-04-09T10:45:00Z</time></trkpt><trkpt lat="37.95064822549812" lon="15.046914940176586"><ele>1267.0</ele><time>2026-04-09T10:45:01Z</time></trkpt><trkpt lat="37.9506110244297" lon="15.046838477138571"><ele>1269.5</ele><time>2026-04-09T10:45:02Z</time></trkpt><trkpt lat="37.95056985561235" lon="15.046759704731732"><ele>1272.0</ele><time>2026-04-09T10:45:03Z</time></trkpt><trkpt lat="37.950529521957264" lon="15.046679836626625"><ele>1269.6</ele><time>2026-04-09T10:45:04Z</time></trkpt><trkpt lat="37.95049467885563" lon="15.04660941735793"><ele>1267.2</ele><time>2026-04-09T10:45:05Z</time></trkpt><trkpt lat="37.950461852730726" lon="15.046468438179563"><ele>1264.8</ele><time>2026-04-09T10:45:07Z</time></trkpt><trkpt lat="37.95042577332758" lon="15.04635431427232"><ele>1262.4</ele><time>2026-04-09T10:45:09Z</time></trkpt><trkpt lat="37.95033520842849" lon="15.046213593007117"><ele>1260.0</ele><time>2026-04-09T10:45:11Z</time></trkpt><trkpt lat="37.95027109018358" lon="15.046122833835845"><ele>1260.0</ele><time>2026-04-09T10:45:12Z</time></trkpt><trkpt lat="37.95020738495136" lon="15.04604481607155"><ele>1260.0</ele><time>2026-04-09T10:45:13Z</time></trkpt><trkpt lat="37.95013947203546" lon="15.045972403888868"><ele>1260.0</ele><time>2026-04-09T10:45:14Z</time></trkpt><trkpt lat="37.950065312302335" lon="15.04589588577777"><ele>1260.0</ele><time>2026-04-09T10:45:15Z</time></trkpt><trkpt lat="37.950012539007965" lon="15.04583275076883"><ele>1260.0</ele><time>2026-04-09T10:45:16Z</time></trkpt><trkpt lat="37.949962630171456" lon="15.045779831032853"><ele>1260.0</ele><time>2026-04-09T10:45:17Z</time></trkpt><trkpt lat="37.949884688720495" lon="15.045682549204148"><ele>1264.5</ele><time>2026-04-09T10:45:19Z</time></trkpt><trkpt lat="37.94982205286596" lon="15.045565670764677"><ele>1269.0</ele><time>2026-04-09T10:45:21Z</time></trkpt><trkpt lat="37.949791401749025" lon="15.045487341321227"><ele>1273.5</ele><time>2026-04-09T10:45:23Z</time></trkpt><trkpt lat="37.94976368908457" lon="15.045389827732828"><ele>1278.0</ele><time>2026-04-09T10:45:26Z</time></trkpt><trkpt lat="37.949795185343206" lon="15.045282933291805"><ele>1282.5</ele><time>2026-04-09T10:45:28Z</time></trkpt><trkpt lat="37.94982387241533" lon="15.04519199279517"><ele>1287.0</ele><time>2026-04-09T10:45:29Z</time></trkpt><trkpt lat="37.94984402778877" lon="15.045064612465255"><ele>1287.5</ele><time>2026-04-09T10:45:30Z</time></trkpt><trkpt lat="37.949842837031426" lon="15.04493710939096"><ele>1288.0</ele><time>2026-04-09T10:45:31Z</time></trkpt><trkpt lat="37.949821006717414" lon="15.044789539052747"><ele>1288.5</ele><time>2026-04-09T10:45:32Z</time></trkpt><trkpt lat="37.9497928488205" lon="15.044687727569217"><ele>1289.0</ele><time>2026-04-09T10:45:33Z</time></trkpt><trkpt lat="37.949714122823764" lon="15.044501227965577"><ele>1289.0</ele><time>2026-04-09T10:45:35Z</time></trkpt><trkpt lat="37.94963085117712" lon="15.044435383797788"><ele>1289.0</ele><time>2026-04-09T10:45:35.999Z</time></trkpt><trkpt lat="37.94954765211927" lon="15.044371304839201"><ele>1289.0</ele><time>2026-04-09T10:45:36.999Z</time></trkpt><trkpt lat="37.94949069783884" lon="15.044300635921"><ele>1289.0</ele><time>2026-04-09T10:45:37.999Z</time></trkpt><trkpt lat="37.94943129877182" lon="15.044204454676363"><ele>1289.0</ele><time>2026-04-09T10:45:38.999Z</time></trkpt><trkpt lat="37.949369015957195" lon="15.044114654435912"><ele>1290.2</ele><time>2026-04-09T10:45:39.999Z</time></trkpt><trkpt lat="37.94930493001424" lon="15.044026431093082"><ele>1291.4</ele><time>2026-04-09T10:45:40.999Z</time></trkpt><trkpt lat="37.94925823807478" lon="15.043952808197757"><ele>1292.6</ele><time>2026-04-09T10:45:41.999Z</time></trkpt><trkpt lat="37.94917439681516" lon="15.04385006744441"><ele>1293.8</ele><time>2026-04-09T10:45:43.999Z</time></trkpt><trkpt lat="37.94910908366794" lon="15.043775330095581"><ele>1295.0</ele><time>2026-04-09T10:45:45.999Z</time></trkpt><trkpt lat="37.94905987812243" lon="15.04368443524878"><ele>1295.0</ele><time>2026-04-09T10:45:47.999Z</time></trkpt><trkpt lat="37.948999490496824" lon="15.043568436530368"><ele>1295.0</ele><time>2026-04-09T10:45:49.999Z</time></trkpt><trkpt lat="37.94894355267615" lon="15.043501700578908"><ele>1295.0</ele><time>2026-04-09T10:45:50.999Z</time></trkpt><trkpt lat="37.94888618680375" lon="15.043453120501484"><ele>1295.0</ele><time>2026-04-09T10:45:51.999Z</time></trkpt><trkpt lat="37.94878995481682" lon="15.04339794568274"><ele>1295.0</ele><time>2026-04-09T10:45:53.999Z</time></trkpt><trkpt lat="37.94871891945149" lon="15.043351001243183"><ele>1295.0</ele><time>2026-04-09T10:45:55.999Z</time></trkpt><trkpt lat="37.94864858844759" lon="15.043312960840248"><ele>1296.4</ele><time>2026-04-09T10:45:57.999Z</time></trkpt><trkpt lat="37.94856083145364" lon="15.043237665621163"><ele>1297.8</ele><time>2026-04-09T10:45:59.999Z</time></trkpt><trkpt lat="37.948447679538084" lon="15.043178407230743"><ele>1299.1999999999998</ele><time>2026-04-09T10:46:01.999Z</time></trkpt><trkpt lat="37.94836417278673" lon="15.043124994751137"><ele>1300.6</ele><time>2026-04-09T10:46:03.999Z</time></trkpt><trkpt lat="37.948263705657645" lon="15.043077930814846"><ele>1302.0</ele><time>2026-04-09T10:46:06.999Z</time></trkpt><trkpt lat="37.94817246219115" lon="15.043001548786497"><ele>1302.0</ele><time>2026-04-09T10:46:08.999Z</time></trkpt><trkpt lat="37.94811013258232" lon="15.042957527766477"><ele>1302.0</ele><time>2026-04-09T10:46:09.999Z</time></trkpt><trkpt lat="37.9480151779662" lon="15.042868196728746"><ele>1302.0</ele><time>2026-04-09T10:46:11.999Z</time></trkpt><trkpt lat="37.947963624395484" lon="15.042815978987267"><ele>1302.0</ele><time>2026-04-09T10:46:12.998Z</time></trkpt><trkpt lat="37.9479132845023" lon="15.042766985831681"><ele>1302.0</ele><time>2026-04-09T10:46:13.998Z</time></trkpt><trkpt lat="37.94786344689712" lon="15.042712727688922"><ele>1302.0</ele><time>2026-04-09T10:46:14.998Z</time></trkpt><trkpt lat="37.94779473397979" lon="15.042616768277519"><ele>1302.0</ele><time>2026-04-09T10:46:16.998Z</time></trkpt><trkpt lat="37.947743054287436" lon="15.042542219577054"><ele>1302.0</ele><time>2026-04-09T10:46:18Z</time></trkpt><trkpt lat="37.947692656882374" lon="15.042462765388406"><ele>1302.0</ele><time>2026-04-09T10:46:19Z</time></trkpt><trkpt lat="37.94764607268001" lon="15.042384654116262"><ele>1302.0</ele><time>2026-04-09T10:46:20Z</time></trkpt><trkpt lat="37.94760815797496" lon="15.042306412793078"><ele>1302.0</ele><time>2026-04-09T10:46:21Z</time></trkpt><trkpt lat="37.94757155466176" lon="15.042230930430886"><ele>1302.0</ele><time>2026-04-09T10:46:22Z</time></trkpt><trkpt lat="37.947557599519655" lon="15.042093400301393"><ele>1302.3333333333333</ele><time>2026-04-09T10:46:24Z</time></trkpt><trkpt lat="37.94760412747175" lon="15.041968871391717"><ele>1302.6666666666667</ele><time>2026-04-09T10:46:26Z</time></trkpt><trkpt lat="37.94764045904174" lon="15.04187454726083"><ele>1303.0</ele><time>2026-04-09T10:46:27Z</time></trkpt><trkpt lat="37.94766362847726" lon="15.041783244105165"><ele>1303.3333333333335</ele><time>2026-04-09T10:46:28Z</time></trkpt><trkpt lat="37.94767987145482" lon="15.041685998128182"><ele>1303.6666666666667</ele><time>2026-04-09T10:46:29Z</time></trkpt><trkpt lat="37.94768840082306" lon="15.041582795671454"><ele>1304.0</ele><time>2026-04-09T10:46:30Z</time></trkpt><trkpt lat="37.94768586194098" lon="15.041495876682514"><ele>1304.0</ele><time>2026-04-09T10:46:31Z</time></trkpt><trkpt lat="37.947701361503626" lon="15.041391826198435"><ele>1304.0</ele><time>2026-04-09T10:46:33Z</time></trkpt><trkpt lat="37.94766443437285" lon="15.041300675139173"><ele>1304.0</ele><time>2026-04-09T10:49:41.999Z</time></trkpt><trkpt lat="37.94758571254129" lon="15.041175538824014"><ele>1304.0</ele><time>2026-04-09T10:49:43.999Z</time></trkpt><trkpt lat="37.947535574023924" lon="15.0410904505294"><ele>1304.0</ele><time>2026-04-09T10:49:44.999Z</time></trkpt><trkpt lat="37.947471927802184" lon="15.041000890928288"><ele>1304.8000000000002</ele><time>2026-04-09T10:49:45.999Z</time></trkpt><trkpt lat="37.94738545337021" lon="15.040911492041483"><ele>1305.6000000000001</ele><time>2026-04-09T10:49:46.999Z</time></trkpt><trkpt lat="37.9472981470056" lon="15.040829713787513"><ele>1306.4</ele><time>2026-04-09T10:49:47.999Z</time></trkpt><trkpt lat="37.94721541196035" lon="15.040771713302313"><ele>1307.2</ele><time>2026-04-09T10:49:48.999Z</time></trkpt><trkpt lat="37.94712251952389" lon="15.04069010550255"><ele>1308.0</ele><time>2026-04-09T10:49:49.999Z</time></trkpt><trkpt lat="37.947035927476506" lon="15.040609706812962"><ele>1306.0</ele><time>2026-04-09T10:49:50.999Z</time></trkpt><trkpt lat="37.94696436813104" lon="15.040546016085933"><ele>1304.0</ele><time>2026-04-09T10:49:51.999Z</time></trkpt><trkpt lat="37.946895438994154" lon="15.040485771675842"><ele>1302.0</ele><time>2026-04-09T10:49:52.999Z</time></trkpt><trkpt lat="37.94681851101774" lon="15.040421730942667"><ele>1300.0</ele><time>2026-04-09T10:49:53.999Z</time></trkpt><trkpt lat="37.94674241433385" lon="15.040352236140604"><ele>1298.0</ele><time>2026-04-09T10:49:54.999Z</time></trkpt><trkpt lat="37.946680323419464" lon="15.040266661547818"><ele>1296.0</ele><time>2026-04-09T10:49:55.999Z</time></trkpt><trkpt lat="37.946629280498136" lon="15.040191790628967"><ele>1296.0</ele><time>2026-04-09T10:49:56.999Z</time></trkpt><trkpt lat="37.946572809908375" lon="15.040115074970148"><ele>1296.0</ele><time>2026-04-09T10:49:57.999Z</time></trkpt><trkpt lat="37.94650468218463" lon="15.040028195821407"><ele>1296.0</ele><time>2026-04-09T10:49:58.999Z</time></trkpt><trkpt lat="37.946429782925954" lon="15.039959258967642"><ele>1296.0</ele><time>2026-04-09T10:49:59.999Z</time></trkpt><trkpt lat="37.94635977518574" lon="15.039900306311488"><ele>1296.0</ele><time>2026-04-09T10:50:00.999Z</time></trkpt><trkpt lat="37.94628315731623" lon="15.039830971928593"><ele>1294.0</ele><time>2026-04-09T10:50:01.999Z</time></trkpt><trkpt lat="37.94621284998048" lon="15.039784220216422"><ele>1292.0</ele><time>2026-04-09T10:50:02.999Z</time></trkpt><trkpt lat="37.94613584253176" lon="15.039738907713904"><ele>1290.0</ele><time>2026-04-09T10:50:03.999Z</time></trkpt><trkpt lat="37.9460642931443" lon="15.039683329065202"><ele>1288.0</ele><time>2026-04-09T10:50:04.999Z</time></trkpt><trkpt lat="37.94599899116459" lon="15.039621275637755"><ele>1286.0</ele><time>2026-04-09T10:50:05.999Z</time></trkpt><trkpt lat="37.94592977477822" lon="15.039551178238112"><ele>1284.0</ele><time>2026-04-09T10:50:06.999Z</time></trkpt><trkpt lat="37.94587678364501" lon="15.03946642468025"><ele>1283.4</ele><time>2026-04-09T10:50:07.999Z</time></trkpt><trkpt lat="37.945827940330766" lon="15.039359915042093"><ele>1282.8000000000002</ele><time>2026-04-09T10:50:08.999Z</time></trkpt><trkpt lat="37.94577717184269" lon="15.03926325540033"><ele>1282.1999999999998</ele><time>2026-04-09T10:50:09.999Z</time></trkpt><trkpt lat="37.94570611342757" lon="15.039158786169965"><ele>1281.6</ele><time>2026-04-09T10:50:10.999Z</time></trkpt><trkpt lat="37.945636922772316" lon="15.039047987283618"><ele>1281.0</ele><time>2026-04-09T10:50:11.999Z</time></trkpt><trkpt lat="37.94556398884574" lon="15.038936342870109"><ele>1279.6</ele><time>2026-04-09T10:50:12.999Z</time></trkpt><trkpt lat="37.94550230816498" lon="15.038826236161007"><ele>1278.1999999999998</ele><time>2026-04-09T10:50:13.999Z</time></trkpt><trkpt lat="37.94543559591081" lon="15.038706640752103"><ele>1276.8000000000002</ele><time>2026-04-09T10:50:14.999Z</time></trkpt><trkpt lat="37.945381095074524" lon="15.038599666725162"><ele>1275.4</ele><time>2026-04-09T10:50:15.999Z</time></trkpt><trkpt lat="37.94532983777965" lon="15.038488839175988"><ele>1274.0</ele><time>2026-04-09T10:50:16.999Z</time></trkpt><trkpt lat="37.94529477630314" lon="15.038363025125243"><ele>1273.1666666666667</ele><time>2026-04-09T10:50:17.999Z</time></trkpt><trkpt lat="37.94527912104091" lon="15.038240786860396"><ele>1272.3333333333335</ele><time>2026-04-09T10:50:18.999Z</time></trkpt><trkpt lat="37.945277150529925" lon="15.038125370707665"><ele>1271.5</ele><time>2026-04-09T10:50:19.999Z</time></trkpt><trkpt lat="37.945279711150974" lon="15.038018158901581"><ele>1270.6666666666667</ele><time>2026-04-09T10:50:20.999Z</time></trkpt><trkpt lat="37.945273139391404" lon="15.037936360304117"><ele>1269.8333333333333</ele><time>2026-04-09T10:50:21.999Z</time></trkpt><trkpt lat="37.94526768005929" lon="15.037841425627018"><ele>1269.0</ele><time>2026-04-09T10:50:22.999Z</time></trkpt><trkpt lat="37.945273400208954" lon="15.037733225473273"><ele>1269.0</ele><time>2026-04-09T10:50:23.999Z</time></trkpt><trkpt lat="37.94528713624391" lon="15.037633023044233"><ele>1269.0</ele><time>2026-04-09T10:50:24.999Z</time></trkpt><trkpt lat="37.94530680811671" lon="15.037544545341333"><ele>1269.0</ele><time>2026-04-09T10:50:25.999Z</time></trkpt><trkpt lat="37.94533006750753" lon="15.03743882788048"><ele>1269.0</ele><time>2026-04-09T10:50:26.999Z</time></trkpt><trkpt lat="37.945358547433386" lon="15.037363490811197"><ele>1269.0</ele><time>2026-04-09T10:50:27.999Z</time></trkpt><trkpt lat="37.94539660888648" lon="15.037270483989959"><ele>1269.0</ele><time>2026-04-09T10:50:28.999Z</time></trkpt><trkpt lat="37.94543723884281" lon="15.037184707376213"><ele>1268.0</ele><time>2026-04-09T10:50:30Z</time></trkpt><trkpt lat="37.94548586333343" lon="15.037096841627921"><ele>1267.0</ele><time>2026-04-09T10:50:31Z</time></trkpt><trkpt lat="37.94551953027792" lon="15.037022845313057"><ele>1266.0</ele><time>2026-04-09T10:50:32Z</time></trkpt><trkpt lat="37.945557505976474" lon="15.036939648263933"><ele>1265.0</ele><time>2026-04-09T10:50:33Z</time></trkpt><trkpt lat="37.94559886680109" lon="15.036857390977115"><ele>1264.0</ele><time>2026-04-09T10:50:34Z</time></trkpt><trkpt lat="37.945633778241394" lon="15.036784030322778"><ele>1263.0</ele><time>2026-04-09T10:50:35Z</time></trkpt><trkpt lat="37.94570622085823" lon="15.036683198120206"><ele>1260.2</ele><time>2026-04-09T10:50:37Z</time></trkpt><trkpt lat="37.94578637790746" lon="15.036579495181662"><ele>1257.4</ele><time>2026-04-09T10:50:39Z</time></trkpt><trkpt lat="37.94585663576572" lon="15.036460743569442"><ele>1254.6000000000001</ele><time>2026-04-09T10:50:41Z</time></trkpt><trkpt lat="37.945913329546705" lon="15.036328290967921"><ele>1251.8</ele><time>2026-04-09T10:50:43Z</time></trkpt><trkpt lat="37.94594266866318" lon="15.036250637589758"><ele>1249.0</ele><time>2026-04-09T10:50:44Z</time></trkpt><trkpt lat="37.94596426089584" lon="15.03613720866388"><ele>1246.4</ele><time>2026-04-09T10:50:46Z</time></trkpt><trkpt lat="37.94600640121916" lon="15.03597010195293"><ele>1243.8000000000002</ele><time>2026-04-09T10:50:48Z</time></trkpt><trkpt lat="37.94604653518188" lon="15.035865635393696"><ele>1241.1999999999998</ele><time>2026-04-09T10:50:49Z</time></trkpt><trkpt lat="37.94609486527645" lon="15.035789419662027"><ele>1238.6</ele><time>2026-04-09T10:50:50Z</time></trkpt><trkpt lat="37.94613788949172" lon="15.035725541208237"><ele>1236.0</ele><time>2026-04-09T10:50:51Z</time></trkpt><trkpt lat="37.946203738419236" lon="15.035600001836993"><ele>1233.8</ele><time>2026-04-09T10:50:53Z</time></trkpt><trkpt lat="37.946250456836324" lon="15.035482465095676"><ele>1231.6</ele><time>2026-04-09T10:50:55Z</time></trkpt><trkpt lat="37.9463248188628" lon="15.035394293830258"><ele>1229.4</ele><time>2026-04-09T10:50:57Z</time></trkpt><trkpt lat="37.94634687343443" lon="15.035282803310434"><ele>1227.2</ele><time>2026-04-09T10:50:59Z</time></trkpt><trkpt lat="37.94632036236986" lon="15.035155918236889"><ele>1225.0</ele><time>2026-04-09T10:51:01Z</time></trkpt><trkpt lat="37.946281987352634" lon="15.035052723494086"><ele>1221.3333333333333</ele><time>2026-04-09T10:51:04Z</time></trkpt><trkpt lat="37.946251356190295" lon="15.03496520596163"><ele>1217.6666666666665</ele><time>2026-04-09T10:51:07Z</time></trkpt><trkpt lat="37.9462229009278" lon="15.034883319047266"><ele>1214.0</ele><time>2026-04-09T10:51:11Z</time></trkpt><trkpt lat="37.94619476072472" lon="15.034775021839128"><ele>1210.3333333333333</ele><time>2026-04-09T10:51:13Z</time></trkpt><trkpt lat="37.94619371572203" lon="15.03461913852627"><ele>1206.6666666666667</ele><time>2026-04-09T10:51:15Z</time></trkpt><trkpt lat="37.94619302768021" lon="15.034538346682677"><ele>1203.0</ele><time>2026-04-09T10:51:16Z</time></trkpt><trkpt lat="37.946189279304704" lon="15.034409545302234"><ele>1203.0</ele><time>2026-04-09T10:51:18Z</time></trkpt><trkpt lat="37.94617138733896" lon="15.03430245627672"><ele>1203.0</ele><time>2026-04-09T10:51:19.999Z</time></trkpt><trkpt lat="37.946111969921816" lon="15.034193042493838"><ele>1203.0</ele><time>2026-04-09T10:51:21.999Z</time></trkpt><trkpt lat="37.94604992826891" lon="15.034092605716504"><ele>1203.0</ele><time>2026-04-09T10:51:23.999Z</time></trkpt><trkpt lat="37.94597371598723" lon="15.033986726788173"><ele>1203.0</ele><time>2026-04-09T10:51:25.999Z</time></trkpt><trkpt lat="37.94593188093617" lon="15.033885836695724"><ele>1200.6</ele><time>2026-04-09T10:51:27.999Z</time></trkpt><trkpt lat="37.94587823634474" lon="15.033798533432872"><ele>1198.1999999999998</ele><time>2026-04-09T10:51:29.999Z</time></trkpt><trkpt lat="37.94583208133057" lon="15.033719021856973"><ele>1195.8</ele><time>2026-04-09T10:51:58.999Z</time></trkpt><trkpt lat="37.94577757056715" lon="15.033603760405478"><ele>1193.3999999999999</ele><time>2026-04-09T10:52:01.999Z</time></trkpt><trkpt lat="37.945731275018645" lon="15.033485740408702"><ele>1191.0</ele><time>2026-04-09T10:52:03.999Z</time></trkpt><trkpt lat="37.94572116332724" lon="15.033378770712034"><ele>1187.3999999999999</ele><time>2026-04-09T10:52:05.999Z</time></trkpt><trkpt lat="37.94566896474101" lon="15.03327506212343"><ele>1183.8</ele><time>2026-04-09T10:52:08.999Z</time></trkpt><trkpt lat="37.945583550872996" lon="15.033178787232448"><ele>1180.1999999999998</ele><time>2026-04-09T10:52:10.999Z</time></trkpt><trkpt lat="37.94556758118814" lon="15.033063304310714"><ele>1176.6</ele><time>2026-04-09T10:52:12.999Z</time></trkpt><trkpt lat="37.945525173441624" lon="15.032968652891112"><ele>1173.0</ele><time>2026-04-09T10:52:14.999Z</time></trkpt><trkpt lat="37.9455348585055" lon="15.032831863509752"><ele>1173.0</ele><time>2026-04-09T10:52:16.999Z</time></trkpt><trkpt lat="37.94553635699109" lon="15.032692729921415"><ele>1173.0</ele><time>2026-04-09T10:52:18.999Z</time></trkpt><trkpt lat="37.94552287927324" lon="15.032607278778242"><ele>1173.0</ele><time>2026-04-09T10:52:19.999Z</time></trkpt><trkpt lat="37.94550891628715" lon="15.032523283464549"><ele>1173.0</ele><time>2026-04-09T10:52:20.999Z</time></trkpt><trkpt lat="37.94548815323203" lon="15.032445936924343"><ele>1173.0</ele><time>2026-04-09T10:52:21.999Z</time></trkpt><trkpt lat="37.9454427443409" lon="15.032317488277776"><ele>1173.0</ele><time>2026-04-09T10:52:23.999Z</time></trkpt><trkpt lat="37.94539353120519" lon="15.032207870002464"><ele>1169.4</ele><time>2026-04-09T10:52:25.999Z</time></trkpt><trkpt lat="37.94536105015002" lon="15.032119024827828"><ele>1165.8</ele><time>2026-04-09T10:52:28.999Z</time></trkpt><trkpt lat="37.94533495892903" lon="15.03203740441862"><ele>1162.2</ele><time>2026-04-09T10:52:30.999Z</time></trkpt><trkpt lat="37.94531766084413" lon="15.031918529415195"><ele>1158.6</ele><time>2026-04-09T10:52:32.999Z</time></trkpt><trkpt lat="37.94534395759375" lon="15.031789214518026"><ele>1155.0</ele><time>2026-04-09T10:52:34.999Z</time></trkpt><trkpt lat="37.94539024490305" lon="15.031660786094676"><ele>1152.1666666666667</ele><time>2026-04-09T10:52:37Z</time></trkpt><trkpt lat="37.94542827325363" lon="15.031571201115003"><ele>1149.3333333333333</ele><time>2026-04-09T10:52:39Z</time></trkpt><trkpt lat="37.945459129959694" lon="15.031459212071228"><ele>1146.5</ele><time>2026-04-09T10:52:41Z</time></trkpt><trkpt lat="37.94545033396731" lon="15.03133412868739"><ele>1143.6666666666665</ele><time>2026-04-09T10:52:43Z</time></trkpt><trkpt lat="37.9454347698195" lon="15.031232208541992"><ele>1140.8333333333333</ele><time>2026-04-09T10:52:45Z</time></trkpt><trkpt lat="37.94543956252872" lon="15.03113919330247"><ele>1138.0</ele><time>2026-04-09T10:52:47Z</time></trkpt><trkpt lat="37.94547621636002" lon="15.03102818059978"><ele>1138.0</ele><time>2026-04-09T10:52:49Z</time></trkpt><trkpt lat="37.9455418350148" lon="15.03092670709704"><ele>1138.0</ele><time>2026-04-09T10:52:51Z</time></trkpt><trkpt lat="37.945607579781175" lon="15.030915552841188"><ele>1138.0</ele><time>2026-04-09T10:52:54Z</time></trkpt><trkpt lat="37.94569163411285" lon="15.030946854882576"><ele>1138.0</ele><time>2026-04-09T10:52:56Z</time></trkpt><trkpt lat="37.94574615872187" lon="15.030988667003971"><ele>1138.0</ele><time>2026-04-09T10:52:57Z</time></trkpt><trkpt lat="37.94584326148016" lon="15.031087692225851"><ele>1138.0</ele><time>2026-04-09T10:52:59Z</time></trkpt><trkpt lat="37.94589257307325" lon="15.031144445572727"><ele>1130.8</ele><time>2026-04-09T10:53:00Z</time></trkpt><trkpt lat="37.94593849732359" lon="15.031202845654919"><ele>1123.6</ele><time>2026-04-09T10:53:01Z</time></trkpt><trkpt lat="37.94602776130616" lon="15.031283573331335"><ele>1116.4</ele><time>2026-04-09T10:53:03Z</time></trkpt><trkpt lat="37.946080386583574" lon="15.031391586263881"><ele>1109.2</ele><time>2026-04-09T10:53:05Z</time></trkpt><trkpt lat="37.94616618524569" lon="15.031440300286143"><ele>1102.0</ele><time>2026-04-09T10:53:07Z</time></trkpt><trkpt lat="37.94622824778615" lon="15.0313740844867"><ele>1102.0</ele><time>2026-04-09T10:53:09Z</time></trkpt><trkpt lat="37.94619397348239" lon="15.031259286483584"><ele>1102.0</ele><time>2026-04-09T10:53:11Z</time></trkpt><trkpt lat="37.946134487163306" lon="15.0311834237874"><ele>1102.0</ele><time>2026-04-09T10:53:13Z</time></trkpt><trkpt lat="37.94611508643528" lon="15.031107058416906"><ele>1102.0</ele><time>2026-04-09T10:53:14Z</time></trkpt><trkpt lat="37.94609417088457" lon="15.030970777351126"><ele>1102.0</ele><time>2026-04-09T10:53:16Z</time></trkpt><trkpt lat="37.94607035826868" lon="15.030841160140886"><ele>1099.4</ele><time>2026-04-09T10:53:18Z</time></trkpt><trkpt lat="37.946085160487996" lon="15.030725374958365"><ele>1096.8000000000002</ele><time>2026-04-09T10:53:20Z</time></trkpt><trkpt lat="37.94607687329342" lon="15.030580031984403"><ele>1094.2</ele><time>2026-04-09T10:53:22Z</time></trkpt><trkpt lat="37.94607161618356" lon="15.030440139500035"><ele>1091.6000000000001</ele><time>2026-04-09T10:53:24Z</time></trkpt><trkpt lat="37.946035006419535" lon="15.030292380694002"><ele>1089.0</ele><time>2026-04-09T10:53:26Z</time></trkpt><trkpt lat="37.94599740527349" lon="15.030177971563502"><ele>1089.0</ele><time>2026-04-09T10:53:28Z</time></trkpt><trkpt lat="37.945944099884144" lon="15.030064386684417"><ele>1089.0</ele><time>2026-04-09T10:53:30Z</time></trkpt><trkpt lat="37.94590859998126" lon="15.029941478714724"><ele>1089.0</ele><time>2026-04-09T10:53:31.999Z</time></trkpt><trkpt lat="37.94596604423716" lon="15.029891733771203"><ele>1089.0</ele><time>2026-04-09T10:53:33.999Z</time></trkpt><trkpt lat="37.94604014333216" lon="15.029942269067178"><ele>1089.0</ele><time>2026-04-09T10:53:35.999Z</time></trkpt><trkpt lat="37.94612498464279" lon="15.030027736842193"><ele>1089.0</ele><time>2026-04-09T10:53:37.999Z</time></trkpt><trkpt lat="37.94623119565434" lon="15.030121507681578"><ele>1089.0</ele><time>2026-04-09T10:53:39.999Z</time></trkpt><trkpt lat="37.946329847807895" lon="15.03017870712511"><ele>1089.0</ele><time>2026-04-09T10:53:41.999Z</time></trkpt><trkpt lat="37.94640787199229" lon="15.030248333200749"><ele>1089.0</ele><time>2026-04-09T10:53:43.999Z</time></trkpt><trkpt lat="37.946475898951896" lon="15.030340762715246"><ele>1089.0</ele><time>2026-04-09T10:53:45.999Z</time></trkpt><trkpt lat="37.94649648712057" lon="15.03045379223983"><ele>1089.0</ele><time>2026-04-09T10:53:47.999Z</time></trkpt><trkpt lat="37.94655676787689" lon="15.03049028627744"><ele>1089.0</ele><time>2026-04-09T10:53:49.999Z</time></trkpt><trkpt lat="37.94658710180273" lon="15.030417840854962"><ele>1089.0</ele><time>2026-04-09T10:53:51.999Z</time></trkpt><trkpt lat="37.946573870791205" lon="15.030310995204184"><ele>1089.0</ele><time>2026-04-09T10:53:53.999Z</time></trkpt><trkpt lat="37.9465649006661" lon="15.030174197457974"><ele>1089.0</ele><time>2026-04-09T10:53:55.999Z</time></trkpt><trkpt lat="37.94656425683625" lon="15.030061071954902"><ele>1089.0</ele><time>2026-04-09T10:53:57.999Z</time></trkpt><trkpt lat="37.946572587299954" lon="15.029953605910302"><ele>1084.8</ele><time>2026-04-09T10:53:59.999Z</time></trkpt><trkpt lat="37.94659866952928" lon="15.029820168085102"><ele>1080.6000000000001</ele><time>2026-04-09T10:54:01.999Z</time></trkpt><trkpt lat="37.94662426758769" lon="15.02967053539766"><ele>1076.4</ele><time>2026-04-09T10:54:03.999Z</time></trkpt><trkpt lat="37.94665436872187" lon="15.029532903239453"><ele>1072.2</ele><time>2026-04-09T10:54:05.999Z</time></trkpt><trkpt lat="37.94666824904172" lon="15.029414483542414"><ele>1068.0</ele><time>2026-04-09T10:54:07.999Z</time></trkpt><trkpt lat="37.946688877701604" lon="15.029293028604668"><ele>1068.0</ele><time>2026-04-09T10:54:09.999Z</time></trkpt><trkpt lat="37.946698120403894" lon="15.029173718373002"><ele>1068.0</ele><time>2026-04-09T10:54:11.999Z</time></trkpt><trkpt lat="37.94672824240612" lon="15.029053749087618"><ele>1068.0</ele><time>2026-04-09T10:54:13.999Z</time></trkpt><trkpt lat="37.94675397725945" lon="15.028915833603085"><ele>1068.0</ele><time>2026-04-09T10:54:15.999Z</time></trkpt><trkpt lat="37.9467490111364" lon="15.028806871317315"><ele>1068.0</ele><time>2026-04-09T10:54:17.999Z</time></trkpt><trkpt lat="37.94668443300043" lon="15.028792947457388"><ele>1062.0</ele><time>2026-04-09T10:54:21.999Z</time></trkpt><trkpt lat="37.94662202683433" lon="15.028871048654738"><ele>1056.0</ele><time>2026-04-09T10:54:27.999Z</time></trkpt><trkpt lat="37.94650888119997" lon="15.028922254413796"><ele>1050.0</ele><time>2026-04-09T10:54:29.999Z</time></trkpt><trkpt lat="37.94642869159381" lon="15.028913496756315"><ele>1044.0</ele><time>2026-04-09T10:54:30.999Z</time></trkpt><trkpt lat="37.946343081300576" lon="15.028905100741937"><ele>1038.0</ele><time>2026-04-09T10:54:31.999Z</time></trkpt><trkpt lat="37.946254201713465" lon="15.028910729641604"><ele>1038.0</ele><time>2026-04-09T10:54:32.999Z</time></trkpt><trkpt lat="37.94617123489527" lon="15.028902751081878"><ele>1038.0</ele><time>2026-04-09T10:54:33.999Z</time></trkpt><trkpt lat="37.946092505310276" lon="15.028887901558868"><ele>1038.0</ele><time>2026-04-09T10:54:34.999Z</time></trkpt><trkpt lat="37.94601381524382" lon="15.028865665825062"><ele>1038.0</ele><time>2026-04-09T10:54:35.999Z</time></trkpt><trkpt lat="37.945947768361215" lon="15.028845719309642"><ele>1038.0</ele><time>2026-04-09T10:54:36.999Z</time></trkpt><trkpt lat="37.945887828641595" lon="15.028808448710317"><ele>1038.0</ele><time>2026-04-09T10:54:37.999Z</time></trkpt><trkpt lat="37.94579108927613" lon="15.028776377452322"><ele>1036.2</ele><time>2026-04-09T10:54:39.999Z</time></trkpt><trkpt lat="37.94568358194844" lon="15.02883999275123"><ele>1034.4</ele><time>2026-04-09T10:54:42Z</time></trkpt><trkpt lat="37.94561337306284" lon="15.028952507560188"><ele>1032.6000000000001</ele><time>2026-04-09T10:54:44Z</time></trkpt><trkpt lat="37.94552911740006" lon="15.029025252241725"><ele>1030.8</ele><time>2026-04-09T10:54:46Z</time></trkpt><trkpt lat="37.945420635227904" lon="15.029000428655262"><ele>1029.0</ele><time>2026-04-09T10:54:48Z</time></trkpt><trkpt lat="37.945308697317955" lon="15.028941541602139"><ele>1029.0</ele><time>2026-04-09T10:54:50Z</time></trkpt><trkpt lat="37.94521673369685" lon="15.02890481243954"><ele>1029.0</ele><time>2026-04-09T10:54:52Z</time></trkpt><trkpt lat="37.945104195889385" lon="15.028936661971429"><ele>1029.0</ele><time>2026-04-09T10:54:54Z</time></trkpt><trkpt lat="37.94499524796781" lon="15.029018209881752"><ele>1029.0</ele><time>2026-04-09T10:54:56Z</time></trkpt><trkpt lat="37.94490133911741" lon="15.02906073756507"><ele>1029.0</ele><time>2026-04-09T10:54:59Z</time></trkpt><trkpt lat="37.944798229513694" lon="15.029031766128028"><ele>1026.1666666666667</ele><time>2026-04-09T10:55:01Z</time></trkpt><trkpt lat="37.94472561129179" lon="15.028923375439275"><ele>1023.3333333333333</ele><time>2026-04-09T10:55:03Z</time></trkpt><trkpt lat="37.94465879418551" lon="15.028926542690936"><ele>1020.5</ele><time>2026-04-09T10:55:05Z</time></trkpt><trkpt lat="37.944591910888555" lon="15.028914340182308"><ele>1017.6666666666666</ele><time>2026-04-09T10:55:06Z</time></trkpt><trkpt lat="37.944526379078695" lon="15.028911913211548"><ele>1014.8333333333333</ele><time>2026-04-09T10:55:07Z</time></trkpt><trkpt lat="37.94441716905596" lon="15.028887680728449"><ele>1012.0</ele><time>2026-04-09T10:55:09Z</time></trkpt><trkpt lat="37.9443308662135" lon="15.028933149463217"><ele>1011.9999999999999</ele><time>2026-04-09T10:55:11Z</time></trkpt><trkpt lat="37.94425377543141" lon="15.029047661552694"><ele>1012.0</ele><time>2026-04-09T10:55:13Z</time></trkpt><trkpt lat="37.94422703181277" lon="15.029132665069922"><ele>1012.0</ele><time>2026-04-09T10:55:14Z</time></trkpt><trkpt lat="37.944202329433764" lon="15.029206090084571"><ele>1012.0</ele><time>2026-04-09T10:55:15Z</time></trkpt><trkpt lat="37.944189078105616" lon="15.029308686938496"><ele>1011.9999999999999</ele><time>2026-04-09T10:55:17Z</time></trkpt><trkpt lat="37.94411742837708" lon="15.029327366111167"><ele>1012.0</ele><time>2026-04-09T10:55:20Z</time></trkpt><trkpt lat="37.94407538703022" lon="15.029237700413669"><ele>1011.0</ele><time>2026-04-09T10:55:23Z</time></trkpt><trkpt lat="37.94403934265347" lon="15.029148263609699"><ele>1010.0</ele><time>2026-04-09T10:55:25Z</time></trkpt><trkpt lat="37.943983699450264" lon="15.029052220848836"><ele>1009.0</ele><time>2026-04-09T10:55:27Z</time></trkpt><trkpt lat="37.94389929332493" lon="15.028964369208571"><ele>1008.0</ele><time>2026-04-09T10:55:29Z</time></trkpt><trkpt lat="37.94383881468534" lon="15.028932188396544"><ele>1007.0</ele><time>2026-04-09T10:55:30Z</time></trkpt><trkpt lat="37.94372918739572" lon="15.028980609039"><ele>1007.0000000000001</ele><time>2026-04-09T10:55:32Z</time></trkpt><trkpt lat="37.9436374514317" lon="15.029051740155433"><ele>1007.0</ele><time>2026-04-09T10:55:34Z</time></trkpt><trkpt lat="37.94354459287508" lon="15.02908864924676"><ele>1007.0</ele><time>2026-04-09T10:55:36Z</time></trkpt><trkpt lat="37.94347337710226" lon="15.029119726323012"><ele>1007.0</ele><time>2026-04-09T10:55:38Z</time></trkpt><trkpt lat="37.94340609941505" lon="15.029089668885927"><ele>1007.0000000000001</ele><time>2026-04-09T10:55:40Z</time></trkpt><trkpt lat="37.9433623373258" lon="15.029029448707137"><ele>1007.0</ele><time>2026-04-09T10:55:41.999Z</time></trkpt><trkpt lat="37.94337791933283" lon="15.028944071916117"><ele>1007.0</ele><time>2026-04-09T10:56:52Z</time></trkpt><trkpt lat="37.94343931035503" lon="15.028839319878347"><ele>1007.0</ele><time>2026-04-09T10:56:54Z</time></trkpt><trkpt lat="37.94352229838091" lon="15.028749127705412"><ele>1007.0</ele><time>2026-04-09T10:56:56Z</time></trkpt><trkpt lat="37.943586239249704" lon="15.028664081326491"><ele>1007.0</ele><time>2026-04-09T10:56:58Z</time></trkpt><trkpt lat="37.943627619874555" lon="15.028527820610886"><ele>1007.0</ele><time>2026-04-09T10:57:00Z</time></trkpt><trkpt lat="37.94364684473451" lon="15.02838488713085"><ele>1009.3333333333334</ele><time>2026-04-09T10:57:02Z</time></trkpt><trkpt lat="37.94365440738684" lon="15.028254364824983"><ele>1011.6666666666667</ele><time>2026-04-09T10:57:04Z</time></trkpt><trkpt lat="37.943656124834675" lon="15.028174424349109"><ele>1014.0</ele><time>2026-04-09T10:57:05Z</time></trkpt><trkpt lat="37.94366332667966" lon="15.028095026144099"><ele>1016.3333333333333</ele><time>2026-04-09T10:57:06Z</time></trkpt><trkpt lat="37.943737200511634" lon="15.02801377202395"><ele>1018.6666666666666</ele><time>2026-04-09T10:57:08Z</time></trkpt><trkpt lat="37.94382098951298" lon="15.027927617691804"><ele>1021.0</ele><time>2026-04-09T10:57:10Z</time></trkpt><trkpt lat="37.94388136792356" lon="15.027878299835317"><ele>1020.9999999999999</ele><time>2026-04-09T10:57:11Z</time></trkpt><trkpt lat="37.94395059343207" lon="15.027843620161098"><ele>1021.0</ele><time>2026-04-09T10:57:12Z</time></trkpt><trkpt lat="37.94403219651785" lon="15.027822253272959"><ele>1021.0</ele><time>2026-04-09T10:57:13Z</time></trkpt><trkpt lat="37.94409824677934" lon="15.02783706835385"><ele>1021.0</ele><time>2026-04-09T10:57:14Z</time></trkpt><trkpt lat="37.94416527444871" lon="15.027824621980365"><ele>1020.9999999999999</ele><time>2026-04-09T10:57:15Z</time></trkpt><trkpt lat="37.944249397819476" lon="15.027804468068632"><ele>1021.0</ele><time>2026-04-09T10:57:16Z</time></trkpt><trkpt lat="37.94432537934329" lon="15.027775704804746"><ele>1020.5714285714286</ele><time>2026-04-09T10:57:17Z</time></trkpt><trkpt lat="37.944392557709456" lon="15.02773439621911"><ele>1020.1428571428571</ele><time>2026-04-09T10:57:18Z</time></trkpt><trkpt lat="37.94445886206137" lon="15.027681777017378"><ele>1019.7142857142857</ele><time>2026-04-09T10:57:19Z</time></trkpt><trkpt lat="37.944508442692175" lon="15.0276163429179"><ele>1019.2857142857142</ele><time>2026-04-09T10:57:20Z</time></trkpt><trkpt lat="37.944545350712595" lon="15.027545299343082"><ele>1018.8571428571429</ele><time>2026-04-09T10:57:21Z</time></trkpt><trkpt lat="37.944585107129676" lon="15.027460005569083"><ele>1018.4285714285713</ele><time>2026-04-09T10:57:22Z</time></trkpt><trkpt lat="37.94464130471333" lon="15.027404035822087"><ele>1017.9999999999999</ele><time>2026-04-09T10:57:23Z</time></trkpt><trkpt lat="37.944675410329324" lon="15.027312712022393"><ele>1017.9999999999999</ele><time>2026-04-09T10:57:24Z</time></trkpt><trkpt lat="37.94471239525296" lon="15.027227328092836"><ele>1018.0</ele><time>2026-04-09T10:57:25Z</time></trkpt><trkpt lat="37.94473881729478" lon="15.027147415275806"><ele>1018.0</ele><time>2026-04-09T10:57:26Z</time></trkpt><trkpt lat="37.94479011058349" lon="15.027079193116025"><ele>1018.0</ele><time>2026-04-09T10:57:27Z</time></trkpt><trkpt lat="37.94486526134109" lon="15.027033889063517"><ele>1017.9999999999999</ele><time>2026-04-09T10:57:28Z</time></trkpt><trkpt lat="37.94493173979285" lon="15.026941066475867"><ele>1018.0</ele><time>2026-04-09T10:57:30Z</time></trkpt><trkpt lat="37.94495068146396" lon="15.026825445884464"><ele>1017.9999999999999</ele><time>2026-04-09T10:57:32Z</time></trkpt><trkpt lat="37.94498548232886" lon="15.026744812057178"><ele>1018.0</ele><time>2026-04-09T10:57:33Z</time></trkpt><trkpt lat="37.94501814802562" lon="15.026676438799667"><ele>1018.0</ele><time>2026-04-09T10:57:34Z</time></trkpt><trkpt lat="37.94507521714868" lon="15.026622366694067"><ele>1018.0</ele><time>2026-04-09T10:57:35Z</time></trkpt><trkpt lat="37.94515433352503" lon="15.026579087491529"><ele>1017.9999999999999</ele><time>2026-04-09T10:57:36Z</time></trkpt><trkpt lat="37.94522075352349" lon="15.02655654496581"><ele>1018.0</ele><time>2026-04-09T10:57:37Z</time></trkpt><trkpt lat="37.945308195920774" lon="15.026442937784907"><ele>1014.3333333333333</ele><time>2026-04-09T10:57:39Z</time></trkpt><trkpt lat="37.945327705169404" lon="15.026309524009859"><ele>1010.6666666666666</ele><time>2026-04-09T10:57:41Z</time></trkpt><trkpt lat="37.945323123431386" lon="15.026199568068543"><ele>1007.0</ele><time>2026-04-09T10:57:42Z</time></trkpt><trkpt lat="37.94530345416281" lon="15.026089929526005"><ele>1003.3333333333333</ele><time>2026-04-09T10:57:43Z</time></trkpt><trkpt lat="37.945293064284726" lon="15.025993686120774"><ele>999.6666666666666</ele><time>2026-04-09T10:57:44Z</time></trkpt><trkpt lat="37.94531770581247" lon="15.025903346504878"><ele>996.0</ele><time>2026-04-09T10:57:45Z</time></trkpt><trkpt lat="37.94536199304617" lon="15.025822031114034"><ele>997.0</ele><time>2026-04-09T10:57:46Z</time></trkpt><trkpt lat="37.945436082217185" lon="15.025730307208105"><ele>998.0</ele><time>2026-04-09T10:57:47Z</time></trkpt><trkpt lat="37.94548744805788" lon="15.025660233290036"><ele>999.0</ele><time>2026-04-09T10:57:48Z</time></trkpt><trkpt lat="37.94549060973361" lon="15.025521817488839"><ele>1000.0</ele><time>2026-04-09T10:57:50Z</time></trkpt><trkpt lat="37.94546821590734" lon="15.025430751294182"><ele>1001.0</ele><time>2026-04-09T10:57:51Z</time></trkpt><trkpt lat="37.945460593474984" lon="15.025337843408922"><ele>1002.0</ele><time>2026-04-09T10:57:52Z</time></trkpt><trkpt lat="37.94543706668526" lon="15.025229810506204"><ele>1002.0</ele><time>2026-04-09T10:57:53Z</time></trkpt><trkpt lat="37.94540326084503" lon="15.025131948943518"><ele>1002.0</ele><time>2026-04-09T10:57:54Z</time></trkpt><trkpt lat="37.945356755123605" lon="15.025027954663633"><ele>1002.0</ele><time>2026-04-09T10:57:55Z</time></trkpt><trkpt lat="37.94530788680419" lon="15.024955115532585"><ele>1002.0</ele><time>2026-04-09T10:57:56Z</time></trkpt><trkpt lat="37.94524538187156" lon="15.024845107376771"><ele>1002.0</ele><time>2026-04-09T10:57:56.999Z</time></trkpt><trkpt lat="37.94518007229209" lon="15.024762996226693"><ele>1000.0</ele><time>2026-04-09T10:57:57.999Z</time></trkpt><trkpt lat="37.94513516724521" lon="15.02467938497343"><ele>998.0</ele><time>2026-04-09T10:57:58.999Z</time></trkpt><trkpt lat="37.945094137308" lon="15.02458456629307"><ele>996.0</ele><time>2026-04-09T10:57:59.999Z</time></trkpt><trkpt lat="37.945064197233265" lon="15.024487869843721"><ele>994.0</ele><time>2026-04-09T10:58:00.999Z</time></trkpt><trkpt lat="37.94505247517336" lon="15.024408022318637"><ele>992.0</ele><time>2026-04-09T10:58:01.999Z</time></trkpt><trkpt lat="37.94503858137999" lon="15.024325055006937"><ele>990.0</ele><time>2026-04-09T10:58:02.999Z</time></trkpt><trkpt lat="37.945019370256276" lon="15.024214252174584"><ele>995.8571428571427</ele><time>2026-04-09T10:58:03.999Z</time></trkpt><trkpt lat="37.94500563025531" lon="15.024126063220535"><ele>1001.7142857142857</ele><time>2026-04-09T10:58:04.999Z</time></trkpt><trkpt lat="37.94499949118482" lon="15.02403839373745"><ele>1007.5714285714284</ele><time>2026-04-09T10:58:05.999Z</time></trkpt><trkpt lat="37.94499256586346" lon="15.023956324202587"><ele>1013.4285714285713</ele><time>2026-04-09T10:58:06.999Z</time></trkpt><trkpt lat="37.944990777791084" lon="15.023873153358682"><ele>1019.2857142857142</ele><time>2026-04-09T10:58:07.999Z</time></trkpt><trkpt lat="37.94500983567959" lon="15.023783525404067"><ele>1025.142857142857</ele><time>2026-04-09T10:58:08.999Z</time></trkpt><trkpt lat="37.94503258836985" lon="15.023695922792172"><ele>1031.0</ele><time>2026-04-09T10:58:09.999Z</time></trkpt><trkpt lat="37.94503112255087" lon="15.023517268516846"><ele>1031.0</ele><time>2026-04-09T10:58:11.999Z</time></trkpt><trkpt lat="37.94500815306716" lon="15.023407134836864"><ele>1031.0</ele><time>2026-04-09T10:58:12.999Z</time></trkpt><trkpt lat="37.9450171460906" lon="15.023270283841702"><ele>1031.0</ele><time>2026-04-09T10:58:13.999Z</time></trkpt><trkpt lat="37.94502177899352" lon="15.02315320863542"><ele>1031.0</ele><time>2026-04-09T10:58:14.999Z</time></trkpt><trkpt lat="37.94501707814459" lon="15.023069502802683"><ele>1031.0</ele><time>2026-04-09T10:58:15.999Z</time></trkpt><trkpt lat="37.94501023483078" lon="15.022976244168982"><ele>1031.0</ele><time>2026-04-09T10:58:16.999Z</time></trkpt><trkpt lat="37.94501241982651" lon="15.02289072863471"><ele>1032.3333333333335</ele><time>2026-04-09T10:58:17.999Z</time></trkpt><trkpt lat="37.9450404826213" lon="15.022810302964011"><ele>1033.6666666666667</ele><time>2026-04-09T10:58:18.999Z</time></trkpt><trkpt lat="37.94508631087787" lon="15.022724797390204"><ele>1035.0</ele><time>2026-04-09T10:58:19.999Z</time></trkpt><trkpt lat="37.94514682216488" lon="15.022620110409154"><ele>1036.3333333333333</ele><time>2026-04-09T10:58:20.999Z</time></trkpt><trkpt lat="37.94517954056589" lon="15.022510178809798"><ele>1037.6666666666665</ele><time>2026-04-09T10:58:21.999Z</time></trkpt><trkpt lat="37.9451939333824" lon="15.02240261419038"><ele>1039.0</ele><time>2026-04-09T10:58:22.999Z</time></trkpt><trkpt lat="37.945210312779736" lon="15.022311562358464"><ele>1032.8</ele><time>2026-04-09T10:58:23.999Z</time></trkpt><trkpt lat="37.945244341826715" lon="15.022208357655463"><ele>1026.6000000000001</ele><time>2026-04-09T10:58:24.999Z</time></trkpt><trkpt lat="37.94526696840749" lon="15.022121025419963"><ele>1020.4</ele><time>2026-04-09T10:58:25.999Z</time></trkpt><trkpt lat="37.945285915701" lon="15.022041963785155"><ele>1014.2</ele><time>2026-04-09T10:58:26.999Z</time></trkpt><trkpt lat="37.94531759308032" lon="15.021901304306244"><ele>1008.0</ele><time>2026-04-09T10:58:28.999Z</time></trkpt><trkpt lat="37.945375117801355" lon="15.021783905729066"><ele>1008.0</ele><time>2026-04-09T10:58:30.999Z</time></trkpt><trkpt lat="37.94542277738656" lon="15.021730780818201"><ele>1008.0</ele><time>2026-04-09T10:58:31.999Z</time></trkpt><trkpt lat="37.94548045402826" lon="15.02167609340008"><ele>1008.0</ele><time>2026-04-09T10:58:32.999Z</time></trkpt><trkpt lat="37.94551642767181" lon="15.021564357936013"><ele>1008.0</ele><time>2026-04-09T10:58:34.999Z</time></trkpt><trkpt lat="37.94553778929816" lon="15.02144314456845"><ele>1008.0</ele><time>2026-04-09T10:58:36.999Z</time></trkpt><trkpt lat="37.94551142127023" lon="15.0213288418551"><ele>1008.0</ele><time>2026-04-09T10:58:38.999Z</time></trkpt><trkpt lat="37.94549117567183" lon="15.021220641649837"><ele>1010.0</ele><time>2026-04-09T10:58:39.999Z</time></trkpt><trkpt lat="37.94549804885705" lon="15.021097784162853"><ele>1012.0</ele><time>2026-04-09T10:58:40.999Z</time></trkpt><trkpt lat="37.94551506444668" lon="15.020988385116329"><ele>1014.0</ele><time>2026-04-09T10:58:41.999Z</time></trkpt><trkpt lat="37.945519712456424" lon="15.020902467059921"><ele>1016.0</ele><time>2026-04-09T10:58:42.999Z</time></trkpt><trkpt lat="37.945515915616234" lon="15.02081822086639"><ele>1018.0</ele><time>2026-04-09T10:58:43.999Z</time></trkpt><trkpt lat="37.94552863023405" lon="15.020709255046361"><ele>1020.0</ele><time>2026-04-09T10:58:44.999Z</time></trkpt><trkpt lat="37.94557691710627" lon="15.020627260669027"><ele>1021.8333333333334</ele><time>2026-04-09T10:58:45.999Z</time></trkpt><trkpt lat="37.94563789138473" lon="15.020578507914898"><ele>1023.6666666666667</ele><time>2026-04-09T10:58:46.999Z</time></trkpt><trkpt lat="37.94569589975109" lon="15.020528054482547"><ele>1025.5</ele><time>2026-04-09T10:58:47.999Z</time></trkpt><trkpt lat="37.945757858375025" lon="15.02046494151934"><ele>1027.3333333333335</ele><time>2026-04-09T10:58:48.999Z</time></trkpt><trkpt lat="37.945848990310914" lon="15.02037915221759"><ele>1029.1666666666667</ele><time>2026-04-09T10:58:50.999Z</time></trkpt><trkpt lat="37.94591724366282" lon="15.020346716138999"><ele>1031.0</ele><time>2026-04-09T10:58:51.999Z</time></trkpt><trkpt lat="37.94599014602142" lon="15.020318493355829"><ele>1025.8333333333335</ele><time>2026-04-09T10:58:52.999Z</time></trkpt><trkpt lat="37.946098990038884" lon="15.020283890686859"><ele>1020.6666666666667</ele><time>2026-04-09T10:58:55Z</time></trkpt><trkpt lat="37.9461683787407" lon="15.020250627670935"><ele>1015.5</ele><time>2026-04-09T10:58:56Z</time></trkpt><trkpt lat="37.9462268717846" lon="15.020205371122579"><ele>1010.3333333333333</ele><time>2026-04-09T10:58:57Z</time></trkpt><trkpt lat="37.946285378872446" lon="15.020156356311333"><ele>1005.1666666666666</ele><time>2026-04-09T10:58:58Z</time></trkpt><trkpt lat="37.94633956679548" lon="15.020109184993661"><ele>1000.0</ele><time>2026-04-09T10:58:59Z</time></trkpt><trkpt lat="37.946398801598235" lon="15.02005634575752"><ele>999.9999999999999</ele><time>2026-04-09T10:59:00Z</time></trkpt><trkpt lat="37.94645063749984" lon="15.020000967103245"><ele>1000.0</ele><time>2026-04-09T10:59:01Z</time></trkpt><trkpt lat="37.946508879617866" lon="15.019927327810933"><ele>1000.0</ele><time>2026-04-09T10:59:02Z</time></trkpt><trkpt lat="37.94655980547112" lon="15.019856346163657"><ele>1000.0</ele><time>2026-04-09T10:59:03Z</time></trkpt><trkpt lat="37.946599092230606" lon="15.019778167472072"><ele>999.9999999999999</ele><time>2026-04-09T10:59:04Z</time></trkpt><trkpt lat="37.946641275627044" lon="15.019663741459642"><ele>1000.0</ele><time>2026-04-09T10:59:05Z</time></trkpt><trkpt lat="37.94668414503565" lon="15.019549132089455"><ele>994.0</ele><time>2026-04-09T10:59:06Z</time></trkpt><trkpt lat="37.94673218563657" lon="15.01944305797872"><ele>988.0</ele><time>2026-04-09T10:59:07Z</time></trkpt><trkpt lat="37.946760499662325" lon="15.019306914717381"><ele>982.0</ele><time>2026-04-09T10:59:09Z</time></trkpt><trkpt lat="37.946715273039025" lon="15.019117331944049"><ele>976.0</ele><time>2026-04-09T10:59:11Z</time></trkpt><trkpt lat="37.94666501908492" lon="15.018992669385668"><ele>976.0</ele><time>2026-04-09T10:59:12Z</time></trkpt><trkpt lat="37.94661998614286" lon="15.018906821389889"><ele>975.9999999999999</ele><time>2026-04-09T10:59:13Z</time></trkpt><trkpt lat="37.94656964297515" lon="15.018818756702233"><ele>975.9999999999999</ele><time>2026-04-09T10:59:14Z</time></trkpt><trkpt lat="37.94651873523822" lon="15.018725809546272"><ele>976.0</ele><time>2026-04-09T10:59:15Z</time></trkpt><trkpt lat="37.946469523895914" lon="15.018663480104316"><ele>976.0</ele><time>2026-04-09T10:59:16Z</time></trkpt><trkpt lat="37.94635439474463" lon="15.018598034983743"><ele>975.9999999999999</ele><time>2026-04-09T10:59:18Z</time></trkpt><trkpt lat="37.94628040928183" lon="15.01858130527434"><ele>976.0</ele><time>2026-04-09T10:59:19Z</time></trkpt><trkpt lat="37.9461908996408" lon="15.01856701877695"><ele>976.0</ele><time>2026-04-09T10:59:20Z</time></trkpt><trkpt lat="37.94611747221832" lon="15.018559716806003"><ele>976.0</ele><time>2026-04-09T10:59:21Z</time></trkpt><trkpt lat="37.94602671495331" lon="15.01855195481001"><ele>975.9999999999999</ele><time>2026-04-09T10:59:22Z</time></trkpt><trkpt lat="37.94594603141105" lon="15.01853429990102"><ele>976.0</ele><time>2026-04-09T10:59:23Z</time></trkpt><trkpt lat="37.94585922900228" lon="15.018517706482289"><ele>973.8333333333333</ele><time>2026-04-09T10:59:24Z</time></trkpt><trkpt lat="37.945794575752736" lon="15.018502448121039"><ele>971.6666666666666</ele><time>2026-04-09T10:59:25Z</time></trkpt><trkpt lat="37.94573437282648" lon="15.018471327084221"><ele>969.5</ele><time>2026-04-09T10:59:26Z</time></trkpt><trkpt lat="37.94569339420875" lon="15.01840069231762"><ele>967.3333333333333</ele><time>2026-04-09T10:59:27Z</time></trkpt><trkpt lat="37.945649440560345" lon="15.0182574703011"><ele>965.1666666666666</ele><time>2026-04-09T10:59:29Z</time></trkpt><trkpt lat="37.945559415404674" lon="15.018169476150439"><ele>963.0</ele><time>2026-04-09T10:59:31Z</time></trkpt><trkpt lat="37.94553116065149" lon="15.018070548308394"><ele>963.0</ele><time>2026-04-09T10:59:33Z</time></trkpt><trkpt lat="37.945499878397264" lon="15.017922952960529"><ele>963.0</ele><time>2026-04-09T10:59:35Z</time></trkpt><trkpt lat="37.94545827919206" lon="15.017854717360951"><ele>963.0</ele><time>2026-04-09T10:59:36Z</time></trkpt><trkpt lat="37.945401236672325" lon="15.01779700238702"><ele>963.0</ele><time>2026-04-09T10:59:37Z</time></trkpt><trkpt lat="37.94535028250343" lon="15.017699374400141"><ele>963.0</ele><time>2026-04-09T10:59:38Z</time></trkpt><trkpt lat="37.94530205502453" lon="15.017626170503302"><ele>963.0</ele><time>2026-04-09T10:59:39Z</time></trkpt><trkpt lat="37.945254393638315" lon="15.017544720891227"><ele>962.2</ele><time>2026-04-09T10:59:40Z</time></trkpt><trkpt lat="37.94520630070401" lon="15.017463461606221"><ele>961.4</ele><time>2026-04-09T10:59:41Z</time></trkpt><trkpt lat="37.945160225673426" lon="15.017401688502135"><ele>960.6000000000001</ele><time>2026-04-09T10:59:42Z</time></trkpt><trkpt lat="37.945078630304394" lon="15.017297434115068"><ele>959.8000000000001</ele><time>2026-04-09T10:59:44Z</time></trkpt><trkpt lat="37.94510033021105" lon="15.017122262545847"><ele>959.0</ele><time>2026-04-09T10:59:46Z</time></trkpt><trkpt lat="37.94514430092645" lon="15.017008693925462"><ele>959.0000000000001</ele><time>2026-04-09T10:59:47Z</time></trkpt><trkpt lat="37.94517633428344" lon="15.016907004751898"><ele>959.0</ele><time>2026-04-09T10:59:48Z</time></trkpt><trkpt lat="37.94521088972288" lon="15.016815639973572"><ele>959.0</ele><time>2026-04-09T10:59:49Z</time></trkpt><trkpt lat="37.9452732994374" lon="15.016739033538393"><ele>959.0</ele><time>2026-04-09T10:59:50Z</time></trkpt><trkpt lat="37.94532379464124" lon="15.01667534379524"><ele>959.0000000000001</ele><time>2026-04-09T10:59:51Z</time></trkpt><trkpt lat="37.945375162001845" lon="15.01661086134554"><ele>959.0</ele><time>2026-04-09T10:59:52Z</time></trkpt><trkpt lat="37.94546101069481" lon="15.01654083222723"><ele>964.6</ele><time>2026-04-09T10:59:54Z</time></trkpt><trkpt lat="37.945479639158776" lon="15.016443729898851"><ele>970.2</ele><time>2026-04-09T10:59:55Z</time></trkpt><trkpt lat="37.94549750798738" lon="15.016312526366347"><ele>975.8000000000001</ele><time>2026-04-09T10:59:56Z</time></trkpt><trkpt lat="37.94553733263361" lon="15.016215645537763"><ele>981.4000000000001</ele><time>2026-04-09T10:59:57Z</time></trkpt><trkpt lat="37.94561422980485" lon="15.016160504136929"><ele>987.0</ele><time>2026-04-09T10:59:58Z</time></trkpt><trkpt lat="37.945704286062245" lon="15.016116583555107"><ele>987.0</ele><time>2026-04-09T10:59:59Z</time></trkpt><trkpt lat="37.9457916525216" lon="15.016067561199595"><ele>987.0</ele><time>2026-04-09T11:00:00Z</time></trkpt><trkpt lat="37.94587370256443" lon="15.01598157557153"><ele>987.0</ele><time>2026-04-09T11:00:01Z</time></trkpt><trkpt lat="37.94595330806219" lon="15.015923663153748"><ele>987.0</ele><time>2026-04-09T11:00:02Z</time></trkpt><trkpt lat="37.94602980252659" lon="15.015847453886515"><ele>987.0</ele><time>2026-04-09T11:00:03Z</time></trkpt><trkpt lat="37.946090738337354" lon="15.015759082060104"><ele>982.6</ele><time>2026-04-09T11:00:04Z</time></trkpt><trkpt lat="37.946151123530235" lon="15.01567204942952"><ele>978.2</ele><time>2026-04-09T11:00:05Z</time></trkpt><trkpt lat="37.946227637317506" lon="15.015601754906553"><ele>973.8</ele><time>2026-04-09T11:00:06Z</time></trkpt><trkpt lat="37.946316891058004" lon="15.015543477764151"><ele>969.4</ele><time>2026-04-09T11:00:07Z</time></trkpt><trkpt lat="37.94640149901817" lon="15.015476550158136"><ele>965.0</ele><time>2026-04-09T11:00:08Z</time></trkpt><trkpt lat="37.94645935312716" lon="15.015405829882164"><ele>965.0000000000001</ele><time>2026-04-09T11:00:09Z</time></trkpt><trkpt lat="37.9465135192781" lon="15.01533831444106"><ele>965.0</ele><time>2026-04-09T11:00:10Z</time></trkpt><trkpt lat="37.9465624220114" lon="15.015282846674632"><ele>965.0</ele><time>2026-04-09T11:00:11Z</time></trkpt><trkpt lat="37.94659167949847" lon="15.015165196171202"><ele>965.0</ele><time>2026-04-09T11:00:13Z</time></trkpt><trkpt lat="37.946528389612894" lon="15.0150408837826"><ele>965.0000000000001</ele><time>2026-04-09T11:00:15Z</time></trkpt><trkpt lat="37.946481881569554" lon="15.014958641806807"><ele>965.0</ele><time>2026-04-09T11:00:15.999Z</time></trkpt><trkpt lat="37.94641419685817" lon="15.014842926191687"><ele>956.0</ele><time>2026-04-09T11:00:16.999Z</time></trkpt><trkpt lat="37.946320710901105" lon="15.014701538597864"><ele>947.0</ele><time>2026-04-09T11:00:17.999Z</time></trkpt><trkpt lat="37.946200985790036" lon="15.014557801208005"><ele>938.0</ele><time>2026-04-09T11:00:18.999Z</time></trkpt><trkpt lat="37.946092671292064" lon="15.014430297312007"><ele>938.0</ele><time>2026-04-09T11:00:19.999Z</time></trkpt><trkpt lat="37.94599878670457" lon="15.014321826769564"><ele>938.0</ele><time>2026-04-09T11:00:20.999Z</time></trkpt><trkpt lat="37.94591047321814" lon="15.014222797078546"><ele>938.0</ele><time>2026-04-09T11:00:21.999Z</time></trkpt><trkpt lat="37.9458424057461" lon="15.014110651047194"><ele>938.0</ele><time>2026-04-09T11:00:22.999Z</time></trkpt><trkpt lat="37.94578892830156" lon="15.014005024596763"><ele>939.5999999999999</ele><time>2026-04-09T11:00:23.999Z</time></trkpt><trkpt lat="37.94573046079134" lon="15.013918794193668"><ele>941.1999999999999</ele><time>2026-04-09T11:00:24.999Z</time></trkpt><trkpt lat="37.945663280817165" lon="15.013844419560808"><ele>942.8</ele><time>2026-04-09T11:00:25.999Z</time></trkpt><trkpt lat="37.94557014557263" lon="15.01377110437177"><ele>944.4</ele><time>2026-04-09T11:00:26.999Z</time></trkpt><trkpt lat="37.945462667073286" lon="15.013697851141103"><ele>946.0</ele><time>2026-04-09T11:00:27.999Z</time></trkpt><trkpt lat="37.94538442221594" lon="15.013625479071974"><ele>945.9999999999999</ele><time>2026-04-09T11:00:28.999Z</time></trkpt><trkpt lat="37.94531442876125" lon="15.01357510676818"><ele>946.0</ele><time>2026-04-09T11:00:29.999Z</time></trkpt><trkpt lat="37.945251125216714" lon="15.013535689657092"><ele>946.0</ele><time>2026-04-09T11:00:30.999Z</time></trkpt><trkpt lat="37.94523030676202" lon="15.013405392441268"><ele>946.0</ele><time>2026-04-09T11:00:32.999Z</time></trkpt><trkpt lat="37.94526481732982" lon="15.013297639051704"><ele>945.9999999999999</ele><time>2026-04-09T11:00:33.999Z</time></trkpt><trkpt lat="37.945312852558814" lon="15.013187711426278"><ele>946.0</ele><time>2026-04-09T11:00:34.999Z</time></trkpt><trkpt lat="37.94532453650563" lon="15.013093003517886"><ele>944.8333333333333</ele><time>2026-04-09T11:00:35.999Z</time></trkpt><trkpt lat="37.94528802548628" lon="15.013007542318721"><ele>943.6666666666666</ele><time>2026-04-09T11:00:36.999Z</time></trkpt><trkpt lat="37.94521359689537" lon="15.012922663671578"><ele>942.5</ele><time>2026-04-09T11:00:37.999Z</time></trkpt><trkpt lat="37.945160941010506" lon="15.012844565743833"><ele>941.3333333333333</ele><time>2026-04-09T11:00:38.999Z</time></trkpt><trkpt lat="37.9451660891555" lon="15.012753424012915"><ele>940.1666666666666</ele><time>2026-04-09T11:00:39.999Z</time></trkpt><trkpt lat="37.945194821341765" lon="15.012641845980609"><ele>939.0</ele><time>2026-04-09T11:00:40.999Z</time></trkpt><trkpt lat="37.94521691677033" lon="15.012522469614206"><ele>935.0</ele><time>2026-04-09T11:00:41.999Z</time></trkpt><trkpt lat="37.94519420718278" lon="15.01242010841031"><ele>931.0000000000001</ele><time>2026-04-09T11:00:42.999Z</time></trkpt><trkpt lat="37.9451246853185" lon="15.01231930694931"><ele>927.0000000000001</ele><time>2026-04-09T11:00:43.999Z</time></trkpt><trkpt lat="37.94507665982724" lon="15.012240833552786"><ele>923.0</ele><time>2026-04-09T11:00:44.999Z</time></trkpt><trkpt lat="37.945063541257625" lon="15.01211565779451"><ele>919.0</ele><time>2026-04-09T11:00:45.999Z</time></trkpt><trkpt lat="37.94507997330969" lon="15.011991185736125"><ele>918.9999999999999</ele><time>2026-04-09T11:00:46.999Z</time></trkpt><trkpt lat="37.9450801399623" lon="15.011906891227644"><ele>919.0</ele><time>2026-04-09T11:00:47.999Z</time></trkpt><trkpt lat="37.94504426074117" lon="15.011828183560949"><ele>919.0</ele><time>2026-04-09T11:00:48.999Z</time></trkpt><trkpt lat="37.944985646473484" lon="15.011736861750393"><ele>919.0</ele><time>2026-04-09T11:00:49.999Z</time></trkpt><trkpt lat="37.94495763138475" lon="15.011627337949736"><ele>918.9999999999999</ele><time>2026-04-09T11:00:50.999Z</time></trkpt><trkpt lat="37.94497510633169" lon="15.011492905576779"><ele>919.0</ele><time>2026-04-09T11:00:51.999Z</time></trkpt><trkpt lat="37.94500289091783" lon="15.011376243406835"><ele>922.25</ele><time>2026-04-09T11:00:52.999Z</time></trkpt><trkpt lat="37.94501949804072" lon="15.011289577558985"><ele>925.5</ele><time>2026-04-09T11:00:53.999Z</time></trkpt><trkpt lat="37.94495898226352" lon="15.011108363793015"><ele>928.75</ele><time>2026-04-09T11:00:55.999Z</time></trkpt><trkpt lat="37.944873930847166" lon="15.010972369873198"><ele>932.0</ele><time>2026-04-09T11:00:56.999Z</time></trkpt><trkpt lat="37.944797043708896" lon="15.01079597740421"><ele>932.0</ele><time>2026-04-09T11:00:57.999Z</time></trkpt><trkpt lat="37.94474891087672" lon="15.010625348507462"><ele>932.0</ele><time>2026-04-09T11:00:59Z</time></trkpt><trkpt lat="37.944705238626575" lon="15.010470420619164"><ele>932.0</ele><time>2026-04-09T11:01:00Z</time></trkpt><trkpt lat="37.94467098892307" lon="15.010329081716057"><ele>932.0</ele><time>2026-04-09T11:01:01Z</time></trkpt><trkpt lat="37.94464890235311" lon="15.010196030632159"><ele>932.0</ele><time>2026-04-09T11:01:02Z</time></trkpt><trkpt lat="37.94464161272867" lon="15.010070570486416"><ele>932.0</ele><time>2026-04-09T11:01:03Z</time></trkpt><trkpt lat="37.94465565000582" lon="15.00995549354349"><ele>932.0</ele><time>2026-04-09T11:01:04Z</time></trkpt><trkpt lat="37.944691366328335" lon="15.009850098629395"><ele>932.0</ele><time>2026-04-09T11:01:05Z</time></trkpt><trkpt lat="37.944735790686885" lon="15.009745375828258"><ele>932.0</ele><time>2026-04-09T11:01:06Z</time></trkpt><trkpt lat="37.944780437340384" lon="15.009646214681224"><ele>930.0000000000001</ele><time>2026-04-09T11:01:07Z</time></trkpt><trkpt lat="37.944817656077966" lon="15.009555052314449"><ele>928.0</ele><time>2026-04-09T11:01:08Z</time></trkpt><trkpt lat="37.9448145442334" lon="15.009463328135208"><ele>926.0</ele><time>2026-04-09T11:01:09Z</time></trkpt><trkpt lat="37.94476583842323" lon="15.009374635345425"><ele>924.0</ele><time>2026-04-09T11:01:10Z</time></trkpt><trkpt lat="37.94470922234572" lon="15.009297585436274"><ele>922.0000000000001</ele><time>2026-04-09T11:01:11Z</time></trkpt><trkpt lat="37.94467563935309" lon="15.009214697314441"><ele>920.0</ele><time>2026-04-09T11:01:12Z</time></trkpt><trkpt lat="37.94468114491253" lon="15.009108982252924"><ele>917.6</ele><time>2026-04-09T11:01:13Z</time></trkpt><trkpt lat="37.9447222997302" lon="15.00901172994728"><ele>915.2</ele><time>2026-04-09T11:01:14Z</time></trkpt><trkpt lat="37.94479073031665" lon="15.00891406633932"><ele>912.8</ele><time>2026-04-09T11:01:15Z</time></trkpt><trkpt lat="37.94486390648608" lon="15.008810836207841"><ele>910.4</ele><time>2026-04-09T11:01:16Z</time></trkpt><trkpt lat="37.94490382238595" lon="15.008706686383706"><ele>908.0</ele><time>2026-04-09T11:01:17Z</time></trkpt><trkpt lat="37.944928843452175" lon="15.00861199823446"><ele>908.0</ele><time>2026-04-09T11:01:18Z</time></trkpt><trkpt lat="37.94493940376134" lon="15.008531884905908"><ele>908.0</ele><time>2026-04-09T11:01:19Z</time></trkpt><trkpt lat="37.94489371135926" lon="15.008426993291783"><ele>908.0</ele><time>2026-04-09T11:01:21Z</time></trkpt><trkpt lat="37.9448122204722" lon="15.008386222342091"><ele>908.0</ele><time>2026-04-09T11:01:23Z</time></trkpt><trkpt lat="37.944726324126755" lon="15.008531289735117"><ele>908.0</ele><time>2026-04-09T11:01:25Z</time></trkpt><trkpt lat="37.94467237954026" lon="15.008672982320176"><ele>908.0</ele><time>2026-04-09T11:01:26Z</time></trkpt><trkpt lat="37.944597203517596" lon="15.008782703224066"><ele>908.0</ele><time>2026-04-09T11:01:27Z</time></trkpt><trkpt lat="37.94450231749994" lon="15.008846390667623"><ele>908.0</ele><time>2026-04-09T11:01:28Z</time></trkpt><trkpt lat="37.94440881975587" lon="15.008893376260243"><ele>908.0</ele><time>2026-04-09T11:01:29Z</time></trkpt><trkpt lat="37.94431270675275" lon="15.008920809388837"><ele>908.0</ele><time>2026-04-09T11:01:30Z</time></trkpt><trkpt lat="37.94423380584975" lon="15.00892724052598"><ele>907.5999999999999</ele><time>2026-04-09T11:01:31Z</time></trkpt><trkpt lat="37.94417401364023" lon="15.008962409435432"><ele>907.1999999999999</ele><time>2026-04-09T11:01:32Z</time></trkpt><trkpt lat="37.94412471260231" lon="15.009059426532778"><ele>906.8</ele><time>2026-04-09T11:01:33Z</time></trkpt><trkpt lat="37.94408179032617" lon="15.009187797831661"><ele>906.4</ele><time>2026-04-09T11:01:34Z</time></trkpt><trkpt lat="37.9440357634449" lon="15.009296924895398"><ele>906.0</ele><time>2026-04-09T11:01:35Z</time></trkpt><trkpt lat="37.94399346790057" lon="15.009407977337185"><ele>906.0</ele><time>2026-04-09T11:01:36Z</time></trkpt><trkpt lat="37.943967846738715" lon="15.009540755762321"><ele>905.9999999999999</ele><time>2026-04-09T11:01:37Z</time></trkpt><trkpt lat="37.94393848296895" lon="15.009669730080974"><ele>905.9999999999999</ele><time>2026-04-09T11:01:38Z</time></trkpt><trkpt lat="37.94387722868818" lon="15.009786587890611"><ele>906.0</ele><time>2026-04-09T11:01:39Z</time></trkpt><trkpt lat="37.94379968473244" lon="15.009891810022326"><ele>906.0</ele><time>2026-04-09T11:01:40Z</time></trkpt><trkpt lat="37.94372026799543" lon="15.009993406777836"><ele>908.8</ele><time>2026-04-09T11:01:41Z</time></trkpt><trkpt lat="37.94365854903884" lon="15.010102962260557"><ele>911.5999999999999</ele><time>2026-04-09T11:01:42Z</time></trkpt><trkpt lat="37.94362506806031" lon="15.010211850463767"><ele>914.4</ele><time>2026-04-09T11:01:43Z</time></trkpt><trkpt lat="37.9436042722598" lon="15.010316287134508"><ele>917.2</ele><time>2026-04-09T11:01:44Z</time></trkpt><trkpt lat="37.943584236117395" lon="15.010419006944867"><ele>920.0</ele><time>2026-04-09T11:01:45Z</time></trkpt><trkpt lat="37.94352625573124" lon="15.01051724418319"><ele>920.0</ele><time>2026-04-09T11:01:46Z</time></trkpt><trkpt lat="37.94342446055455" lon="15.010596434471244"><ele>920.0</ele><time>2026-04-09T11:01:47Z</time></trkpt><trkpt lat="37.943298895665855" lon="15.010617331216643"><ele>920.0</ele><time>2026-04-09T11:01:48Z</time></trkpt><trkpt lat="37.94317485409611" lon="15.010669885382791"><ele>920.0</ele><time>2026-04-09T11:01:49Z</time></trkpt><trkpt lat="37.94305133021061" lon="15.01070634042071"><ele>910.6</ele><time>2026-04-09T11:01:50Z</time></trkpt><trkpt lat="37.94295309760797" lon="15.010761649175633"><ele>901.2</ele><time>2026-04-09T11:01:51Z</time></trkpt><trkpt lat="37.94285553014421" lon="15.010759656162204"><ele>891.8</ele><time>2026-04-09T11:01:52Z</time></trkpt><trkpt lat="37.94277605945503" lon="15.01071773944822"><ele>882.4</ele><time>2026-04-09T11:01:53Z</time></trkpt><trkpt lat="37.94267724988687" lon="15.010705284703093"><ele>873.0</ele><time>2026-04-09T11:01:54Z</time></trkpt><trkpt lat="37.94259957251829" lon="15.010684757538861"><ele>874.8333333333334</ele><time>2026-04-09T11:01:55Z</time></trkpt><trkpt lat="37.94252686091241" lon="15.01070893029585"><ele>876.6666666666667</ele><time>2026-04-09T11:01:56Z</time></trkpt><trkpt lat="37.9424555376031" lon="15.010778031616907"><ele>878.5</ele><time>2026-04-09T11:01:57Z</time></trkpt><trkpt lat="37.942396230150166" lon="15.010865221829564"><ele>880.3333333333334</ele><time>2026-04-09T11:01:58Z</time></trkpt><trkpt lat="37.94233222164294" lon="15.010923629747845"><ele>882.1666666666667</ele><time>2026-04-09T11:01:59Z</time></trkpt><trkpt lat="37.942234181133806" lon="15.010893006768521"><ele>884.0</ele><time>2026-04-09T11:02:00Z</time></trkpt><trkpt lat="37.94214152858413" lon="15.010948798393882"><ele>884.0</ele><time>2026-04-09T11:02:01Z</time></trkpt><trkpt lat="37.94203189854863" lon="15.011010119106523"><ele>884.0000000000001</ele><time>2026-04-09T11:02:02Z</time></trkpt><trkpt lat="37.94193511837011" lon="15.011052070750315"><ele>884.0000000000001</ele><time>2026-04-09T11:02:03Z</time></trkpt><trkpt lat="37.94185384299746" lon="15.011111410257648"><ele>884.0</ele><time>2026-04-09T11:02:04Z</time></trkpt><trkpt lat="37.94177670279132" lon="15.011160576174476"><ele>884.0</ele><time>2026-04-09T11:02:05Z</time></trkpt><trkpt lat="37.94171861153286" lon="15.011219506126816"><ele>885.0</ele><time>2026-04-09T11:02:06Z</time></trkpt><trkpt lat="37.941676712013134" lon="15.01130590408741"><ele>886.0000000000001</ele><time>2026-04-09T11:02:07Z</time></trkpt><trkpt lat="37.94164122763399" lon="15.011435525507705"><ele>887.0000000000001</ele><time>2026-04-09T11:02:08Z</time></trkpt><trkpt lat="37.94158409908525" lon="15.011535535593643"><ele>888.0</ele><time>2026-04-09T11:02:09Z</time></trkpt><trkpt lat="37.94152449347514" lon="15.011615376501455"><ele>889.0</ele><time>2026-04-09T11:02:10Z</time></trkpt><trkpt lat="37.941476426825105" lon="15.011701135173046"><ele>888.9999999999999</ele><time>2026-04-09T11:02:11Z</time></trkpt><trkpt lat="37.94142343399765" lon="15.011769452909805"><ele>889.0</ele><time>2026-04-09T11:02:12Z</time></trkpt><trkpt lat="37.941378723786976" lon="15.01182704748771"><ele>889.0</ele><time>2026-04-09T11:02:13Z</time></trkpt><trkpt lat="37.94127819870913" lon="15.011787768266872"><ele>889.0</ele><time>2026-04-09T11:02:15Z</time></trkpt><trkpt lat="37.9412129595409" lon="15.01174730452248"><ele>888.9999999999999</ele><time>2026-04-09T11:02:16Z</time></trkpt><trkpt lat="37.94118795905236" lon="15.01165347818516"><ele>889.0</ele><time>2026-04-09T11:02:17Z</time></trkpt><trkpt lat="37.94115784254055" lon="15.01155593108347"><ele>883.4999999999999</ele><time>2026-04-09T11:02:18Z</time></trkpt><trkpt lat="37.94114217219761" lon="15.01147221789802"><ele>878.0</ele><time>2026-04-09T11:02:19Z</time></trkpt><trkpt lat="37.94112089968183" lon="15.011391838442819"><ele>872.5</ele><time>2026-04-09T11:02:20Z</time></trkpt><trkpt lat="37.9410725553014" lon="15.011265006542782"><ele>867.0</ele><time>2026-04-09T11:02:22Z</time></trkpt><trkpt lat="37.94100009030934" lon="15.011270656102457"><ele>861.4999999999999</ele><time>2026-04-09T11:02:23Z</time></trkpt><trkpt lat="37.940928203546655" lon="15.011357995549366"><ele>856.0</ele><time>2026-04-09T11:02:24Z</time></trkpt><trkpt lat="37.94081231918173" lon="15.01143673851771"><ele>852.0</ele><time>2026-04-09T11:02:25Z</time></trkpt><trkpt lat="37.94069856360033" lon="15.011510394864462"><ele>847.9999999999999</ele><time>2026-04-09T11:02:26Z</time></trkpt><trkpt lat="37.940598316177464" lon="15.011563369164712"><ele>844.0</ele><time>2026-04-09T11:02:27Z</time></trkpt><trkpt lat="37.940492292022" lon="15.011610925618973"><ele>840.0</ele><time>2026-04-09T11:02:28Z</time></trkpt><trkpt lat="37.94040085415406" lon="15.01164085047445"><ele>836.0</ele><time>2026-04-09T11:02:29Z</time></trkpt><trkpt lat="37.94032089380216" lon="15.011640779286363"><ele>836.0</ele><time>2026-04-09T11:02:30Z</time></trkpt><trkpt lat="37.940250069687124" lon="15.011591776013969"><ele>836.0</ele><time>2026-04-09T11:02:31Z</time></trkpt><trkpt lat="37.940149134550765" lon="15.011595090902414"><ele>836.0</ele><time>2026-04-09T11:02:32Z</time></trkpt><trkpt lat="37.94002915079099" lon="15.01159779797194"><ele>836.0</ele><time>2026-04-09T11:02:33Z</time></trkpt><trkpt lat="37.93992758343257" lon="15.011548926268118"><ele>836.0</ele><time>2026-04-09T11:02:34Z</time></trkpt><trkpt lat="37.93984329178137" lon="15.011500489123103"><ele>831.1999999999999</ele><time>2026-04-09T11:02:35Z</time></trkpt><trkpt lat="37.939749737335724" lon="15.011467656785413"><ele>826.4</ele><time>2026-04-09T11:02:36Z</time></trkpt><trkpt lat="37.93963889007502" lon="15.011508714321247"><ele>821.6</ele><time>2026-04-09T11:02:37Z</time></trkpt><trkpt lat="37.93953624972891" lon="15.01149586937183"><ele>816.8</ele><time>2026-04-09T11:02:38Z</time></trkpt><trkpt lat="37.93944179283061" lon="15.011475524669414"><ele>812.0</ele><time>2026-04-09T11:02:39Z</time></trkpt><trkpt lat="37.939355125966074" lon="15.011475297995595"><ele>812.0000000000001</ele><time>2026-04-09T11:02:39.999Z</time></trkpt><trkpt lat="37.93928621519046" lon="15.011464630742985"><ele>812.0</ele><time>2026-04-09T11:02:40.999Z</time></trkpt><trkpt lat="37.93922100105274" lon="15.011496295243447"><ele>812.0</ele><time>2026-04-09T11:02:41.999Z</time></trkpt><trkpt lat="37.939181744283594" lon="15.011626411427702"><ele>812.0</ele><time>2026-04-09T11:02:42.999Z</time></trkpt><trkpt lat="37.93913067555508" lon="15.011735813239351"><ele>812.0000000000001</ele><time>2026-04-09T11:02:43.999Z</time></trkpt><trkpt lat="37.93910243743759" lon="15.011828719897679"><ele>812.0</ele><time>2026-04-09T11:02:44.999Z</time></trkpt><trkpt lat="37.93908788643288" lon="15.011926461453168"><ele>810.0</ele><time>2026-04-09T11:02:45.999Z</time></trkpt><trkpt lat="37.93903017461478" lon="15.012019402921899"><ele>808.0</ele><time>2026-04-09T11:02:47.999Z</time></trkpt><trkpt lat="37.938948073252675" lon="15.011907023550759"><ele>806.0</ele><time>2026-04-09T11:02:50.999Z</time></trkpt><trkpt lat="37.93891787542202" lon="15.011814504970562"><ele>804.0</ele><time>2026-04-09T11:02:51.999Z</time></trkpt><trkpt lat="37.93888566557924" lon="15.011694700580781"><ele>802.0</ele><time>2026-04-09T11:02:52.999Z</time></trkpt><trkpt lat="37.93884490038267" lon="15.011607255307021"><ele>801.9999999999999</ele><time>2026-04-09T11:02:53.999Z</time></trkpt><trkpt lat="37.938801499999784" lon="15.011546922364625"><ele>802.0</ele><time>2026-04-09T11:02:54.999Z</time></trkpt><trkpt lat="37.93874623999403" lon="15.011506523298449"><ele>802.0</ele><time>2026-04-09T11:02:55.999Z</time></trkpt><trkpt lat="37.93866295014958" lon="15.011478295835813"><ele>802.0</ele><time>2026-04-09T11:02:56.999Z</time></trkpt><trkpt lat="37.938569497688306" lon="15.011454552766313"><ele>801.9999999999999</ele><time>2026-04-09T11:02:57.999Z</time></trkpt><trkpt lat="37.93848547406061" lon="15.011420658926413"><ele>802.0</ele><time>2026-04-09T11:02:58.999Z</time></trkpt><trkpt lat="37.93839561890345" lon="15.011393963034784"><ele>800.4000000000001</ele><time>2026-04-09T11:02:59.999Z</time></trkpt><trkpt lat="37.938298067005405" lon="15.011357873948205"><ele>798.8000000000001</ele><time>2026-04-09T11:03:00.999Z</time></trkpt><trkpt lat="37.93821005790757" lon="15.011319272091521"><ele>797.2</ele><time>2026-04-09T11:03:01.999Z</time></trkpt><trkpt lat="37.93813679045014" lon="15.011278541019662"><ele>795.6</ele><time>2026-04-09T11:03:02.999Z</time></trkpt><trkpt lat="37.93807544135888" lon="15.011214923738354"><ele>794.0</ele><time>2026-04-09T11:03:03.999Z</time></trkpt><trkpt lat="37.937951455221175" lon="15.011172718196685"><ele>794.0</ele><time>2026-04-09T11:03:06Z</time></trkpt><trkpt lat="37.93783733875615" lon="15.01121333817785"><ele>794.0</ele><time>2026-04-09T11:03:07Z</time></trkpt><trkpt lat="37.93772631611045" lon="15.011228289205972"><ele>794.0</ele><time>2026-04-09T11:03:08Z</time></trkpt><trkpt lat="37.93764150676454" lon="15.011250595608573"><ele>794.0</ele><time>2026-04-09T11:03:09Z</time></trkpt><trkpt lat="37.93755569679897" lon="15.01123605292463"><ele>794.0</ele><time>2026-04-09T11:03:10Z</time></trkpt><trkpt lat="37.937457483891116" lon="15.0112343075327"><ele>795.1666666666667</ele><time>2026-04-09T11:03:11Z</time></trkpt><trkpt lat="37.93736744117513" lon="15.011234693104814"><ele>796.3333333333334</ele><time>2026-04-09T11:03:12Z</time></trkpt><trkpt lat="37.937298478107685" lon="15.011257718922854"><ele>797.5</ele><time>2026-04-09T11:03:13Z</time></trkpt><trkpt lat="37.937208685308896" lon="15.011283807215076"><ele>798.6666666666667</ele><time>2026-04-09T11:03:15Z</time></trkpt><trkpt lat="37.93714215655225" lon="15.011198362046903"><ele>799.8333333333334</ele><time>2026-04-09T11:03:17Z</time></trkpt><trkpt lat="37.93710286951816" lon="15.011107432906853"><ele>801.0</ele><time>2026-04-09T11:03:18Z</time></trkpt><trkpt lat="37.93706102088071" lon="15.01100261351531"><ele>801.0</ele><time>2026-04-09T11:03:19Z</time></trkpt><trkpt lat="37.937011643264555" lon="15.01090433187168"><ele>801.0</ele><time>2026-04-09T11:03:20Z</time></trkpt><trkpt lat="37.93693215833457" lon="15.010799528550237"><ele>801.0</ele><time>2026-04-09T11:03:21Z</time></trkpt><trkpt lat="37.936881552588375" lon="15.01068192688658"><ele>801.0</ele><time>2026-04-09T11:03:22Z</time></trkpt><trkpt lat="37.93684357368741" lon="15.010596108481838"><ele>801.0</ele><time>2026-04-09T11:03:23Z</time></trkpt><trkpt lat="37.936848350005704" lon="15.010480421789914"><ele>801.1999999999999</ele><time>2026-04-09T11:03:24Z</time></trkpt><trkpt lat="37.93685236402431" lon="15.01038872115142"><ele>801.4</ele><time>2026-04-09T11:03:25Z</time></trkpt><trkpt lat="37.936811605538246" lon="15.010248715622787"><ele>801.6</ele><time>2026-04-09T11:03:27Z</time></trkpt><trkpt lat="37.93673292726371" lon="15.010200156616245"><ele>801.8</ele><time>2026-04-09T11:03:28Z</time></trkpt><trkpt lat="37.93664293331094" lon="15.010145196658643"><ele>802.0</ele><time>2026-04-09T11:03:29Z</time></trkpt><trkpt lat="37.93655311471208" lon="15.010099824578484"><ele>801.9999999999999</ele><time>2026-04-09T11:03:30Z</time></trkpt><trkpt lat="37.93647732765093" lon="15.01005728507702"><ele>802.0</ele><time>2026-04-09T11:03:31Z</time></trkpt><trkpt lat="37.936410415331565" lon="15.01000517777208"><ele>802.0</ele><time>2026-04-09T11:03:32Z</time></trkpt><trkpt lat="37.936348143936094" lon="15.009940743033383"><ele>802.0</ele><time>2026-04-09T11:03:33Z</time></trkpt><trkpt lat="37.93629548751899" lon="15.00987501615024"><ele>801.9999999999999</ele><time>2026-04-09T11:03:34Z</time></trkpt><trkpt lat="37.936232852049606" lon="15.00984521583419"><ele>802.0</ele><time>2026-04-09T11:03:35Z</time></trkpt><trkpt lat="37.93615044429792" lon="15.009824035729707"><ele>799.3333333333333</ele><time>2026-04-09T11:03:36Z</time></trkpt><trkpt lat="37.93607809183732" lon="15.009792118508946"><ele>796.6666666666666</ele><time>2026-04-09T11:03:37Z</time></trkpt><trkpt lat="37.93599165741838" lon="15.009791437951185"><ele>794.0</ele><time>2026-04-09T11:03:38Z</time></trkpt><trkpt lat="37.935913820808985" lon="15.009811420525995"><ele>791.3333333333333</ele><time>2026-04-09T11:03:39Z</time></trkpt><trkpt lat="37.935835409792475" lon="15.009806061310977"><ele>788.6666666666666</ele><time>2026-04-09T11:03:40Z</time></trkpt><trkpt lat="37.93576226645687" lon="15.009809852065988"><ele>786.0</ele><time>2026-04-09T11:03:41Z</time></trkpt><trkpt lat="37.93569475145022" lon="15.009792278074729"><ele>786.0</ele><time>2026-04-09T11:03:42Z</time></trkpt><trkpt lat="37.93562184604045" lon="15.0097955133534"><ele>786.0</ele><time>2026-04-09T11:03:43Z</time></trkpt><trkpt lat="37.93554594161548" lon="15.009815959665676"><ele>786.0</ele><time>2026-04-09T11:03:44Z</time></trkpt><trkpt lat="37.93547956412859" lon="15.009821996534274"><ele>786.0</ele><time>2026-04-09T11:03:45Z</time></trkpt><trkpt lat="37.93536662198665" lon="15.00983961359818"><ele>786.0</ele><time>2026-04-09T11:03:47Z</time></trkpt><trkpt lat="37.93530006801681" lon="15.009829759917732"><ele>786.0</ele><time>2026-04-09T11:03:49Z</time></trkpt><trkpt lat="37.93522821088424" lon="15.009798831092567"><ele>786.0</ele><time>2026-04-09T11:04:19Z</time></trkpt><trkpt lat="37.93511681191348" lon="15.009620771007599"><ele>786.0</ele><time>2026-04-09T11:04:20.999Z</time></trkpt><trkpt lat="37.93500858460503" lon="15.009581744151026"><ele>786.0</ele><time>2026-04-09T11:04:21.999Z</time></trkpt><trkpt lat="37.93492387427217" lon="15.009545721190626"><ele>786.0</ele><time>2026-04-09T11:04:22.999Z</time></trkpt><trkpt lat="37.93486619949057" lon="15.009489475359079"><ele>786.0</ele><time>2026-04-09T11:04:23.999Z</time></trkpt><trkpt lat="37.93484011649437" lon="15.009409127423417"><ele>786.0</ele><time>2026-04-09T11:04:24.999Z</time></trkpt><trkpt lat="37.93486209384723" lon="15.009315188275243"><ele>786.0</ele><time>2026-04-09T11:04:25.999Z</time></trkpt><trkpt lat="37.93503321790706" lon="15.009237575750063"><ele>786.0</ele><time>2026-04-09T11:04:27.999Z</time></trkpt><trkpt lat="37.935161718503394" lon="15.009235652945314"><ele>786.0</ele><time>2026-04-09T11:04:28.999Z</time></trkpt><trkpt lat="37.93530385880521" lon="15.009228429652438"><ele>786.0</ele><time>2026-04-09T11:04:29.999Z</time></trkpt><trkpt lat="37.93543345270818" lon="15.009196724429046"><ele>786.0</ele><time>2026-04-09T11:04:30.999Z</time></trkpt><trkpt lat="37.93554157292849" lon="15.009158648223833"><ele>786.0</ele><time>2026-04-09T11:04:31.999Z</time></trkpt><trkpt lat="37.9356319752139" lon="15.009101260967132"><ele>781.8333333333334</ele><time>2026-04-09T11:04:32.999Z</time></trkpt><trkpt lat="37.93572166407556" lon="15.009053337115123"><ele>777.6666666666666</ele><time>2026-04-09T11:04:33.999Z</time></trkpt><trkpt lat="37.93578276148828" lon="15.009032289212211"><ele>773.5</ele><time>2026-04-09T11:04:34.999Z</time></trkpt><trkpt lat="37.935827708655" lon="15.00896590715465"><ele>769.3333333333333</ele><time>2026-04-09T11:04:35.999Z</time></trkpt><trkpt lat="37.93583648781618" lon="15.008880391376751"><ele>765.1666666666666</ele><time>2026-04-09T11:04:36.999Z</time></trkpt><trkpt lat="37.935810974986666" lon="15.008783586296822"><ele>761.0</ele><time>2026-04-09T11:04:37.999Z</time></trkpt><trkpt lat="37.9357108392695" lon="15.008764207286054"><ele>761.0</ele><time>2026-04-09T11:04:38.999Z</time></trkpt><trkpt lat="37.935617220533615" lon="15.008763558008665"><ele>761.0</ele><time>2026-04-09T11:04:39.999Z</time></trkpt><trkpt lat="37.93551908570249" lon="15.008732463370542"><ele>761.0</ele><time>2026-04-09T11:04:40.999Z</time></trkpt><trkpt lat="37.93541803470458" lon="15.00871957936576"><ele>761.0</ele><time>2026-04-09T11:04:41.999Z</time></trkpt><trkpt lat="37.93532330590362" lon="15.008707522759703"><ele>761.0</ele><time>2026-04-09T11:04:42.999Z</time></trkpt><trkpt lat="37.93523386912284" lon="15.008696286026927"><ele>761.0</ele><time>2026-04-09T11:04:43.999Z</time></trkpt><trkpt lat="37.93514858688917" lon="15.008685571261164"><ele>761.0</ele><time>2026-04-09T11:04:44.999Z</time></trkpt><trkpt lat="37.93506967137588" lon="15.008674196957429"><ele>761.0</ele><time>2026-04-09T11:04:45.999Z</time></trkpt><trkpt lat="37.93499822331777" lon="15.008659652117153"><ele>761.0</ele><time>2026-04-09T11:04:46.999Z</time></trkpt><trkpt lat="37.93493435814243" lon="15.008656182375756"><ele>761.0</ele><time>2026-04-09T11:04:47.999Z</time></trkpt><trkpt lat="37.93489960006246" lon="15.00854321307414"><ele>761.0</ele><time>2026-04-09T11:04:49.999Z</time></trkpt><trkpt lat="37.93498411948522" lon="15.00838053498239"><ele>761.0</ele><time>2026-04-09T11:04:52.999Z</time></trkpt><trkpt lat="37.935060988258904" lon="15.008361907110988"><ele>761.0</ele><time>2026-04-09T11:04:53.999Z</time></trkpt><trkpt lat="37.935146172500005" lon="15.008367225327708"><ele>761.0</ele><time>2026-04-09T11:04:54.999Z</time></trkpt><trkpt lat="37.93522672750146" lon="15.008371066945429"><ele>761.0</ele><time>2026-04-09T11:04:55.999Z</time></trkpt><trkpt lat="37.93529966546299" lon="15.008364081451845"><ele>761.0</ele><time>2026-04-09T11:04:56.999Z</time></trkpt><trkpt lat="37.93537323407284" lon="15.008348844168065"><ele>761.0</ele><time>2026-04-09T11:04:57.998Z</time></trkpt><trkpt lat="37.935445376975984" lon="15.008328509700725"><ele>758.3333333333333</ele><time>2026-04-09T11:04:58.998Z</time></trkpt><trkpt lat="37.93551913758368" lon="15.00830107653416"><ele>755.6666666666666</ele><time>2026-04-09T11:04:59.998Z</time></trkpt><trkpt lat="37.935585308497785" lon="15.008272176270623"><ele>753.0</ele><time>2026-04-09T11:05:00.998Z</time></trkpt><trkpt lat="37.9356505751343" lon="15.00823683362963"><ele>750.3333333333334</ele><time>2026-04-09T11:05:01.998Z</time></trkpt><trkpt lat="37.93571374049178" lon="15.008199724170614"><ele>747.6666666666667</ele><time>2026-04-09T11:05:02.998Z</time></trkpt><trkpt lat="37.935792807524614" lon="15.00816294697463"><ele>745.0</ele><time>2026-04-09T11:05:03.998Z</time></trkpt><trkpt lat="37.935875245284905" lon="15.008124019266873"><ele>745.1666666666667</ele><time>2026-04-09T11:05:04.998Z</time></trkpt><trkpt lat="37.93596058226177" lon="15.00807722750716"><ele>745.3333333333334</ele><time>2026-04-09T11:05:05.998Z</time></trkpt><trkpt lat="37.93604503817648" lon="15.008031222986471"><ele>745.5</ele><time>2026-04-09T11:05:06.998Z</time></trkpt><trkpt lat="37.93612011587152" lon="15.007994484156592"><ele>745.6666666666666</ele><time>2026-04-09T11:05:07.998Z</time></trkpt><trkpt lat="37.93619514458369" lon="15.007959519695532"><ele>745.8333333333333</ele><time>2026-04-09T11:05:08.998Z</time></trkpt><trkpt lat="37.936278561596296" lon="15.007920235049355"><ele>746.0</ele><time>2026-04-09T11:05:09.998Z</time></trkpt><trkpt lat="37.93637280807549" lon="15.00786869466331"><ele>746.0</ele><time>2026-04-09T11:05:10.999Z</time></trkpt><trkpt lat="37.93648126158553" lon="15.007807072787484"><ele>746.0</ele><time>2026-04-09T11:05:11.999Z</time></trkpt><trkpt lat="37.936604599289694" lon="15.007752462460594"><ele>746.0</ele><time>2026-04-09T11:05:12.999Z</time></trkpt><trkpt lat="37.93672121545095" lon="15.00774503566028"><ele>746.0</ele><time>2026-04-09T11:05:13.999Z</time></trkpt><trkpt lat="37.936824702728416" lon="15.00780542718101"><ele>743.75</ele><time>2026-04-09T11:05:14.999Z</time></trkpt><trkpt lat="37.93692506312611" lon="15.00790579180175"><ele>741.5</ele><time>2026-04-09T11:05:15.999Z</time></trkpt><trkpt lat="37.93699869805709" lon="15.00798595262836"><ele>739.25</ele><time>2026-04-09T11:05:16.999Z</time></trkpt><trkpt lat="37.937113846057976" lon="15.008026866576449"><ele>737.0</ele><time>2026-04-09T11:05:17.999Z</time></trkpt><trkpt lat="37.93723122474419" lon="15.008028151844773"><ele>737.0</ele><time>2026-04-09T11:05:18.999Z</time></trkpt><trkpt lat="37.93733691432995" lon="15.007998842679747"><ele>737.0</ele><time>2026-04-09T11:05:19.999Z</time></trkpt><trkpt lat="37.93742358715146" lon="15.007967450651476"><ele>737.0</ele><time>2026-04-09T11:05:20.999Z</time></trkpt><trkpt lat="37.937513866440504" lon="15.00795250926948"><ele>737.0</ele><time>2026-04-09T11:05:22.999Z</time></trkpt><trkpt lat="37.93750369420222" lon="15.00783012513608"><ele>737.0</ele><time>2026-04-09T11:05:25.999Z</time></trkpt><trkpt lat="37.93741699664944" lon="15.007808893793536"><ele>737.0</ele><time>2026-04-09T11:05:26.999Z</time></trkpt><trkpt lat="37.93732075273451" lon="15.007732500555212"><ele>737.0</ele><time>2026-04-09T11:05:27.999Z</time></trkpt><trkpt lat="37.937186854156586" lon="15.007666909729895"><ele>737.0</ele><time>2026-04-09T11:05:28.999Z</time></trkpt><trkpt lat="37.93705965746401" lon="15.007587368197294"><ele>737.0</ele><time>2026-04-09T11:05:29.999Z</time></trkpt><trkpt lat="37.93693501164367" lon="15.007517520619457"><ele>733.75</ele><time>2026-04-09T11:05:30.999Z</time></trkpt><trkpt lat="37.93681797750533" lon="15.00744740528687"><ele>730.5</ele><time>2026-04-09T11:05:31.999Z</time></trkpt><trkpt lat="37.93670850461988" lon="15.007398244980031"><ele>727.25</ele><time>2026-04-09T11:05:32.999Z</time></trkpt><trkpt lat="37.9365880342913" lon="15.007395871594841"><ele>724.0</ele><time>2026-04-09T11:05:33.999Z</time></trkpt><trkpt lat="37.93645716760591" lon="15.007433732050321"><ele>731.3333333333334</ele><time>2026-04-09T11:05:34.999Z</time></trkpt><trkpt lat="37.93632077664528" lon="15.007513512057633"><ele>738.6666666666666</ele><time>2026-04-09T11:05:35.999Z</time></trkpt><trkpt lat="37.93616953984057" lon="15.007568441116026"><ele>746.0</ele><time>2026-04-09T11:05:36.999Z</time></trkpt><trkpt lat="37.93601877991084" lon="15.00764482589494"><ele>745.6666666666666</ele><time>2026-04-09T11:05:37.999Z</time></trkpt><trkpt lat="37.93586105509205" lon="15.007729013563088"><ele>745.3333333333334</ele><time>2026-04-09T11:05:38.999Z</time></trkpt><trkpt lat="37.9357002271912" lon="15.007810236051784"><ele>745.0</ele><time>2026-04-09T11:05:39.999Z</time></trkpt><trkpt lat="37.935569262733566" lon="15.007851011614036"><ele>745.0</ele><time>2026-04-09T11:05:40.999Z</time></trkpt><trkpt lat="37.935463595295985" lon="15.007905984900562"><ele>745.0</ele><time>2026-04-09T11:05:41.999Z</time></trkpt><trkpt lat="37.93537548254748" lon="15.007921886807177"><ele>745.0</ele><time>2026-04-09T11:05:42.999Z</time></trkpt><trkpt lat="37.93528626590287" lon="15.007933679859294"><ele>745.0</ele><time>2026-04-09T11:05:44.999Z</time></trkpt><trkpt lat="37.93522055045916" lon="15.007916321800717"><ele>745.0</ele><time>2026-04-09T11:05:46.999Z</time></trkpt><trkpt lat="37.93514911379355" lon="15.007907166465827"><ele>745.0</ele><time>2026-04-09T11:05:49.999Z</time></trkpt><trkpt lat="37.93508586531943" lon="15.007897101554628"><ele>744.4</ele><time>2026-04-09T11:05:52.999Z</time></trkpt><trkpt lat="37.93502701061171" lon="15.007858705026917"><ele>743.8</ele><time>2026-04-09T11:05:55.999Z</time></trkpt><trkpt lat="37.935000443254076" lon="15.007626265078349"><ele>743.2</ele><time>2026-04-09T11:05:58.999Z</time></trkpt><trkpt lat="37.93495957028676" lon="15.007539605733943"><ele>742.6</ele><time>2026-04-09T11:06:00.999Z</time></trkpt><trkpt lat="37.93494631814046" lon="15.007457385251142"><ele>742.0</ele><time>2026-04-09T11:06:02.999Z</time></trkpt><trkpt lat="37.93495774983186" lon="15.007365169415568"><ele>738.6666666666667</ele><time>2026-04-09T11:06:55.999Z</time></trkpt><trkpt lat="37.9349964124734" lon="15.007286714747382"><ele>735.3333333333334</ele><time>2026-04-09T11:07:48.999Z</time></trkpt><trkpt lat="37.935017757447525" lon="15.007206521901146"><ele>732.0</ele><time>2026-04-09T11:07:50.999Z</time></trkpt><trkpt lat="37.93497489419712" lon="15.007096608720985"><ele>728.6666666666666</ele><time>2026-04-09T11:07:52.999Z</time></trkpt><trkpt lat="37.93498756941238" lon="15.006991442245765"><ele>725.3333333333333</ele><time>2026-04-09T11:07:54.999Z</time></trkpt><trkpt lat="37.93506141660058" lon="15.006911443604892"><ele>722.0</ele><time>2026-04-09T11:07:57.999Z</time></trkpt><trkpt lat="37.93510561075319" lon="15.0068355256303"><ele>722.0</ele><time>2026-04-09T11:07:59.999Z</time></trkpt><trkpt lat="37.935139253226836" lon="15.00674279457997"><ele>722.0</ele><time>2026-04-09T11:08:01.999Z</time></trkpt><trkpt lat="37.93516925681444" lon="15.006668094114913"><ele>722.0</ele><time>2026-04-09T11:08:03.999Z</time></trkpt><trkpt lat="37.9351629926201" lon="15.006572534439366"><ele>722.0</ele><time>2026-04-09T11:08:06.999Z</time></trkpt><trkpt lat="37.93508677833032" lon="15.006525450314406"><ele>722.0</ele><time>2026-04-09T11:08:08.999Z</time></trkpt><trkpt lat="37.9350221613186" lon="15.006513795110477"><ele>722.0</ele><time>2026-04-09T11:08:10.999Z</time></trkpt><trkpt lat="37.93508772120231" lon="15.006523551303347"><ele>722.0</ele><time>2026-04-09T11:11:41Z</time></trkpt><trkpt lat="37.93515959330708" lon="15.006560126856083"><ele>717.6</ele><time>2026-04-09T11:11:43Z</time></trkpt><trkpt lat="37.93522265666084" lon="15.006572498873865"><ele>713.2</ele><time>2026-04-09T11:11:47Z</time></trkpt><trkpt lat="37.93525045280491" lon="15.006449292235883"><ele>708.8</ele><time>2026-04-09T11:11:49Z</time></trkpt><trkpt lat="37.93530429670745" lon="15.006321167742387"><ele>704.4</ele><time>2026-04-09T11:11:51Z</time></trkpt><trkpt lat="37.93535055360404" lon="15.006186607933298"><ele>700.0</ele><time>2026-04-09T11:11:53Z</time></trkpt><trkpt lat="37.93538331009771" lon="15.006100605802397"><ele>700.0</ele><time>2026-04-09T11:11:55Z</time></trkpt><trkpt lat="37.93543724724529" lon="15.006049830739487"><ele>700.0</ele><time>2026-04-09T11:11:57Z</time></trkpt><trkpt lat="37.935501477341056" lon="15.006002550253063"><ele>700.0</ele><time>2026-04-09T11:11:59Z</time></trkpt><trkpt lat="37.93556563435155" lon="15.005986262940626"><ele>700.0</ele><time>2026-04-09T11:12:22Z</time></trkpt><trkpt lat="37.935581658002924" lon="15.005905721104716"><ele>700.0</ele><time>2026-04-09T11:14:42Z</time></trkpt><trkpt lat="37.93565724530355" lon="15.005880930343677"><ele>700.0</ele><time>2026-04-09T11:14:44Z</time></trkpt><trkpt lat="37.935716821865185" lon="15.005814770742647"><ele>700.0</ele><time>2026-04-09T11:14:46Z</time></trkpt><trkpt lat="37.93577073738491" lon="15.005759623402483"><ele>697.0</ele><time>2026-04-09T11:14:48Z</time></trkpt><trkpt lat="37.935824217764754" lon="15.005696486776072"><ele>694.0</ele><time>2026-04-09T11:14:51Z</time></trkpt><trkpt lat="37.9358848471502" lon="15.005663461078374"><ele>691.0</ele><time>2026-04-09T11:15:10.999Z</time></trkpt><trkpt lat="37.93591134250401" lon="15.005589357777303"><ele>688.0</ele><time>2026-04-09T11:15:23.999Z</time></trkpt><trkpt lat="37.935915617733755" lon="15.005497353691633"><ele>685.0</ele><time>2026-04-09T11:15:27.999Z</time></trkpt><trkpt lat="37.93596032233619" lon="15.00543575853377"><ele>682.0</ele><time>2026-04-09T11:15:30.999Z</time></trkpt><trkpt lat="37.936003721703024" lon="15.005369078198735"><ele>679.0</ele><time>2026-04-09T11:15:32.999Z</time></trkpt><trkpt lat="37.93602811072162" lon="15.005255339411155"><ele>678.1428571428571</ele><time>2026-04-09T11:15:34.999Z</time></trkpt><trkpt lat="37.93604433228725" lon="15.005173337999228"><ele>677.2857142857142</ele><time>2026-04-09T11:15:37.999Z</time></trkpt><trkpt lat="37.936010593432" lon="15.005098326321477"><ele>676.4285714285714</ele><time>2026-04-09T11:15:48Z</time></trkpt><trkpt lat="37.93604196625195" lon="15.00518441594631"><ele>675.5714285714286</ele><time>2026-04-09T11:22:37Z</time></trkpt><trkpt lat="37.93602168432566" lon="15.005303166247336"><ele>674.7142857142857</ele><time>2026-04-09T11:22:39.999Z</time></trkpt><trkpt lat="37.93599001150018" lon="15.00537351458533"><ele>673.8571428571429</ele><time>2026-04-09T11:22:41.999Z</time></trkpt><trkpt lat="37.935936883411344" lon="15.005432120687413"><ele>673.0</ele><time>2026-04-09T11:22:44.999Z</time></trkpt><trkpt lat="37.93591255221412" lon="15.005521922526848"><ele>673.0</ele><time>2026-04-09T11:22:48.999Z</time></trkpt><trkpt lat="37.935903699554025" lon="15.005609031782868"><ele>673.0</ele><time>2026-04-09T11:23:11.999Z</time></trkpt><trkpt lat="37.93585984326288" lon="15.00568238293147"><ele>673.0</ele><time>2026-04-09T11:24:55.999Z</time></trkpt><trkpt lat="37.93580563346969" lon="15.005737507221431"><ele>673.0</ele><time>2026-04-09T11:25:19.999Z</time></trkpt><trkpt lat="37.93573897205834" lon="15.00580337993946"><ele>673.0</ele><time>2026-04-09T11:25:23.999Z</time></trkpt><trkpt lat="37.9356780408773" lon="15.005853499554123"><ele>673.0</ele><time>2026-04-09T11:25:25.999Z</time></trkpt><trkpt lat="37.935609631208074" lon="15.0059056747776"><ele>673.0</ele><time>2026-04-09T11:25:27.999Z</time></trkpt><trkpt lat="37.93555465572455" lon="15.005948117742083"><ele>677.5</ele><time>2026-04-09T11:25:29.999Z</time></trkpt><trkpt lat="37.93548105081243" lon="15.006008742023893"><ele>682.0</ele><time>2026-04-09T11:31:34Z</time></trkpt><trkpt lat="37.93542003971261" lon="15.006061441531218"><ele>686.5</ele><time>2026-04-09T11:31:36Z</time></trkpt><trkpt lat="37.93536505173859" lon="15.006150532239825"><ele>691.0</ele><time>2026-04-09T11:31:39Z</time></trkpt><trkpt lat="37.9353370140996" lon="15.006228924701364"><ele>695.5</ele><time>2026-04-09T11:31:41Z</time></trkpt><trkpt lat="37.93530829274023" lon="15.00631407910145"><ele>700.0</ele><time>2026-04-09T11:31:43Z</time></trkpt><trkpt lat="37.93527769740983" lon="15.006400683879443"><ele>700.0</ele><time>2026-04-09T11:31:45Z</time></trkpt><trkpt lat="37.93523315915597" lon="15.006504542661537"><ele>700.0</ele><time>2026-04-09T11:31:47Z</time></trkpt><trkpt lat="37.93520030620226" lon="15.006573811184966"><ele>700.0</ele><time>2026-04-09T11:31:49Z</time></trkpt><trkpt lat="37.93516144124694" lon="15.006681727862748"><ele>700.0</ele><time>2026-04-09T11:31:53Z</time></trkpt><trkpt lat="37.93512912854273" lon="15.006778596848372"><ele>700.0</ele><time>2026-04-09T11:31:55Z</time></trkpt><trkpt lat="37.935083104051" lon="15.006882364202424"><ele>700.0</ele><time>2026-04-09T11:31:57Z</time></trkpt><trkpt lat="37.935014737044995" lon="15.006955265171154"><ele>704.0</ele><time>2026-04-09T11:32:00Z</time></trkpt><trkpt lat="37.934973931471376" lon="15.007047035372722"><ele>708.0</ele><time>2026-04-09T11:32:02Z</time></trkpt><trkpt lat="37.934977593686774" lon="15.007156239030945"><ele>712.0</ele><time>2026-04-09T11:32:04Z</time></trkpt><trkpt lat="37.93502589236048" lon="15.007270947887518"><ele>716.0</ele><time>2026-04-09T11:32:06Z</time></trkpt><trkpt lat="37.93499187637538" lon="15.00737312052567"><ele>720.0</ele><time>2026-04-09T11:32:08Z</time></trkpt><trkpt lat="37.934954125691675" lon="15.007481467591196"><ele>723.1428571428571</ele><time>2026-04-09T11:33:21Z</time></trkpt><trkpt lat="37.934971714797264" lon="15.007590278916556"><ele>726.2857142857143</ele><time>2026-04-09T11:33:41Z</time></trkpt><trkpt lat="37.9350323639924" lon="15.007659780674357"><ele>729.4285714285714</ele><time>2026-04-09T11:33:43Z</time></trkpt><trkpt lat="37.93504480101933" lon="15.007739045176391"><ele>732.5714285714286</ele><time>2026-04-09T11:33:45Z</time></trkpt><trkpt lat="37.93505494827227" lon="15.007822248388317"><ele>735.7142857142858</ele><time>2026-04-09T11:33:47Z</time></trkpt><trkpt lat="37.93509812053611" lon="15.00788081028026"><ele>738.8571428571429</ele><time>2026-04-09T11:33:49Z</time></trkpt><trkpt lat="37.93512818908419" lon="15.00795342439147"><ele>742.0</ele><time>2026-04-09T11:39:35Z</time></trkpt><trkpt lat="37.93504159873317" lon="15.007930630166433"><ele>742.0</ele><time>2026-04-09T11:39:38Z</time></trkpt><trkpt lat="37.934972624602956" lon="15.00790471449643"><ele>742.0</ele><time>2026-04-09T11:39:39Z</time></trkpt><trkpt lat="37.934899985903236" lon="15.007901043490564"><ele>742.0</ele><time>2026-04-09T11:39:40Z</time></trkpt><trkpt lat="37.93482745894751" lon="15.007902082338058"><ele>742.0</ele><time>2026-04-09T11:39:41Z</time></trkpt><trkpt lat="37.93474579661272" lon="15.007935825363433"><ele>742.0</ele><time>2026-04-09T11:39:42Z</time></trkpt><trkpt lat="37.9346890194231" lon="15.00798392529362"><ele>742.0</ele><time>2026-04-09T11:39:43Z</time></trkpt><trkpt lat="37.93464776613836" lon="15.008080361506195"><ele>742.0</ele><time>2026-04-09T11:39:44Z</time></trkpt><trkpt lat="37.934604376494555" lon="15.008171384511964"><ele>742.0</ele><time>2026-04-09T11:39:45Z</time></trkpt><trkpt lat="37.9345630503288" lon="15.008262814102316"><ele>742.0</ele><time>2026-04-09T11:39:46Z</time></trkpt><trkpt lat="37.934516781563566" lon="15.00833449119528"><ele>742.0</ele><time>2026-04-09T11:39:47Z</time></trkpt><trkpt lat="37.93442250578966" lon="15.0084434600806"><ele>742.0</ele><time>2026-04-09T11:39:49Z</time></trkpt><trkpt lat="37.93434671783674" lon="15.008460419942251"><ele>742.0</ele><time>2026-04-09T11:39:50Z</time></trkpt><trkpt lat="37.9342835929897" lon="15.008453082665833"><ele>741.4285714285714</ele><time>2026-04-09T11:39:51Z</time></trkpt><trkpt lat="37.93424084235188" lon="15.008369887465644"><ele>740.8571428571429</ele><time>2026-04-09T11:39:52Z</time></trkpt><trkpt lat="37.93417936873081" lon="15.008317589521825"><ele>740.2857142857142</ele><time>2026-04-09T11:39:53Z</time></trkpt><trkpt lat="37.9341250469192" lon="15.008266158956644"><ele>739.7142857142858</ele><time>2026-04-09T11:39:54Z</time></trkpt><trkpt lat="37.934107937398245" lon="15.008177763059749"><ele>739.1428571428571</ele><time>2026-04-09T11:39:55Z</time></trkpt><trkpt lat="37.93408654891986" lon="15.008095833484703"><ele>738.5714285714286</ele><time>2026-04-09T11:39:56Z</time></trkpt><trkpt lat="37.934045775418845" lon="15.00801644930808"><ele>738.0</ele><time>2026-04-09T11:39:57Z</time></trkpt><trkpt lat="37.93400462899112" lon="15.00794376394687"><ele>738.0</ele><time>2026-04-09T11:39:58Z</time></trkpt><trkpt lat="37.93396644543761" lon="15.00787631413797"><ele>738.0</ele><time>2026-04-09T11:39:59Z</time></trkpt><trkpt lat="37.93383956594056" lon="15.007916327437881"><ele>738.0</ele><time>2026-04-09T11:40:00Z</time></trkpt><trkpt lat="37.93371493342546" lon="15.007914934788388"><ele>738.0</ele><time>2026-04-09T11:40:02Z</time></trkpt><trkpt lat="37.93359552801658" lon="15.007954346653188"><ele>738.0</ele><time>2026-04-09T11:40:04Z</time></trkpt><trkpt lat="37.93354040547489" lon="15.008012723033342"><ele>738.0</ele><time>2026-04-09T11:40:05Z</time></trkpt><trkpt lat="37.93347412025693" lon="15.00805491443198"><ele>738.0</ele><time>2026-04-09T11:40:06Z</time></trkpt><trkpt lat="37.93340186122153" lon="15.008077738779734"><ele>738.0</ele><time>2026-04-09T11:40:07Z</time></trkpt><trkpt lat="37.93334063980236" lon="15.008106222343379"><ele>738.0</ele><time>2026-04-09T11:40:08Z</time></trkpt><trkpt lat="37.9332833130206" lon="15.008154373997959"><ele>738.0</ele><time>2026-04-09T11:40:09Z</time></trkpt><trkpt lat="37.933222925369016" lon="15.00823462836502"><ele>738.0</ele><time>2026-04-09T11:40:11Z</time></trkpt><trkpt lat="37.93316639743695" lon="15.008306305751141"><ele>743.6666666666666</ele><time>2026-04-09T11:40:13Z</time></trkpt><trkpt lat="37.93306633828649" lon="15.008327453852182"><ele>749.3333333333333</ele><time>2026-04-09T11:40:15Z</time></trkpt><trkpt lat="37.93296699020223" lon="15.008360887139686"><ele>755.0</ele><time>2026-04-09T11:40:17Z</time></trkpt><trkpt lat="37.93289438909524" lon="15.008355402476887"><ele>760.6666666666666</ele><time>2026-04-09T11:40:19Z</time></trkpt><trkpt lat="37.93281078033146" lon="15.008413346768842"><ele>766.3333333333333</ele><time>2026-04-09T11:40:22Z</time></trkpt><trkpt lat="37.93275578871692" lon="15.008454050127977"><ele>772.0</ele><time>2026-04-09T11:40:24Z</time></trkpt><trkpt lat="37.93270612021307" lon="15.008531499213175"><ele>772.0</ele><time>2026-04-09T11:40:27Z</time></trkpt><trkpt lat="37.93268903314771" lon="15.008621742445563"><ele>772.0</ele><time>2026-04-09T11:41:36.999Z</time></trkpt><trkpt lat="37.93275354931404" lon="15.00850361744503"><ele>772.0</ele><time>2026-04-09T11:42:37.03Z</time></trkpt><trkpt lat="37.932796940224" lon="15.008626319397816"><ele>772.0</ele><time>2026-04-09T11:42:49.03Z</time></trkpt><trkpt lat="37.9327137767015" lon="15.008672026530572"><ele>772.0</ele><time>2026-04-09T11:42:51.999Z</time></trkpt></trkseg></trk></gpx>